<?xml version="1.0" encoding="UTF-8" standalone="no" ?>
<gpx xmlns="http://www.topografix.com/GPX/1/1" xmlns:xsi="http://www.w3.org/2001/XMLSchema-instance" xsi:schemaLocation="http://www.topografix.com/GPX/1/1 http://www.topografix.com/GPX/1/1/gpx.xsd" version="1.1" creator="VisuGPX - https://www.visugpx.com">
  <metadata>
    <name>dec 30 mai</name>
    <desc><![CDATA[decouverte brignais avec antoine le 30 mai 2017]]></desc>
  </metadata>
  <trk>
    <name><![CDATA[Brignais Cyclisme]]></name>
    <trkseg>
      <trkpt lat="45.67399" lon="4.76485">
        <ele>155.39999389648</ele>
        <time>2017-05-31T07:51:26.000Z</time>
      </trkpt>
      <trkpt lat="45.67399" lon="4.76485">
        <ele>155.39999389648</ele>
        <time>2017-05-31T07:51:27.000Z</time>
      </trkpt>
      <trkpt lat="45.67401" lon="4.76487">
        <ele>155.19999694824</ele>
        <time>2017-05-31T07:57:23.000Z</time>
      </trkpt>
      <trkpt lat="45.67405" lon="4.76493">
        <ele>155.19999694824</ele>
        <time>2017-05-31T07:57:26.000Z</time>
      </trkpt>
      <trkpt lat="45.6742" lon="4.76514">
        <ele>155.19999694824</ele>
        <time>2017-05-31T07:57:35.000Z</time>
      </trkpt>
      <trkpt lat="45.6743" lon="4.7653">
        <ele>155.19999694824</ele>
        <time>2017-05-31T07:57:42.000Z</time>
      </trkpt>
      <trkpt lat="45.67443" lon="4.7655">
        <ele>155.19999694824</ele>
        <time>2017-05-31T07:57:51.000Z</time>
      </trkpt>
      <trkpt lat="45.67443" lon="4.76558">
        <ele>155.19999694824</ele>
        <time>2017-05-31T07:57:54.000Z</time>
      </trkpt>
      <trkpt lat="45.67441" lon="4.76559">
        <ele>155.19999694824</ele>
        <time>2017-05-31T07:57:55.000Z</time>
      </trkpt>
      <trkpt lat="45.67436" lon="4.7656">
        <ele>155.19999694824</ele>
        <time>2017-05-31T07:57:57.000Z</time>
      </trkpt>
      <trkpt lat="45.67429" lon="4.76556">
        <ele>155.19999694824</ele>
        <time>2017-05-31T07:58:00.000Z</time>
      </trkpt>
      <trkpt lat="45.67418" lon="4.76541">
        <ele>155.19999694824</ele>
        <time>2017-05-31T07:58:04.000Z</time>
      </trkpt>
      <trkpt lat="45.67401" lon="4.76511">
        <ele>155.19999694824</ele>
        <time>2017-05-31T07:58:11.000Z</time>
      </trkpt>
      <trkpt lat="45.67398" lon="4.76507">
        <ele>155.19999694824</ele>
        <time>2017-05-31T07:58:12.000Z</time>
      </trkpt>
      <trkpt lat="45.67384" lon="4.76485">
        <ele>155.19999694824</ele>
        <time>2017-05-31T07:58:17.000Z</time>
      </trkpt>
      <trkpt lat="45.67374" lon="4.76472">
        <ele>155.19999694824</ele>
        <time>2017-05-31T07:58:20.000Z</time>
      </trkpt>
      <trkpt lat="45.67371" lon="4.76469">
        <ele>155.19999694824</ele>
        <time>2017-05-31T07:58:21.000Z</time>
      </trkpt>
      <trkpt lat="45.67344" lon="4.76444">
        <ele>155.19999694824</ele>
        <time>2017-05-31T07:58:28.000Z</time>
      </trkpt>
      <trkpt lat="45.67307" lon="4.76408">
        <ele>155.19999694824</ele>
        <time>2017-05-31T07:58:37.000Z</time>
      </trkpt>
      <trkpt lat="45.67266" lon="4.76361">
        <ele>155.19999694824</ele>
        <time>2017-05-31T07:58:47.000Z</time>
      </trkpt>
      <trkpt lat="45.67243" lon="4.76335">
        <ele>154.80000305176</ele>
        <time>2017-05-31T07:58:53.000Z</time>
      </trkpt>
      <trkpt lat="45.67239" lon="4.76331">
        <ele>154.39999389648</ele>
        <time>2017-05-31T07:58:54.000Z</time>
      </trkpt>
      <trkpt lat="45.67235" lon="4.76328">
        <ele>154</ele>
        <time>2017-05-31T07:58:55.000Z</time>
      </trkpt>
      <trkpt lat="45.67231" lon="4.76324">
        <ele>153.60000610352</ele>
        <time>2017-05-31T07:58:56.000Z</time>
      </trkpt>
      <trkpt lat="45.67227" lon="4.76321">
        <ele>153.19999694824</ele>
        <time>2017-05-31T07:58:57.000Z</time>
      </trkpt>
      <trkpt lat="45.67223" lon="4.76317">
        <ele>153.19999694824</ele>
        <time>2017-05-31T07:58:58.000Z</time>
      </trkpt>
      <trkpt lat="45.67175" lon="4.76277">
        <ele>153.19999694824</ele>
        <time>2017-05-31T07:59:09.000Z</time>
      </trkpt>
      <trkpt lat="45.67165" lon="4.76271">
        <ele>153.19999694824</ele>
        <time>2017-05-31T07:59:11.000Z</time>
      </trkpt>
      <trkpt lat="45.67126" lon="4.76252">
        <ele>153.19999694824</ele>
        <time>2017-05-31T07:59:19.000Z</time>
      </trkpt>
      <trkpt lat="45.67071" lon="4.76233">
        <ele>153.19999694824</ele>
        <time>2017-05-31T07:59:30.000Z</time>
      </trkpt>
      <trkpt lat="45.67066" lon="4.76232">
        <ele>153.19999694824</ele>
        <time>2017-05-31T07:59:31.000Z</time>
      </trkpt>
      <trkpt lat="45.67046" lon="4.76224">
        <ele>153.19999694824</ele>
        <time>2017-05-31T07:59:37.000Z</time>
      </trkpt>
      <trkpt lat="45.67044" lon="4.76219">
        <ele>153.19999694824</ele>
        <time>2017-05-31T07:59:38.000Z</time>
      </trkpt>
      <trkpt lat="45.67043" lon="4.76205">
        <ele>153.19999694824</ele>
        <time>2017-05-31T07:59:41.000Z</time>
      </trkpt>
      <trkpt lat="45.67044" lon="4.76197">
        <ele>153.19999694824</ele>
        <time>2017-05-31T07:59:43.000Z</time>
      </trkpt>
      <trkpt lat="45.67047" lon="4.76177">
        <ele>153.19999694824</ele>
        <time>2017-05-31T07:59:47.000Z</time>
      </trkpt>
      <trkpt lat="45.67049" lon="4.76142">
        <ele>153.19999694824</ele>
        <time>2017-05-31T07:59:55.000Z</time>
      </trkpt>
      <trkpt lat="45.6705" lon="4.76114">
        <ele>153.19999694824</ele>
        <time>2017-05-31T08:00:04.000Z</time>
      </trkpt>
      <trkpt lat="45.67039" lon="4.76101">
        <ele>153.19999694824</ele>
        <time>2017-05-31T08:00:11.000Z</time>
      </trkpt>
      <trkpt lat="45.67021" lon="4.76104">
        <ele>153.19999694824</ele>
        <time>2017-05-31T08:00:16.000Z</time>
      </trkpt>
      <trkpt lat="45.67002" lon="4.76108">
        <ele>153.19999694824</ele>
        <time>2017-05-31T08:00:22.000Z</time>
      </trkpt>
      <trkpt lat="45.66973" lon="4.76111">
        <ele>153.19999694824</ele>
        <time>2017-05-31T08:00:30.000Z</time>
      </trkpt>
      <trkpt lat="45.6694" lon="4.76114">
        <ele>153.19999694824</ele>
        <time>2017-05-31T08:00:39.000Z</time>
      </trkpt>
      <trkpt lat="45.66906" lon="4.76116">
        <ele>153.19999694824</ele>
        <time>2017-05-31T08:00:48.000Z</time>
      </trkpt>
      <trkpt lat="45.66868" lon="4.76117">
        <ele>153.19999694824</ele>
        <time>2017-05-31T08:00:58.000Z</time>
      </trkpt>
      <trkpt lat="45.66834" lon="4.76107">
        <ele>153.19999694824</ele>
        <time>2017-05-31T08:01:06.000Z</time>
      </trkpt>
      <trkpt lat="45.66816" lon="4.76097">
        <ele>153.19999694824</ele>
        <time>2017-05-31T08:01:10.000Z</time>
      </trkpt>
      <trkpt lat="45.66808" lon="4.76091">
        <ele>153.19999694824</ele>
        <time>2017-05-31T08:01:12.000Z</time>
      </trkpt>
      <trkpt lat="45.66781" lon="4.76062">
        <ele>153.19999694824</ele>
        <time>2017-05-31T08:01:19.000Z</time>
      </trkpt>
      <trkpt lat="45.66762" lon="4.76028">
        <ele>153.19999694824</ele>
        <time>2017-05-31T08:01:26.000Z</time>
      </trkpt>
      <trkpt lat="45.66753" lon="4.76003">
        <ele>153.19999694824</ele>
        <time>2017-05-31T08:01:31.000Z</time>
      </trkpt>
      <trkpt lat="45.66749" lon="4.75993">
        <ele>153.19999694824</ele>
        <time>2017-05-31T08:01:33.000Z</time>
      </trkpt>
      <trkpt lat="45.66737" lon="4.75958">
        <ele>153.19999694824</ele>
        <time>2017-05-31T08:01:40.000Z</time>
      </trkpt>
      <trkpt lat="45.66727" lon="4.75929">
        <ele>153.19999694824</ele>
        <time>2017-05-31T08:01:47.000Z</time>
      </trkpt>
      <trkpt lat="45.66725" lon="4.75893">
        <ele>153.19999694824</ele>
        <time>2017-05-31T08:01:55.000Z</time>
      </trkpt>
      <trkpt lat="45.66723" lon="4.75888">
        <ele>153.19999694824</ele>
        <time>2017-05-31T08:01:56.000Z</time>
      </trkpt>
      <trkpt lat="45.66714" lon="4.75876">
        <ele>153.19999694824</ele>
        <time>2017-05-31T08:01:59.000Z</time>
      </trkpt>
      <trkpt lat="45.66697" lon="4.75829">
        <ele>153.19999694824</ele>
        <time>2017-05-31T08:02:07.000Z</time>
      </trkpt>
      <trkpt lat="45.66682" lon="4.75777">
        <ele>153.19999694824</ele>
        <time>2017-05-31T08:02:15.000Z</time>
      </trkpt>
      <trkpt lat="45.66667" lon="4.75728">
        <ele>153.19999694824</ele>
        <time>2017-05-31T08:02:25.000Z</time>
      </trkpt>
      <trkpt lat="45.66656" lon="4.75687">
        <ele>153.19999694824</ele>
        <time>2017-05-31T08:02:32.000Z</time>
      </trkpt>
      <trkpt lat="45.66654" lon="4.75675">
        <ele>153.19999694824</ele>
        <time>2017-05-31T08:02:34.000Z</time>
      </trkpt>
      <trkpt lat="45.66653" lon="4.75669">
        <ele>152.80000305176</ele>
        <time>2017-05-31T08:02:35.000Z</time>
      </trkpt>
      <trkpt lat="45.66652" lon="4.75663">
        <ele>152.39999389648</ele>
        <time>2017-05-31T08:02:36.000Z</time>
      </trkpt>
      <trkpt lat="45.66652" lon="4.75657">
        <ele>152</ele>
        <time>2017-05-31T08:02:37.000Z</time>
      </trkpt>
      <trkpt lat="45.66651" lon="4.7565">
        <ele>151.60000610352</ele>
        <time>2017-05-31T08:02:38.000Z</time>
      </trkpt>
      <trkpt lat="45.66651" lon="4.75644">
        <ele>151.19999694824</ele>
        <time>2017-05-31T08:02:39.000Z</time>
      </trkpt>
      <trkpt lat="45.66651" lon="4.7562">
        <ele>151.19999694824</ele>
        <time>2017-05-31T08:02:43.000Z</time>
      </trkpt>
      <trkpt lat="45.66651" lon="4.756">
        <ele>151.19999694824</ele>
        <time>2017-05-31T08:02:46.000Z</time>
      </trkpt>
      <trkpt lat="45.66653" lon="4.75582">
        <ele>151.19999694824</ele>
        <time>2017-05-31T08:02:49.000Z</time>
      </trkpt>
      <trkpt lat="45.66658" lon="4.75531">
        <ele>151.19999694824</ele>
        <time>2017-05-31T08:02:58.000Z</time>
      </trkpt>
      <trkpt lat="45.66659" lon="4.75498">
        <ele>151.60000610352</ele>
        <time>2017-05-31T08:03:04.000Z</time>
      </trkpt>
      <trkpt lat="45.6666" lon="4.75493">
        <ele>152</ele>
        <time>2017-05-31T08:03:05.000Z</time>
      </trkpt>
      <trkpt lat="45.6666" lon="4.75487">
        <ele>152.39999389648</ele>
        <time>2017-05-31T08:03:06.000Z</time>
      </trkpt>
      <trkpt lat="45.66661" lon="4.75482">
        <ele>153</ele>
        <time>2017-05-31T08:03:07.000Z</time>
      </trkpt>
      <trkpt lat="45.66661" lon="4.75476">
        <ele>153.39999389648</ele>
        <time>2017-05-31T08:03:08.000Z</time>
      </trkpt>
      <trkpt lat="45.66666" lon="4.75433">
        <ele>153.39999389648</ele>
        <time>2017-05-31T08:03:16.000Z</time>
      </trkpt>
      <trkpt lat="45.6667" lon="4.75384">
        <ele>153.39999389648</ele>
        <time>2017-05-31T08:03:24.000Z</time>
      </trkpt>
      <trkpt lat="45.66673" lon="4.75356">
        <ele>153.80000305176</ele>
        <time>2017-05-31T08:03:29.000Z</time>
      </trkpt>
      <trkpt lat="45.66673" lon="4.75351">
        <ele>154.19999694824</ele>
        <time>2017-05-31T08:03:30.000Z</time>
      </trkpt>
      <trkpt lat="45.66674" lon="4.75346">
        <ele>154.60000610352</ele>
        <time>2017-05-31T08:03:31.000Z</time>
      </trkpt>
      <trkpt lat="45.66674" lon="4.75342">
        <ele>155</ele>
        <time>2017-05-31T08:03:32.000Z</time>
      </trkpt>
      <trkpt lat="45.66675" lon="4.75337">
        <ele>155.39999389648</ele>
        <time>2017-05-31T08:03:33.000Z</time>
      </trkpt>
      <trkpt lat="45.66676" lon="4.75302">
        <ele>155.39999389648</ele>
        <time>2017-05-31T08:03:41.000Z</time>
      </trkpt>
      <trkpt lat="45.66682" lon="4.75282">
        <ele>155.39999389648</ele>
        <time>2017-05-31T08:03:47.000Z</time>
      </trkpt>
      <trkpt lat="45.667" lon="4.75267">
        <ele>155.39999389648</ele>
        <time>2017-05-31T08:03:54.000Z</time>
      </trkpt>
      <trkpt lat="45.66721" lon="4.75269">
        <ele>155.39999389648</ele>
        <time>2017-05-31T08:04:00.000Z</time>
      </trkpt>
      <trkpt lat="45.66744" lon="4.75272">
        <ele>155.39999389648</ele>
        <time>2017-05-31T08:04:07.000Z</time>
      </trkpt>
      <trkpt lat="45.66776" lon="4.75278">
        <ele>155.39999389648</ele>
        <time>2017-05-31T08:04:15.000Z</time>
      </trkpt>
      <trkpt lat="45.66789" lon="4.75279">
        <ele>155.39999389648</ele>
        <time>2017-05-31T08:04:18.000Z</time>
      </trkpt>
      <trkpt lat="45.66806" lon="4.75281">
        <ele>155.39999389648</ele>
        <time>2017-05-31T08:04:22.000Z</time>
      </trkpt>
      <trkpt lat="45.66815" lon="4.75282">
        <ele>155.39999389648</ele>
        <time>2017-05-31T08:04:24.000Z</time>
      </trkpt>
      <trkpt lat="45.66831" lon="4.75285">
        <ele>155.39999389648</ele>
        <time>2017-05-31T08:04:28.000Z</time>
      </trkpt>
      <trkpt lat="45.66836" lon="4.75286">
        <ele>155.39999389648</ele>
        <time>2017-05-31T08:04:29.000Z</time>
      </trkpt>
      <trkpt lat="45.66869" lon="4.7529">
        <ele>155.39999389648</ele>
        <time>2017-05-31T08:04:37.000Z</time>
      </trkpt>
      <trkpt lat="45.66895" lon="4.75294">
        <ele>155.39999389648</ele>
        <time>2017-05-31T08:04:43.000Z</time>
      </trkpt>
      <trkpt lat="45.66923" lon="4.75297">
        <ele>155.39999389648</ele>
        <time>2017-05-31T08:04:51.000Z</time>
      </trkpt>
      <trkpt lat="45.66942" lon="4.75301">
        <ele>155.39999389648</ele>
        <time>2017-05-31T08:04:58.000Z</time>
      </trkpt>
      <trkpt lat="45.66967" lon="4.75302">
        <ele>155.39999389648</ele>
        <time>2017-05-31T08:05:06.000Z</time>
      </trkpt>
      <trkpt lat="45.66991" lon="4.75305">
        <ele>155.39999389648</ele>
        <time>2017-05-31T08:05:14.000Z</time>
      </trkpt>
      <trkpt lat="45.67021" lon="4.75308">
        <ele>155.39999389648</ele>
        <time>2017-05-31T08:05:23.000Z</time>
      </trkpt>
      <trkpt lat="45.67048" lon="4.7531">
        <ele>155.39999389648</ele>
        <time>2017-05-31T08:05:31.000Z</time>
      </trkpt>
      <trkpt lat="45.67058" lon="4.75314">
        <ele>155.39999389648</ele>
        <time>2017-05-31T08:05:36.000Z</time>
      </trkpt>
      <trkpt lat="45.67079" lon="4.75313">
        <ele>155.39999389648</ele>
        <time>2017-05-31T08:05:44.000Z</time>
      </trkpt>
      <trkpt lat="45.67081" lon="4.75311">
        <ele>155.39999389648</ele>
        <time>2017-05-31T08:05:45.000Z</time>
      </trkpt>
      <trkpt lat="45.67083" lon="4.75307">
        <ele>155.39999389648</ele>
        <time>2017-05-31T08:05:47.000Z</time>
      </trkpt>
      <trkpt lat="45.67083" lon="4.75286">
        <ele>155.39999389648</ele>
        <time>2017-05-31T08:05:53.000Z</time>
      </trkpt>
      <trkpt lat="45.6708" lon="4.7525">
        <ele>155.39999389648</ele>
        <time>2017-05-31T08:06:00.000Z</time>
      </trkpt>
      <trkpt lat="45.67068" lon="4.75205">
        <ele>155.39999389648</ele>
        <time>2017-05-31T08:06:08.000Z</time>
      </trkpt>
      <trkpt lat="45.67043" lon="4.75131">
        <ele>155.39999389648</ele>
        <time>2017-05-31T08:06:21.000Z</time>
      </trkpt>
      <trkpt lat="45.67027" lon="4.75072">
        <ele>155.80000305176</ele>
        <time>2017-05-31T08:06:31.000Z</time>
      </trkpt>
      <trkpt lat="45.67025" lon="4.75066">
        <ele>156.19999694824</ele>
        <time>2017-05-31T08:06:32.000Z</time>
      </trkpt>
      <trkpt lat="45.67024" lon="4.7506">
        <ele>156.60000610352</ele>
        <time>2017-05-31T08:06:33.000Z</time>
      </trkpt>
      <trkpt lat="45.67023" lon="4.75054">
        <ele>157</ele>
        <time>2017-05-31T08:06:34.000Z</time>
      </trkpt>
      <trkpt lat="45.67021" lon="4.75048">
        <ele>157.39999389648</ele>
        <time>2017-05-31T08:06:35.000Z</time>
      </trkpt>
      <trkpt lat="45.67017" lon="4.75031">
        <ele>157.39999389648</ele>
        <time>2017-05-31T08:06:38.000Z</time>
      </trkpt>
      <trkpt lat="45.67013" lon="4.75013">
        <ele>157.39999389648</ele>
        <time>2017-05-31T08:06:41.000Z</time>
      </trkpt>
      <trkpt lat="45.67011" lon="4.75007">
        <ele>157.39999389648</ele>
        <time>2017-05-31T08:06:42.000Z</time>
      </trkpt>
      <trkpt lat="45.67001" lon="4.74987">
        <ele>157.39999389648</ele>
        <time>2017-05-31T08:06:46.000Z</time>
      </trkpt>
      <trkpt lat="45.66997" lon="4.74977">
        <ele>157.39999389648</ele>
        <time>2017-05-31T08:06:48.000Z</time>
      </trkpt>
      <trkpt lat="45.66989" lon="4.7495">
        <ele>157.80000305176</ele>
        <time>2017-05-31T08:06:53.000Z</time>
      </trkpt>
      <trkpt lat="45.66987" lon="4.74944">
        <ele>158.19999694824</ele>
        <time>2017-05-31T08:06:54.000Z</time>
      </trkpt>
      <trkpt lat="45.66986" lon="4.74939">
        <ele>158.60000610352</ele>
        <time>2017-05-31T08:06:55.000Z</time>
      </trkpt>
      <trkpt lat="45.66984" lon="4.74933">
        <ele>159</ele>
        <time>2017-05-31T08:06:56.000Z</time>
      </trkpt>
      <trkpt lat="45.66983" lon="4.74928">
        <ele>159.39999389648</ele>
        <time>2017-05-31T08:06:57.000Z</time>
      </trkpt>
      <trkpt lat="45.66981" lon="4.74916">
        <ele>159.39999389648</ele>
        <time>2017-05-31T08:06:59.000Z</time>
      </trkpt>
      <trkpt lat="45.66978" lon="4.74883">
        <ele>159.39999389648</ele>
        <time>2017-05-31T08:07:05.000Z</time>
      </trkpt>
      <trkpt lat="45.66979" lon="4.74844">
        <ele>160</ele>
        <time>2017-05-31T08:07:12.000Z</time>
      </trkpt>
      <trkpt lat="45.66979" lon="4.74839">
        <ele>160.39999389648</ele>
        <time>2017-05-31T08:07:13.000Z</time>
      </trkpt>
      <trkpt lat="45.66979" lon="4.74835">
        <ele>160.80000305176</ele>
        <time>2017-05-31T08:07:14.000Z</time>
      </trkpt>
      <trkpt lat="45.66979" lon="4.74831">
        <ele>161.19999694824</ele>
        <time>2017-05-31T08:07:15.000Z</time>
      </trkpt>
      <trkpt lat="45.6698" lon="4.74826">
        <ele>161.60000610352</ele>
        <time>2017-05-31T08:07:16.000Z</time>
      </trkpt>
      <trkpt lat="45.66981" lon="4.74796">
        <ele>162</ele>
        <time>2017-05-31T08:07:23.000Z</time>
      </trkpt>
      <trkpt lat="45.66981" lon="4.74792">
        <ele>162.39999389648</ele>
        <time>2017-05-31T08:07:24.000Z</time>
      </trkpt>
      <trkpt lat="45.66982" lon="4.74787">
        <ele>162.80000305176</ele>
        <time>2017-05-31T08:07:25.000Z</time>
      </trkpt>
      <trkpt lat="45.66982" lon="4.74782">
        <ele>163.19999694824</ele>
        <time>2017-05-31T08:07:26.000Z</time>
      </trkpt>
      <trkpt lat="45.66983" lon="4.74778">
        <ele>163.60000610352</ele>
        <time>2017-05-31T08:07:27.000Z</time>
      </trkpt>
      <trkpt lat="45.66989" lon="4.74758">
        <ele>163.60000610352</ele>
        <time>2017-05-31T08:07:32.000Z</time>
      </trkpt>
      <trkpt lat="45.66998" lon="4.74732">
        <ele>164.19999694824</ele>
        <time>2017-05-31T08:07:39.000Z</time>
      </trkpt>
      <trkpt lat="45.67" lon="4.74729">
        <ele>164.60000610352</ele>
        <time>2017-05-31T08:07:40.000Z</time>
      </trkpt>
      <trkpt lat="45.67001" lon="4.74725">
        <ele>165</ele>
        <time>2017-05-31T08:07:42.000Z</time>
      </trkpt>
      <trkpt lat="45.67003" lon="4.74721">
        <ele>165</ele>
        <time>2017-05-31T08:07:43.000Z</time>
      </trkpt>
      <trkpt lat="45.67004" lon="4.74718">
        <ele>165.80000305176</ele>
        <time>2017-05-31T08:07:44.000Z</time>
      </trkpt>
      <trkpt lat="45.67014" lon="4.74695">
        <ele>165.80000305176</ele>
        <time>2017-05-31T08:07:51.000Z</time>
      </trkpt>
      <trkpt lat="45.67017" lon="4.74682">
        <ele>166.19999694824</ele>
        <time>2017-05-31T08:07:55.000Z</time>
      </trkpt>
      <trkpt lat="45.67018" lon="4.74679">
        <ele>166.60000610352</ele>
        <time>2017-05-31T08:07:56.000Z</time>
      </trkpt>
      <trkpt lat="45.67018" lon="4.74675">
        <ele>167.19999694824</ele>
        <time>2017-05-31T08:07:57.000Z</time>
      </trkpt>
      <trkpt lat="45.67018" lon="4.74671">
        <ele>167.60000610352</ele>
        <time>2017-05-31T08:07:58.000Z</time>
      </trkpt>
      <trkpt lat="45.67019" lon="4.74668">
        <ele>168</ele>
        <time>2017-05-31T08:07:59.000Z</time>
      </trkpt>
      <trkpt lat="45.67019" lon="4.74664">
        <ele>168</ele>
        <time>2017-05-31T08:08:00.000Z</time>
      </trkpt>
      <trkpt lat="45.67019" lon="4.74631">
        <ele>168</ele>
        <time>2017-05-31T08:08:08.000Z</time>
      </trkpt>
      <trkpt lat="45.67018" lon="4.74619">
        <ele>168.39999389648</ele>
        <time>2017-05-31T08:08:11.000Z</time>
      </trkpt>
      <trkpt lat="45.67019" lon="4.74615">
        <ele>168.80000305176</ele>
        <time>2017-05-31T08:08:12.000Z</time>
      </trkpt>
      <trkpt lat="45.67018" lon="4.74611">
        <ele>169.19999694824</ele>
        <time>2017-05-31T08:08:13.000Z</time>
      </trkpt>
      <trkpt lat="45.67018" lon="4.74607">
        <ele>169.60000610352</ele>
        <time>2017-05-31T08:08:14.000Z</time>
      </trkpt>
      <trkpt lat="45.67017" lon="4.74602">
        <ele>170</ele>
        <time>2017-05-31T08:08:15.000Z</time>
      </trkpt>
      <trkpt lat="45.67016" lon="4.7459">
        <ele>170</ele>
        <time>2017-05-31T08:08:18.000Z</time>
      </trkpt>
      <trkpt lat="45.67018" lon="4.7456">
        <ele>170.39999389648</ele>
        <time>2017-05-31T08:08:27.000Z</time>
      </trkpt>
      <trkpt lat="45.67019" lon="4.74557">
        <ele>170.80000305176</ele>
        <time>2017-05-31T08:08:28.000Z</time>
      </trkpt>
      <trkpt lat="45.67021" lon="4.74555">
        <ele>171.19999694824</ele>
        <time>2017-05-31T08:08:29.000Z</time>
      </trkpt>
      <trkpt lat="45.67022" lon="4.74552">
        <ele>171.60000610352</ele>
        <time>2017-05-31T08:08:30.000Z</time>
      </trkpt>
      <trkpt lat="45.67022" lon="4.7455">
        <ele>172</ele>
        <time>2017-05-31T08:08:31.000Z</time>
      </trkpt>
      <trkpt lat="45.67027" lon="4.74539">
        <ele>172</ele>
        <time>2017-05-31T08:08:35.000Z</time>
      </trkpt>
      <trkpt lat="45.67033" lon="4.7453">
        <ele>172.39999389648</ele>
        <time>2017-05-31T08:08:39.000Z</time>
      </trkpt>
      <trkpt lat="45.67036" lon="4.74528">
        <ele>172.80000305176</ele>
        <time>2017-05-31T08:08:40.000Z</time>
      </trkpt>
      <trkpt lat="45.67038" lon="4.74525">
        <ele>173.19999694824</ele>
        <time>2017-05-31T08:08:41.000Z</time>
      </trkpt>
      <trkpt lat="45.6704" lon="4.74523">
        <ele>173.60000610352</ele>
        <time>2017-05-31T08:08:42.000Z</time>
      </trkpt>
      <trkpt lat="45.67042" lon="4.74521">
        <ele>174</ele>
        <time>2017-05-31T08:08:43.000Z</time>
      </trkpt>
      <trkpt lat="45.67044" lon="4.74519">
        <ele>174</ele>
        <time>2017-05-31T08:08:44.000Z</time>
      </trkpt>
      <trkpt lat="45.67059" lon="4.74507">
        <ele>174</ele>
        <time>2017-05-31T08:08:51.000Z</time>
      </trkpt>
      <trkpt lat="45.67069" lon="4.74498">
        <ele>174.60000610352</ele>
        <time>2017-05-31T08:08:56.000Z</time>
      </trkpt>
      <trkpt lat="45.67071" lon="4.74497">
        <ele>175</ele>
        <time>2017-05-31T08:08:57.000Z</time>
      </trkpt>
      <trkpt lat="45.67073" lon="4.74495">
        <ele>175.39999389648</ele>
        <time>2017-05-31T08:08:58.000Z</time>
      </trkpt>
      <trkpt lat="45.67075" lon="4.74493">
        <ele>175.80000305176</ele>
        <time>2017-05-31T08:08:59.000Z</time>
      </trkpt>
      <trkpt lat="45.67077" lon="4.74491">
        <ele>176.19999694824</ele>
        <time>2017-05-31T08:09:00.000Z</time>
      </trkpt>
      <trkpt lat="45.67079" lon="4.74489">
        <ele>176.19999694824</ele>
        <time>2017-05-31T08:09:01.000Z</time>
      </trkpt>
      <trkpt lat="45.67098" lon="4.74475">
        <ele>176.19999694824</ele>
        <time>2017-05-31T08:09:09.000Z</time>
      </trkpt>
      <trkpt lat="45.67122" lon="4.74452">
        <ele>176.60000610352</ele>
        <time>2017-05-31T08:09:21.000Z</time>
      </trkpt>
      <trkpt lat="45.67123" lon="4.74451">
        <ele>177</ele>
        <time>2017-05-31T08:09:22.000Z</time>
      </trkpt>
      <trkpt lat="45.67123" lon="4.74451">
        <ele>177.39999389648</ele>
        <time>2017-05-31T08:09:23.000Z</time>
      </trkpt>
      <trkpt lat="45.67127" lon="4.74446">
        <ele>178.39999389648</ele>
        <time>2017-05-31T08:10:40.000Z</time>
      </trkpt>
      <trkpt lat="45.67144" lon="4.7443">
        <ele>178.39999389648</ele>
        <time>2017-05-31T08:10:46.000Z</time>
      </trkpt>
      <trkpt lat="45.67163" lon="4.74404">
        <ele>178.80000305176</ele>
        <time>2017-05-31T08:10:54.000Z</time>
      </trkpt>
      <trkpt lat="45.67165" lon="4.74401">
        <ele>179.19999694824</ele>
        <time>2017-05-31T08:10:55.000Z</time>
      </trkpt>
      <trkpt lat="45.67167" lon="4.74397">
        <ele>179.60000610352</ele>
        <time>2017-05-31T08:10:56.000Z</time>
      </trkpt>
      <trkpt lat="45.67169" lon="4.74394">
        <ele>180.19999694824</ele>
        <time>2017-05-31T08:10:57.000Z</time>
      </trkpt>
      <trkpt lat="45.67171" lon="4.74391">
        <ele>180.60000610352</ele>
        <time>2017-05-31T08:10:58.000Z</time>
      </trkpt>
      <trkpt lat="45.67181" lon="4.74379">
        <ele>180.60000610352</ele>
        <time>2017-05-31T08:11:02.000Z</time>
      </trkpt>
      <trkpt lat="45.67199" lon="4.74352">
        <ele>180.60000610352</ele>
        <time>2017-05-31T08:11:10.000Z</time>
      </trkpt>
      <trkpt lat="45.67203" lon="4.74344">
        <ele>181</ele>
        <time>2017-05-31T08:11:12.000Z</time>
      </trkpt>
      <trkpt lat="45.67207" lon="4.74336">
        <ele>181.39999389648</ele>
        <time>2017-05-31T08:11:13.000Z</time>
      </trkpt>
      <trkpt lat="45.67209" lon="4.74332">
        <ele>181.80000305176</ele>
        <time>2017-05-31T08:11:14.000Z</time>
      </trkpt>
      <trkpt lat="45.67212" lon="4.74328">
        <ele>182.19999694824</ele>
        <time>2017-05-31T08:11:15.000Z</time>
      </trkpt>
      <trkpt lat="45.67214" lon="4.74323">
        <ele>182.60000610352</ele>
        <time>2017-05-31T08:11:16.000Z</time>
      </trkpt>
      <trkpt lat="45.67216" lon="4.74318">
        <ele>182.60000610352</ele>
        <time>2017-05-31T08:11:17.000Z</time>
      </trkpt>
      <trkpt lat="45.67235" lon="4.74278">
        <ele>182.60000610352</ele>
        <time>2017-05-31T08:11:25.000Z</time>
      </trkpt>
      <trkpt lat="45.67256" lon="4.74234">
        <ele>182.60000610352</ele>
        <time>2017-05-31T08:11:33.000Z</time>
      </trkpt>
      <trkpt lat="45.67275" lon="4.74177">
        <ele>182.60000610352</ele>
        <time>2017-05-31T08:11:42.000Z</time>
      </trkpt>
      <trkpt lat="45.67279" lon="4.74118">
        <ele>182.60000610352</ele>
        <time>2017-05-31T08:11:51.000Z</time>
      </trkpt>
      <trkpt lat="45.67281" lon="4.74088">
        <ele>183</ele>
        <time>2017-05-31T08:11:56.000Z</time>
      </trkpt>
      <trkpt lat="45.67281" lon="4.74083">
        <ele>183.39999389648</ele>
        <time>2017-05-31T08:11:57.000Z</time>
      </trkpt>
      <trkpt lat="45.67282" lon="4.74077">
        <ele>184</ele>
        <time>2017-05-31T08:11:58.000Z</time>
      </trkpt>
      <trkpt lat="45.67282" lon="4.74072">
        <ele>184.39999389648</ele>
        <time>2017-05-31T08:11:59.000Z</time>
      </trkpt>
      <trkpt lat="45.67282" lon="4.74066">
        <ele>184.80000305176</ele>
        <time>2017-05-31T08:12:00.000Z</time>
      </trkpt>
      <trkpt lat="45.67278" lon="4.74035">
        <ele>184.80000305176</ele>
        <time>2017-05-31T08:12:06.000Z</time>
      </trkpt>
      <trkpt lat="45.67268" lon="4.73996">
        <ele>184.80000305176</ele>
        <time>2017-05-31T08:12:14.000Z</time>
      </trkpt>
      <trkpt lat="45.67264" lon="4.7398">
        <ele>185.19999694824</ele>
        <time>2017-05-31T08:12:17.000Z</time>
      </trkpt>
      <trkpt lat="45.67263" lon="4.73975">
        <ele>185.60000610352</ele>
        <time>2017-05-31T08:12:18.000Z</time>
      </trkpt>
      <trkpt lat="45.67262" lon="4.7397">
        <ele>186</ele>
        <time>2017-05-31T08:12:19.000Z</time>
      </trkpt>
      <trkpt lat="45.67261" lon="4.73965">
        <ele>186.39999389648</ele>
        <time>2017-05-31T08:12:20.000Z</time>
      </trkpt>
      <trkpt lat="45.6726" lon="4.73959">
        <ele>187</ele>
        <time>2017-05-31T08:12:21.000Z</time>
      </trkpt>
      <trkpt lat="45.67259" lon="4.73954">
        <ele>187</ele>
        <time>2017-05-31T08:12:22.000Z</time>
      </trkpt>
      <trkpt lat="45.67259" lon="4.73904">
        <ele>187</ele>
        <time>2017-05-31T08:12:32.000Z</time>
      </trkpt>
      <trkpt lat="45.67262" lon="4.73884">
        <ele>187.39999389648</ele>
        <time>2017-05-31T08:12:36.000Z</time>
      </trkpt>
      <trkpt lat="45.67263" lon="4.7388">
        <ele>187.80000305176</ele>
        <time>2017-05-31T08:12:37.000Z</time>
      </trkpt>
      <trkpt lat="45.67264" lon="4.73875">
        <ele>188.19999694824</ele>
        <time>2017-05-31T08:12:38.000Z</time>
      </trkpt>
      <trkpt lat="45.67265" lon="4.7387">
        <ele>188.60000610352</ele>
        <time>2017-05-31T08:12:39.000Z</time>
      </trkpt>
      <trkpt lat="45.67267" lon="4.73865">
        <ele>189</ele>
        <time>2017-05-31T08:12:40.000Z</time>
      </trkpt>
      <trkpt lat="45.67269" lon="4.73855">
        <ele>189</ele>
        <time>2017-05-31T08:12:42.000Z</time>
      </trkpt>
      <trkpt lat="45.67285" lon="4.73813">
        <ele>189</ele>
        <time>2017-05-31T08:12:51.000Z</time>
      </trkpt>
      <trkpt lat="45.67289" lon="4.73785">
        <ele>189</ele>
        <time>2017-05-31T08:12:57.000Z</time>
      </trkpt>
      <trkpt lat="45.67288" lon="4.73738">
        <ele>189.39999389648</ele>
        <time>2017-05-31T08:13:05.000Z</time>
      </trkpt>
      <trkpt lat="45.67288" lon="4.73733">
        <ele>189.80000305176</ele>
        <time>2017-05-31T08:13:06.000Z</time>
      </trkpt>
      <trkpt lat="45.67288" lon="4.73728">
        <ele>190.19999694824</ele>
        <time>2017-05-31T08:13:07.000Z</time>
      </trkpt>
      <trkpt lat="45.67288" lon="4.73722">
        <ele>190.60000610352</ele>
        <time>2017-05-31T08:13:08.000Z</time>
      </trkpt>
      <trkpt lat="45.67288" lon="4.73717">
        <ele>191</ele>
        <time>2017-05-31T08:13:09.000Z</time>
      </trkpt>
      <trkpt lat="45.67288" lon="4.73675">
        <ele>191</ele>
        <time>2017-05-31T08:13:17.000Z</time>
      </trkpt>
      <trkpt lat="45.67289" lon="4.73639">
        <ele>191.60000610352</ele>
        <time>2017-05-31T08:13:24.000Z</time>
      </trkpt>
      <trkpt lat="45.67289" lon="4.73634">
        <ele>192</ele>
        <time>2017-05-31T08:13:25.000Z</time>
      </trkpt>
      <trkpt lat="45.6729" lon="4.73629">
        <ele>192.39999389648</ele>
        <time>2017-05-31T08:13:26.000Z</time>
      </trkpt>
      <trkpt lat="45.6729" lon="4.73624">
        <ele>193</ele>
        <time>2017-05-31T08:13:27.000Z</time>
      </trkpt>
      <trkpt lat="45.6729" lon="4.73619">
        <ele>193.39999389648</ele>
        <time>2017-05-31T08:13:28.000Z</time>
      </trkpt>
      <trkpt lat="45.67295" lon="4.73584">
        <ele>193.39999389648</ele>
        <time>2017-05-31T08:13:35.000Z</time>
      </trkpt>
      <trkpt lat="45.67302" lon="4.73543">
        <ele>193.39999389648</ele>
        <time>2017-05-31T08:13:44.000Z</time>
      </trkpt>
      <trkpt lat="45.67302" lon="4.73518">
        <ele>193.80000305176</ele>
        <time>2017-05-31T08:13:49.000Z</time>
      </trkpt>
      <trkpt lat="45.67302" lon="4.73513">
        <ele>194.19999694824</ele>
        <time>2017-05-31T08:13:50.000Z</time>
      </trkpt>
      <trkpt lat="45.67301" lon="4.73508">
        <ele>194.80000305176</ele>
        <time>2017-05-31T08:13:51.000Z</time>
      </trkpt>
      <trkpt lat="45.67301" lon="4.73502">
        <ele>195.19999694824</ele>
        <time>2017-05-31T08:13:52.000Z</time>
      </trkpt>
      <trkpt lat="45.673" lon="4.73497">
        <ele>195.60000610352</ele>
        <time>2017-05-31T08:13:53.000Z</time>
      </trkpt>
      <trkpt lat="45.67296" lon="4.73459">
        <ele>195.60000610352</ele>
        <time>2017-05-31T08:14:01.000Z</time>
      </trkpt>
      <trkpt lat="45.67291" lon="4.73431">
        <ele>196</ele>
        <time>2017-05-31T08:14:07.000Z</time>
      </trkpt>
      <trkpt lat="45.6729" lon="4.73427">
        <ele>196.39999389648</ele>
        <time>2017-05-31T08:14:08.000Z</time>
      </trkpt>
      <trkpt lat="45.6729" lon="4.73422">
        <ele>196.80000305176</ele>
        <time>2017-05-31T08:14:09.000Z</time>
      </trkpt>
      <trkpt lat="45.67289" lon="4.73418">
        <ele>197.19999694824</ele>
        <time>2017-05-31T08:14:10.000Z</time>
      </trkpt>
      <trkpt lat="45.67289" lon="4.73413">
        <ele>197.60000610352</ele>
        <time>2017-05-31T08:14:11.000Z</time>
      </trkpt>
      <trkpt lat="45.67288" lon="4.73409">
        <ele>197.60000610352</ele>
        <time>2017-05-31T08:14:12.000Z</time>
      </trkpt>
      <trkpt lat="45.67285" lon="4.73351">
        <ele>198.19999694824</ele>
        <time>2017-05-31T08:14:24.000Z</time>
      </trkpt>
      <trkpt lat="45.67285" lon="4.73348">
        <ele>198.60000610352</ele>
        <time>2017-05-31T08:14:25.000Z</time>
      </trkpt>
      <trkpt lat="45.67286" lon="4.73344">
        <ele>199</ele>
        <time>2017-05-31T08:14:26.000Z</time>
      </trkpt>
      <trkpt lat="45.67287" lon="4.7334">
        <ele>199.39999389648</ele>
        <time>2017-05-31T08:14:27.000Z</time>
      </trkpt>
      <trkpt lat="45.67288" lon="4.73336">
        <ele>199.80000305176</ele>
        <time>2017-05-31T08:14:28.000Z</time>
      </trkpt>
      <trkpt lat="45.6729" lon="4.73329">
        <ele>199.80000305176</ele>
        <time>2017-05-31T08:14:30.000Z</time>
      </trkpt>
      <trkpt lat="45.67301" lon="4.73292">
        <ele>199.80000305176</ele>
        <time>2017-05-31T08:14:39.000Z</time>
      </trkpt>
      <trkpt lat="45.67302" lon="4.73288">
        <ele>200.19999694824</ele>
        <time>2017-05-31T08:14:40.000Z</time>
      </trkpt>
      <trkpt lat="45.67303" lon="4.73285">
        <ele>200.60000610352</ele>
        <time>2017-05-31T08:14:41.000Z</time>
      </trkpt>
      <trkpt lat="45.67304" lon="4.73281">
        <ele>201</ele>
        <time>2017-05-31T08:14:42.000Z</time>
      </trkpt>
      <trkpt lat="45.67305" lon="4.73277">
        <ele>201.39999389648</ele>
        <time>2017-05-31T08:14:43.000Z</time>
      </trkpt>
      <trkpt lat="45.67306" lon="4.73273">
        <ele>202</ele>
        <time>2017-05-31T08:14:44.000Z</time>
      </trkpt>
      <trkpt lat="45.67309" lon="4.73257">
        <ele>202</ele>
        <time>2017-05-31T08:14:48.000Z</time>
      </trkpt>
      <trkpt lat="45.67311" lon="4.73231">
        <ele>202.39999389648</ele>
        <time>2017-05-31T08:14:54.000Z</time>
      </trkpt>
      <trkpt lat="45.6731" lon="4.73227">
        <ele>202.80000305176</ele>
        <time>2017-05-31T08:14:55.000Z</time>
      </trkpt>
      <trkpt lat="45.6731" lon="4.73222">
        <ele>203.19999694824</ele>
        <time>2017-05-31T08:14:56.000Z</time>
      </trkpt>
      <trkpt lat="45.6731" lon="4.73218">
        <ele>203.60000610352</ele>
        <time>2017-05-31T08:14:57.000Z</time>
      </trkpt>
      <trkpt lat="45.67309" lon="4.73213">
        <ele>204</ele>
        <time>2017-05-31T08:14:58.000Z</time>
      </trkpt>
      <trkpt lat="45.67307" lon="4.73195">
        <ele>204</ele>
        <time>2017-05-31T08:15:02.000Z</time>
      </trkpt>
      <trkpt lat="45.67309" lon="4.73167">
        <ele>204.39999389648</ele>
        <time>2017-05-31T08:15:08.000Z</time>
      </trkpt>
      <trkpt lat="45.67309" lon="4.73163">
        <ele>204.80000305176</ele>
        <time>2017-05-31T08:15:09.000Z</time>
      </trkpt>
      <trkpt lat="45.6731" lon="4.73159">
        <ele>205.19999694824</ele>
        <time>2017-05-31T08:15:10.000Z</time>
      </trkpt>
      <trkpt lat="45.6731" lon="4.73155">
        <ele>205.60000610352</ele>
        <time>2017-05-31T08:15:11.000Z</time>
      </trkpt>
      <trkpt lat="45.6731" lon="4.7315">
        <ele>206</ele>
        <time>2017-05-31T08:15:12.000Z</time>
      </trkpt>
      <trkpt lat="45.67308" lon="4.73142">
        <ele>206</ele>
        <time>2017-05-31T08:15:14.000Z</time>
      </trkpt>
      <trkpt lat="45.67305" lon="4.73139">
        <ele>206</ele>
        <time>2017-05-31T08:15:15.000Z</time>
      </trkpt>
      <trkpt lat="45.67291" lon="4.73129">
        <ele>206</ele>
        <time>2017-05-31T08:15:19.000Z</time>
      </trkpt>
      <trkpt lat="45.67284" lon="4.73129">
        <ele>206</ele>
        <time>2017-05-31T08:15:21.000Z</time>
      </trkpt>
      <trkpt lat="45.67274" lon="4.73131">
        <ele>206</ele>
        <time>2017-05-31T08:15:24.000Z</time>
      </trkpt>
      <trkpt lat="45.67252" lon="4.73131">
        <ele>206</ele>
        <time>2017-05-31T08:15:31.000Z</time>
      </trkpt>
      <trkpt lat="45.67229" lon="4.7312">
        <ele>206</ele>
        <time>2017-05-31T08:15:38.000Z</time>
      </trkpt>
      <trkpt lat="45.67219" lon="4.73111">
        <ele>206.39999389648</ele>
        <time>2017-05-31T08:15:42.000Z</time>
      </trkpt>
      <trkpt lat="45.67217" lon="4.73109">
        <ele>207</ele>
        <time>2017-05-31T08:15:43.000Z</time>
      </trkpt>
      <trkpt lat="45.67214" lon="4.73107">
        <ele>207.39999389648</ele>
        <time>2017-05-31T08:15:44.000Z</time>
      </trkpt>
      <trkpt lat="45.67211" lon="4.73105">
        <ele>207.80000305176</ele>
        <time>2017-05-31T08:15:45.000Z</time>
      </trkpt>
      <trkpt lat="45.67209" lon="4.73102">
        <ele>208.39999389648</ele>
        <time>2017-05-31T08:15:46.000Z</time>
      </trkpt>
      <trkpt lat="45.67193" lon="4.73087">
        <ele>208.39999389648</ele>
        <time>2017-05-31T08:15:52.000Z</time>
      </trkpt>
      <trkpt lat="45.67183" lon="4.73077">
        <ele>208.80000305176</ele>
        <time>2017-05-31T08:15:56.000Z</time>
      </trkpt>
      <trkpt lat="45.67181" lon="4.73075">
        <ele>209.19999694824</ele>
        <time>2017-05-31T08:15:57.000Z</time>
      </trkpt>
      <trkpt lat="45.67178" lon="4.73073">
        <ele>209.60000610352</ele>
        <time>2017-05-31T08:15:58.000Z</time>
      </trkpt>
      <trkpt lat="45.67176" lon="4.7307">
        <ele>210.19999694824</ele>
        <time>2017-05-31T08:15:59.000Z</time>
      </trkpt>
      <trkpt lat="45.67174" lon="4.73068">
        <ele>210.60000610352</ele>
        <time>2017-05-31T08:16:00.000Z</time>
      </trkpt>
      <trkpt lat="45.6716" lon="4.73043">
        <ele>211</ele>
        <time>2017-05-31T08:16:09.000Z</time>
      </trkpt>
      <trkpt lat="45.67159" lon="4.73039">
        <ele>211.39999389648</ele>
        <time>2017-05-31T08:16:10.000Z</time>
      </trkpt>
      <trkpt lat="45.67157" lon="4.73036">
        <ele>211.80000305176</ele>
        <time>2017-05-31T08:16:11.000Z</time>
      </trkpt>
      <trkpt lat="45.67156" lon="4.73033">
        <ele>212.19999694824</ele>
        <time>2017-05-31T08:16:12.000Z</time>
      </trkpt>
      <trkpt lat="45.67154" lon="4.7303">
        <ele>212.60000610352</ele>
        <time>2017-05-31T08:16:13.000Z</time>
      </trkpt>
      <trkpt lat="45.67146" lon="4.73011">
        <ele>212.60000610352</ele>
        <time>2017-05-31T08:16:19.000Z</time>
      </trkpt>
      <trkpt lat="45.67137" lon="4.7299">
        <ele>213</ele>
        <time>2017-05-31T08:16:26.000Z</time>
      </trkpt>
      <trkpt lat="45.67135" lon="4.72987">
        <ele>213.39999389648</ele>
        <time>2017-05-31T08:16:27.000Z</time>
      </trkpt>
      <trkpt lat="45.67134" lon="4.72984">
        <ele>213.80000305176</ele>
        <time>2017-05-31T08:16:28.000Z</time>
      </trkpt>
      <trkpt lat="45.67133" lon="4.72981">
        <ele>214.39999389648</ele>
        <time>2017-05-31T08:16:29.000Z</time>
      </trkpt>
      <trkpt lat="45.67132" lon="4.72978">
        <ele>214.80000305176</ele>
        <time>2017-05-31T08:16:30.000Z</time>
      </trkpt>
      <trkpt lat="45.67125" lon="4.72955">
        <ele>214.80000305176</ele>
        <time>2017-05-31T08:16:38.000Z</time>
      </trkpt>
      <trkpt lat="45.67123" lon="4.72949">
        <ele>215.19999694824</ele>
        <time>2017-05-31T08:16:40.000Z</time>
      </trkpt>
      <trkpt lat="45.67122" lon="4.72947">
        <ele>215.60000610352</ele>
        <time>2017-05-31T08:16:41.000Z</time>
      </trkpt>
      <trkpt lat="45.67121" lon="4.72944">
        <ele>216</ele>
        <time>2017-05-31T08:16:42.000Z</time>
      </trkpt>
      <trkpt lat="45.6712" lon="4.72942">
        <ele>216.39999389648</ele>
        <time>2017-05-31T08:16:43.000Z</time>
      </trkpt>
      <trkpt lat="45.67119" lon="4.72939">
        <ele>216.80000305176</ele>
        <time>2017-05-31T08:16:44.000Z</time>
      </trkpt>
      <trkpt lat="45.67115" lon="4.72928">
        <ele>216.80000305176</ele>
        <time>2017-05-31T08:16:48.000Z</time>
      </trkpt>
      <trkpt lat="45.67105" lon="4.72908">
        <ele>217.19999694824</ele>
        <time>2017-05-31T08:16:56.000Z</time>
      </trkpt>
      <trkpt lat="45.67104" lon="4.72906">
        <ele>217.60000610352</ele>
        <time>2017-05-31T08:16:57.000Z</time>
      </trkpt>
      <trkpt lat="45.67103" lon="4.72903">
        <ele>218</ele>
        <time>2017-05-31T08:16:58.000Z</time>
      </trkpt>
      <trkpt lat="45.67102" lon="4.729">
        <ele>218.39999389648</ele>
        <time>2017-05-31T08:16:59.000Z</time>
      </trkpt>
      <trkpt lat="45.67101" lon="4.72898">
        <ele>218.80000305176</ele>
        <time>2017-05-31T08:17:00.000Z</time>
      </trkpt>
      <trkpt lat="45.67091" lon="4.7288">
        <ele>218.80000305176</ele>
        <time>2017-05-31T08:17:08.000Z</time>
      </trkpt>
      <trkpt lat="45.67084" lon="4.72867">
        <ele>219.19999694824</ele>
        <time>2017-05-31T08:17:13.000Z</time>
      </trkpt>
      <trkpt lat="45.67083" lon="4.72864">
        <ele>219.60000610352</ele>
        <time>2017-05-31T08:17:14.000Z</time>
      </trkpt>
      <trkpt lat="45.67082" lon="4.72862">
        <ele>220.19999694824</ele>
        <time>2017-05-31T08:17:15.000Z</time>
      </trkpt>
      <trkpt lat="45.67081" lon="4.7286">
        <ele>220.60000610352</ele>
        <time>2017-05-31T08:17:16.000Z</time>
      </trkpt>
      <trkpt lat="45.6708" lon="4.72857">
        <ele>221</ele>
        <time>2017-05-31T08:17:17.000Z</time>
      </trkpt>
      <trkpt lat="45.67075" lon="4.72847">
        <ele>221</ele>
        <time>2017-05-31T08:17:21.000Z</time>
      </trkpt>
      <trkpt lat="45.67064" lon="4.72823">
        <ele>221.39999389648</ele>
        <time>2017-05-31T08:17:29.000Z</time>
      </trkpt>
      <trkpt lat="45.67062" lon="4.7282">
        <ele>221.80000305176</ele>
        <time>2017-05-31T08:17:30.000Z</time>
      </trkpt>
      <trkpt lat="45.67061" lon="4.72818">
        <ele>222.19999694824</ele>
        <time>2017-05-31T08:17:31.000Z</time>
      </trkpt>
      <trkpt lat="45.6706" lon="4.72815">
        <ele>222.60000610352</ele>
        <time>2017-05-31T08:17:32.000Z</time>
      </trkpt>
      <trkpt lat="45.67058" lon="4.72812">
        <ele>223</ele>
        <time>2017-05-31T08:17:33.000Z</time>
      </trkpt>
      <trkpt lat="45.67047" lon="4.72795">
        <ele>223</ele>
        <time>2017-05-31T08:17:40.000Z</time>
      </trkpt>
      <trkpt lat="45.67039" lon="4.72784">
        <ele>223.39999389648</ele>
        <time>2017-05-31T08:17:45.000Z</time>
      </trkpt>
      <trkpt lat="45.67037" lon="4.72781">
        <ele>223.80000305176</ele>
        <time>2017-05-31T08:17:46.000Z</time>
      </trkpt>
      <trkpt lat="45.67036" lon="4.72779">
        <ele>224.19999694824</ele>
        <time>2017-05-31T08:17:47.000Z</time>
      </trkpt>
      <trkpt lat="45.67034" lon="4.72777">
        <ele>224.60000610352</ele>
        <time>2017-05-31T08:17:48.000Z</time>
      </trkpt>
      <trkpt lat="45.67033" lon="4.72775">
        <ele>225.19999694824</ele>
        <time>2017-05-31T08:17:49.000Z</time>
      </trkpt>
      <trkpt lat="45.6702" lon="4.72749">
        <ele>225.60000610352</ele>
        <time>2017-05-31T08:17:59.000Z</time>
      </trkpt>
      <trkpt lat="45.67018" lon="4.72747">
        <ele>226</ele>
        <time>2017-05-31T08:18:00.000Z</time>
      </trkpt>
      <trkpt lat="45.67017" lon="4.72744">
        <ele>226.39999389648</ele>
        <time>2017-05-31T08:18:01.000Z</time>
      </trkpt>
      <trkpt lat="45.67015" lon="4.72741">
        <ele>226.80000305176</ele>
        <time>2017-05-31T08:18:02.000Z</time>
      </trkpt>
      <trkpt lat="45.67014" lon="4.72739">
        <ele>227.19999694824</ele>
        <time>2017-05-31T08:18:03.000Z</time>
      </trkpt>
      <trkpt lat="45.67011" lon="4.72723">
        <ele>227.19999694824</ele>
        <time>2017-05-31T08:18:08.000Z</time>
      </trkpt>
      <trkpt lat="45.67011" lon="4.72701">
        <ele>227.60000610352</ele>
        <time>2017-05-31T08:18:15.000Z</time>
      </trkpt>
      <trkpt lat="45.67011" lon="4.72698">
        <ele>228</ele>
        <time>2017-05-31T08:18:16.000Z</time>
      </trkpt>
      <trkpt lat="45.67011" lon="4.72695">
        <ele>228.39999389648</ele>
        <time>2017-05-31T08:18:17.000Z</time>
      </trkpt>
      <trkpt lat="45.67011" lon="4.72691">
        <ele>228.80000305176</ele>
        <time>2017-05-31T08:18:18.000Z</time>
      </trkpt>
      <trkpt lat="45.67011" lon="4.72688">
        <ele>229.19999694824</ele>
        <time>2017-05-31T08:18:19.000Z</time>
      </trkpt>
      <trkpt lat="45.67012" lon="4.72677">
        <ele>229.19999694824</ele>
        <time>2017-05-31T08:18:23.000Z</time>
      </trkpt>
      <trkpt lat="45.67017" lon="4.72649">
        <ele>229.19999694824</ele>
        <time>2017-05-31T08:18:32.000Z</time>
      </trkpt>
      <trkpt lat="45.67017" lon="4.72642">
        <ele>229.60000610352</ele>
        <time>2017-05-31T08:18:34.000Z</time>
      </trkpt>
      <trkpt lat="45.67017" lon="4.72639">
        <ele>230</ele>
        <time>2017-05-31T08:18:35.000Z</time>
      </trkpt>
      <trkpt lat="45.67018" lon="4.72636">
        <ele>230.60000610352</ele>
        <time>2017-05-31T08:18:36.000Z</time>
      </trkpt>
      <trkpt lat="45.67019" lon="4.72633">
        <ele>231</ele>
        <time>2017-05-31T08:18:37.000Z</time>
      </trkpt>
      <trkpt lat="45.67019" lon="4.7263">
        <ele>231.39999389648</ele>
        <time>2017-05-31T08:18:38.000Z</time>
      </trkpt>
      <trkpt lat="45.67021" lon="4.72615">
        <ele>231.39999389648</ele>
        <time>2017-05-31T08:18:43.000Z</time>
      </trkpt>
      <trkpt lat="45.67022" lon="4.72597">
        <ele>231.80000305176</ele>
        <time>2017-05-31T08:18:49.000Z</time>
      </trkpt>
      <trkpt lat="45.67021" lon="4.72594">
        <ele>232.19999694824</ele>
        <time>2017-05-31T08:18:50.000Z</time>
      </trkpt>
      <trkpt lat="45.67021" lon="4.72591">
        <ele>232.60000610352</ele>
        <time>2017-05-31T08:18:51.000Z</time>
      </trkpt>
      <trkpt lat="45.6702" lon="4.72585">
        <ele>233</ele>
        <time>2017-05-31T08:18:53.000Z</time>
      </trkpt>
      <trkpt lat="45.6702" lon="4.72582">
        <ele>233.39999389648</ele>
        <time>2017-05-31T08:18:54.000Z</time>
      </trkpt>
      <trkpt lat="45.67016" lon="4.72563">
        <ele>233.39999389648</ele>
        <time>2017-05-31T08:19:01.000Z</time>
      </trkpt>
      <trkpt lat="45.67013" lon="4.72549">
        <ele>233.80000305176</ele>
        <time>2017-05-31T08:19:06.000Z</time>
      </trkpt>
      <trkpt lat="45.67012" lon="4.72546">
        <ele>234.19999694824</ele>
        <time>2017-05-31T08:19:07.000Z</time>
      </trkpt>
      <trkpt lat="45.67011" lon="4.72544">
        <ele>234.60000610352</ele>
        <time>2017-05-31T08:19:08.000Z</time>
      </trkpt>
      <trkpt lat="45.6701" lon="4.72541">
        <ele>235.19999694824</ele>
        <time>2017-05-31T08:19:09.000Z</time>
      </trkpt>
      <trkpt lat="45.67009" lon="4.72538">
        <ele>235.60000610352</ele>
        <time>2017-05-31T08:19:10.000Z</time>
      </trkpt>
      <trkpt lat="45.67007" lon="4.72536">
        <ele>235.60000610352</ele>
        <time>2017-05-31T08:19:11.000Z</time>
      </trkpt>
      <trkpt lat="45.66991" lon="4.72509">
        <ele>235.60000610352</ele>
        <time>2017-05-31T08:19:22.000Z</time>
      </trkpt>
      <trkpt lat="45.66982" lon="4.72496">
        <ele>236</ele>
        <time>2017-05-31T08:19:28.000Z</time>
      </trkpt>
      <trkpt lat="45.6698" lon="4.72494">
        <ele>236.39999389648</ele>
        <time>2017-05-31T08:19:29.000Z</time>
      </trkpt>
      <trkpt lat="45.66977" lon="4.72491">
        <ele>237</ele>
        <time>2017-05-31T08:19:30.000Z</time>
      </trkpt>
      <trkpt lat="45.66976" lon="4.72489">
        <ele>237.39999389648</ele>
        <time>2017-05-31T08:19:31.000Z</time>
      </trkpt>
      <trkpt lat="45.66974" lon="4.72487">
        <ele>238</ele>
        <time>2017-05-31T08:19:32.000Z</time>
      </trkpt>
      <trkpt lat="45.66965" lon="4.7247">
        <ele>238</ele>
        <time>2017-05-31T08:19:39.000Z</time>
      </trkpt>
      <trkpt lat="45.6696" lon="4.7245">
        <ele>238</ele>
        <time>2017-05-31T08:19:46.000Z</time>
      </trkpt>
      <trkpt lat="45.66959" lon="4.72438">
        <ele>238.39999389648</ele>
        <time>2017-05-31T08:19:50.000Z</time>
      </trkpt>
      <trkpt lat="45.66959" lon="4.72436">
        <ele>238.80000305176</ele>
        <time>2017-05-31T08:19:51.000Z</time>
      </trkpt>
      <trkpt lat="45.66959" lon="4.72432">
        <ele>239.19999694824</ele>
        <time>2017-05-31T08:19:52.000Z</time>
      </trkpt>
      <trkpt lat="45.66958" lon="4.7243">
        <ele>239.80000305176</ele>
        <time>2017-05-31T08:19:53.000Z</time>
      </trkpt>
      <trkpt lat="45.66958" lon="4.72426">
        <ele>240.19999694824</ele>
        <time>2017-05-31T08:19:54.000Z</time>
      </trkpt>
      <trkpt lat="45.66957" lon="4.72405">
        <ele>240.19999694824</ele>
        <time>2017-05-31T08:20:00.000Z</time>
      </trkpt>
      <trkpt lat="45.66959" lon="4.72385">
        <ele>240.19999694824</ele>
        <time>2017-05-31T08:20:06.000Z</time>
      </trkpt>
      <trkpt lat="45.66957" lon="4.72362">
        <ele>240.60000610352</ele>
        <time>2017-05-31T08:20:12.000Z</time>
      </trkpt>
      <trkpt lat="45.66957" lon="4.72358">
        <ele>241</ele>
        <time>2017-05-31T08:20:13.000Z</time>
      </trkpt>
      <trkpt lat="45.66956" lon="4.72354">
        <ele>241.39999389648</ele>
        <time>2017-05-31T08:20:14.000Z</time>
      </trkpt>
      <trkpt lat="45.66956" lon="4.7235">
        <ele>241.80000305176</ele>
        <time>2017-05-31T08:20:15.000Z</time>
      </trkpt>
      <trkpt lat="45.66956" lon="4.72347">
        <ele>242.19999694824</ele>
        <time>2017-05-31T08:20:16.000Z</time>
      </trkpt>
      <trkpt lat="45.66952" lon="4.72322">
        <ele>242.60000610352</ele>
        <time>2017-05-31T08:20:24.000Z</time>
      </trkpt>
      <trkpt lat="45.66952" lon="4.72319">
        <ele>243.19999694824</ele>
        <time>2017-05-31T08:20:25.000Z</time>
      </trkpt>
      <trkpt lat="45.66951" lon="4.72316">
        <ele>243.60000610352</ele>
        <time>2017-05-31T08:20:26.000Z</time>
      </trkpt>
      <trkpt lat="45.6695" lon="4.72313">
        <ele>244</ele>
        <time>2017-05-31T08:20:27.000Z</time>
      </trkpt>
      <trkpt lat="45.66949" lon="4.7231">
        <ele>244.39999389648</ele>
        <time>2017-05-31T08:20:28.000Z</time>
      </trkpt>
      <trkpt lat="45.66946" lon="4.72303">
        <ele>244.39999389648</ele>
        <time>2017-05-31T08:20:30.000Z</time>
      </trkpt>
      <trkpt lat="45.66935" lon="4.7228">
        <ele>244.39999389648</ele>
        <time>2017-05-31T08:20:36.000Z</time>
      </trkpt>
      <trkpt lat="45.66921" lon="4.7225">
        <ele>244.39999389648</ele>
        <time>2017-05-31T08:20:42.000Z</time>
      </trkpt>
      <trkpt lat="45.6692" lon="4.72244">
        <ele>244.39999389648</ele>
        <time>2017-05-31T08:20:43.000Z</time>
      </trkpt>
      <trkpt lat="45.66918" lon="4.72229">
        <ele>244.39999389648</ele>
        <time>2017-05-31T08:20:46.000Z</time>
      </trkpt>
      <trkpt lat="45.66917" lon="4.72219">
        <ele>244.39999389648</ele>
        <time>2017-05-31T08:20:48.000Z</time>
      </trkpt>
      <trkpt lat="45.66912" lon="4.72186">
        <ele>244.39999389648</ele>
        <time>2017-05-31T08:20:54.000Z</time>
      </trkpt>
      <trkpt lat="45.66896" lon="4.72165">
        <ele>244.39999389648</ele>
        <time>2017-05-31T08:21:00.000Z</time>
      </trkpt>
      <trkpt lat="45.66883" lon="4.72161">
        <ele>244.39999389648</ele>
        <time>2017-05-31T08:21:05.000Z</time>
      </trkpt>
      <trkpt lat="45.66856" lon="4.7215">
        <ele>244.39999389648</ele>
        <time>2017-05-31T08:21:16.000Z</time>
      </trkpt>
      <trkpt lat="45.66847" lon="4.72147">
        <ele>244.80000305176</ele>
        <time>2017-05-31T08:21:20.000Z</time>
      </trkpt>
      <trkpt lat="45.66845" lon="4.72146">
        <ele>245.19999694824</ele>
        <time>2017-05-31T08:21:21.000Z</time>
      </trkpt>
      <trkpt lat="45.66843" lon="4.72144">
        <ele>245.60000610352</ele>
        <time>2017-05-31T08:21:22.000Z</time>
      </trkpt>
      <trkpt lat="45.66841" lon="4.72142">
        <ele>246</ele>
        <time>2017-05-31T08:21:23.000Z</time>
      </trkpt>
      <trkpt lat="45.66839" lon="4.7214">
        <ele>246.39999389648</ele>
        <time>2017-05-31T08:21:24.000Z</time>
      </trkpt>
      <trkpt lat="45.66818" lon="4.72131">
        <ele>246.39999389648</ele>
        <time>2017-05-31T08:21:33.000Z</time>
      </trkpt>
      <trkpt lat="45.66808" lon="4.72126">
        <ele>247</ele>
        <time>2017-05-31T08:21:37.000Z</time>
      </trkpt>
      <trkpt lat="45.66805" lon="4.72125">
        <ele>247.39999389648</ele>
        <time>2017-05-31T08:21:38.000Z</time>
      </trkpt>
      <trkpt lat="45.66803" lon="4.72124">
        <ele>247.80000305176</ele>
        <time>2017-05-31T08:21:39.000Z</time>
      </trkpt>
      <trkpt lat="45.668" lon="4.72123">
        <ele>248.19999694824</ele>
        <time>2017-05-31T08:21:40.000Z</time>
      </trkpt>
      <trkpt lat="45.66798" lon="4.72122">
        <ele>248.60000610352</ele>
        <time>2017-05-31T08:21:41.000Z</time>
      </trkpt>
      <trkpt lat="45.66796" lon="4.72121">
        <ele>248.60000610352</ele>
        <time>2017-05-31T08:21:42.000Z</time>
      </trkpt>
      <trkpt lat="45.66769" lon="4.72114">
        <ele>248.60000610352</ele>
        <time>2017-05-31T08:21:53.000Z</time>
      </trkpt>
      <trkpt lat="45.66763" lon="4.72112">
        <ele>249</ele>
        <time>2017-05-31T08:21:55.000Z</time>
      </trkpt>
      <trkpt lat="45.66761" lon="4.72111">
        <ele>249.39999389648</ele>
        <time>2017-05-31T08:21:56.000Z</time>
      </trkpt>
      <trkpt lat="45.66758" lon="4.7211">
        <ele>249.80000305176</ele>
        <time>2017-05-31T08:21:57.000Z</time>
      </trkpt>
      <trkpt lat="45.66755" lon="4.72109">
        <ele>250.19999694824</ele>
        <time>2017-05-31T08:21:58.000Z</time>
      </trkpt>
      <trkpt lat="45.66752" lon="4.72108">
        <ele>250.60000610352</ele>
        <time>2017-05-31T08:21:59.000Z</time>
      </trkpt>
      <trkpt lat="45.6674" lon="4.72104">
        <ele>250.60000610352</ele>
        <time>2017-05-31T08:22:03.000Z</time>
      </trkpt>
      <trkpt lat="45.66716" lon="4.72097">
        <ele>250.60000610352</ele>
        <time>2017-05-31T08:22:11.000Z</time>
      </trkpt>
      <trkpt lat="45.66692" lon="4.7209">
        <ele>250.60000610352</ele>
        <time>2017-05-31T08:22:19.000Z</time>
      </trkpt>
      <trkpt lat="45.66664" lon="4.72083">
        <ele>250.60000610352</ele>
        <time>2017-05-31T08:22:28.000Z</time>
      </trkpt>
      <trkpt lat="45.66642" lon="4.72078">
        <ele>251</ele>
        <time>2017-05-31T08:22:35.000Z</time>
      </trkpt>
      <trkpt lat="45.66639" lon="4.72077">
        <ele>251.39999389648</ele>
        <time>2017-05-31T08:22:36.000Z</time>
      </trkpt>
      <trkpt lat="45.66637" lon="4.72077">
        <ele>251.80000305176</ele>
        <time>2017-05-31T08:22:37.000Z</time>
      </trkpt>
      <trkpt lat="45.66634" lon="4.72077">
        <ele>252.19999694824</ele>
        <time>2017-05-31T08:22:38.000Z</time>
      </trkpt>
      <trkpt lat="45.66631" lon="4.72077">
        <ele>252.60000610352</ele>
        <time>2017-05-31T08:22:39.000Z</time>
      </trkpt>
      <trkpt lat="45.66614" lon="4.72078">
        <ele>252.60000610352</ele>
        <time>2017-05-31T08:22:45.000Z</time>
      </trkpt>
      <trkpt lat="45.66591" lon="4.7208">
        <ele>253.19999694824</ele>
        <time>2017-05-31T08:22:53.000Z</time>
      </trkpt>
      <trkpt lat="45.66588" lon="4.7208">
        <ele>253.60000610352</ele>
        <time>2017-05-31T08:22:54.000Z</time>
      </trkpt>
      <trkpt lat="45.66585" lon="4.7208">
        <ele>254</ele>
        <time>2017-05-31T08:22:55.000Z</time>
      </trkpt>
      <trkpt lat="45.66582" lon="4.7208">
        <ele>254.39999389648</ele>
        <time>2017-05-31T08:22:56.000Z</time>
      </trkpt>
      <trkpt lat="45.66579" lon="4.72081">
        <ele>254.80000305176</ele>
        <time>2017-05-31T08:22:57.000Z</time>
      </trkpt>
      <trkpt lat="45.66555" lon="4.72082">
        <ele>254.80000305176</ele>
        <time>2017-05-31T08:23:05.000Z</time>
      </trkpt>
      <trkpt lat="45.66531" lon="4.72081">
        <ele>255.19999694824</ele>
        <time>2017-05-31T08:23:13.000Z</time>
      </trkpt>
      <trkpt lat="45.66528" lon="4.72081">
        <ele>255.60000610352</ele>
        <time>2017-05-31T08:23:14.000Z</time>
      </trkpt>
      <trkpt lat="45.66524" lon="4.72082">
        <ele>256</ele>
        <time>2017-05-31T08:23:15.000Z</time>
      </trkpt>
      <trkpt lat="45.66521" lon="4.72083">
        <ele>256.60000610352</ele>
        <time>2017-05-31T08:23:16.000Z</time>
      </trkpt>
      <trkpt lat="45.66518" lon="4.72083">
        <ele>257</ele>
        <time>2017-05-31T08:23:17.000Z</time>
      </trkpt>
      <trkpt lat="45.66504" lon="4.72083">
        <ele>257</ele>
        <time>2017-05-31T08:23:24.000Z</time>
      </trkpt>
      <trkpt lat="45.66493" lon="4.72083">
        <ele>257</ele>
        <time>2017-05-31T08:23:31.000Z</time>
      </trkpt>
      <trkpt lat="45.66493" lon="4.72082">
        <ele>257</ele>
        <time>2017-05-31T08:24:42.000Z</time>
      </trkpt>
      <trkpt lat="45.6649" lon="4.72081">
        <ele>257</ele>
        <time>2017-05-31T08:24:44.000Z</time>
      </trkpt>
      <trkpt lat="45.66472" lon="4.72076">
        <ele>257</ele>
        <time>2017-05-31T08:24:53.000Z</time>
      </trkpt>
      <trkpt lat="45.66464" lon="4.7207">
        <ele>257.39999389648</ele>
        <time>2017-05-31T08:24:57.000Z</time>
      </trkpt>
      <trkpt lat="45.66463" lon="4.72067">
        <ele>257.79998779297</ele>
        <time>2017-05-31T08:24:58.000Z</time>
      </trkpt>
      <trkpt lat="45.66461" lon="4.72065">
        <ele>258.20001220703</ele>
        <time>2017-05-31T08:24:59.000Z</time>
      </trkpt>
      <trkpt lat="45.6646" lon="4.72062">
        <ele>258.60000610352</ele>
        <time>2017-05-31T08:25:00.000Z</time>
      </trkpt>
      <trkpt lat="45.66459" lon="4.72059">
        <ele>259</ele>
        <time>2017-05-31T08:25:01.000Z</time>
      </trkpt>
      <trkpt lat="45.66458" lon="4.72045">
        <ele>259</ele>
        <time>2017-05-31T08:25:05.000Z</time>
      </trkpt>
      <trkpt lat="45.66458" lon="4.72015">
        <ele>259</ele>
        <time>2017-05-31T08:25:13.000Z</time>
      </trkpt>
      <trkpt lat="45.66465" lon="4.71959">
        <ele>259</ele>
        <time>2017-05-31T08:25:26.000Z</time>
      </trkpt>
      <trkpt lat="45.66465" lon="4.71938">
        <ele>259.39999389648</ele>
        <time>2017-05-31T08:25:31.000Z</time>
      </trkpt>
      <trkpt lat="45.66465" lon="4.71935">
        <ele>259.79998779297</ele>
        <time>2017-05-31T08:25:32.000Z</time>
      </trkpt>
      <trkpt lat="45.66465" lon="4.71931">
        <ele>260.20001220703</ele>
        <time>2017-05-31T08:25:33.000Z</time>
      </trkpt>
      <trkpt lat="45.66465" lon="4.71928">
        <ele>260.60000610352</ele>
        <time>2017-05-31T08:25:34.000Z</time>
      </trkpt>
      <trkpt lat="45.66466" lon="4.71925">
        <ele>261</ele>
        <time>2017-05-31T08:25:35.000Z</time>
      </trkpt>
      <trkpt lat="45.66468" lon="4.71897">
        <ele>261</ele>
        <time>2017-05-31T08:25:42.000Z</time>
      </trkpt>
      <trkpt lat="45.66472" lon="4.71859">
        <ele>261</ele>
        <time>2017-05-31T08:25:52.000Z</time>
      </trkpt>
      <trkpt lat="45.66475" lon="4.71843">
        <ele>261.39999389648</ele>
        <time>2017-05-31T08:25:57.000Z</time>
      </trkpt>
      <trkpt lat="45.66476" lon="4.71839">
        <ele>261.79998779297</ele>
        <time>2017-05-31T08:25:58.000Z</time>
      </trkpt>
      <trkpt lat="45.66477" lon="4.71836">
        <ele>262.20001220703</ele>
        <time>2017-05-31T08:25:59.000Z</time>
      </trkpt>
      <trkpt lat="45.66478" lon="4.71832">
        <ele>262.20001220703</ele>
        <time>2017-05-31T08:26:00.000Z</time>
      </trkpt>
      <trkpt lat="45.66479" lon="4.71828">
        <ele>262.79998779297</ele>
        <time>2017-05-31T08:26:01.000Z</time>
      </trkpt>
      <trkpt lat="45.6648" lon="4.71825">
        <ele>263.20001220703</ele>
        <time>2017-05-31T08:26:02.000Z</time>
      </trkpt>
      <trkpt lat="45.66487" lon="4.71793">
        <ele>263.20001220703</ele>
        <time>2017-05-31T08:26:10.000Z</time>
      </trkpt>
      <trkpt lat="45.66493" lon="4.71758">
        <ele>263.20001220703</ele>
        <time>2017-05-31T08:26:19.000Z</time>
      </trkpt>
      <trkpt lat="45.66493" lon="4.71737">
        <ele>263.60000610352</ele>
        <time>2017-05-31T08:26:24.000Z</time>
      </trkpt>
      <trkpt lat="45.66493" lon="4.71733">
        <ele>264</ele>
        <time>2017-05-31T08:26:25.000Z</time>
      </trkpt>
      <trkpt lat="45.66493" lon="4.71729">
        <ele>264.39999389648</ele>
        <time>2017-05-31T08:26:26.000Z</time>
      </trkpt>
      <trkpt lat="45.66493" lon="4.71725">
        <ele>265</ele>
        <time>2017-05-31T08:26:27.000Z</time>
      </trkpt>
      <trkpt lat="45.66493" lon="4.71721">
        <ele>265.39999389648</ele>
        <time>2017-05-31T08:26:28.000Z</time>
      </trkpt>
      <trkpt lat="45.66494" lon="4.71673">
        <ele>265.79998779297</ele>
        <time>2017-05-31T08:26:40.000Z</time>
      </trkpt>
      <trkpt lat="45.66494" lon="4.71669">
        <ele>266.20001220703</ele>
        <time>2017-05-31T08:26:41.000Z</time>
      </trkpt>
      <trkpt lat="45.66494" lon="4.71665">
        <ele>266.60000610352</ele>
        <time>2017-05-31T08:26:42.000Z</time>
      </trkpt>
      <trkpt lat="45.66494" lon="4.7166">
        <ele>267</ele>
        <time>2017-05-31T08:26:43.000Z</time>
      </trkpt>
      <trkpt lat="45.66495" lon="4.71656">
        <ele>267.39999389648</ele>
        <time>2017-05-31T08:26:44.000Z</time>
      </trkpt>
      <trkpt lat="45.66499" lon="4.71618">
        <ele>267.39999389648</ele>
        <time>2017-05-31T08:26:53.000Z</time>
      </trkpt>
      <trkpt lat="45.66504" lon="4.7158">
        <ele>267.79998779297</ele>
        <time>2017-05-31T08:27:02.000Z</time>
      </trkpt>
      <trkpt lat="45.66504" lon="4.71575">
        <ele>268.39999389648</ele>
        <time>2017-05-31T08:27:03.000Z</time>
      </trkpt>
      <trkpt lat="45.66505" lon="4.71571">
        <ele>268.79998779297</ele>
        <time>2017-05-31T08:27:04.000Z</time>
      </trkpt>
      <trkpt lat="45.66505" lon="4.71567">
        <ele>269.20001220703</ele>
        <time>2017-05-31T08:27:05.000Z</time>
      </trkpt>
      <trkpt lat="45.66506" lon="4.71563">
        <ele>269.60000610352</ele>
        <time>2017-05-31T08:27:06.000Z</time>
      </trkpt>
      <trkpt lat="45.6651" lon="4.71532">
        <ele>269.60000610352</ele>
        <time>2017-05-31T08:27:14.000Z</time>
      </trkpt>
      <trkpt lat="45.66515" lon="4.7151">
        <ele>270</ele>
        <time>2017-05-31T08:27:20.000Z</time>
      </trkpt>
      <trkpt lat="45.66516" lon="4.71506">
        <ele>270.39999389648</ele>
        <time>2017-05-31T08:27:21.000Z</time>
      </trkpt>
      <trkpt lat="45.66517" lon="4.71503">
        <ele>270.79998779297</ele>
        <time>2017-05-31T08:27:22.000Z</time>
      </trkpt>
      <trkpt lat="45.66518" lon="4.71499">
        <ele>271.20001220703</ele>
        <time>2017-05-31T08:27:23.000Z</time>
      </trkpt>
      <trkpt lat="45.66519" lon="4.71496">
        <ele>271.60000610352</ele>
        <time>2017-05-31T08:27:24.000Z</time>
      </trkpt>
      <trkpt lat="45.66527" lon="4.71474">
        <ele>271.60000610352</ele>
        <time>2017-05-31T08:27:31.000Z</time>
      </trkpt>
      <trkpt lat="45.66538" lon="4.7145">
        <ele>272</ele>
        <time>2017-05-31T08:27:39.000Z</time>
      </trkpt>
      <trkpt lat="45.66539" lon="4.71447">
        <ele>272.39999389648</ele>
        <time>2017-05-31T08:27:40.000Z</time>
      </trkpt>
      <trkpt lat="45.66541" lon="4.71444">
        <ele>272.79998779297</ele>
        <time>2017-05-31T08:27:41.000Z</time>
      </trkpt>
      <trkpt lat="45.66542" lon="4.71441">
        <ele>273.20001220703</ele>
        <time>2017-05-31T08:27:42.000Z</time>
      </trkpt>
      <trkpt lat="45.66543" lon="4.71437">
        <ele>273.60000610352</ele>
        <time>2017-05-31T08:27:43.000Z</time>
      </trkpt>
      <trkpt lat="45.66558" lon="4.71407">
        <ele>273.60000610352</ele>
        <time>2017-05-31T08:27:52.000Z</time>
      </trkpt>
      <trkpt lat="45.66578" lon="4.71365">
        <ele>273.60000610352</ele>
        <time>2017-05-31T08:28:04.000Z</time>
      </trkpt>
      <trkpt lat="45.66594" lon="4.71332">
        <ele>273.60000610352</ele>
        <time>2017-05-31T08:28:13.000Z</time>
      </trkpt>
      <trkpt lat="45.6662" lon="4.71276">
        <ele>273.60000610352</ele>
        <time>2017-05-31T08:28:28.000Z</time>
      </trkpt>
      <trkpt lat="45.66641" lon="4.71228">
        <ele>273.60000610352</ele>
        <time>2017-05-31T08:28:41.000Z</time>
      </trkpt>
      <trkpt lat="45.66663" lon="4.71168">
        <ele>273.60000610352</ele>
        <time>2017-05-31T08:28:56.000Z</time>
      </trkpt>
      <trkpt lat="45.66676" lon="4.71132">
        <ele>273.60000610352</ele>
        <time>2017-05-31T08:29:05.000Z</time>
      </trkpt>
      <trkpt lat="45.66678" lon="4.71125">
        <ele>274.20001220703</ele>
        <time>2017-05-31T08:29:07.000Z</time>
      </trkpt>
      <trkpt lat="45.6668" lon="4.71121">
        <ele>274.60000610352</ele>
        <time>2017-05-31T08:29:08.000Z</time>
      </trkpt>
      <trkpt lat="45.66681" lon="4.71117">
        <ele>275</ele>
        <time>2017-05-31T08:29:09.000Z</time>
      </trkpt>
      <trkpt lat="45.66683" lon="4.71113">
        <ele>275.39999389648</ele>
        <time>2017-05-31T08:29:10.000Z</time>
      </trkpt>
      <trkpt lat="45.66684" lon="4.7111">
        <ele>275.79998779297</ele>
        <time>2017-05-31T08:29:11.000Z</time>
      </trkpt>
      <trkpt lat="45.66692" lon="4.71087">
        <ele>275.79998779297</ele>
        <time>2017-05-31T08:29:17.000Z</time>
      </trkpt>
      <trkpt lat="45.66713" lon="4.71027">
        <ele>275.79998779297</ele>
        <time>2017-05-31T08:29:33.000Z</time>
      </trkpt>
      <trkpt lat="45.66726" lon="4.70994">
        <ele>275.79998779297</ele>
        <time>2017-05-31T08:29:42.000Z</time>
      </trkpt>
      <trkpt lat="45.66739" lon="4.70969">
        <ele>276.20001220703</ele>
        <time>2017-05-31T08:29:49.000Z</time>
      </trkpt>
      <trkpt lat="45.66741" lon="4.70965">
        <ele>276.79998779297</ele>
        <time>2017-05-31T08:29:50.000Z</time>
      </trkpt>
      <trkpt lat="45.66743" lon="4.70961">
        <ele>277.20001220703</ele>
        <time>2017-05-31T08:29:51.000Z</time>
      </trkpt>
      <trkpt lat="45.66745" lon="4.70958">
        <ele>277.60000610352</ele>
        <time>2017-05-31T08:29:52.000Z</time>
      </trkpt>
      <trkpt lat="45.66746" lon="4.70954">
        <ele>278</ele>
        <time>2017-05-31T08:29:53.000Z</time>
      </trkpt>
      <trkpt lat="45.66759" lon="4.70933">
        <ele>278</ele>
        <time>2017-05-31T08:29:59.000Z</time>
      </trkpt>
      <trkpt lat="45.66774" lon="4.70903">
        <ele>278</ele>
        <time>2017-05-31T08:30:07.000Z</time>
      </trkpt>
      <trkpt lat="45.66786" lon="4.70876">
        <ele>278</ele>
        <time>2017-05-31T08:30:15.000Z</time>
      </trkpt>
      <trkpt lat="45.66795" lon="4.70856">
        <ele>278</ele>
        <time>2017-05-31T08:30:21.000Z</time>
      </trkpt>
      <trkpt lat="45.66805" lon="4.70832">
        <ele>278</ele>
        <time>2017-05-31T08:30:28.000Z</time>
      </trkpt>
      <trkpt lat="45.66823" lon="4.70793">
        <ele>278.39999389648</ele>
        <time>2017-05-31T08:30:39.000Z</time>
      </trkpt>
      <trkpt lat="45.66824" lon="4.70789">
        <ele>278.79998779297</ele>
        <time>2017-05-31T08:30:40.000Z</time>
      </trkpt>
      <trkpt lat="45.66826" lon="4.70785">
        <ele>279.20001220703</ele>
        <time>2017-05-31T08:30:41.000Z</time>
      </trkpt>
      <trkpt lat="45.66828" lon="4.70782">
        <ele>279.60000610352</ele>
        <time>2017-05-31T08:30:42.000Z</time>
      </trkpt>
      <trkpt lat="45.66829" lon="4.70778">
        <ele>280</ele>
        <time>2017-05-31T08:30:43.000Z</time>
      </trkpt>
      <trkpt lat="45.66837" lon="4.70757">
        <ele>280</ele>
        <time>2017-05-31T08:30:49.000Z</time>
      </trkpt>
      <trkpt lat="45.66844" lon="4.70711">
        <ele>280</ele>
        <time>2017-05-31T08:31:01.000Z</time>
      </trkpt>
      <trkpt lat="45.66844" lon="4.70703">
        <ele>280.39999389648</ele>
        <time>2017-05-31T08:31:03.000Z</time>
      </trkpt>
      <trkpt lat="45.66844" lon="4.707">
        <ele>281</ele>
        <time>2017-05-31T08:31:04.000Z</time>
      </trkpt>
      <trkpt lat="45.66844" lon="4.70696">
        <ele>281.39999389648</ele>
        <time>2017-05-31T08:31:05.000Z</time>
      </trkpt>
      <trkpt lat="45.66844" lon="4.70693">
        <ele>281.79998779297</ele>
        <time>2017-05-31T08:31:06.000Z</time>
      </trkpt>
      <trkpt lat="45.66844" lon="4.7069">
        <ele>282.20001220703</ele>
        <time>2017-05-31T08:31:07.000Z</time>
      </trkpt>
      <trkpt lat="45.66842" lon="4.70657">
        <ele>282.20001220703</ele>
        <time>2017-05-31T08:31:16.000Z</time>
      </trkpt>
      <trkpt lat="45.66841" lon="4.70643">
        <ele>282.60000610352</ele>
        <time>2017-05-31T08:31:20.000Z</time>
      </trkpt>
      <trkpt lat="45.66841" lon="4.7064">
        <ele>283</ele>
        <time>2017-05-31T08:31:21.000Z</time>
      </trkpt>
      <trkpt lat="45.66841" lon="4.70636">
        <ele>283.39999389648</ele>
        <time>2017-05-31T08:31:22.000Z</time>
      </trkpt>
      <trkpt lat="45.66841" lon="4.70633">
        <ele>284</ele>
        <time>2017-05-31T08:31:23.000Z</time>
      </trkpt>
      <trkpt lat="45.66841" lon="4.70629">
        <ele>284.39999389648</ele>
        <time>2017-05-31T08:31:24.000Z</time>
      </trkpt>
      <trkpt lat="45.66839" lon="4.70618">
        <ele>284.39999389648</ele>
        <time>2017-05-31T08:31:27.000Z</time>
      </trkpt>
      <trkpt lat="45.66839" lon="4.70581">
        <ele>284.79998779297</ele>
        <time>2017-05-31T08:31:36.000Z</time>
      </trkpt>
      <trkpt lat="45.66839" lon="4.70577">
        <ele>285.20001220703</ele>
        <time>2017-05-31T08:31:37.000Z</time>
      </trkpt>
      <trkpt lat="45.66839" lon="4.70573">
        <ele>285.60000610352</ele>
        <time>2017-05-31T08:31:38.000Z</time>
      </trkpt>
      <trkpt lat="45.66839" lon="4.70569">
        <ele>286</ele>
        <time>2017-05-31T08:31:39.000Z</time>
      </trkpt>
      <trkpt lat="45.66839" lon="4.70565">
        <ele>286.39999389648</ele>
        <time>2017-05-31T08:31:40.000Z</time>
      </trkpt>
      <trkpt lat="45.6684" lon="4.70527">
        <ele>286.39999389648</ele>
        <time>2017-05-31T08:31:50.000Z</time>
      </trkpt>
      <trkpt lat="45.6684" lon="4.70511">
        <ele>287</ele>
        <time>2017-05-31T08:31:54.000Z</time>
      </trkpt>
      <trkpt lat="45.6684" lon="4.70507">
        <ele>287.39999389648</ele>
        <time>2017-05-31T08:31:55.000Z</time>
      </trkpt>
      <trkpt lat="45.6684" lon="4.70502">
        <ele>287.79998779297</ele>
        <time>2017-05-31T08:31:56.000Z</time>
      </trkpt>
      <trkpt lat="45.6684" lon="4.70498">
        <ele>288.39999389648</ele>
        <time>2017-05-31T08:31:57.000Z</time>
      </trkpt>
      <trkpt lat="45.66841" lon="4.70493">
        <ele>288.79998779297</ele>
        <time>2017-05-31T08:31:58.000Z</time>
      </trkpt>
      <trkpt lat="45.66842" lon="4.70472">
        <ele>288.79998779297</ele>
        <time>2017-05-31T08:32:03.000Z</time>
      </trkpt>
      <trkpt lat="45.66841" lon="4.70419">
        <ele>288.79998779297</ele>
        <time>2017-05-31T08:32:16.000Z</time>
      </trkpt>
      <trkpt lat="45.66842" lon="4.70387">
        <ele>288.79998779297</ele>
        <time>2017-05-31T08:32:25.000Z</time>
      </trkpt>
      <trkpt lat="45.66842" lon="4.70381">
        <ele>289.20001220703</ele>
        <time>2017-05-31T08:32:27.000Z</time>
      </trkpt>
      <trkpt lat="45.66842" lon="4.70377">
        <ele>289.60000610352</ele>
        <time>2017-05-31T08:32:28.000Z</time>
      </trkpt>
      <trkpt lat="45.66843" lon="4.70374">
        <ele>290</ele>
        <time>2017-05-31T08:32:29.000Z</time>
      </trkpt>
      <trkpt lat="45.66843" lon="4.7037">
        <ele>290.39999389648</ele>
        <time>2017-05-31T08:32:30.000Z</time>
      </trkpt>
      <trkpt lat="45.66843" lon="4.70367">
        <ele>290.79998779297</ele>
        <time>2017-05-31T08:32:31.000Z</time>
      </trkpt>
      <trkpt lat="45.66845" lon="4.70348">
        <ele>290.79998779297</ele>
        <time>2017-05-31T08:32:37.000Z</time>
      </trkpt>
      <trkpt lat="45.6685" lon="4.7032">
        <ele>290.79998779297</ele>
        <time>2017-05-31T08:32:46.000Z</time>
      </trkpt>
      <trkpt lat="45.66856" lon="4.70302">
        <ele>290.79998779297</ele>
        <time>2017-05-31T08:32:53.000Z</time>
      </trkpt>
      <trkpt lat="45.66861" lon="4.70293">
        <ele>290.79998779297</ele>
        <time>2017-05-31T08:33:00.000Z</time>
      </trkpt>
      <trkpt lat="45.66866" lon="4.70289">
        <ele>290.79998779297</ele>
        <time>2017-05-31T08:33:41.000Z</time>
      </trkpt>
      <trkpt lat="45.66869" lon="4.70271">
        <ele>290.79998779297</ele>
        <time>2017-05-31T08:33:46.000Z</time>
      </trkpt>
      <trkpt lat="45.66884" lon="4.70258">
        <ele>290.79998779297</ele>
        <time>2017-05-31T08:33:52.000Z</time>
      </trkpt>
      <trkpt lat="45.66902" lon="4.7024">
        <ele>290.79998779297</ele>
        <time>2017-05-31T08:33:58.000Z</time>
      </trkpt>
      <trkpt lat="45.66923" lon="4.70213">
        <ele>290.39999389648</ele>
        <time>2017-05-31T08:34:04.000Z</time>
      </trkpt>
      <trkpt lat="45.66927" lon="4.70209">
        <ele>290</ele>
        <time>2017-05-31T08:34:05.000Z</time>
      </trkpt>
      <trkpt lat="45.66931" lon="4.70205">
        <ele>289.60000610352</ele>
        <time>2017-05-31T08:34:06.000Z</time>
      </trkpt>
      <trkpt lat="45.66936" lon="4.70201">
        <ele>289.20001220703</ele>
        <time>2017-05-31T08:34:07.000Z</time>
      </trkpt>
      <trkpt lat="45.66939" lon="4.70196">
        <ele>288.79998779297</ele>
        <time>2017-05-31T08:34:08.000Z</time>
      </trkpt>
      <trkpt lat="45.66968" lon="4.70162">
        <ele>288.79998779297</ele>
        <time>2017-05-31T08:34:15.000Z</time>
      </trkpt>
      <trkpt lat="45.66991" lon="4.70135">
        <ele>288.39999389648</ele>
        <time>2017-05-31T08:34:20.000Z</time>
      </trkpt>
      <trkpt lat="45.66995" lon="4.70129">
        <ele>288</ele>
        <time>2017-05-31T08:34:21.000Z</time>
      </trkpt>
      <trkpt lat="45.66999" lon="4.70123">
        <ele>287.60000610352</ele>
        <time>2017-05-31T08:34:22.000Z</time>
      </trkpt>
      <trkpt lat="45.67004" lon="4.70117">
        <ele>287.20001220703</ele>
        <time>2017-05-31T08:34:23.000Z</time>
      </trkpt>
      <trkpt lat="45.67008" lon="4.70111">
        <ele>286.79998779297</ele>
        <time>2017-05-31T08:34:24.000Z</time>
      </trkpt>
      <trkpt lat="45.67039" lon="4.70054">
        <ele>286.79998779297</ele>
        <time>2017-05-31T08:34:33.000Z</time>
      </trkpt>
      <trkpt lat="45.67059" lon="4.70012">
        <ele>286.79998779297</ele>
        <time>2017-05-31T08:34:40.000Z</time>
      </trkpt>
      <trkpt lat="45.6707" lon="4.69983">
        <ele>286.39999389648</ele>
        <time>2017-05-31T08:34:45.000Z</time>
      </trkpt>
      <trkpt lat="45.67072" lon="4.69977">
        <ele>285.79998779297</ele>
        <time>2017-05-31T08:34:46.000Z</time>
      </trkpt>
      <trkpt lat="45.67074" lon="4.69971">
        <ele>285.39999389648</ele>
        <time>2017-05-31T08:34:47.000Z</time>
      </trkpt>
      <trkpt lat="45.67077" lon="4.69965">
        <ele>285</ele>
        <time>2017-05-31T08:34:48.000Z</time>
      </trkpt>
      <trkpt lat="45.67079" lon="4.6996">
        <ele>284.60000610352</ele>
        <time>2017-05-31T08:34:49.000Z</time>
      </trkpt>
      <trkpt lat="45.67081" lon="4.69954">
        <ele>284.60000610352</ele>
        <time>2017-05-31T08:34:50.000Z</time>
      </trkpt>
      <trkpt lat="45.67094" lon="4.69907">
        <ele>284.60000610352</ele>
        <time>2017-05-31T08:34:57.000Z</time>
      </trkpt>
      <trkpt lat="45.67099" lon="4.69891">
        <ele>284.20001220703</ele>
        <time>2017-05-31T08:34:59.000Z</time>
      </trkpt>
      <trkpt lat="45.67102" lon="4.69885">
        <ele>283.79998779297</ele>
        <time>2017-05-31T08:35:00.000Z</time>
      </trkpt>
      <trkpt lat="45.67106" lon="4.6988">
        <ele>283.39999389648</ele>
        <time>2017-05-31T08:35:01.000Z</time>
      </trkpt>
      <trkpt lat="45.67111" lon="4.69877">
        <ele>282.60000610352</ele>
        <time>2017-05-31T08:35:02.000Z</time>
      </trkpt>
      <trkpt lat="45.67117" lon="4.69875">
        <ele>282</ele>
        <time>2017-05-31T08:35:03.000Z</time>
      </trkpt>
      <trkpt lat="45.67123" lon="4.69876">
        <ele>281.20001220703</ele>
        <time>2017-05-31T08:35:04.000Z</time>
      </trkpt>
      <trkpt lat="45.67128" lon="4.69876">
        <ele>280.60000610352</ele>
        <time>2017-05-31T08:35:05.000Z</time>
      </trkpt>
      <trkpt lat="45.67133" lon="4.69878">
        <ele>280</ele>
        <time>2017-05-31T08:35:06.000Z</time>
      </trkpt>
      <trkpt lat="45.67138" lon="4.69879">
        <ele>279.20001220703</ele>
        <time>2017-05-31T08:35:07.000Z</time>
      </trkpt>
      <trkpt lat="45.67142" lon="4.69881">
        <ele>278.60000610352</ele>
        <time>2017-05-31T08:35:08.000Z</time>
      </trkpt>
      <trkpt lat="45.67146" lon="4.69883">
        <ele>278</ele>
        <time>2017-05-31T08:35:09.000Z</time>
      </trkpt>
      <trkpt lat="45.67151" lon="4.69885">
        <ele>277.20001220703</ele>
        <time>2017-05-31T08:35:10.000Z</time>
      </trkpt>
      <trkpt lat="45.67155" lon="4.69887">
        <ele>276.60000610352</ele>
        <time>2017-05-31T08:35:11.000Z</time>
      </trkpt>
      <trkpt lat="45.6716" lon="4.69889">
        <ele>276</ele>
        <time>2017-05-31T08:35:12.000Z</time>
      </trkpt>
      <trkpt lat="45.67165" lon="4.69891">
        <ele>275.39999389648</ele>
        <time>2017-05-31T08:35:13.000Z</time>
      </trkpt>
      <trkpt lat="45.67171" lon="4.69893">
        <ele>275.39999389648</ele>
        <time>2017-05-31T08:35:14.000Z</time>
      </trkpt>
      <trkpt lat="45.67177" lon="4.69895">
        <ele>275</ele>
        <time>2017-05-31T08:35:15.000Z</time>
      </trkpt>
      <trkpt lat="45.67183" lon="4.69895">
        <ele>274.60000610352</ele>
        <time>2017-05-31T08:35:16.000Z</time>
      </trkpt>
      <trkpt lat="45.67189" lon="4.69894">
        <ele>274.20001220703</ele>
        <time>2017-05-31T08:35:17.000Z</time>
      </trkpt>
      <trkpt lat="45.67194" lon="4.69893">
        <ele>273.60000610352</ele>
        <time>2017-05-31T08:35:18.000Z</time>
      </trkpt>
      <trkpt lat="45.67199" lon="4.6989">
        <ele>273.20001220703</ele>
        <time>2017-05-31T08:35:19.000Z</time>
      </trkpt>
      <trkpt lat="45.67214" lon="4.69885">
        <ele>273.20001220703</ele>
        <time>2017-05-31T08:35:22.000Z</time>
      </trkpt>
      <trkpt lat="45.67219" lon="4.69885">
        <ele>273.20001220703</ele>
        <time>2017-05-31T08:35:23.000Z</time>
      </trkpt>
      <trkpt lat="45.6724" lon="4.69898">
        <ele>273.20001220703</ele>
        <time>2017-05-31T08:35:28.000Z</time>
      </trkpt>
      <trkpt lat="45.67243" lon="4.69901">
        <ele>273.20001220703</ele>
        <time>2017-05-31T08:35:29.000Z</time>
      </trkpt>
      <trkpt lat="45.67255" lon="4.69917">
        <ele>273.20001220703</ele>
        <time>2017-05-31T08:35:34.000Z</time>
      </trkpt>
      <trkpt lat="45.67271" lon="4.69944">
        <ele>273.79998779297</ele>
        <time>2017-05-31T08:35:41.000Z</time>
      </trkpt>
      <trkpt lat="45.67273" lon="4.69948">
        <ele>274.20001220703</ele>
        <time>2017-05-31T08:35:42.000Z</time>
      </trkpt>
      <trkpt lat="45.67275" lon="4.69952">
        <ele>274.60000610352</ele>
        <time>2017-05-31T08:35:43.000Z</time>
      </trkpt>
      <trkpt lat="45.67277" lon="4.69955">
        <ele>275</ele>
        <time>2017-05-31T08:35:44.000Z</time>
      </trkpt>
      <trkpt lat="45.67279" lon="4.69958">
        <ele>275.39999389648</ele>
        <time>2017-05-31T08:35:45.000Z</time>
      </trkpt>
      <trkpt lat="45.6729" lon="4.69974">
        <ele>275.39999389648</ele>
        <time>2017-05-31T08:35:50.000Z</time>
      </trkpt>
      <trkpt lat="45.67295" lon="4.69981">
        <ele>276.20001220703</ele>
        <time>2017-05-31T08:35:52.000Z</time>
      </trkpt>
      <trkpt lat="45.67298" lon="4.69984">
        <ele>276.79998779297</ele>
        <time>2017-05-31T08:35:53.000Z</time>
      </trkpt>
      <trkpt lat="45.673" lon="4.69987">
        <ele>277.20001220703</ele>
        <time>2017-05-31T08:35:54.000Z</time>
      </trkpt>
      <trkpt lat="45.67302" lon="4.6999">
        <ele>277.60000610352</ele>
        <time>2017-05-31T08:35:55.000Z</time>
      </trkpt>
      <trkpt lat="45.67309" lon="4.69999">
        <ele>277.60000610352</ele>
        <time>2017-05-31T08:35:58.000Z</time>
      </trkpt>
      <trkpt lat="45.67311" lon="4.70002">
        <ele>278</ele>
        <time>2017-05-31T08:35:59.000Z</time>
      </trkpt>
      <trkpt lat="45.67314" lon="4.70005">
        <ele>278.39999389648</ele>
        <time>2017-05-31T08:36:00.000Z</time>
      </trkpt>
      <trkpt lat="45.67319" lon="4.7001">
        <ele>279.20001220703</ele>
        <time>2017-05-31T08:36:02.000Z</time>
      </trkpt>
      <trkpt lat="45.67321" lon="4.70013">
        <ele>279.60000610352</ele>
        <time>2017-05-31T08:36:03.000Z</time>
      </trkpt>
      <trkpt lat="45.67323" lon="4.70016">
        <ele>279.60000610352</ele>
        <time>2017-05-31T08:36:04.000Z</time>
      </trkpt>
      <trkpt lat="45.6733" lon="4.70024">
        <ele>280</ele>
        <time>2017-05-31T08:36:07.000Z</time>
      </trkpt>
      <trkpt lat="45.67332" lon="4.70027">
        <ele>280.60000610352</ele>
        <time>2017-05-31T08:36:08.000Z</time>
      </trkpt>
      <trkpt lat="45.67335" lon="4.7003">
        <ele>281</ele>
        <time>2017-05-31T08:36:09.000Z</time>
      </trkpt>
      <trkpt lat="45.67338" lon="4.70033">
        <ele>281.39999389648</ele>
        <time>2017-05-31T08:36:10.000Z</time>
      </trkpt>
      <trkpt lat="45.67341" lon="4.70036">
        <ele>281.79998779297</ele>
        <time>2017-05-31T08:36:11.000Z</time>
      </trkpt>
      <trkpt lat="45.67346" lon="4.70042">
        <ele>281.79998779297</ele>
        <time>2017-05-31T08:36:13.000Z</time>
      </trkpt>
      <trkpt lat="45.67356" lon="4.70063">
        <ele>281.79998779297</ele>
        <time>2017-05-31T08:36:18.000Z</time>
      </trkpt>
      <trkpt lat="45.67372" lon="4.70071">
        <ele>281.79998779297</ele>
        <time>2017-05-31T08:36:23.000Z</time>
      </trkpt>
      <trkpt lat="45.67391" lon="4.70063">
        <ele>281.79998779297</ele>
        <time>2017-05-31T08:36:29.000Z</time>
      </trkpt>
      <trkpt lat="45.67397" lon="4.70065">
        <ele>281.79998779297</ele>
        <time>2017-05-31T08:36:31.000Z</time>
      </trkpt>
      <trkpt lat="45.67405" lon="4.70069">
        <ele>282.20001220703</ele>
        <time>2017-05-31T08:36:34.000Z</time>
      </trkpt>
      <trkpt lat="45.67407" lon="4.70071">
        <ele>282.60000610352</ele>
        <time>2017-05-31T08:36:35.000Z</time>
      </trkpt>
      <trkpt lat="45.67409" lon="4.70072">
        <ele>283</ele>
        <time>2017-05-31T08:36:36.000Z</time>
      </trkpt>
      <trkpt lat="45.67412" lon="4.70074">
        <ele>283.39999389648</ele>
        <time>2017-05-31T08:36:37.000Z</time>
      </trkpt>
      <trkpt lat="45.67414" lon="4.70077">
        <ele>283.79998779297</ele>
        <time>2017-05-31T08:36:38.000Z</time>
      </trkpt>
      <trkpt lat="45.67422" lon="4.70087">
        <ele>283.79998779297</ele>
        <time>2017-05-31T08:36:42.000Z</time>
      </trkpt>
      <trkpt lat="45.67433" lon="4.70099">
        <ele>284.20001220703</ele>
        <time>2017-05-31T08:36:48.000Z</time>
      </trkpt>
      <trkpt lat="45.67434" lon="4.70101">
        <ele>284.60000610352</ele>
        <time>2017-05-31T08:36:49.000Z</time>
      </trkpt>
      <trkpt lat="45.67436" lon="4.70104">
        <ele>285</ele>
        <time>2017-05-31T08:36:50.000Z</time>
      </trkpt>
      <trkpt lat="45.67438" lon="4.70105">
        <ele>285.39999389648</ele>
        <time>2017-05-31T08:36:51.000Z</time>
      </trkpt>
      <trkpt lat="45.67439" lon="4.70107">
        <ele>285.79998779297</ele>
        <time>2017-05-31T08:36:52.000Z</time>
      </trkpt>
      <trkpt lat="45.67452" lon="4.70116">
        <ele>285.79998779297</ele>
        <time>2017-05-31T08:36:59.000Z</time>
      </trkpt>
      <trkpt lat="45.67467" lon="4.7012">
        <ele>285.79998779297</ele>
        <time>2017-05-31T08:37:06.000Z</time>
      </trkpt>
      <trkpt lat="45.67484" lon="4.70121">
        <ele>286.20001220703</ele>
        <time>2017-05-31T08:37:14.000Z</time>
      </trkpt>
      <trkpt lat="45.67486" lon="4.70121">
        <ele>286.60000610352</ele>
        <time>2017-05-31T08:37:15.000Z</time>
      </trkpt>
      <trkpt lat="45.67489" lon="4.70121">
        <ele>287.20001220703</ele>
        <time>2017-05-31T08:37:16.000Z</time>
      </trkpt>
      <trkpt lat="45.67491" lon="4.7012">
        <ele>287.60000610352</ele>
        <time>2017-05-31T08:37:17.000Z</time>
      </trkpt>
      <trkpt lat="45.67493" lon="4.7012">
        <ele>288</ele>
        <time>2017-05-31T08:37:18.000Z</time>
      </trkpt>
      <trkpt lat="45.675" lon="4.70119">
        <ele>288</ele>
        <time>2017-05-31T08:37:21.000Z</time>
      </trkpt>
      <trkpt lat="45.67514" lon="4.70124">
        <ele>288.39999389648</ele>
        <time>2017-05-31T08:37:27.000Z</time>
      </trkpt>
      <trkpt lat="45.67516" lon="4.70125">
        <ele>288.79998779297</ele>
        <time>2017-05-31T08:37:28.000Z</time>
      </trkpt>
      <trkpt lat="45.67518" lon="4.70125">
        <ele>289.20001220703</ele>
        <time>2017-05-31T08:37:29.000Z</time>
      </trkpt>
      <trkpt lat="45.67521" lon="4.70125">
        <ele>289.60000610352</ele>
        <time>2017-05-31T08:37:30.000Z</time>
      </trkpt>
      <trkpt lat="45.67523" lon="4.70126">
        <ele>290</ele>
        <time>2017-05-31T08:37:31.000Z</time>
      </trkpt>
      <trkpt lat="45.6754" lon="4.7013">
        <ele>290</ele>
        <time>2017-05-31T08:37:38.000Z</time>
      </trkpt>
      <trkpt lat="45.67565" lon="4.70138">
        <ele>290</ele>
        <time>2017-05-31T08:37:49.000Z</time>
      </trkpt>
      <trkpt lat="45.67581" lon="4.70143">
        <ele>290.39999389648</ele>
        <time>2017-05-31T08:37:55.000Z</time>
      </trkpt>
      <trkpt lat="45.67583" lon="4.70144">
        <ele>290.79998779297</ele>
        <time>2017-05-31T08:37:56.000Z</time>
      </trkpt>
      <trkpt lat="45.67585" lon="4.70145">
        <ele>291.20001220703</ele>
        <time>2017-05-31T08:37:57.000Z</time>
      </trkpt>
      <trkpt lat="45.67587" lon="4.70145">
        <ele>291.20001220703</ele>
        <time>2017-05-31T08:37:58.000Z</time>
      </trkpt>
      <trkpt lat="45.6759" lon="4.70146">
        <ele>292</ele>
        <time>2017-05-31T08:37:59.000Z</time>
      </trkpt>
      <trkpt lat="45.67608" lon="4.70154">
        <ele>292</ele>
        <time>2017-05-31T08:38:07.000Z</time>
      </trkpt>
      <trkpt lat="45.67629" lon="4.70159">
        <ele>292</ele>
        <time>2017-05-31T08:38:14.000Z</time>
      </trkpt>
      <trkpt lat="45.67657" lon="4.70165">
        <ele>292</ele>
        <time>2017-05-31T08:38:22.000Z</time>
      </trkpt>
      <trkpt lat="45.67673" lon="4.70168">
        <ele>292</ele>
        <time>2017-05-31T08:38:27.000Z</time>
      </trkpt>
      <trkpt lat="45.67677" lon="4.70169">
        <ele>291.60000610352</ele>
        <time>2017-05-31T08:38:28.000Z</time>
      </trkpt>
      <trkpt lat="45.67682" lon="4.7017">
        <ele>291.20001220703</ele>
        <time>2017-05-31T08:38:29.000Z</time>
      </trkpt>
      <trkpt lat="45.67685" lon="4.70171">
        <ele>290.79998779297</ele>
        <time>2017-05-31T08:38:30.000Z</time>
      </trkpt>
      <trkpt lat="45.67689" lon="4.70173">
        <ele>290.39999389648</ele>
        <time>2017-05-31T08:38:31.000Z</time>
      </trkpt>
      <trkpt lat="45.67693" lon="4.70174">
        <ele>290</ele>
        <time>2017-05-31T08:38:32.000Z</time>
      </trkpt>
      <trkpt lat="45.67697" lon="4.70176">
        <ele>290</ele>
        <time>2017-05-31T08:38:33.000Z</time>
      </trkpt>
      <trkpt lat="45.67701" lon="4.70178">
        <ele>290</ele>
        <time>2017-05-31T08:38:34.000Z</time>
      </trkpt>
      <trkpt lat="45.67713" lon="4.70186">
        <ele>289.60000610352</ele>
        <time>2017-05-31T08:38:37.000Z</time>
      </trkpt>
      <trkpt lat="45.67718" lon="4.70189">
        <ele>289.20001220703</ele>
        <time>2017-05-31T08:38:38.000Z</time>
      </trkpt>
      <trkpt lat="45.67726" lon="4.70196">
        <ele>288.39999389648</ele>
        <time>2017-05-31T08:38:40.000Z</time>
      </trkpt>
      <trkpt lat="45.67734" lon="4.70204">
        <ele>287.79998779297</ele>
        <time>2017-05-31T08:38:42.000Z</time>
      </trkpt>
      <trkpt lat="45.67744" lon="4.70211">
        <ele>287.79998779297</ele>
        <time>2017-05-31T08:38:44.000Z</time>
      </trkpt>
      <trkpt lat="45.67759" lon="4.70224">
        <ele>287.39999389648</ele>
        <time>2017-05-31T08:38:47.000Z</time>
      </trkpt>
      <trkpt lat="45.67764" lon="4.70231">
        <ele>287.39999389648</ele>
        <time>2017-05-31T08:38:48.000Z</time>
      </trkpt>
      <trkpt lat="45.67768" lon="4.70236">
        <ele>287</ele>
        <time>2017-05-31T08:38:49.000Z</time>
      </trkpt>
      <trkpt lat="45.67771" lon="4.7024">
        <ele>286.60000610352</ele>
        <time>2017-05-31T08:38:50.000Z</time>
      </trkpt>
      <trkpt lat="45.67775" lon="4.70244">
        <ele>286.20001220703</ele>
        <time>2017-05-31T08:38:51.000Z</time>
      </trkpt>
      <trkpt lat="45.67779" lon="4.70251">
        <ele>285.79998779297</ele>
        <time>2017-05-31T08:38:52.000Z</time>
      </trkpt>
      <trkpt lat="45.6779" lon="4.7027">
        <ele>285.79998779297</ele>
        <time>2017-05-31T08:38:55.000Z</time>
      </trkpt>
      <trkpt lat="45.67797" lon="4.70287">
        <ele>285.79998779297</ele>
        <time>2017-05-31T08:39:00.000Z</time>
      </trkpt>
      <trkpt lat="45.67807" lon="4.70316">
        <ele>285.79998779297</ele>
        <time>2017-05-31T08:39:09.000Z</time>
      </trkpt>
      <trkpt lat="45.67815" lon="4.70344">
        <ele>285.79998779297</ele>
        <time>2017-05-31T08:39:15.000Z</time>
      </trkpt>
      <trkpt lat="45.67814" lon="4.70355">
        <ele>285.79998779297</ele>
        <time>2017-05-31T08:39:17.000Z</time>
      </trkpt>
      <trkpt lat="45.67812" lon="4.70361">
        <ele>285.79998779297</ele>
        <time>2017-05-31T08:39:18.000Z</time>
      </trkpt>
      <trkpt lat="45.6781" lon="4.70404">
        <ele>285.79998779297</ele>
        <time>2017-05-31T08:39:24.000Z</time>
      </trkpt>
      <trkpt lat="45.67812" lon="4.70419">
        <ele>285.39999389648</ele>
        <time>2017-05-31T08:39:26.000Z</time>
      </trkpt>
      <trkpt lat="45.67814" lon="4.70425">
        <ele>285</ele>
        <time>2017-05-31T08:39:27.000Z</time>
      </trkpt>
      <trkpt lat="45.67816" lon="4.7043">
        <ele>284.60000610352</ele>
        <time>2017-05-31T08:39:28.000Z</time>
      </trkpt>
      <trkpt lat="45.67818" lon="4.70435">
        <ele>284.20001220703</ele>
        <time>2017-05-31T08:39:29.000Z</time>
      </trkpt>
      <trkpt lat="45.67821" lon="4.70439">
        <ele>283.79998779297</ele>
        <time>2017-05-31T08:39:30.000Z</time>
      </trkpt>
      <trkpt lat="45.67827" lon="4.70453">
        <ele>283.79998779297</ele>
        <time>2017-05-31T08:39:33.000Z</time>
      </trkpt>
      <trkpt lat="45.67829" lon="4.70455">
        <ele>283.39999389648</ele>
        <time>2017-05-31T08:39:34.000Z</time>
      </trkpt>
      <trkpt lat="45.67831" lon="4.70458">
        <ele>282.79998779297</ele>
        <time>2017-05-31T08:39:35.000Z</time>
      </trkpt>
      <trkpt lat="45.67832" lon="4.7046">
        <ele>282.39999389648</ele>
        <time>2017-05-31T08:39:36.000Z</time>
      </trkpt>
      <trkpt lat="45.67832" lon="4.70463">
        <ele>282</ele>
        <time>2017-05-31T08:39:37.000Z</time>
      </trkpt>
      <trkpt lat="45.67833" lon="4.70465">
        <ele>281.60000610352</ele>
        <time>2017-05-31T08:39:38.000Z</time>
      </trkpt>
      <trkpt lat="45.67835" lon="4.70473">
        <ele>281.60000610352</ele>
        <time>2017-05-31T08:39:41.000Z</time>
      </trkpt>
      <trkpt lat="45.67845" lon="4.70477">
        <ele>281.60000610352</ele>
        <time>2017-05-31T08:39:45.000Z</time>
      </trkpt>
      <trkpt lat="45.67847" lon="4.70476">
        <ele>281.60000610352</ele>
        <time>2017-05-31T08:39:46.000Z</time>
      </trkpt>
      <trkpt lat="45.67858" lon="4.70455">
        <ele>281.60000610352</ele>
        <time>2017-05-31T08:39:53.000Z</time>
      </trkpt>
      <trkpt lat="45.67871" lon="4.70441">
        <ele>282</ele>
        <time>2017-05-31T08:39:59.000Z</time>
      </trkpt>
      <trkpt lat="45.67873" lon="4.70438">
        <ele>282.39999389648</ele>
        <time>2017-05-31T08:40:00.000Z</time>
      </trkpt>
      <trkpt lat="45.67875" lon="4.70435">
        <ele>282.79998779297</ele>
        <time>2017-05-31T08:40:01.000Z</time>
      </trkpt>
      <trkpt lat="45.67877" lon="4.70433">
        <ele>283.20001220703</ele>
        <time>2017-05-31T08:40:02.000Z</time>
      </trkpt>
      <trkpt lat="45.67878" lon="4.70431">
        <ele>283.60000610352</ele>
        <time>2017-05-31T08:40:03.000Z</time>
      </trkpt>
      <trkpt lat="45.67891" lon="4.70414">
        <ele>284</ele>
        <time>2017-05-31T08:40:09.000Z</time>
      </trkpt>
      <trkpt lat="45.67893" lon="4.70412">
        <ele>284.39999389648</ele>
        <time>2017-05-31T08:40:10.000Z</time>
      </trkpt>
      <trkpt lat="45.67895" lon="4.70409">
        <ele>284.79998779297</ele>
        <time>2017-05-31T08:40:11.000Z</time>
      </trkpt>
      <trkpt lat="45.67896" lon="4.70406">
        <ele>285.39999389648</ele>
        <time>2017-05-31T08:40:12.000Z</time>
      </trkpt>
      <trkpt lat="45.67898" lon="4.70404">
        <ele>285.79998779297</ele>
        <time>2017-05-31T08:40:13.000Z</time>
      </trkpt>
      <trkpt lat="45.67902" lon="4.70398">
        <ele>285.79998779297</ele>
        <time>2017-05-31T08:40:15.000Z</time>
      </trkpt>
      <trkpt lat="45.67908" lon="4.70392">
        <ele>286.20001220703</ele>
        <time>2017-05-31T08:40:18.000Z</time>
      </trkpt>
      <trkpt lat="45.6791" lon="4.7039">
        <ele>286.60000610352</ele>
        <time>2017-05-31T08:40:19.000Z</time>
      </trkpt>
      <trkpt lat="45.67912" lon="4.70388">
        <ele>287</ele>
        <time>2017-05-31T08:40:20.000Z</time>
      </trkpt>
      <trkpt lat="45.67914" lon="4.70387">
        <ele>287.39999389648</ele>
        <time>2017-05-31T08:40:21.000Z</time>
      </trkpt>
      <trkpt lat="45.67916" lon="4.70385">
        <ele>287.79998779297</ele>
        <time>2017-05-31T08:40:22.000Z</time>
      </trkpt>
      <trkpt lat="45.67919" lon="4.70384">
        <ele>287.79998779297</ele>
        <time>2017-05-31T08:40:23.000Z</time>
      </trkpt>
      <trkpt lat="45.67933" lon="4.70385">
        <ele>287.79998779297</ele>
        <time>2017-05-31T08:40:29.000Z</time>
      </trkpt>
      <trkpt lat="45.6795" lon="4.70391">
        <ele>288.20001220703</ele>
        <time>2017-05-31T08:40:36.000Z</time>
      </trkpt>
      <trkpt lat="45.67952" lon="4.70391">
        <ele>288.60000610352</ele>
        <time>2017-05-31T08:40:37.000Z</time>
      </trkpt>
      <trkpt lat="45.67954" lon="4.70392">
        <ele>289</ele>
        <time>2017-05-31T08:40:38.000Z</time>
      </trkpt>
      <trkpt lat="45.67956" lon="4.70393">
        <ele>289.39999389648</ele>
        <time>2017-05-31T08:40:39.000Z</time>
      </trkpt>
      <trkpt lat="45.67958" lon="4.70394">
        <ele>289.79998779297</ele>
        <time>2017-05-31T08:40:40.000Z</time>
      </trkpt>
      <trkpt lat="45.67971" lon="4.70396">
        <ele>289.79998779297</ele>
        <time>2017-05-31T08:40:46.000Z</time>
      </trkpt>
      <trkpt lat="45.67985" lon="4.70393">
        <ele>289.79998779297</ele>
        <time>2017-05-31T08:40:53.000Z</time>
      </trkpt>
      <trkpt lat="45.6799" lon="4.70393">
        <ele>290.20001220703</ele>
        <time>2017-05-31T08:40:55.000Z</time>
      </trkpt>
      <trkpt lat="45.67992" lon="4.70392">
        <ele>290.60000610352</ele>
        <time>2017-05-31T08:40:56.000Z</time>
      </trkpt>
      <trkpt lat="45.67995" lon="4.70391">
        <ele>291.20001220703</ele>
        <time>2017-05-31T08:40:57.000Z</time>
      </trkpt>
      <trkpt lat="45.67998" lon="4.70391">
        <ele>291.60000610352</ele>
        <time>2017-05-31T08:40:58.000Z</time>
      </trkpt>
      <trkpt lat="45.68" lon="4.70391">
        <ele>292</ele>
        <time>2017-05-31T08:40:59.000Z</time>
      </trkpt>
      <trkpt lat="45.68003" lon="4.7039">
        <ele>292</ele>
        <time>2017-05-31T08:41:00.000Z</time>
      </trkpt>
      <trkpt lat="45.68023" lon="4.70379">
        <ele>292</ele>
        <time>2017-05-31T08:41:08.000Z</time>
      </trkpt>
      <trkpt lat="45.68045" lon="4.70368">
        <ele>292</ele>
        <time>2017-05-31T08:41:16.000Z</time>
      </trkpt>
      <trkpt lat="45.68072" lon="4.70346">
        <ele>292</ele>
        <time>2017-05-31T08:41:24.000Z</time>
      </trkpt>
      <trkpt lat="45.68106" lon="4.70329">
        <ele>292</ele>
        <time>2017-05-31T08:41:32.000Z</time>
      </trkpt>
      <trkpt lat="45.68141" lon="4.70319">
        <ele>291.39999389648</ele>
        <time>2017-05-31T08:41:40.000Z</time>
      </trkpt>
      <trkpt lat="45.68144" lon="4.70319">
        <ele>291</ele>
        <time>2017-05-31T08:41:41.000Z</time>
      </trkpt>
      <trkpt lat="45.68148" lon="4.70319">
        <ele>290.60000610352</ele>
        <time>2017-05-31T08:41:42.000Z</time>
      </trkpt>
      <trkpt lat="45.68152" lon="4.70319">
        <ele>290.20001220703</ele>
        <time>2017-05-31T08:41:43.000Z</time>
      </trkpt>
      <trkpt lat="45.68156" lon="4.70319">
        <ele>289.60000610352</ele>
        <time>2017-05-31T08:41:44.000Z</time>
      </trkpt>
      <trkpt lat="45.68175" lon="4.70318">
        <ele>289.60000610352</ele>
        <time>2017-05-31T08:41:49.000Z</time>
      </trkpt>
      <trkpt lat="45.68204" lon="4.70317">
        <ele>289.60000610352</ele>
        <time>2017-05-31T08:41:57.000Z</time>
      </trkpt>
      <trkpt lat="45.68227" lon="4.70317">
        <ele>289.60000610352</ele>
        <time>2017-05-31T08:42:04.000Z</time>
      </trkpt>
      <trkpt lat="45.68239" lon="4.70319">
        <ele>290.20001220703</ele>
        <time>2017-05-31T08:42:08.000Z</time>
      </trkpt>
      <trkpt lat="45.68242" lon="4.70319">
        <ele>290.60000610352</ele>
        <time>2017-05-31T08:42:09.000Z</time>
      </trkpt>
      <trkpt lat="45.68245" lon="4.70319">
        <ele>291</ele>
        <time>2017-05-31T08:42:10.000Z</time>
      </trkpt>
      <trkpt lat="45.68247" lon="4.70318">
        <ele>291.60000610352</ele>
        <time>2017-05-31T08:42:11.000Z</time>
      </trkpt>
      <trkpt lat="45.6825" lon="4.70318">
        <ele>292</ele>
        <time>2017-05-31T08:42:12.000Z</time>
      </trkpt>
      <trkpt lat="45.68263" lon="4.70313">
        <ele>292</ele>
        <time>2017-05-31T08:42:17.000Z</time>
      </trkpt>
      <trkpt lat="45.68287" lon="4.70312">
        <ele>292</ele>
        <time>2017-05-31T08:42:25.000Z</time>
      </trkpt>
      <trkpt lat="45.68299" lon="4.7031">
        <ele>292.39999389648</ele>
        <time>2017-05-31T08:42:30.000Z</time>
      </trkpt>
      <trkpt lat="45.68302" lon="4.70311">
        <ele>292.79998779297</ele>
        <time>2017-05-31T08:42:31.000Z</time>
      </trkpt>
      <trkpt lat="45.68304" lon="4.70311">
        <ele>293.39999389648</ele>
        <time>2017-05-31T08:42:32.000Z</time>
      </trkpt>
      <trkpt lat="45.68307" lon="4.7031">
        <ele>293.79998779297</ele>
        <time>2017-05-31T08:42:33.000Z</time>
      </trkpt>
      <trkpt lat="45.6831" lon="4.70309">
        <ele>294.20001220703</ele>
        <time>2017-05-31T08:42:34.000Z</time>
      </trkpt>
      <trkpt lat="45.68322" lon="4.70309">
        <ele>294.20001220703</ele>
        <time>2017-05-31T08:42:39.000Z</time>
      </trkpt>
      <trkpt lat="45.68342" lon="4.70309">
        <ele>294.20001220703</ele>
        <time>2017-05-31T08:42:47.000Z</time>
      </trkpt>
      <trkpt lat="45.68359" lon="4.70308">
        <ele>294.20001220703</ele>
        <time>2017-05-31T08:42:53.000Z</time>
      </trkpt>
      <trkpt lat="45.6838" lon="4.70309">
        <ele>294.20001220703</ele>
        <time>2017-05-31T08:43:01.000Z</time>
      </trkpt>
      <trkpt lat="45.68399" lon="4.70314">
        <ele>294.20001220703</ele>
        <time>2017-05-31T08:43:08.000Z</time>
      </trkpt>
      <trkpt lat="45.68415" lon="4.70335">
        <ele>294.20001220703</ele>
        <time>2017-05-31T08:43:14.000Z</time>
      </trkpt>
      <trkpt lat="45.68428" lon="4.70368">
        <ele>294.20001220703</ele>
        <time>2017-05-31T08:43:21.000Z</time>
      </trkpt>
      <trkpt lat="45.68441" lon="4.70412">
        <ele>294.20001220703</ele>
        <time>2017-05-31T08:43:29.000Z</time>
      </trkpt>
      <trkpt lat="45.68444" lon="4.70417">
        <ele>294.20001220703</ele>
        <time>2017-05-31T08:43:30.000Z</time>
      </trkpt>
      <trkpt lat="45.68456" lon="4.70429">
        <ele>294.20001220703</ele>
        <time>2017-05-31T08:43:33.000Z</time>
      </trkpt>
      <trkpt lat="45.68467" lon="4.70433">
        <ele>293.79998779297</ele>
        <time>2017-05-31T08:43:35.000Z</time>
      </trkpt>
      <trkpt lat="45.68471" lon="4.70433">
        <ele>293.20001220703</ele>
        <time>2017-05-31T08:43:36.000Z</time>
      </trkpt>
      <trkpt lat="45.68475" lon="4.70433">
        <ele>292.79998779297</ele>
        <time>2017-05-31T08:43:37.000Z</time>
      </trkpt>
      <trkpt lat="45.68479" lon="4.70431">
        <ele>292.20001220703</ele>
        <time>2017-05-31T08:43:38.000Z</time>
      </trkpt>
      <trkpt lat="45.68483" lon="4.70428">
        <ele>291.79998779297</ele>
        <time>2017-05-31T08:43:39.000Z</time>
      </trkpt>
      <trkpt lat="45.68487" lon="4.70426">
        <ele>291.79998779297</ele>
        <time>2017-05-31T08:43:40.000Z</time>
      </trkpt>
      <trkpt lat="45.68492" lon="4.70423">
        <ele>291.79998779297</ele>
        <time>2017-05-31T08:43:41.000Z</time>
      </trkpt>
      <trkpt lat="45.68496" lon="4.70419">
        <ele>291.79998779297</ele>
        <time>2017-05-31T08:43:42.000Z</time>
      </trkpt>
      <trkpt lat="45.68501" lon="4.70415">
        <ele>291.39999389648</ele>
        <time>2017-05-31T08:43:43.000Z</time>
      </trkpt>
      <trkpt lat="45.68505" lon="4.70411">
        <ele>291</ele>
        <time>2017-05-31T08:43:44.000Z</time>
      </trkpt>
      <trkpt lat="45.6851" lon="4.70408">
        <ele>290.60000610352</ele>
        <time>2017-05-31T08:43:45.000Z</time>
      </trkpt>
      <trkpt lat="45.68516" lon="4.70404">
        <ele>290.20001220703</ele>
        <time>2017-05-31T08:43:46.000Z</time>
      </trkpt>
      <trkpt lat="45.6852" lon="4.70401">
        <ele>289.79998779297</ele>
        <time>2017-05-31T08:43:47.000Z</time>
      </trkpt>
      <trkpt lat="45.68524" lon="4.70399">
        <ele>289.79998779297</ele>
        <time>2017-05-31T08:43:48.000Z</time>
      </trkpt>
      <trkpt lat="45.6853" lon="4.70396">
        <ele>289.39999389648</ele>
        <time>2017-05-31T08:43:50.000Z</time>
      </trkpt>
      <trkpt lat="45.68533" lon="4.70394">
        <ele>289</ele>
        <time>2017-05-31T08:43:51.000Z</time>
      </trkpt>
      <trkpt lat="45.68537" lon="4.70393">
        <ele>288.60000610352</ele>
        <time>2017-05-31T08:43:52.000Z</time>
      </trkpt>
      <trkpt lat="45.68541" lon="4.70394">
        <ele>288</ele>
        <time>2017-05-31T08:43:53.000Z</time>
      </trkpt>
      <trkpt lat="45.68544" lon="4.70395">
        <ele>287.60000610352</ele>
        <time>2017-05-31T08:43:54.000Z</time>
      </trkpt>
      <trkpt lat="45.68551" lon="4.70398">
        <ele>287.20001220703</ele>
        <time>2017-05-31T08:43:56.000Z</time>
      </trkpt>
      <trkpt lat="45.68555" lon="4.704">
        <ele>286.79998779297</ele>
        <time>2017-05-31T08:43:57.000Z</time>
      </trkpt>
      <trkpt lat="45.68559" lon="4.70402">
        <ele>286.39999389648</ele>
        <time>2017-05-31T08:43:58.000Z</time>
      </trkpt>
      <trkpt lat="45.68564" lon="4.70405">
        <ele>285.79998779297</ele>
        <time>2017-05-31T08:43:59.000Z</time>
      </trkpt>
      <trkpt lat="45.68569" lon="4.70409">
        <ele>285.39999389648</ele>
        <time>2017-05-31T08:44:00.000Z</time>
      </trkpt>
      <trkpt lat="45.68587" lon="4.7042">
        <ele>285.39999389648</ele>
        <time>2017-05-31T08:44:03.000Z</time>
      </trkpt>
      <trkpt lat="45.68594" lon="4.70424">
        <ele>285</ele>
        <time>2017-05-31T08:44:04.000Z</time>
      </trkpt>
      <trkpt lat="45.686" lon="4.70428">
        <ele>284.39999389648</ele>
        <time>2017-05-31T08:44:05.000Z</time>
      </trkpt>
      <trkpt lat="45.68605" lon="4.70432">
        <ele>284</ele>
        <time>2017-05-31T08:44:06.000Z</time>
      </trkpt>
      <trkpt lat="45.68611" lon="4.70436">
        <ele>283.39999389648</ele>
        <time>2017-05-31T08:44:07.000Z</time>
      </trkpt>
      <trkpt lat="45.68616" lon="4.7044">
        <ele>282.79998779297</ele>
        <time>2017-05-31T08:44:08.000Z</time>
      </trkpt>
      <trkpt lat="45.68622" lon="4.70444">
        <ele>282.20001220703</ele>
        <time>2017-05-31T08:44:09.000Z</time>
      </trkpt>
      <trkpt lat="45.68627" lon="4.70448">
        <ele>281.60000610352</ele>
        <time>2017-05-31T08:44:10.000Z</time>
      </trkpt>
      <trkpt lat="45.68633" lon="4.70452">
        <ele>281</ele>
        <time>2017-05-31T08:44:11.000Z</time>
      </trkpt>
      <trkpt lat="45.68638" lon="4.70455">
        <ele>280.60000610352</ele>
        <time>2017-05-31T08:44:12.000Z</time>
      </trkpt>
      <trkpt lat="45.68643" lon="4.70458">
        <ele>280</ele>
        <time>2017-05-31T08:44:13.000Z</time>
      </trkpt>
      <trkpt lat="45.68648" lon="4.70462">
        <ele>279.60000610352</ele>
        <time>2017-05-31T08:44:14.000Z</time>
      </trkpt>
      <trkpt lat="45.68653" lon="4.70465">
        <ele>279.20001220703</ele>
        <time>2017-05-31T08:44:15.000Z</time>
      </trkpt>
      <trkpt lat="45.68658" lon="4.70469">
        <ele>278.79998779297</ele>
        <time>2017-05-31T08:44:16.000Z</time>
      </trkpt>
      <trkpt lat="45.68662" lon="4.70473">
        <ele>278.39999389648</ele>
        <time>2017-05-31T08:44:17.000Z</time>
      </trkpt>
      <trkpt lat="45.68672" lon="4.70478">
        <ele>278</ele>
        <time>2017-05-31T08:44:19.000Z</time>
      </trkpt>
      <trkpt lat="45.68677" lon="4.70481">
        <ele>277.39999389648</ele>
        <time>2017-05-31T08:44:20.000Z</time>
      </trkpt>
      <trkpt lat="45.68683" lon="4.70484">
        <ele>277</ele>
        <time>2017-05-31T08:44:21.000Z</time>
      </trkpt>
      <trkpt lat="45.68688" lon="4.70488">
        <ele>276.60000610352</ele>
        <time>2017-05-31T08:44:22.000Z</time>
      </trkpt>
      <trkpt lat="45.68693" lon="4.70491">
        <ele>276</ele>
        <time>2017-05-31T08:44:23.000Z</time>
      </trkpt>
      <trkpt lat="45.68702" lon="4.70498">
        <ele>275.60000610352</ele>
        <time>2017-05-31T08:44:25.000Z</time>
      </trkpt>
      <trkpt lat="45.68707" lon="4.70502">
        <ele>275.20001220703</ele>
        <time>2017-05-31T08:44:26.000Z</time>
      </trkpt>
      <trkpt lat="45.68711" lon="4.70506">
        <ele>274.79998779297</ele>
        <time>2017-05-31T08:44:27.000Z</time>
      </trkpt>
      <trkpt lat="45.68716" lon="4.70509">
        <ele>274.39999389648</ele>
        <time>2017-05-31T08:44:28.000Z</time>
      </trkpt>
      <trkpt lat="45.68721" lon="4.70512">
        <ele>273.79998779297</ele>
        <time>2017-05-31T08:44:29.000Z</time>
      </trkpt>
      <trkpt lat="45.68734" lon="4.70522">
        <ele>273.39999389648</ele>
        <time>2017-05-31T08:44:32.000Z</time>
      </trkpt>
      <trkpt lat="45.68737" lon="4.70524">
        <ele>273</ele>
        <time>2017-05-31T08:44:33.000Z</time>
      </trkpt>
      <trkpt lat="45.68743" lon="4.70529">
        <ele>272.60000610352</ele>
        <time>2017-05-31T08:44:35.000Z</time>
      </trkpt>
      <trkpt lat="45.68746" lon="4.70531">
        <ele>272.20001220703</ele>
        <time>2017-05-31T08:44:36.000Z</time>
      </trkpt>
      <trkpt lat="45.68749" lon="4.70534">
        <ele>271.79998779297</ele>
        <time>2017-05-31T08:44:37.000Z</time>
      </trkpt>
      <trkpt lat="45.68752" lon="4.7054">
        <ele>271.79998779297</ele>
        <time>2017-05-31T08:44:38.000Z</time>
      </trkpt>
      <trkpt lat="45.68757" lon="4.70552">
        <ele>271.79998779297</ele>
        <time>2017-05-31T08:44:40.000Z</time>
      </trkpt>
      <trkpt lat="45.68759" lon="4.70559">
        <ele>271.20001220703</ele>
        <time>2017-05-31T08:44:41.000Z</time>
      </trkpt>
      <trkpt lat="45.6876" lon="4.70566">
        <ele>270.79998779297</ele>
        <time>2017-05-31T08:44:42.000Z</time>
      </trkpt>
      <trkpt lat="45.68761" lon="4.70574">
        <ele>270.20001220703</ele>
        <time>2017-05-31T08:44:43.000Z</time>
      </trkpt>
      <trkpt lat="45.68762" lon="4.70582">
        <ele>269.79998779297</ele>
        <time>2017-05-31T08:44:44.000Z</time>
      </trkpt>
      <trkpt lat="45.68762" lon="4.70589">
        <ele>269.20001220703</ele>
        <time>2017-05-31T08:44:45.000Z</time>
      </trkpt>
      <trkpt lat="45.6877" lon="4.70625">
        <ele>268.79998779297</ele>
        <time>2017-05-31T08:44:51.000Z</time>
      </trkpt>
      <trkpt lat="45.68772" lon="4.70631">
        <ele>268.39999389648</ele>
        <time>2017-05-31T08:44:52.000Z</time>
      </trkpt>
      <trkpt lat="45.68775" lon="4.70637">
        <ele>268</ele>
        <time>2017-05-31T08:44:53.000Z</time>
      </trkpt>
      <trkpt lat="45.6878" lon="4.70643">
        <ele>267.60000610352</ele>
        <time>2017-05-31T08:44:54.000Z</time>
      </trkpt>
      <trkpt lat="45.68785" lon="4.70649">
        <ele>267.20001220703</ele>
        <time>2017-05-31T08:44:55.000Z</time>
      </trkpt>
      <trkpt lat="45.68801" lon="4.70661">
        <ele>267.20001220703</ele>
        <time>2017-05-31T08:44:58.000Z</time>
      </trkpt>
      <trkpt lat="45.68812" lon="4.70669">
        <ele>267.20001220703</ele>
        <time>2017-05-31T08:45:00.000Z</time>
      </trkpt>
      <trkpt lat="45.68817" lon="4.70672">
        <ele>266.60000610352</ele>
        <time>2017-05-31T08:45:01.000Z</time>
      </trkpt>
      <trkpt lat="45.68823" lon="4.70675">
        <ele>266.20001220703</ele>
        <time>2017-05-31T08:45:02.000Z</time>
      </trkpt>
      <trkpt lat="45.68828" lon="4.70679">
        <ele>265.79998779297</ele>
        <time>2017-05-31T08:45:03.000Z</time>
      </trkpt>
      <trkpt lat="45.68838" lon="4.70685">
        <ele>265.39999389648</ele>
        <time>2017-05-31T08:45:05.000Z</time>
      </trkpt>
      <trkpt lat="45.68843" lon="4.70689">
        <ele>264.79998779297</ele>
        <time>2017-05-31T08:45:06.000Z</time>
      </trkpt>
      <trkpt lat="45.68853" lon="4.70695">
        <ele>264.79998779297</ele>
        <time>2017-05-31T08:45:08.000Z</time>
      </trkpt>
      <trkpt lat="45.68858" lon="4.70698">
        <ele>264.39999389648</ele>
        <time>2017-05-31T08:45:09.000Z</time>
      </trkpt>
      <trkpt lat="45.68864" lon="4.70701">
        <ele>264</ele>
        <time>2017-05-31T08:45:10.000Z</time>
      </trkpt>
      <trkpt lat="45.68869" lon="4.70702">
        <ele>263.60000610352</ele>
        <time>2017-05-31T08:45:11.000Z</time>
      </trkpt>
      <trkpt lat="45.68879" lon="4.70705">
        <ele>263.20001220703</ele>
        <time>2017-05-31T08:45:13.000Z</time>
      </trkpt>
      <trkpt lat="45.68885" lon="4.70707">
        <ele>262.79998779297</ele>
        <time>2017-05-31T08:45:14.000Z</time>
      </trkpt>
      <trkpt lat="45.68891" lon="4.70708">
        <ele>262.39999389648</ele>
        <time>2017-05-31T08:45:15.000Z</time>
      </trkpt>
      <trkpt lat="45.68902" lon="4.70712">
        <ele>262</ele>
        <time>2017-05-31T08:45:17.000Z</time>
      </trkpt>
      <trkpt lat="45.68908" lon="4.70713">
        <ele>261</ele>
        <time>2017-05-31T08:45:18.000Z</time>
      </trkpt>
      <trkpt lat="45.68914" lon="4.70714">
        <ele>260.60000610352</ele>
        <time>2017-05-31T08:45:19.000Z</time>
      </trkpt>
      <trkpt lat="45.68927" lon="4.70718">
        <ele>260.60000610352</ele>
        <time>2017-05-31T08:45:21.000Z</time>
      </trkpt>
      <trkpt lat="45.6894" lon="4.70721">
        <ele>260.20001220703</ele>
        <time>2017-05-31T08:45:23.000Z</time>
      </trkpt>
      <trkpt lat="45.68945" lon="4.70723">
        <ele>259.79998779297</ele>
        <time>2017-05-31T08:45:24.000Z</time>
      </trkpt>
      <trkpt lat="45.68951" lon="4.70724">
        <ele>259</ele>
        <time>2017-05-31T08:45:25.000Z</time>
      </trkpt>
      <trkpt lat="45.68962" lon="4.70728">
        <ele>258.39999389648</ele>
        <time>2017-05-31T08:45:27.000Z</time>
      </trkpt>
      <trkpt lat="45.68972" lon="4.70732">
        <ele>258.39999389648</ele>
        <time>2017-05-31T08:45:29.000Z</time>
      </trkpt>
      <trkpt lat="45.6899" lon="4.70737">
        <ele>258</ele>
        <time>2017-05-31T08:45:32.000Z</time>
      </trkpt>
      <trkpt lat="45.68996" lon="4.7074">
        <ele>257.60000610352</ele>
        <time>2017-05-31T08:45:33.000Z</time>
      </trkpt>
      <trkpt lat="45.69001" lon="4.70742">
        <ele>257.20001220703</ele>
        <time>2017-05-31T08:45:34.000Z</time>
      </trkpt>
      <trkpt lat="45.69007" lon="4.70745">
        <ele>256.79998779297</ele>
        <time>2017-05-31T08:45:35.000Z</time>
      </trkpt>
      <trkpt lat="45.69013" lon="4.70748">
        <ele>256.39999389648</ele>
        <time>2017-05-31T08:45:36.000Z</time>
      </trkpt>
      <trkpt lat="45.69024" lon="4.70755">
        <ele>256.39999389648</ele>
        <time>2017-05-31T08:45:38.000Z</time>
      </trkpt>
      <trkpt lat="45.69034" lon="4.70763">
        <ele>256</ele>
        <time>2017-05-31T08:45:40.000Z</time>
      </trkpt>
      <trkpt lat="45.69039" lon="4.70767">
        <ele>255.60000610352</ele>
        <time>2017-05-31T08:45:41.000Z</time>
      </trkpt>
      <trkpt lat="45.69044" lon="4.70772">
        <ele>255.19999694824</ele>
        <time>2017-05-31T08:45:42.000Z</time>
      </trkpt>
      <trkpt lat="45.69049" lon="4.70777">
        <ele>254.80000305176</ele>
        <time>2017-05-31T08:45:43.000Z</time>
      </trkpt>
      <trkpt lat="45.69054" lon="4.70782">
        <ele>254.39999389648</ele>
        <time>2017-05-31T08:45:44.000Z</time>
      </trkpt>
      <trkpt lat="45.69059" lon="4.70786">
        <ele>254.39999389648</ele>
        <time>2017-05-31T08:45:45.000Z</time>
      </trkpt>
      <trkpt lat="45.69065" lon="4.70791">
        <ele>254</ele>
        <time>2017-05-31T08:45:46.000Z</time>
      </trkpt>
      <trkpt lat="45.6907" lon="4.70796">
        <ele>253.39999389648</ele>
        <time>2017-05-31T08:45:47.000Z</time>
      </trkpt>
      <trkpt lat="45.69076" lon="4.708">
        <ele>253</ele>
        <time>2017-05-31T08:45:48.000Z</time>
      </trkpt>
      <trkpt lat="45.69081" lon="4.70805">
        <ele>252.60000610352</ele>
        <time>2017-05-31T08:45:49.000Z</time>
      </trkpt>
      <trkpt lat="45.69087" lon="4.70809">
        <ele>252.19999694824</ele>
        <time>2017-05-31T08:45:50.000Z</time>
      </trkpt>
      <trkpt lat="45.691" lon="4.70817">
        <ele>252.19999694824</ele>
        <time>2017-05-31T08:45:52.000Z</time>
      </trkpt>
      <trkpt lat="45.69113" lon="4.70823">
        <ele>251.80000305176</ele>
        <time>2017-05-31T08:45:54.000Z</time>
      </trkpt>
      <trkpt lat="45.69119" lon="4.70826">
        <ele>251.39999389648</ele>
        <time>2017-05-31T08:45:55.000Z</time>
      </trkpt>
      <trkpt lat="45.69124" lon="4.70828">
        <ele>251</ele>
        <time>2017-05-31T08:45:56.000Z</time>
      </trkpt>
      <trkpt lat="45.6913" lon="4.7083">
        <ele>250.60000610352</ele>
        <time>2017-05-31T08:45:57.000Z</time>
      </trkpt>
      <trkpt lat="45.69135" lon="4.70832">
        <ele>250.19999694824</ele>
        <time>2017-05-31T08:45:58.000Z</time>
      </trkpt>
      <trkpt lat="45.69159" lon="4.70841">
        <ele>249.60000610352</ele>
        <time>2017-05-31T08:46:03.000Z</time>
      </trkpt>
      <trkpt lat="45.69164" lon="4.70843">
        <ele>249.19999694824</ele>
        <time>2017-05-31T08:46:04.000Z</time>
      </trkpt>
      <trkpt lat="45.69168" lon="4.70845">
        <ele>248.80000305176</ele>
        <time>2017-05-31T08:46:05.000Z</time>
      </trkpt>
      <trkpt lat="45.69172" lon="4.70848">
        <ele>248.39999389648</ele>
        <time>2017-05-31T08:46:06.000Z</time>
      </trkpt>
      <trkpt lat="45.69177" lon="4.7085">
        <ele>248</ele>
        <time>2017-05-31T08:46:07.000Z</time>
      </trkpt>
      <trkpt lat="45.69197" lon="4.70858">
        <ele>248</ele>
        <time>2017-05-31T08:46:11.000Z</time>
      </trkpt>
      <trkpt lat="45.69207" lon="4.70862">
        <ele>247.60000610352</ele>
        <time>2017-05-31T08:46:13.000Z</time>
      </trkpt>
      <trkpt lat="45.69212" lon="4.70865">
        <ele>247.19999694824</ele>
        <time>2017-05-31T08:46:14.000Z</time>
      </trkpt>
      <trkpt lat="45.69217" lon="4.70867">
        <ele>246.80000305176</ele>
        <time>2017-05-31T08:46:15.000Z</time>
      </trkpt>
      <trkpt lat="45.69222" lon="4.7087">
        <ele>246.39999389648</ele>
        <time>2017-05-31T08:46:16.000Z</time>
      </trkpt>
      <trkpt lat="45.69228" lon="4.70872">
        <ele>246</ele>
        <time>2017-05-31T08:46:17.000Z</time>
      </trkpt>
      <trkpt lat="45.69249" lon="4.70882">
        <ele>246</ele>
        <time>2017-05-31T08:46:21.000Z</time>
      </trkpt>
      <trkpt lat="45.69254" lon="4.70884">
        <ele>245.39999389648</ele>
        <time>2017-05-31T08:46:22.000Z</time>
      </trkpt>
      <trkpt lat="45.6926" lon="4.70886">
        <ele>245</ele>
        <time>2017-05-31T08:46:23.000Z</time>
      </trkpt>
      <trkpt lat="45.69265" lon="4.70888">
        <ele>244.60000610352</ele>
        <time>2017-05-31T08:46:24.000Z</time>
      </trkpt>
      <trkpt lat="45.69271" lon="4.7089">
        <ele>244.19999694824</ele>
        <time>2017-05-31T08:46:25.000Z</time>
      </trkpt>
      <trkpt lat="45.69277" lon="4.70892">
        <ele>243.60000610352</ele>
        <time>2017-05-31T08:46:26.000Z</time>
      </trkpt>
      <trkpt lat="45.69287" lon="4.70895">
        <ele>243.19999694824</ele>
        <time>2017-05-31T08:46:28.000Z</time>
      </trkpt>
      <trkpt lat="45.69293" lon="4.70896">
        <ele>242.80000305176</ele>
        <time>2017-05-31T08:46:29.000Z</time>
      </trkpt>
      <trkpt lat="45.69299" lon="4.70897">
        <ele>242.39999389648</ele>
        <time>2017-05-31T08:46:30.000Z</time>
      </trkpt>
      <trkpt lat="45.69305" lon="4.70899">
        <ele>241.80000305176</ele>
        <time>2017-05-31T08:46:31.000Z</time>
      </trkpt>
      <trkpt lat="45.69311" lon="4.709">
        <ele>241.39999389648</ele>
        <time>2017-05-31T08:46:32.000Z</time>
      </trkpt>
      <trkpt lat="45.69323" lon="4.70904">
        <ele>241</ele>
        <time>2017-05-31T08:46:34.000Z</time>
      </trkpt>
      <trkpt lat="45.69329" lon="4.70906">
        <ele>240.60000610352</ele>
        <time>2017-05-31T08:46:35.000Z</time>
      </trkpt>
      <trkpt lat="45.69334" lon="4.70908">
        <ele>240.19999694824</ele>
        <time>2017-05-31T08:46:36.000Z</time>
      </trkpt>
      <trkpt lat="45.6934" lon="4.70911">
        <ele>239.60000610352</ele>
        <time>2017-05-31T08:46:37.000Z</time>
      </trkpt>
      <trkpt lat="45.69345" lon="4.70914">
        <ele>239.19999694824</ele>
        <time>2017-05-31T08:46:38.000Z</time>
      </trkpt>
      <trkpt lat="45.69351" lon="4.70916">
        <ele>238.80000305176</ele>
        <time>2017-05-31T08:46:39.000Z</time>
      </trkpt>
      <trkpt lat="45.69356" lon="4.70919">
        <ele>238.39999389648</ele>
        <time>2017-05-31T08:46:40.000Z</time>
      </trkpt>
      <trkpt lat="45.69362" lon="4.70921">
        <ele>238</ele>
        <time>2017-05-31T08:46:41.000Z</time>
      </trkpt>
      <trkpt lat="45.69367" lon="4.70923">
        <ele>237.60000610352</ele>
        <time>2017-05-31T08:46:42.000Z</time>
      </trkpt>
      <trkpt lat="45.69373" lon="4.70925">
        <ele>237</ele>
        <time>2017-05-31T08:46:43.000Z</time>
      </trkpt>
      <trkpt lat="45.69384" lon="4.70928">
        <ele>237</ele>
        <time>2017-05-31T08:46:45.000Z</time>
      </trkpt>
      <trkpt lat="45.69396" lon="4.70928">
        <ele>236.60000610352</ele>
        <time>2017-05-31T08:46:47.000Z</time>
      </trkpt>
      <trkpt lat="45.69401" lon="4.70927">
        <ele>236.19999694824</ele>
        <time>2017-05-31T08:46:48.000Z</time>
      </trkpt>
      <trkpt lat="45.69405" lon="4.70925">
        <ele>235.60000610352</ele>
        <time>2017-05-31T08:46:49.000Z</time>
      </trkpt>
      <trkpt lat="45.6941" lon="4.70922">
        <ele>235.19999694824</ele>
        <time>2017-05-31T08:46:50.000Z</time>
      </trkpt>
      <trkpt lat="45.69414" lon="4.70919">
        <ele>234.80000305176</ele>
        <time>2017-05-31T08:46:51.000Z</time>
      </trkpt>
      <trkpt lat="45.69419" lon="4.70914">
        <ele>234.39999389648</ele>
        <time>2017-05-31T08:46:52.000Z</time>
      </trkpt>
      <trkpt lat="45.69423" lon="4.70909">
        <ele>234</ele>
        <time>2017-05-31T08:46:53.000Z</time>
      </trkpt>
      <trkpt lat="45.69428" lon="4.70904">
        <ele>233.39999389648</ele>
        <time>2017-05-31T08:46:54.000Z</time>
      </trkpt>
      <trkpt lat="45.69432" lon="4.70899">
        <ele>233</ele>
        <time>2017-05-31T08:46:55.000Z</time>
      </trkpt>
      <trkpt lat="45.69436" lon="4.70895">
        <ele>232.60000610352</ele>
        <time>2017-05-31T08:46:56.000Z</time>
      </trkpt>
      <trkpt lat="45.69441" lon="4.70893">
        <ele>232.60000610352</ele>
        <time>2017-05-31T08:46:57.000Z</time>
      </trkpt>
      <trkpt lat="45.6945" lon="4.7089">
        <ele>232.19999694824</ele>
        <time>2017-05-31T08:46:59.000Z</time>
      </trkpt>
      <trkpt lat="45.69455" lon="4.7089">
        <ele>231.80000305176</ele>
        <time>2017-05-31T08:47:00.000Z</time>
      </trkpt>
      <trkpt lat="45.6946" lon="4.70891">
        <ele>231.19999694824</ele>
        <time>2017-05-31T08:47:01.000Z</time>
      </trkpt>
      <trkpt lat="45.69465" lon="4.70893">
        <ele>230.80000305176</ele>
        <time>2017-05-31T08:47:02.000Z</time>
      </trkpt>
      <trkpt lat="45.69471" lon="4.70896">
        <ele>230.19999694824</ele>
        <time>2017-05-31T08:47:03.000Z</time>
      </trkpt>
      <trkpt lat="45.69486" lon="4.70916">
        <ele>229.80000305176</ele>
        <time>2017-05-31T08:47:07.000Z</time>
      </trkpt>
      <trkpt lat="45.69489" lon="4.70921">
        <ele>229.39999389648</ele>
        <time>2017-05-31T08:47:08.000Z</time>
      </trkpt>
      <trkpt lat="45.69493" lon="4.70926">
        <ele>228.80000305176</ele>
        <time>2017-05-31T08:47:09.000Z</time>
      </trkpt>
      <trkpt lat="45.69496" lon="4.70931">
        <ele>228.39999389648</ele>
        <time>2017-05-31T08:47:10.000Z</time>
      </trkpt>
      <trkpt lat="45.69499" lon="4.70935">
        <ele>228</ele>
        <time>2017-05-31T08:47:11.000Z</time>
      </trkpt>
      <trkpt lat="45.69511" lon="4.70952">
        <ele>228</ele>
        <time>2017-05-31T08:47:14.000Z</time>
      </trkpt>
      <trkpt lat="45.69515" lon="4.70957">
        <ele>227.39999389648</ele>
        <time>2017-05-31T08:47:15.000Z</time>
      </trkpt>
      <trkpt lat="45.69521" lon="4.7096">
        <ele>227</ele>
        <time>2017-05-31T08:47:16.000Z</time>
      </trkpt>
      <trkpt lat="45.69527" lon="4.70964">
        <ele>226.39999389648</ele>
        <time>2017-05-31T08:47:17.000Z</time>
      </trkpt>
      <trkpt lat="45.69532" lon="4.70967">
        <ele>226</ele>
        <time>2017-05-31T08:47:18.000Z</time>
      </trkpt>
      <trkpt lat="45.69538" lon="4.70969">
        <ele>225.60000610352</ele>
        <time>2017-05-31T08:47:19.000Z</time>
      </trkpt>
      <trkpt lat="45.69548" lon="4.70972">
        <ele>225.19999694824</ele>
        <time>2017-05-31T08:47:21.000Z</time>
      </trkpt>
      <trkpt lat="45.69553" lon="4.70975">
        <ele>224.60000610352</ele>
        <time>2017-05-31T08:47:22.000Z</time>
      </trkpt>
      <trkpt lat="45.69557" lon="4.70977">
        <ele>224.19999694824</ele>
        <time>2017-05-31T08:47:23.000Z</time>
      </trkpt>
      <trkpt lat="45.69561" lon="4.7098">
        <ele>223.80000305176</ele>
        <time>2017-05-31T08:47:24.000Z</time>
      </trkpt>
      <trkpt lat="45.69565" lon="4.70983">
        <ele>223.39999389648</ele>
        <time>2017-05-31T08:47:25.000Z</time>
      </trkpt>
      <trkpt lat="45.69569" lon="4.70988">
        <ele>223.39999389648</ele>
        <time>2017-05-31T08:47:26.000Z</time>
      </trkpt>
      <trkpt lat="45.69583" lon="4.71009">
        <ele>223</ele>
        <time>2017-05-31T08:47:30.000Z</time>
      </trkpt>
      <trkpt lat="45.69586" lon="4.71015">
        <ele>222.39999389648</ele>
        <time>2017-05-31T08:47:31.000Z</time>
      </trkpt>
      <trkpt lat="45.69589" lon="4.7102">
        <ele>222</ele>
        <time>2017-05-31T08:47:32.000Z</time>
      </trkpt>
      <trkpt lat="45.69592" lon="4.71025">
        <ele>221.60000610352</ele>
        <time>2017-05-31T08:47:33.000Z</time>
      </trkpt>
      <trkpt lat="45.69596" lon="4.71031">
        <ele>221</ele>
        <time>2017-05-31T08:47:34.000Z</time>
      </trkpt>
      <trkpt lat="45.69604" lon="4.71041">
        <ele>220.60000610352</ele>
        <time>2017-05-31T08:47:36.000Z</time>
      </trkpt>
      <trkpt lat="45.69608" lon="4.71046">
        <ele>220.19999694824</ele>
        <time>2017-05-31T08:47:37.000Z</time>
      </trkpt>
      <trkpt lat="45.69612" lon="4.7105">
        <ele>219.80000305176</ele>
        <time>2017-05-31T08:47:38.000Z</time>
      </trkpt>
      <trkpt lat="45.69617" lon="4.71055">
        <ele>219.19999694824</ele>
        <time>2017-05-31T08:47:39.000Z</time>
      </trkpt>
      <trkpt lat="45.69621" lon="4.71059">
        <ele>218.80000305176</ele>
        <time>2017-05-31T08:47:40.000Z</time>
      </trkpt>
      <trkpt lat="45.69628" lon="4.71069">
        <ele>218.80000305176</ele>
        <time>2017-05-31T08:47:42.000Z</time>
      </trkpt>
      <trkpt lat="45.69632" lon="4.71073">
        <ele>218.39999389648</ele>
        <time>2017-05-31T08:47:43.000Z</time>
      </trkpt>
      <trkpt lat="45.69637" lon="4.71079">
        <ele>218</ele>
        <time>2017-05-31T08:47:44.000Z</time>
      </trkpt>
      <trkpt lat="45.69641" lon="4.71083">
        <ele>217.60000610352</ele>
        <time>2017-05-31T08:47:45.000Z</time>
      </trkpt>
      <trkpt lat="45.69647" lon="4.71087">
        <ele>217</ele>
        <time>2017-05-31T08:47:46.000Z</time>
      </trkpt>
      <trkpt lat="45.69652" lon="4.71092">
        <ele>216.60000610352</ele>
        <time>2017-05-31T08:47:47.000Z</time>
      </trkpt>
      <trkpt lat="45.69658" lon="4.71096">
        <ele>216.19999694824</ele>
        <time>2017-05-31T08:47:48.000Z</time>
      </trkpt>
      <trkpt lat="45.69663" lon="4.71099">
        <ele>215.80000305176</ele>
        <time>2017-05-31T08:47:49.000Z</time>
      </trkpt>
      <trkpt lat="45.69669" lon="4.71102">
        <ele>215.39999389648</ele>
        <time>2017-05-31T08:47:50.000Z</time>
      </trkpt>
      <trkpt lat="45.69674" lon="4.71105">
        <ele>215</ele>
        <time>2017-05-31T08:47:51.000Z</time>
      </trkpt>
      <trkpt lat="45.69679" lon="4.71108">
        <ele>214.60000610352</ele>
        <time>2017-05-31T08:47:52.000Z</time>
      </trkpt>
      <trkpt lat="45.69685" lon="4.71111">
        <ele>214.60000610352</ele>
        <time>2017-05-31T08:47:53.000Z</time>
      </trkpt>
      <trkpt lat="45.69697" lon="4.71117">
        <ele>214.19999694824</ele>
        <time>2017-05-31T08:47:55.000Z</time>
      </trkpt>
      <trkpt lat="45.69702" lon="4.71118">
        <ele>213.60000610352</ele>
        <time>2017-05-31T08:47:56.000Z</time>
      </trkpt>
      <trkpt lat="45.69708" lon="4.7112">
        <ele>213.19999694824</ele>
        <time>2017-05-31T08:47:57.000Z</time>
      </trkpt>
      <trkpt lat="45.69714" lon="4.71121">
        <ele>212.80000305176</ele>
        <time>2017-05-31T08:47:58.000Z</time>
      </trkpt>
      <trkpt lat="45.69719" lon="4.71121">
        <ele>212.39999389648</ele>
        <time>2017-05-31T08:47:59.000Z</time>
      </trkpt>
      <trkpt lat="45.6973" lon="4.71124">
        <ele>212</ele>
        <time>2017-05-31T08:48:01.000Z</time>
      </trkpt>
      <trkpt lat="45.69735" lon="4.71123">
        <ele>211.60000610352</ele>
        <time>2017-05-31T08:48:02.000Z</time>
      </trkpt>
      <trkpt lat="45.6974" lon="4.71122">
        <ele>211</ele>
        <time>2017-05-31T08:48:03.000Z</time>
      </trkpt>
      <trkpt lat="45.69746" lon="4.71122">
        <ele>210.60000610352</ele>
        <time>2017-05-31T08:48:04.000Z</time>
      </trkpt>
      <trkpt lat="45.69751" lon="4.7112">
        <ele>210.19999694824</ele>
        <time>2017-05-31T08:48:05.000Z</time>
      </trkpt>
      <trkpt lat="45.69765" lon="4.71112">
        <ele>209.60000610352</ele>
        <time>2017-05-31T08:48:08.000Z</time>
      </trkpt>
      <trkpt lat="45.69769" lon="4.71109">
        <ele>209.19999694824</ele>
        <time>2017-05-31T08:48:09.000Z</time>
      </trkpt>
      <trkpt lat="45.69774" lon="4.71106">
        <ele>208.80000305176</ele>
        <time>2017-05-31T08:48:10.000Z</time>
      </trkpt>
      <trkpt lat="45.69778" lon="4.71104">
        <ele>208.39999389648</ele>
        <time>2017-05-31T08:48:11.000Z</time>
      </trkpt>
      <trkpt lat="45.69783" lon="4.71103">
        <ele>208</ele>
        <time>2017-05-31T08:48:12.000Z</time>
      </trkpt>
      <trkpt lat="45.69797" lon="4.71101">
        <ele>208</ele>
        <time>2017-05-31T08:48:15.000Z</time>
      </trkpt>
      <trkpt lat="45.69801" lon="4.71101">
        <ele>207.60000610352</ele>
        <time>2017-05-31T08:48:16.000Z</time>
      </trkpt>
      <trkpt lat="45.69806" lon="4.71103">
        <ele>207</ele>
        <time>2017-05-31T08:48:17.000Z</time>
      </trkpt>
      <trkpt lat="45.6981" lon="4.71108">
        <ele>206.60000610352</ele>
        <time>2017-05-31T08:48:18.000Z</time>
      </trkpt>
      <trkpt lat="45.69813" lon="4.71113">
        <ele>206.19999694824</ele>
        <time>2017-05-31T08:48:19.000Z</time>
      </trkpt>
      <trkpt lat="45.69816" lon="4.7112">
        <ele>205.60000610352</ele>
        <time>2017-05-31T08:48:20.000Z</time>
      </trkpt>
      <trkpt lat="45.69819" lon="4.71135">
        <ele>205.60000610352</ele>
        <time>2017-05-31T08:48:22.000Z</time>
      </trkpt>
      <trkpt lat="45.69818" lon="4.71153">
        <ele>205.60000610352</ele>
        <time>2017-05-31T08:48:24.000Z</time>
      </trkpt>
      <trkpt lat="45.69818" lon="4.71159">
        <ele>205.60000610352</ele>
        <time>2017-05-31T08:48:25.000Z</time>
      </trkpt>
      <trkpt lat="45.69814" lon="4.71173">
        <ele>205.60000610352</ele>
        <time>2017-05-31T08:48:28.000Z</time>
      </trkpt>
      <trkpt lat="45.69802" lon="4.71197">
        <ele>205.60000610352</ele>
        <time>2017-05-31T08:48:34.000Z</time>
      </trkpt>
      <trkpt lat="45.69793" lon="4.71222">
        <ele>206</ele>
        <time>2017-05-31T08:48:41.000Z</time>
      </trkpt>
      <trkpt lat="45.69791" lon="4.71225">
        <ele>206.60000610352</ele>
        <time>2017-05-31T08:48:42.000Z</time>
      </trkpt>
      <trkpt lat="45.6979" lon="4.71228">
        <ele>207</ele>
        <time>2017-05-31T08:48:43.000Z</time>
      </trkpt>
      <trkpt lat="45.69787" lon="4.71235">
        <ele>207.80000305176</ele>
        <time>2017-05-31T08:48:45.000Z</time>
      </trkpt>
      <trkpt lat="45.6978" lon="4.71251">
        <ele>207.80000305176</ele>
        <time>2017-05-31T08:48:50.000Z</time>
      </trkpt>
      <trkpt lat="45.69769" lon="4.71271">
        <ele>208.19999694824</ele>
        <time>2017-05-31T08:48:57.000Z</time>
      </trkpt>
      <trkpt lat="45.69768" lon="4.71274">
        <ele>208.60000610352</ele>
        <time>2017-05-31T08:48:58.000Z</time>
      </trkpt>
      <trkpt lat="45.69767" lon="4.71278">
        <ele>209</ele>
        <time>2017-05-31T08:48:59.000Z</time>
      </trkpt>
      <trkpt lat="45.69766" lon="4.71281">
        <ele>209.39999389648</ele>
        <time>2017-05-31T08:49:00.000Z</time>
      </trkpt>
      <trkpt lat="45.69765" lon="4.71284">
        <ele>209.80000305176</ele>
        <time>2017-05-31T08:49:01.000Z</time>
      </trkpt>
      <trkpt lat="45.69764" lon="4.71304">
        <ele>209.80000305176</ele>
        <time>2017-05-31T08:49:06.000Z</time>
      </trkpt>
      <trkpt lat="45.69771" lon="4.7132">
        <ele>209.80000305176</ele>
        <time>2017-05-31T08:49:11.000Z</time>
      </trkpt>
      <trkpt lat="45.6978" lon="4.71327">
        <ele>210.19999694824</ele>
        <time>2017-05-31T08:49:15.000Z</time>
      </trkpt>
      <trkpt lat="45.69783" lon="4.71326">
        <ele>210.60000610352</ele>
        <time>2017-05-31T08:49:16.000Z</time>
      </trkpt>
      <trkpt lat="45.69786" lon="4.71325">
        <ele>211</ele>
        <time>2017-05-31T08:49:17.000Z</time>
      </trkpt>
      <trkpt lat="45.69788" lon="4.71323">
        <ele>211.39999389648</ele>
        <time>2017-05-31T08:49:18.000Z</time>
      </trkpt>
      <trkpt lat="45.6979" lon="4.71322">
        <ele>211.80000305176</ele>
        <time>2017-05-31T08:49:19.000Z</time>
      </trkpt>
      <trkpt lat="45.69797" lon="4.7131">
        <ele>211.80000305176</ele>
        <time>2017-05-31T08:49:23.000Z</time>
      </trkpt>
      <trkpt lat="45.698" lon="4.71299">
        <ele>212.19999694824</ele>
        <time>2017-05-31T08:49:26.000Z</time>
      </trkpt>
      <trkpt lat="45.69801" lon="4.71295">
        <ele>212.80000305176</ele>
        <time>2017-05-31T08:49:27.000Z</time>
      </trkpt>
      <trkpt lat="45.69801" lon="4.71291">
        <ele>213.19999694824</ele>
        <time>2017-05-31T08:49:28.000Z</time>
      </trkpt>
      <trkpt lat="45.69802" lon="4.71287">
        <ele>213.60000610352</ele>
        <time>2017-05-31T08:49:29.000Z</time>
      </trkpt>
      <trkpt lat="45.69804" lon="4.71283">
        <ele>214</ele>
        <time>2017-05-31T08:49:30.000Z</time>
      </trkpt>
      <trkpt lat="45.69817" lon="4.71258">
        <ele>214</ele>
        <time>2017-05-31T08:49:38.000Z</time>
      </trkpt>
      <trkpt lat="45.69829" lon="4.71244">
        <ele>214.39999389648</ele>
        <time>2017-05-31T08:49:44.000Z</time>
      </trkpt>
      <trkpt lat="45.69831" lon="4.71242">
        <ele>214.80000305176</ele>
        <time>2017-05-31T08:49:45.000Z</time>
      </trkpt>
      <trkpt lat="45.69833" lon="4.7124">
        <ele>215.19999694824</ele>
        <time>2017-05-31T08:49:46.000Z</time>
      </trkpt>
      <trkpt lat="45.69835" lon="4.71238">
        <ele>215.60000610352</ele>
        <time>2017-05-31T08:49:47.000Z</time>
      </trkpt>
      <trkpt lat="45.69837" lon="4.71235">
        <ele>216</ele>
        <time>2017-05-31T08:49:48.000Z</time>
      </trkpt>
      <trkpt lat="45.69851" lon="4.71221">
        <ele>216</ele>
        <time>2017-05-31T08:49:55.000Z</time>
      </trkpt>
      <trkpt lat="45.69861" lon="4.71212">
        <ele>216.39999389648</ele>
        <time>2017-05-31T08:50:00.000Z</time>
      </trkpt>
      <trkpt lat="45.69863" lon="4.7121">
        <ele>216.80000305176</ele>
        <time>2017-05-31T08:50:01.000Z</time>
      </trkpt>
      <trkpt lat="45.69865" lon="4.71209">
        <ele>217.39999389648</ele>
        <time>2017-05-31T08:50:02.000Z</time>
      </trkpt>
      <trkpt lat="45.69867" lon="4.71207">
        <ele>217.80000305176</ele>
        <time>2017-05-31T08:50:03.000Z</time>
      </trkpt>
      <trkpt lat="45.69869" lon="4.71205">
        <ele>218.19999694824</ele>
        <time>2017-05-31T08:50:04.000Z</time>
      </trkpt>
      <trkpt lat="45.69892" lon="4.71181">
        <ele>218.19999694824</ele>
        <time>2017-05-31T08:50:15.000Z</time>
      </trkpt>
      <trkpt lat="45.69898" lon="4.71175">
        <ele>218.60000610352</ele>
        <time>2017-05-31T08:50:18.000Z</time>
      </trkpt>
      <trkpt lat="45.699" lon="4.71172">
        <ele>219</ele>
        <time>2017-05-31T08:50:19.000Z</time>
      </trkpt>
      <trkpt lat="45.69901" lon="4.7117">
        <ele>219.60000610352</ele>
        <time>2017-05-31T08:50:20.000Z</time>
      </trkpt>
      <trkpt lat="45.69903" lon="4.71169">
        <ele>220</ele>
        <time>2017-05-31T08:50:21.000Z</time>
      </trkpt>
      <trkpt lat="45.69905" lon="4.71167">
        <ele>220.39999389648</ele>
        <time>2017-05-31T08:50:22.000Z</time>
      </trkpt>
      <trkpt lat="45.69909" lon="4.71163">
        <ele>220.39999389648</ele>
        <time>2017-05-31T08:50:24.000Z</time>
      </trkpt>
      <trkpt lat="45.69926" lon="4.71151">
        <ele>220.80000305176</ele>
        <time>2017-05-31T08:50:33.000Z</time>
      </trkpt>
      <trkpt lat="45.69927" lon="4.71151">
        <ele>221.39999389648</ele>
        <time>2017-05-31T08:50:34.000Z</time>
      </trkpt>
      <trkpt lat="45.69929" lon="4.71151">
        <ele>221.80000305176</ele>
        <time>2017-05-31T08:50:35.000Z</time>
      </trkpt>
      <trkpt lat="45.69931" lon="4.7115">
        <ele>222.19999694824</ele>
        <time>2017-05-31T08:50:36.000Z</time>
      </trkpt>
      <trkpt lat="45.69934" lon="4.71151">
        <ele>222.60000610352</ele>
        <time>2017-05-31T08:50:37.000Z</time>
      </trkpt>
      <trkpt lat="45.69939" lon="4.71153">
        <ele>222.60000610352</ele>
        <time>2017-05-31T08:50:39.000Z</time>
      </trkpt>
      <trkpt lat="45.69954" lon="4.71173">
        <ele>222.60000610352</ele>
        <time>2017-05-31T08:50:47.000Z</time>
      </trkpt>
      <trkpt lat="45.69957" lon="4.71182">
        <ele>222.60000610352</ele>
        <time>2017-05-31T08:50:50.000Z</time>
      </trkpt>
      <trkpt lat="45.69956" lon="4.71188">
        <ele>222.60000610352</ele>
        <time>2017-05-31T08:50:52.000Z</time>
      </trkpt>
      <trkpt lat="45.69956" lon="4.71194">
        <ele>223</ele>
        <time>2017-05-31T08:50:54.000Z</time>
      </trkpt>
      <trkpt lat="45.69955" lon="4.71197">
        <ele>223.39999389648</ele>
        <time>2017-05-31T08:50:55.000Z</time>
      </trkpt>
      <trkpt lat="45.69954" lon="4.71201">
        <ele>223.80000305176</ele>
        <time>2017-05-31T08:50:56.000Z</time>
      </trkpt>
      <trkpt lat="45.69953" lon="4.71203">
        <ele>224.19999694824</ele>
        <time>2017-05-31T08:50:57.000Z</time>
      </trkpt>
      <trkpt lat="45.69951" lon="4.71205">
        <ele>224.60000610352</ele>
        <time>2017-05-31T08:50:58.000Z</time>
      </trkpt>
      <trkpt lat="45.69938" lon="4.71216">
        <ele>224.60000610352</ele>
        <time>2017-05-31T08:51:05.000Z</time>
      </trkpt>
      <trkpt lat="45.69932" lon="4.71217">
        <ele>225</ele>
        <time>2017-05-31T08:51:08.000Z</time>
      </trkpt>
      <trkpt lat="45.6993" lon="4.71218">
        <ele>225.39999389648</ele>
        <time>2017-05-31T08:51:09.000Z</time>
      </trkpt>
      <trkpt lat="45.69928" lon="4.71219">
        <ele>225.80000305176</ele>
        <time>2017-05-31T08:51:10.000Z</time>
      </trkpt>
      <trkpt lat="45.69925" lon="4.71219">
        <ele>226.39999389648</ele>
        <time>2017-05-31T08:51:11.000Z</time>
      </trkpt>
      <trkpt lat="45.69923" lon="4.7122">
        <ele>226.80000305176</ele>
        <time>2017-05-31T08:51:12.000Z</time>
      </trkpt>
      <trkpt lat="45.69921" lon="4.71221">
        <ele>226.80000305176</ele>
        <time>2017-05-31T08:51:13.000Z</time>
      </trkpt>
      <trkpt lat="45.69906" lon="4.71229">
        <ele>226.80000305176</ele>
        <time>2017-05-31T08:51:20.000Z</time>
      </trkpt>
      <trkpt lat="45.69898" lon="4.71236">
        <ele>227.19999694824</ele>
        <time>2017-05-31T08:51:24.000Z</time>
      </trkpt>
      <trkpt lat="45.69897" lon="4.71237">
        <ele>227.60000610352</ele>
        <time>2017-05-31T08:51:25.000Z</time>
      </trkpt>
      <trkpt lat="45.69895" lon="4.71239">
        <ele>228</ele>
        <time>2017-05-31T08:51:26.000Z</time>
      </trkpt>
      <trkpt lat="45.69894" lon="4.71241">
        <ele>228.39999389648</ele>
        <time>2017-05-31T08:51:27.000Z</time>
      </trkpt>
      <trkpt lat="45.69892" lon="4.71243">
        <ele>228.80000305176</ele>
        <time>2017-05-31T08:51:28.000Z</time>
      </trkpt>
      <trkpt lat="45.69882" lon="4.71265">
        <ele>228.80000305176</ele>
        <time>2017-05-31T08:51:36.000Z</time>
      </trkpt>
      <trkpt lat="45.69876" lon="4.71288">
        <ele>228.80000305176</ele>
        <time>2017-05-31T08:51:42.000Z</time>
      </trkpt>
      <trkpt lat="45.69872" lon="4.71303">
        <ele>229.39999389648</ele>
        <time>2017-05-31T08:51:46.000Z</time>
      </trkpt>
      <trkpt lat="45.69872" lon="4.71307">
        <ele>229.80000305176</ele>
        <time>2017-05-31T08:51:47.000Z</time>
      </trkpt>
      <trkpt lat="45.69872" lon="4.71311">
        <ele>230.19999694824</ele>
        <time>2017-05-31T08:51:48.000Z</time>
      </trkpt>
      <trkpt lat="45.69873" lon="4.71315">
        <ele>230.60000610352</ele>
        <time>2017-05-31T08:51:49.000Z</time>
      </trkpt>
      <trkpt lat="45.69873" lon="4.7132">
        <ele>231.19999694824</ele>
        <time>2017-05-31T08:51:50.000Z</time>
      </trkpt>
      <trkpt lat="45.69873" lon="4.71355">
        <ele>231.19999694824</ele>
        <time>2017-05-31T08:51:57.000Z</time>
      </trkpt>
      <trkpt lat="45.69873" lon="4.71372">
        <ele>231.60000610352</ele>
        <time>2017-05-31T08:52:00.000Z</time>
      </trkpt>
      <trkpt lat="45.69874" lon="4.71377">
        <ele>232</ele>
        <time>2017-05-31T08:52:01.000Z</time>
      </trkpt>
      <trkpt lat="45.69874" lon="4.71383">
        <ele>232.39999389648</ele>
        <time>2017-05-31T08:52:02.000Z</time>
      </trkpt>
      <trkpt lat="45.69874" lon="4.71389">
        <ele>233</ele>
        <time>2017-05-31T08:52:03.000Z</time>
      </trkpt>
      <trkpt lat="45.69874" lon="4.71395">
        <ele>233.39999389648</ele>
        <time>2017-05-31T08:52:04.000Z</time>
      </trkpt>
      <trkpt lat="45.69874" lon="4.71412">
        <ele>233.39999389648</ele>
        <time>2017-05-31T08:52:07.000Z</time>
      </trkpt>
      <trkpt lat="45.69873" lon="4.71433">
        <ele>233.80000305176</ele>
        <time>2017-05-31T08:52:11.000Z</time>
      </trkpt>
      <trkpt lat="45.69873" lon="4.71439">
        <ele>234.19999694824</ele>
        <time>2017-05-31T08:52:12.000Z</time>
      </trkpt>
      <trkpt lat="45.69873" lon="4.71444">
        <ele>234.80000305176</ele>
        <time>2017-05-31T08:52:13.000Z</time>
      </trkpt>
      <trkpt lat="45.69873" lon="4.7145">
        <ele>235.19999694824</ele>
        <time>2017-05-31T08:52:14.000Z</time>
      </trkpt>
      <trkpt lat="45.69874" lon="4.71457">
        <ele>235.60000610352</ele>
        <time>2017-05-31T08:52:15.000Z</time>
      </trkpt>
      <trkpt lat="45.69873" lon="4.71469">
        <ele>235.60000610352</ele>
        <time>2017-05-31T08:52:17.000Z</time>
      </trkpt>
      <trkpt lat="45.69874" lon="4.71481">
        <ele>235.60000610352</ele>
        <time>2017-05-31T08:52:19.000Z</time>
      </trkpt>
      <trkpt lat="45.69875" lon="4.71488">
        <ele>236</ele>
        <time>2017-05-31T08:52:20.000Z</time>
      </trkpt>
      <trkpt lat="45.69876" lon="4.71494">
        <ele>236.60000610352</ele>
        <time>2017-05-31T08:52:21.000Z</time>
      </trkpt>
      <trkpt lat="45.69877" lon="4.71501">
        <ele>237</ele>
        <time>2017-05-31T08:52:22.000Z</time>
      </trkpt>
      <trkpt lat="45.69878" lon="4.71507">
        <ele>237.39999389648</ele>
        <time>2017-05-31T08:52:23.000Z</time>
      </trkpt>
      <trkpt lat="45.6988" lon="4.71512">
        <ele>237.80000305176</ele>
        <time>2017-05-31T08:52:24.000Z</time>
      </trkpt>
      <trkpt lat="45.69885" lon="4.7153">
        <ele>237.80000305176</ele>
        <time>2017-05-31T08:52:27.000Z</time>
      </trkpt>
      <trkpt lat="45.69889" lon="4.71541">
        <ele>237.80000305176</ele>
        <time>2017-05-31T08:52:29.000Z</time>
      </trkpt>
      <trkpt lat="45.69898" lon="4.71556">
        <ele>237.80000305176</ele>
        <time>2017-05-31T08:52:32.000Z</time>
      </trkpt>
      <trkpt lat="45.69907" lon="4.71572">
        <ele>237.80000305176</ele>
        <time>2017-05-31T08:52:35.000Z</time>
      </trkpt>
      <trkpt lat="45.69917" lon="4.71588">
        <ele>238.19999694824</ele>
        <time>2017-05-31T08:52:38.000Z</time>
      </trkpt>
      <trkpt lat="45.6992" lon="4.71594">
        <ele>238.60000610352</ele>
        <time>2017-05-31T08:52:39.000Z</time>
      </trkpt>
      <trkpt lat="45.69923" lon="4.71599">
        <ele>239.19999694824</ele>
        <time>2017-05-31T08:52:40.000Z</time>
      </trkpt>
      <trkpt lat="45.69925" lon="4.71604">
        <ele>239.60000610352</ele>
        <time>2017-05-31T08:52:41.000Z</time>
      </trkpt>
      <trkpt lat="45.69927" lon="4.71609">
        <ele>240</ele>
        <time>2017-05-31T08:52:42.000Z</time>
      </trkpt>
      <trkpt lat="45.69935" lon="4.71632">
        <ele>240</ele>
        <time>2017-05-31T08:52:46.000Z</time>
      </trkpt>
      <trkpt lat="45.69937" lon="4.71643">
        <ele>240</ele>
        <time>2017-05-31T08:52:48.000Z</time>
      </trkpt>
      <trkpt lat="45.69943" lon="4.71665">
        <ele>240.39999389648</ele>
        <time>2017-05-31T08:52:52.000Z</time>
      </trkpt>
      <trkpt lat="45.69945" lon="4.71671">
        <ele>241</ele>
        <time>2017-05-31T08:52:53.000Z</time>
      </trkpt>
      <trkpt lat="45.69946" lon="4.71676">
        <ele>241.39999389648</ele>
        <time>2017-05-31T08:52:54.000Z</time>
      </trkpt>
      <trkpt lat="45.69948" lon="4.71682">
        <ele>241.80000305176</ele>
        <time>2017-05-31T08:52:55.000Z</time>
      </trkpt>
      <trkpt lat="45.69949" lon="4.71687">
        <ele>242.19999694824</ele>
        <time>2017-05-31T08:52:56.000Z</time>
      </trkpt>
      <trkpt lat="45.69965" lon="4.71733">
        <ele>242.19999694824</ele>
        <time>2017-05-31T08:53:05.000Z</time>
      </trkpt>
      <trkpt lat="45.6997" lon="4.71748">
        <ele>242.60000610352</ele>
        <time>2017-05-31T08:53:08.000Z</time>
      </trkpt>
      <trkpt lat="45.69972" lon="4.71753">
        <ele>243</ele>
        <time>2017-05-31T08:53:09.000Z</time>
      </trkpt>
      <trkpt lat="45.69974" lon="4.71758">
        <ele>243.39999389648</ele>
        <time>2017-05-31T08:53:10.000Z</time>
      </trkpt>
      <trkpt lat="45.69976" lon="4.71763">
        <ele>243.80000305176</ele>
        <time>2017-05-31T08:53:11.000Z</time>
      </trkpt>
      <trkpt lat="45.69978" lon="4.71768">
        <ele>244.19999694824</ele>
        <time>2017-05-31T08:53:12.000Z</time>
      </trkpt>
      <trkpt lat="45.69979" lon="4.71772">
        <ele>244.19999694824</ele>
        <time>2017-05-31T08:53:13.000Z</time>
      </trkpt>
      <trkpt lat="45.69986" lon="4.71787">
        <ele>244.19999694824</ele>
        <time>2017-05-31T08:53:16.000Z</time>
      </trkpt>
      <trkpt lat="45.69991" lon="4.71796">
        <ele>244.19999694824</ele>
        <time>2017-05-31T08:53:18.000Z</time>
      </trkpt>
      <trkpt lat="45.69993" lon="4.71801">
        <ele>244.80000305176</ele>
        <time>2017-05-31T08:53:19.000Z</time>
      </trkpt>
      <trkpt lat="45.69996" lon="4.71807">
        <ele>245.19999694824</ele>
        <time>2017-05-31T08:53:20.000Z</time>
      </trkpt>
      <trkpt lat="45.69999" lon="4.71812">
        <ele>245.60000610352</ele>
        <time>2017-05-31T08:53:21.000Z</time>
      </trkpt>
      <trkpt lat="45.70001" lon="4.71816">
        <ele>246</ele>
        <time>2017-05-31T08:53:22.000Z</time>
      </trkpt>
      <trkpt lat="45.70004" lon="4.7182">
        <ele>246.60000610352</ele>
        <time>2017-05-31T08:53:23.000Z</time>
      </trkpt>
      <trkpt lat="45.70008" lon="4.71824">
        <ele>246.60000610352</ele>
        <time>2017-05-31T08:53:24.000Z</time>
      </trkpt>
      <trkpt lat="45.70025" lon="4.71851">
        <ele>246.60000610352</ele>
        <time>2017-05-31T08:53:31.000Z</time>
      </trkpt>
      <trkpt lat="45.70027" lon="4.71856">
        <ele>247</ele>
        <time>2017-05-31T08:53:32.000Z</time>
      </trkpt>
      <trkpt lat="45.70029" lon="4.7186">
        <ele>247.39999389648</ele>
        <time>2017-05-31T08:53:33.000Z</time>
      </trkpt>
      <trkpt lat="45.7003" lon="4.71865">
        <ele>247.80000305176</ele>
        <time>2017-05-31T08:53:34.000Z</time>
      </trkpt>
      <trkpt lat="45.70031" lon="4.71869">
        <ele>248.39999389648</ele>
        <time>2017-05-31T08:53:35.000Z</time>
      </trkpt>
      <trkpt lat="45.70032" lon="4.71874">
        <ele>248.80000305176</ele>
        <time>2017-05-31T08:53:36.000Z</time>
      </trkpt>
      <trkpt lat="45.70033" lon="4.71884">
        <ele>248.80000305176</ele>
        <time>2017-05-31T08:53:38.000Z</time>
      </trkpt>
      <trkpt lat="45.70035" lon="4.71912">
        <ele>248.80000305176</ele>
        <time>2017-05-31T08:53:44.000Z</time>
      </trkpt>
      <trkpt lat="45.7004" lon="4.7195">
        <ele>248.80000305176</ele>
        <time>2017-05-31T08:53:50.000Z</time>
      </trkpt>
      <trkpt lat="45.70044" lon="4.71986">
        <ele>248.80000305176</ele>
        <time>2017-05-31T08:53:55.000Z</time>
      </trkpt>
      <trkpt lat="45.70047" lon="4.72002">
        <ele>248.80000305176</ele>
        <time>2017-05-31T08:53:57.000Z</time>
      </trkpt>
      <trkpt lat="45.70057" lon="4.72051">
        <ele>248.80000305176</ele>
        <time>2017-05-31T08:54:03.000Z</time>
      </trkpt>
      <trkpt lat="45.70059" lon="4.72068">
        <ele>248.80000305176</ele>
        <time>2017-05-31T08:54:05.000Z</time>
      </trkpt>
      <trkpt lat="45.70064" lon="4.72113">
        <ele>248.80000305176</ele>
        <time>2017-05-31T08:54:11.000Z</time>
      </trkpt>
      <trkpt lat="45.70069" lon="4.72158">
        <ele>248.80000305176</ele>
        <time>2017-05-31T08:54:17.000Z</time>
      </trkpt>
      <trkpt lat="45.70077" lon="4.72235">
        <ele>248.80000305176</ele>
        <time>2017-05-31T08:54:27.000Z</time>
      </trkpt>
      <trkpt lat="45.70081" lon="4.72259">
        <ele>248.80000305176</ele>
        <time>2017-05-31T08:54:30.000Z</time>
      </trkpt>
      <trkpt lat="45.70083" lon="4.72281">
        <ele>248.80000305176</ele>
        <time>2017-05-31T08:54:33.000Z</time>
      </trkpt>
      <trkpt lat="45.70082" lon="4.72302">
        <ele>248.80000305176</ele>
        <time>2017-05-31T08:54:36.000Z</time>
      </trkpt>
      <trkpt lat="45.70079" lon="4.72323">
        <ele>248.80000305176</ele>
        <time>2017-05-31T08:54:39.000Z</time>
      </trkpt>
      <trkpt lat="45.70071" lon="4.7238">
        <ele>248.80000305176</ele>
        <time>2017-05-31T08:54:47.000Z</time>
      </trkpt>
      <trkpt lat="45.7007" lon="4.72387">
        <ele>249.19999694824</ele>
        <time>2017-05-31T08:54:48.000Z</time>
      </trkpt>
      <trkpt lat="45.7007" lon="4.72394">
        <ele>249.60000610352</ele>
        <time>2017-05-31T08:54:49.000Z</time>
      </trkpt>
      <trkpt lat="45.7007" lon="4.72401">
        <ele>250</ele>
        <time>2017-05-31T08:54:50.000Z</time>
      </trkpt>
      <trkpt lat="45.70069" lon="4.72408">
        <ele>250.39999389648</ele>
        <time>2017-05-31T08:54:51.000Z</time>
      </trkpt>
      <trkpt lat="45.70069" lon="4.72415">
        <ele>250.80000305176</ele>
        <time>2017-05-31T08:54:52.000Z</time>
      </trkpt>
      <trkpt lat="45.70069" lon="4.72435">
        <ele>250.80000305176</ele>
        <time>2017-05-31T08:54:55.000Z</time>
      </trkpt>
      <trkpt lat="45.70071" lon="4.72491">
        <ele>251.19999694824</ele>
        <time>2017-05-31T08:55:03.000Z</time>
      </trkpt>
      <trkpt lat="45.70072" lon="4.72498">
        <ele>251.60000610352</ele>
        <time>2017-05-31T08:55:04.000Z</time>
      </trkpt>
      <trkpt lat="45.70072" lon="4.72505">
        <ele>252</ele>
        <time>2017-05-31T08:55:05.000Z</time>
      </trkpt>
      <trkpt lat="45.70073" lon="4.72513">
        <ele>252.39999389648</ele>
        <time>2017-05-31T08:55:06.000Z</time>
      </trkpt>
      <trkpt lat="45.70074" lon="4.7252">
        <ele>252.80000305176</ele>
        <time>2017-05-31T08:55:07.000Z</time>
      </trkpt>
      <trkpt lat="45.70078" lon="4.72553">
        <ele>252.80000305176</ele>
        <time>2017-05-31T08:55:12.000Z</time>
      </trkpt>
      <trkpt lat="45.70088" lon="4.72606">
        <ele>252.80000305176</ele>
        <time>2017-05-31T08:55:21.000Z</time>
      </trkpt>
      <trkpt lat="45.7009" lon="4.72612">
        <ele>252.80000305176</ele>
        <time>2017-05-31T08:55:22.000Z</time>
      </trkpt>
      <trkpt lat="45.70091" lon="4.72617">
        <ele>253.19999694824</ele>
        <time>2017-05-31T08:55:23.000Z</time>
      </trkpt>
      <trkpt lat="45.70092" lon="4.72623">
        <ele>253.80000305176</ele>
        <time>2017-05-31T08:55:24.000Z</time>
      </trkpt>
      <trkpt lat="45.70094" lon="4.72629">
        <ele>254.19999694824</ele>
        <time>2017-05-31T08:55:25.000Z</time>
      </trkpt>
      <trkpt lat="45.70096" lon="4.72634">
        <ele>254.60000610352</ele>
        <time>2017-05-31T08:55:26.000Z</time>
      </trkpt>
      <trkpt lat="45.70098" lon="4.7264">
        <ele>255</ele>
        <time>2017-05-31T08:55:27.000Z</time>
      </trkpt>
      <trkpt lat="45.70103" lon="4.72655">
        <ele>255</ele>
        <time>2017-05-31T08:55:30.000Z</time>
      </trkpt>
      <trkpt lat="45.7011" lon="4.72675">
        <ele>255</ele>
        <time>2017-05-31T08:55:34.000Z</time>
      </trkpt>
      <trkpt lat="45.70118" lon="4.72695">
        <ele>255.39999389648</ele>
        <time>2017-05-31T08:55:38.000Z</time>
      </trkpt>
      <trkpt lat="45.7012" lon="4.727">
        <ele>255.80000305176</ele>
        <time>2017-05-31T08:55:39.000Z</time>
      </trkpt>
      <trkpt lat="45.70122" lon="4.72706">
        <ele>256.20001220703</ele>
        <time>2017-05-31T08:55:40.000Z</time>
      </trkpt>
      <trkpt lat="45.70124" lon="4.72711">
        <ele>256.60000610352</ele>
        <time>2017-05-31T08:55:41.000Z</time>
      </trkpt>
      <trkpt lat="45.70126" lon="4.72716">
        <ele>257</ele>
        <time>2017-05-31T08:55:42.000Z</time>
      </trkpt>
      <trkpt lat="45.70153" lon="4.72785">
        <ele>257</ele>
        <time>2017-05-31T08:55:54.000Z</time>
      </trkpt>
      <trkpt lat="45.70179" lon="4.72847">
        <ele>257</ele>
        <time>2017-05-31T08:56:04.000Z</time>
      </trkpt>
      <trkpt lat="45.70212" lon="4.72917">
        <ele>257</ele>
        <time>2017-05-31T08:56:15.000Z</time>
      </trkpt>
      <trkpt lat="45.70249" lon="4.72976">
        <ele>257</ele>
        <time>2017-05-31T08:56:25.000Z</time>
      </trkpt>
      <trkpt lat="45.70258" lon="4.72987">
        <ele>257</ele>
        <time>2017-05-31T08:56:27.000Z</time>
      </trkpt>
      <trkpt lat="45.70296" lon="4.73042">
        <ele>257</ele>
        <time>2017-05-31T08:56:37.000Z</time>
      </trkpt>
      <trkpt lat="45.70303" lon="4.73054">
        <ele>257</ele>
        <time>2017-05-31T08:56:39.000Z</time>
      </trkpt>
      <trkpt lat="45.70319" lon="4.73082">
        <ele>257</ele>
        <time>2017-05-31T08:56:45.000Z</time>
      </trkpt>
      <trkpt lat="45.70323" lon="4.73089">
        <ele>257</ele>
        <time>2017-05-31T08:56:49.000Z</time>
      </trkpt>
      <trkpt lat="45.70323" lon="4.73089">
        <ele>257</ele>
        <time>2017-05-31T08:56:50.000Z</time>
      </trkpt>
      <trkpt lat="45.70333" lon="4.73058">
        <ele>257</ele>
        <time>2017-05-31T09:01:03.000Z</time>
      </trkpt>
      <trkpt lat="45.70334" lon="4.73051">
        <ele>257</ele>
        <time>2017-05-31T09:01:05.000Z</time>
      </trkpt>
      <trkpt lat="45.70341" lon="4.73029">
        <ele>257</ele>
        <time>2017-05-31T09:01:10.000Z</time>
      </trkpt>
      <trkpt lat="45.7036" lon="4.72988">
        <ele>257</ele>
        <time>2017-05-31T09:01:18.000Z</time>
      </trkpt>
      <trkpt lat="45.70388" lon="4.7292">
        <ele>257</ele>
        <time>2017-05-31T09:01:30.000Z</time>
      </trkpt>
      <trkpt lat="45.70421" lon="4.72856">
        <ele>257</ele>
        <time>2017-05-31T09:01:42.000Z</time>
      </trkpt>
      <trkpt lat="45.7044" lon="4.72803">
        <ele>257</ele>
        <time>2017-05-31T09:01:51.000Z</time>
      </trkpt>
      <trkpt lat="45.7044" lon="4.7279">
        <ele>257</ele>
        <time>2017-05-31T09:01:53.000Z</time>
      </trkpt>
      <trkpt lat="45.70439" lon="4.72777">
        <ele>257</ele>
        <time>2017-05-31T09:01:55.000Z</time>
      </trkpt>
      <trkpt lat="45.70431" lon="4.72725">
        <ele>257</ele>
        <time>2017-05-31T09:02:03.000Z</time>
      </trkpt>
      <trkpt lat="45.70422" lon="4.72676">
        <ele>257</ele>
        <time>2017-05-31T09:02:11.000Z</time>
      </trkpt>
      <trkpt lat="45.70412" lon="4.72606">
        <ele>257</ele>
        <time>2017-05-31T09:02:22.000Z</time>
      </trkpt>
      <trkpt lat="45.70404" lon="4.72559">
        <ele>257.39999389648</ele>
        <time>2017-05-31T09:02:30.000Z</time>
      </trkpt>
      <trkpt lat="45.70403" lon="4.72553">
        <ele>257.79998779297</ele>
        <time>2017-05-31T09:02:31.000Z</time>
      </trkpt>
      <trkpt lat="45.70402" lon="4.72547">
        <ele>258.39999389648</ele>
        <time>2017-05-31T09:02:32.000Z</time>
      </trkpt>
      <trkpt lat="45.70401" lon="4.72541">
        <ele>258.79998779297</ele>
        <time>2017-05-31T09:02:33.000Z</time>
      </trkpt>
      <trkpt lat="45.704" lon="4.72535">
        <ele>259.20001220703</ele>
        <time>2017-05-31T09:02:34.000Z</time>
      </trkpt>
      <trkpt lat="45.70392" lon="4.72486">
        <ele>259.20001220703</ele>
        <time>2017-05-31T09:02:42.000Z</time>
      </trkpt>
      <trkpt lat="45.70381" lon="4.7241">
        <ele>259.20001220703</ele>
        <time>2017-05-31T09:02:54.000Z</time>
      </trkpt>
      <trkpt lat="45.70378" lon="4.72384">
        <ele>259.60000610352</ele>
        <time>2017-05-31T09:02:58.000Z</time>
      </trkpt>
      <trkpt lat="45.70377" lon="4.72378">
        <ele>260</ele>
        <time>2017-05-31T09:02:59.000Z</time>
      </trkpt>
      <trkpt lat="45.70376" lon="4.72371">
        <ele>260.60000610352</ele>
        <time>2017-05-31T09:03:00.000Z</time>
      </trkpt>
      <trkpt lat="45.70376" lon="4.72365">
        <ele>261</ele>
        <time>2017-05-31T09:03:01.000Z</time>
      </trkpt>
      <trkpt lat="45.70375" lon="4.72359">
        <ele>261.60000610352</ele>
        <time>2017-05-31T09:03:02.000Z</time>
      </trkpt>
      <trkpt lat="45.70371" lon="4.72291">
        <ele>261.60000610352</ele>
        <time>2017-05-31T09:03:12.000Z</time>
      </trkpt>
      <trkpt lat="45.70371" lon="4.72218">
        <ele>261.60000610352</ele>
        <time>2017-05-31T09:03:23.000Z</time>
      </trkpt>
      <trkpt lat="45.70371" lon="4.72162">
        <ele>261.60000610352</ele>
        <time>2017-05-31T09:03:31.000Z</time>
      </trkpt>
      <trkpt lat="45.70372" lon="4.72091">
        <ele>261.60000610352</ele>
        <time>2017-05-31T09:03:41.000Z</time>
      </trkpt>
      <trkpt lat="45.7038" lon="4.72021">
        <ele>261.60000610352</ele>
        <time>2017-05-31T09:03:51.000Z</time>
      </trkpt>
      <trkpt lat="45.70384" lon="4.72001">
        <ele>262</ele>
        <time>2017-05-31T09:03:54.000Z</time>
      </trkpt>
      <trkpt lat="45.70385" lon="4.71995">
        <ele>262.39999389648</ele>
        <time>2017-05-31T09:03:55.000Z</time>
      </trkpt>
      <trkpt lat="45.70387" lon="4.71988">
        <ele>262.79998779297</ele>
        <time>2017-05-31T09:03:56.000Z</time>
      </trkpt>
      <trkpt lat="45.70388" lon="4.71982">
        <ele>263.20001220703</ele>
        <time>2017-05-31T09:03:57.000Z</time>
      </trkpt>
      <trkpt lat="45.70389" lon="4.71975">
        <ele>263.60000610352</ele>
        <time>2017-05-31T09:03:58.000Z</time>
      </trkpt>
      <trkpt lat="45.70391" lon="4.71962">
        <ele>263.60000610352</ele>
        <time>2017-05-31T09:04:00.000Z</time>
      </trkpt>
      <trkpt lat="45.70397" lon="4.71905">
        <ele>263.60000610352</ele>
        <time>2017-05-31T09:04:09.000Z</time>
      </trkpt>
      <trkpt lat="45.70401" lon="4.71865">
        <ele>263.60000610352</ele>
        <time>2017-05-31T09:04:16.000Z</time>
      </trkpt>
      <trkpt lat="45.70401" lon="4.71859">
        <ele>264</ele>
        <time>2017-05-31T09:04:17.000Z</time>
      </trkpt>
      <trkpt lat="45.70402" lon="4.71854">
        <ele>264.39999389648</ele>
        <time>2017-05-31T09:04:18.000Z</time>
      </trkpt>
      <trkpt lat="45.70402" lon="4.71849">
        <ele>264.79998779297</ele>
        <time>2017-05-31T09:04:19.000Z</time>
      </trkpt>
      <trkpt lat="45.70403" lon="4.71845">
        <ele>265.20001220703</ele>
        <time>2017-05-31T09:04:20.000Z</time>
      </trkpt>
      <trkpt lat="45.70403" lon="4.7184">
        <ele>265.60000610352</ele>
        <time>2017-05-31T09:04:21.000Z</time>
      </trkpt>
      <trkpt lat="45.70404" lon="4.71834">
        <ele>265.60000610352</ele>
        <time>2017-05-31T09:04:22.000Z</time>
      </trkpt>
      <trkpt lat="45.70407" lon="4.71786">
        <ele>266</ele>
        <time>2017-05-31T09:04:31.000Z</time>
      </trkpt>
      <trkpt lat="45.70408" lon="4.7178">
        <ele>266.60000610352</ele>
        <time>2017-05-31T09:04:32.000Z</time>
      </trkpt>
      <trkpt lat="45.70408" lon="4.71774">
        <ele>267</ele>
        <time>2017-05-31T09:04:33.000Z</time>
      </trkpt>
      <trkpt lat="45.70409" lon="4.71769">
        <ele>267.39999389648</ele>
        <time>2017-05-31T09:04:34.000Z</time>
      </trkpt>
      <trkpt lat="45.70409" lon="4.71763">
        <ele>267.79998779297</ele>
        <time>2017-05-31T09:04:35.000Z</time>
      </trkpt>
      <trkpt lat="45.70412" lon="4.71723">
        <ele>267.79998779297</ele>
        <time>2017-05-31T09:04:42.000Z</time>
      </trkpt>
      <trkpt lat="45.70416" lon="4.71673">
        <ele>267.79998779297</ele>
        <time>2017-05-31T09:04:52.000Z</time>
      </trkpt>
      <trkpt lat="45.70418" lon="4.7164">
        <ele>267.79998779297</ele>
        <time>2017-05-31T09:04:58.000Z</time>
      </trkpt>
      <trkpt lat="45.70421" lon="4.71609">
        <ele>267.79998779297</ele>
        <time>2017-05-31T09:05:04.000Z</time>
      </trkpt>
      <trkpt lat="45.70427" lon="4.71575">
        <ele>267.79998779297</ele>
        <time>2017-05-31T09:05:10.000Z</time>
      </trkpt>
      <trkpt lat="45.7043" lon="4.71563">
        <ele>267.79998779297</ele>
        <time>2017-05-31T09:05:12.000Z</time>
      </trkpt>
      <trkpt lat="45.70437" lon="4.71536">
        <ele>267.79998779297</ele>
        <time>2017-05-31T09:05:16.000Z</time>
      </trkpt>
      <trkpt lat="45.70451" lon="4.7148">
        <ele>267.79998779297</ele>
        <time>2017-05-31T09:05:24.000Z</time>
      </trkpt>
      <trkpt lat="45.7046" lon="4.71443">
        <ele>267.39999389648</ele>
        <time>2017-05-31T09:05:29.000Z</time>
      </trkpt>
      <trkpt lat="45.70463" lon="4.71436">
        <ele>267</ele>
        <time>2017-05-31T09:05:30.000Z</time>
      </trkpt>
      <trkpt lat="45.70465" lon="4.71429">
        <ele>266.39999389648</ele>
        <time>2017-05-31T09:05:31.000Z</time>
      </trkpt>
      <trkpt lat="45.70467" lon="4.71422">
        <ele>266</ele>
        <time>2017-05-31T09:05:32.000Z</time>
      </trkpt>
      <trkpt lat="45.70469" lon="4.71415">
        <ele>265.60000610352</ele>
        <time>2017-05-31T09:05:33.000Z</time>
      </trkpt>
      <trkpt lat="45.70483" lon="4.71374">
        <ele>265.60000610352</ele>
        <time>2017-05-31T09:05:39.000Z</time>
      </trkpt>
      <trkpt lat="45.70486" lon="4.71366">
        <ele>265.20001220703</ele>
        <time>2017-05-31T09:05:40.000Z</time>
      </trkpt>
      <trkpt lat="45.7049" lon="4.71358">
        <ele>264.79998779297</ele>
        <time>2017-05-31T09:05:41.000Z</time>
      </trkpt>
      <trkpt lat="45.70493" lon="4.7135">
        <ele>264.39999389648</ele>
        <time>2017-05-31T09:05:42.000Z</time>
      </trkpt>
      <trkpt lat="45.70496" lon="4.71342">
        <ele>264</ele>
        <time>2017-05-31T09:05:43.000Z</time>
      </trkpt>
      <trkpt lat="45.705" lon="4.71334">
        <ele>263.60000610352</ele>
        <time>2017-05-31T09:05:44.000Z</time>
      </trkpt>
      <trkpt lat="45.70506" lon="4.71317">
        <ele>263</ele>
        <time>2017-05-31T09:05:46.000Z</time>
      </trkpt>
      <trkpt lat="45.70508" lon="4.71308">
        <ele>262.60000610352</ele>
        <time>2017-05-31T09:05:47.000Z</time>
      </trkpt>
      <trkpt lat="45.70511" lon="4.71299">
        <ele>262.20001220703</ele>
        <time>2017-05-31T09:05:48.000Z</time>
      </trkpt>
      <trkpt lat="45.70513" lon="4.7129">
        <ele>261.79998779297</ele>
        <time>2017-05-31T09:05:49.000Z</time>
      </trkpt>
      <trkpt lat="45.70516" lon="4.7128">
        <ele>261.20001220703</ele>
        <time>2017-05-31T09:05:50.000Z</time>
      </trkpt>
      <trkpt lat="45.70524" lon="4.71251">
        <ele>261.20001220703</ele>
        <time>2017-05-31T09:05:53.000Z</time>
      </trkpt>
      <trkpt lat="45.70527" lon="4.71242">
        <ele>260.79998779297</ele>
        <time>2017-05-31T09:05:54.000Z</time>
      </trkpt>
      <trkpt lat="45.7053" lon="4.71232">
        <ele>260.39999389648</ele>
        <time>2017-05-31T09:05:55.000Z</time>
      </trkpt>
      <trkpt lat="45.70532" lon="4.71224">
        <ele>260</ele>
        <time>2017-05-31T09:05:56.000Z</time>
      </trkpt>
      <trkpt lat="45.70534" lon="4.71216">
        <ele>259.60000610352</ele>
        <time>2017-05-31T09:05:57.000Z</time>
      </trkpt>
      <trkpt lat="45.70535" lon="4.71207">
        <ele>259.20001220703</ele>
        <time>2017-05-31T09:05:58.000Z</time>
      </trkpt>
      <trkpt lat="45.70537" lon="4.71199">
        <ele>259.20001220703</ele>
        <time>2017-05-31T09:05:59.000Z</time>
      </trkpt>
      <trkpt lat="45.70541" lon="4.71182">
        <ele>258.60000610352</ele>
        <time>2017-05-31T09:06:01.000Z</time>
      </trkpt>
      <trkpt lat="45.70542" lon="4.71174">
        <ele>258.20001220703</ele>
        <time>2017-05-31T09:06:02.000Z</time>
      </trkpt>
      <trkpt lat="45.70544" lon="4.71165">
        <ele>257.79998779297</ele>
        <time>2017-05-31T09:06:03.000Z</time>
      </trkpt>
      <trkpt lat="45.70545" lon="4.71156">
        <ele>257.39999389648</ele>
        <time>2017-05-31T09:06:04.000Z</time>
      </trkpt>
      <trkpt lat="45.70546" lon="4.71148">
        <ele>257</ele>
        <time>2017-05-31T09:06:05.000Z</time>
      </trkpt>
      <trkpt lat="45.70547" lon="4.7114">
        <ele>257</ele>
        <time>2017-05-31T09:06:06.000Z</time>
      </trkpt>
      <trkpt lat="45.70546" lon="4.71089">
        <ele>257</ele>
        <time>2017-05-31T09:06:13.000Z</time>
      </trkpt>
      <trkpt lat="45.70542" lon="4.71064">
        <ele>256.60000610352</ele>
        <time>2017-05-31T09:06:17.000Z</time>
      </trkpt>
      <trkpt lat="45.70541" lon="4.71058">
        <ele>256.20001220703</ele>
        <time>2017-05-31T09:06:18.000Z</time>
      </trkpt>
      <trkpt lat="45.7054" lon="4.71051">
        <ele>255.80000305176</ele>
        <time>2017-05-31T09:06:19.000Z</time>
      </trkpt>
      <trkpt lat="45.70539" lon="4.71045">
        <ele>255.39999389648</ele>
        <time>2017-05-31T09:06:20.000Z</time>
      </trkpt>
      <trkpt lat="45.70539" lon="4.71038">
        <ele>254.80000305176</ele>
        <time>2017-05-31T09:06:21.000Z</time>
      </trkpt>
      <trkpt lat="45.70539" lon="4.71031">
        <ele>254.80000305176</ele>
        <time>2017-05-31T09:06:22.000Z</time>
      </trkpt>
      <trkpt lat="45.7054" lon="4.71017">
        <ele>254.80000305176</ele>
        <time>2017-05-31T09:06:24.000Z</time>
      </trkpt>
      <trkpt lat="45.70542" lon="4.70991">
        <ele>254.80000305176</ele>
        <time>2017-05-31T09:06:28.000Z</time>
      </trkpt>
      <trkpt lat="45.70547" lon="4.70945">
        <ele>254.80000305176</ele>
        <time>2017-05-31T09:06:36.000Z</time>
      </trkpt>
      <trkpt lat="45.70555" lon="4.70906">
        <ele>254.80000305176</ele>
        <time>2017-05-31T09:06:43.000Z</time>
      </trkpt>
      <trkpt lat="45.70572" lon="4.70876">
        <ele>254.80000305176</ele>
        <time>2017-05-31T09:06:49.000Z</time>
      </trkpt>
      <trkpt lat="45.70596" lon="4.70843">
        <ele>254.80000305176</ele>
        <time>2017-05-31T09:06:56.000Z</time>
      </trkpt>
      <trkpt lat="45.70631" lon="4.70794">
        <ele>254.80000305176</ele>
        <time>2017-05-31T09:07:07.000Z</time>
      </trkpt>
      <trkpt lat="45.70634" lon="4.7079">
        <ele>255.39999389648</ele>
        <time>2017-05-31T09:07:08.000Z</time>
      </trkpt>
      <trkpt lat="45.70637" lon="4.70785">
        <ele>255.80000305176</ele>
        <time>2017-05-31T09:07:09.000Z</time>
      </trkpt>
      <trkpt lat="45.7064" lon="4.70781">
        <ele>256.20001220703</ele>
        <time>2017-05-31T09:07:10.000Z</time>
      </trkpt>
      <trkpt lat="45.70643" lon="4.70776">
        <ele>256.60000610352</ele>
        <time>2017-05-31T09:07:11.000Z</time>
      </trkpt>
      <trkpt lat="45.70646" lon="4.70772">
        <ele>257</ele>
        <time>2017-05-31T09:07:12.000Z</time>
      </trkpt>
      <trkpt lat="45.70661" lon="4.70752">
        <ele>257</ele>
        <time>2017-05-31T09:07:17.000Z</time>
      </trkpt>
      <trkpt lat="45.70683" lon="4.70723">
        <ele>257.39999389648</ele>
        <time>2017-05-31T09:07:25.000Z</time>
      </trkpt>
      <trkpt lat="45.70685" lon="4.70719">
        <ele>257.79998779297</ele>
        <time>2017-05-31T09:07:26.000Z</time>
      </trkpt>
      <trkpt lat="45.70688" lon="4.70716">
        <ele>258.20001220703</ele>
        <time>2017-05-31T09:07:27.000Z</time>
      </trkpt>
      <trkpt lat="45.70691" lon="4.70712">
        <ele>258.60000610352</ele>
        <time>2017-05-31T09:07:28.000Z</time>
      </trkpt>
      <trkpt lat="45.70693" lon="4.70709">
        <ele>259</ele>
        <time>2017-05-31T09:07:29.000Z</time>
      </trkpt>
      <trkpt lat="45.70708" lon="4.70684">
        <ele>259</ele>
        <time>2017-05-31T09:07:36.000Z</time>
      </trkpt>
      <trkpt lat="45.70716" lon="4.7067">
        <ele>259.39999389648</ele>
        <time>2017-05-31T09:07:41.000Z</time>
      </trkpt>
      <trkpt lat="45.70717" lon="4.70667">
        <ele>259.79998779297</ele>
        <time>2017-05-31T09:07:42.000Z</time>
      </trkpt>
      <trkpt lat="45.70719" lon="4.70665">
        <ele>260.39999389648</ele>
        <time>2017-05-31T09:07:43.000Z</time>
      </trkpt>
      <trkpt lat="45.7072" lon="4.70662">
        <ele>260.79998779297</ele>
        <time>2017-05-31T09:07:44.000Z</time>
      </trkpt>
      <trkpt lat="45.70722" lon="4.70659">
        <ele>261.20001220703</ele>
        <time>2017-05-31T09:07:45.000Z</time>
      </trkpt>
      <trkpt lat="45.70733" lon="4.70639">
        <ele>261.60000610352</ele>
        <time>2017-05-31T09:07:52.000Z</time>
      </trkpt>
      <trkpt lat="45.70735" lon="4.70636">
        <ele>262</ele>
        <time>2017-05-31T09:07:53.000Z</time>
      </trkpt>
      <trkpt lat="45.70737" lon="4.70633">
        <ele>262.39999389648</ele>
        <time>2017-05-31T09:07:54.000Z</time>
      </trkpt>
      <trkpt lat="45.70738" lon="4.7063">
        <ele>262.79998779297</ele>
        <time>2017-05-31T09:07:55.000Z</time>
      </trkpt>
      <trkpt lat="45.7074" lon="4.70628">
        <ele>263.20001220703</ele>
        <time>2017-05-31T09:07:56.000Z</time>
      </trkpt>
      <trkpt lat="45.70748" lon="4.70613">
        <ele>263.20001220703</ele>
        <time>2017-05-31T09:08:02.000Z</time>
      </trkpt>
      <trkpt lat="45.70761" lon="4.70594">
        <ele>263.20001220703</ele>
        <time>2017-05-31T09:08:11.000Z</time>
      </trkpt>
      <trkpt lat="45.70773" lon="4.70568">
        <ele>263.20001220703</ele>
        <time>2017-05-31T09:08:21.000Z</time>
      </trkpt>
      <trkpt lat="45.70777" lon="4.70559">
        <ele>263.60000610352</ele>
        <time>2017-05-31T09:08:24.000Z</time>
      </trkpt>
      <trkpt lat="45.70778" lon="4.70556">
        <ele>264</ele>
        <time>2017-05-31T09:08:25.000Z</time>
      </trkpt>
      <trkpt lat="45.70779" lon="4.70554">
        <ele>264.60000610352</ele>
        <time>2017-05-31T09:08:26.000Z</time>
      </trkpt>
      <trkpt lat="45.70781" lon="4.70551">
        <ele>265</ele>
        <time>2017-05-31T09:08:27.000Z</time>
      </trkpt>
      <trkpt lat="45.70783" lon="4.70548">
        <ele>265.39999389648</ele>
        <time>2017-05-31T09:08:28.000Z</time>
      </trkpt>
      <trkpt lat="45.70792" lon="4.7052">
        <ele>265.39999389648</ele>
        <time>2017-05-31T09:08:37.000Z</time>
      </trkpt>
      <trkpt lat="45.70801" lon="4.70483">
        <ele>265.39999389648</ele>
        <time>2017-05-31T09:08:47.000Z</time>
      </trkpt>
      <trkpt lat="45.70806" lon="4.70449">
        <ele>265.39999389648</ele>
        <time>2017-05-31T09:08:55.000Z</time>
      </trkpt>
      <trkpt lat="45.70812" lon="4.70423">
        <ele>265.39999389648</ele>
        <time>2017-05-31T09:09:02.000Z</time>
      </trkpt>
      <trkpt lat="45.70815" lon="4.70421">
        <ele>265.39999389648</ele>
        <time>2017-05-31T09:09:03.000Z</time>
      </trkpt>
      <trkpt lat="45.70824" lon="4.70422">
        <ele>265.39999389648</ele>
        <time>2017-05-31T09:09:05.000Z</time>
      </trkpt>
      <trkpt lat="45.7084" lon="4.70436">
        <ele>265.39999389648</ele>
        <time>2017-05-31T09:09:09.000Z</time>
      </trkpt>
      <trkpt lat="45.70868" lon="4.70467">
        <ele>265.39999389648</ele>
        <time>2017-05-31T09:09:16.000Z</time>
      </trkpt>
      <trkpt lat="45.70877" lon="4.70475">
        <ele>265.39999389648</ele>
        <time>2017-05-31T09:09:18.000Z</time>
      </trkpt>
      <trkpt lat="45.70885" lon="4.70475">
        <ele>265.39999389648</ele>
        <time>2017-05-31T09:09:20.000Z</time>
      </trkpt>
      <trkpt lat="45.70895" lon="4.70464">
        <ele>265.39999389648</ele>
        <time>2017-05-31T09:09:23.000Z</time>
      </trkpt>
      <trkpt lat="45.70897" lon="4.7046">
        <ele>265.39999389648</ele>
        <time>2017-05-31T09:09:24.000Z</time>
      </trkpt>
      <trkpt lat="45.70901" lon="4.70454">
        <ele>265</ele>
        <time>2017-05-31T09:09:26.000Z</time>
      </trkpt>
      <trkpt lat="45.70902" lon="4.70451">
        <ele>264.60000610352</ele>
        <time>2017-05-31T09:09:27.000Z</time>
      </trkpt>
      <trkpt lat="45.70904" lon="4.70449">
        <ele>264.20001220703</ele>
        <time>2017-05-31T09:09:28.000Z</time>
      </trkpt>
      <trkpt lat="45.70905" lon="4.70447">
        <ele>263.79998779297</ele>
        <time>2017-05-31T09:09:29.000Z</time>
      </trkpt>
      <trkpt lat="45.70906" lon="4.70444">
        <ele>263.20001220703</ele>
        <time>2017-05-31T09:09:30.000Z</time>
      </trkpt>
      <trkpt lat="45.70911" lon="4.70437">
        <ele>263.20001220703</ele>
        <time>2017-05-31T09:09:35.000Z</time>
      </trkpt>
      <trkpt lat="45.70919" lon="4.7043">
        <ele>263.20001220703</ele>
        <time>2017-05-31T09:09:42.000Z</time>
      </trkpt>
      <trkpt lat="45.70919" lon="4.7043">
        <ele>263.20001220703</ele>
        <time>2017-05-31T09:09:43.000Z</time>
      </trkpt>
      <trkpt lat="45.7092" lon="4.7043">
        <ele>263.20001220703</ele>
        <time>2017-05-31T09:09:58.000Z</time>
      </trkpt>
      <trkpt lat="45.70921" lon="4.70428">
        <ele>263.20001220703</ele>
        <time>2017-05-31T09:09:59.000Z</time>
      </trkpt>
      <trkpt lat="45.70922" lon="4.70411">
        <ele>263.20001220703</ele>
        <time>2017-05-31T09:10:04.000Z</time>
      </trkpt>
      <trkpt lat="45.70924" lon="4.70388">
        <ele>263.20001220703</ele>
        <time>2017-05-31T09:10:11.000Z</time>
      </trkpt>
      <trkpt lat="45.70925" lon="4.70386">
        <ele>263.20001220703</ele>
        <time>2017-05-31T09:10:12.000Z</time>
      </trkpt>
      <trkpt lat="45.70938" lon="4.70362">
        <ele>263.20001220703</ele>
        <time>2017-05-31T09:10:19.000Z</time>
      </trkpt>
      <trkpt lat="45.70957" lon="4.70318">
        <ele>262.79998779297</ele>
        <time>2017-05-31T09:10:29.000Z</time>
      </trkpt>
      <trkpt lat="45.70959" lon="4.70314">
        <ele>262.39999389648</ele>
        <time>2017-05-31T09:10:30.000Z</time>
      </trkpt>
      <trkpt lat="45.70961" lon="4.7031">
        <ele>262</ele>
        <time>2017-05-31T09:10:31.000Z</time>
      </trkpt>
      <trkpt lat="45.70963" lon="4.70306">
        <ele>261.60000610352</ele>
        <time>2017-05-31T09:10:32.000Z</time>
      </trkpt>
      <trkpt lat="45.70966" lon="4.70302">
        <ele>261.20001220703</ele>
        <time>2017-05-31T09:10:33.000Z</time>
      </trkpt>
      <trkpt lat="45.70971" lon="4.70289">
        <ele>261.20001220703</ele>
        <time>2017-05-31T09:10:36.000Z</time>
      </trkpt>
      <trkpt lat="45.70989" lon="4.70253">
        <ele>261.20001220703</ele>
        <time>2017-05-31T09:10:44.000Z</time>
      </trkpt>
      <trkpt lat="45.71011" lon="4.70206">
        <ele>261.20001220703</ele>
        <time>2017-05-31T09:10:53.000Z</time>
      </trkpt>
      <trkpt lat="45.71037" lon="4.70155">
        <ele>261.20001220703</ele>
        <time>2017-05-31T09:11:02.000Z</time>
      </trkpt>
      <trkpt lat="45.7107" lon="4.7009">
        <ele>261.20001220703</ele>
        <time>2017-05-31T09:11:13.000Z</time>
      </trkpt>
      <trkpt lat="45.71104" lon="4.70034">
        <ele>261.20001220703</ele>
        <time>2017-05-31T09:11:23.000Z</time>
      </trkpt>
      <trkpt lat="45.71141" lon="4.69975">
        <ele>261.20001220703</ele>
        <time>2017-05-31T09:11:34.000Z</time>
      </trkpt>
      <trkpt lat="45.71165" lon="4.6994">
        <ele>261.20001220703</ele>
        <time>2017-05-31T09:11:42.000Z</time>
      </trkpt>
      <trkpt lat="45.71199" lon="4.69888">
        <ele>261.20001220703</ele>
        <time>2017-05-31T09:11:53.000Z</time>
      </trkpt>
      <trkpt lat="45.71228" lon="4.6983">
        <ele>261.20001220703</ele>
        <time>2017-05-31T09:12:04.000Z</time>
      </trkpt>
      <trkpt lat="45.7126" lon="4.69764">
        <ele>261.20001220703</ele>
        <time>2017-05-31T09:12:16.000Z</time>
      </trkpt>
      <trkpt lat="45.71262" lon="4.69758">
        <ele>261.20001220703</ele>
        <time>2017-05-31T09:12:17.000Z</time>
      </trkpt>
      <trkpt lat="45.71276" lon="4.6973">
        <ele>261.60000610352</ele>
        <time>2017-05-31T09:12:22.000Z</time>
      </trkpt>
      <trkpt lat="45.71279" lon="4.69724">
        <ele>262</ele>
        <time>2017-05-31T09:12:23.000Z</time>
      </trkpt>
      <trkpt lat="45.71282" lon="4.69718">
        <ele>262.39999389648</ele>
        <time>2017-05-31T09:12:24.000Z</time>
      </trkpt>
      <trkpt lat="45.71285" lon="4.69713">
        <ele>262.79998779297</ele>
        <time>2017-05-31T09:12:25.000Z</time>
      </trkpt>
      <trkpt lat="45.71287" lon="4.69707">
        <ele>263.20001220703</ele>
        <time>2017-05-31T09:12:26.000Z</time>
      </trkpt>
      <trkpt lat="45.71306" lon="4.69668">
        <ele>263.20001220703</ele>
        <time>2017-05-31T09:12:33.000Z</time>
      </trkpt>
      <trkpt lat="45.71339" lon="4.696">
        <ele>263.20001220703</ele>
        <time>2017-05-31T09:12:45.000Z</time>
      </trkpt>
      <trkpt lat="45.71342" lon="4.69595">
        <ele>263.20001220703</ele>
        <time>2017-05-31T09:12:46.000Z</time>
      </trkpt>
      <trkpt lat="45.71374" lon="4.69526">
        <ele>263.20001220703</ele>
        <time>2017-05-31T09:12:58.000Z</time>
      </trkpt>
      <trkpt lat="45.71381" lon="4.69511">
        <ele>263.60000610352</ele>
        <time>2017-05-31T09:13:01.000Z</time>
      </trkpt>
      <trkpt lat="45.71383" lon="4.69506">
        <ele>264.20001220703</ele>
        <time>2017-05-31T09:13:02.000Z</time>
      </trkpt>
      <trkpt lat="45.71385" lon="4.69501">
        <ele>264.60000610352</ele>
        <time>2017-05-31T09:13:03.000Z</time>
      </trkpt>
      <trkpt lat="45.71388" lon="4.69496">
        <ele>265</ele>
        <time>2017-05-31T09:13:04.000Z</time>
      </trkpt>
      <trkpt lat="45.7139" lon="4.69491">
        <ele>265.39999389648</ele>
        <time>2017-05-31T09:13:05.000Z</time>
      </trkpt>
      <trkpt lat="45.71402" lon="4.69465">
        <ele>265.39999389648</ele>
        <time>2017-05-31T09:13:10.000Z</time>
      </trkpt>
      <trkpt lat="45.71433" lon="4.69411">
        <ele>265.39999389648</ele>
        <time>2017-05-31T09:13:21.000Z</time>
      </trkpt>
      <trkpt lat="45.71457" lon="4.69374">
        <ele>265.39999389648</ele>
        <time>2017-05-31T09:13:30.000Z</time>
      </trkpt>
      <trkpt lat="45.71478" lon="4.6934">
        <ele>265.39999389648</ele>
        <time>2017-05-31T09:13:40.000Z</time>
      </trkpt>
      <trkpt lat="45.71484" lon="4.69336">
        <ele>265.39999389648</ele>
        <time>2017-05-31T09:13:45.000Z</time>
      </trkpt>
      <trkpt lat="45.71485" lon="4.69335">
        <ele>265.39999389648</ele>
        <time>2017-05-31T09:16:41.000Z</time>
      </trkpt>
      <trkpt lat="45.71485" lon="4.69332">
        <ele>265.39999389648</ele>
        <time>2017-05-31T09:16:43.000Z</time>
      </trkpt>
      <trkpt lat="45.71486" lon="4.69328">
        <ele>265.39999389648</ele>
        <time>2017-05-31T09:16:51.000Z</time>
      </trkpt>
      <trkpt lat="45.71487" lon="4.69328">
        <ele>265.39999389648</ele>
        <time>2017-05-31T09:16:59.000Z</time>
      </trkpt>
      <trkpt lat="45.7149" lon="4.69324">
        <ele>265.39999389648</ele>
        <time>2017-05-31T09:17:01.000Z</time>
      </trkpt>
      <trkpt lat="45.71498" lon="4.69304">
        <ele>265.39999389648</ele>
        <time>2017-05-31T09:17:08.000Z</time>
      </trkpt>
      <trkpt lat="45.71503" lon="4.6929">
        <ele>265.79998779297</ele>
        <time>2017-05-31T09:17:13.000Z</time>
      </trkpt>
      <trkpt lat="45.71505" lon="4.69286">
        <ele>266.20001220703</ele>
        <time>2017-05-31T09:17:14.000Z</time>
      </trkpt>
      <trkpt lat="45.71507" lon="4.69283">
        <ele>266.60000610352</ele>
        <time>2017-05-31T09:17:15.000Z</time>
      </trkpt>
      <trkpt lat="45.71508" lon="4.6928">
        <ele>267</ele>
        <time>2017-05-31T09:17:16.000Z</time>
      </trkpt>
      <trkpt lat="45.7151" lon="4.69277">
        <ele>267.39999389648</ele>
        <time>2017-05-31T09:17:17.000Z</time>
      </trkpt>
      <trkpt lat="45.71522" lon="4.69253">
        <ele>267.39999389648</ele>
        <time>2017-05-31T09:17:23.000Z</time>
      </trkpt>
      <trkpt lat="45.71543" lon="4.69211">
        <ele>267.39999389648</ele>
        <time>2017-05-31T09:17:33.000Z</time>
      </trkpt>
      <trkpt lat="45.71567" lon="4.69161">
        <ele>267.39999389648</ele>
        <time>2017-05-31T09:17:44.000Z</time>
      </trkpt>
      <trkpt lat="45.71579" lon="4.69138">
        <ele>267.79998779297</ele>
        <time>2017-05-31T09:17:49.000Z</time>
      </trkpt>
      <trkpt lat="45.71581" lon="4.69134">
        <ele>268.20001220703</ele>
        <time>2017-05-31T09:17:50.000Z</time>
      </trkpt>
      <trkpt lat="45.71583" lon="4.6913">
        <ele>268.60000610352</ele>
        <time>2017-05-31T09:17:51.000Z</time>
      </trkpt>
      <trkpt lat="45.71584" lon="4.69126">
        <ele>269.20001220703</ele>
        <time>2017-05-31T09:17:52.000Z</time>
      </trkpt>
      <trkpt lat="45.71587" lon="4.69122">
        <ele>269.60000610352</ele>
        <time>2017-05-31T09:17:53.000Z</time>
      </trkpt>
      <trkpt lat="45.71595" lon="4.69104">
        <ele>269.60000610352</ele>
        <time>2017-05-31T09:17:58.000Z</time>
      </trkpt>
      <trkpt lat="45.71603" lon="4.6908">
        <ele>269.60000610352</ele>
        <time>2017-05-31T09:18:04.000Z</time>
      </trkpt>
      <trkpt lat="45.71619" lon="4.69044">
        <ele>269.60000610352</ele>
        <time>2017-05-31T09:18:12.000Z</time>
      </trkpt>
      <trkpt lat="45.71632" lon="4.69016">
        <ele>270</ele>
        <time>2017-05-31T09:18:18.000Z</time>
      </trkpt>
      <trkpt lat="45.71634" lon="4.69012">
        <ele>270.39999389648</ele>
        <time>2017-05-31T09:18:19.000Z</time>
      </trkpt>
      <trkpt lat="45.71636" lon="4.69007">
        <ele>270.79998779297</ele>
        <time>2017-05-31T09:18:20.000Z</time>
      </trkpt>
      <trkpt lat="45.71639" lon="4.69001">
        <ele>271.20001220703</ele>
        <time>2017-05-31T09:18:21.000Z</time>
      </trkpt>
      <trkpt lat="45.71642" lon="4.68996">
        <ele>271.60000610352</ele>
        <time>2017-05-31T09:18:22.000Z</time>
      </trkpt>
      <trkpt lat="45.71669" lon="4.68943">
        <ele>271.60000610352</ele>
        <time>2017-05-31T09:18:33.000Z</time>
      </trkpt>
      <trkpt lat="45.71691" lon="4.68901">
        <ele>271.60000610352</ele>
        <time>2017-05-31T09:18:40.000Z</time>
      </trkpt>
      <trkpt lat="45.71719" lon="4.68851">
        <ele>271.20001220703</ele>
        <time>2017-05-31T09:18:49.000Z</time>
      </trkpt>
      <trkpt lat="45.71722" lon="4.68846">
        <ele>270.79998779297</ele>
        <time>2017-05-31T09:18:50.000Z</time>
      </trkpt>
      <trkpt lat="45.71725" lon="4.68841">
        <ele>270.39999389648</ele>
        <time>2017-05-31T09:18:51.000Z</time>
      </trkpt>
      <trkpt lat="45.71727" lon="4.68836">
        <ele>270</ele>
        <time>2017-05-31T09:18:52.000Z</time>
      </trkpt>
      <trkpt lat="45.7173" lon="4.68832">
        <ele>269.60000610352</ele>
        <time>2017-05-31T09:18:53.000Z</time>
      </trkpt>
      <trkpt lat="45.71743" lon="4.68807">
        <ele>269.60000610352</ele>
        <time>2017-05-31T09:18:58.000Z</time>
      </trkpt>
      <trkpt lat="45.71766" lon="4.68761">
        <ele>269.60000610352</ele>
        <time>2017-05-31T09:19:08.000Z</time>
      </trkpt>
      <trkpt lat="45.71776" lon="4.68743">
        <ele>270</ele>
        <time>2017-05-31T09:19:13.000Z</time>
      </trkpt>
      <trkpt lat="45.71777" lon="4.6874">
        <ele>270.60000610352</ele>
        <time>2017-05-31T09:19:14.000Z</time>
      </trkpt>
      <trkpt lat="45.71779" lon="4.68736">
        <ele>271</ele>
        <time>2017-05-31T09:19:15.000Z</time>
      </trkpt>
      <trkpt lat="45.71782" lon="4.68732">
        <ele>271.39999389648</ele>
        <time>2017-05-31T09:19:16.000Z</time>
      </trkpt>
      <trkpt lat="45.71783" lon="4.68728">
        <ele>271.79998779297</ele>
        <time>2017-05-31T09:19:17.000Z</time>
      </trkpt>
      <trkpt lat="45.71792" lon="4.68715">
        <ele>272.20001220703</ele>
        <time>2017-05-31T09:19:21.000Z</time>
      </trkpt>
      <trkpt lat="45.71794" lon="4.68713">
        <ele>272.79998779297</ele>
        <time>2017-05-31T09:19:22.000Z</time>
      </trkpt>
      <trkpt lat="45.71797" lon="4.68712">
        <ele>273.20001220703</ele>
        <time>2017-05-31T09:19:23.000Z</time>
      </trkpt>
      <trkpt lat="45.71799" lon="4.6871">
        <ele>273.60000610352</ele>
        <time>2017-05-31T09:19:24.000Z</time>
      </trkpt>
      <trkpt lat="45.71802" lon="4.68706">
        <ele>274</ele>
        <time>2017-05-31T09:19:25.000Z</time>
      </trkpt>
      <trkpt lat="45.71805" lon="4.68688">
        <ele>274</ele>
        <time>2017-05-31T09:19:29.000Z</time>
      </trkpt>
      <trkpt lat="45.71814" lon="4.68654">
        <ele>274</ele>
        <time>2017-05-31T09:19:35.000Z</time>
      </trkpt>
      <trkpt lat="45.71835" lon="4.68606">
        <ele>274</ele>
        <time>2017-05-31T09:19:44.000Z</time>
      </trkpt>
      <trkpt lat="45.71867" lon="4.68544">
        <ele>274.39999389648</ele>
        <time>2017-05-31T09:19:57.000Z</time>
      </trkpt>
      <trkpt lat="45.71869" lon="4.68539">
        <ele>274.79998779297</ele>
        <time>2017-05-31T09:19:58.000Z</time>
      </trkpt>
      <trkpt lat="45.71872" lon="4.68534">
        <ele>275.20001220703</ele>
        <time>2017-05-31T09:19:59.000Z</time>
      </trkpt>
      <trkpt lat="45.71874" lon="4.6853">
        <ele>275.60000610352</ele>
        <time>2017-05-31T09:20:00.000Z</time>
      </trkpt>
      <trkpt lat="45.71876" lon="4.68525">
        <ele>276.20001220703</ele>
        <time>2017-05-31T09:20:01.000Z</time>
      </trkpt>
      <trkpt lat="45.71888" lon="4.68503">
        <ele>276.20001220703</ele>
        <time>2017-05-31T09:20:06.000Z</time>
      </trkpt>
      <trkpt lat="45.7189" lon="4.68498">
        <ele>276.20001220703</ele>
        <time>2017-05-31T09:20:07.000Z</time>
      </trkpt>
      <trkpt lat="45.71901" lon="4.68472">
        <ele>276.20001220703</ele>
        <time>2017-05-31T09:20:12.000Z</time>
      </trkpt>
      <trkpt lat="45.71923" lon="4.68415">
        <ele>276.20001220703</ele>
        <time>2017-05-31T09:20:23.000Z</time>
      </trkpt>
      <trkpt lat="45.71946" lon="4.68351">
        <ele>276.20001220703</ele>
        <time>2017-05-31T09:20:36.000Z</time>
      </trkpt>
      <trkpt lat="45.71952" lon="4.68336">
        <ele>276.60000610352</ele>
        <time>2017-05-31T09:20:39.000Z</time>
      </trkpt>
      <trkpt lat="45.71954" lon="4.6833">
        <ele>277</ele>
        <time>2017-05-31T09:20:40.000Z</time>
      </trkpt>
      <trkpt lat="45.71956" lon="4.68326">
        <ele>277.39999389648</ele>
        <time>2017-05-31T09:20:41.000Z</time>
      </trkpt>
      <trkpt lat="45.71957" lon="4.68321">
        <ele>277.79998779297</ele>
        <time>2017-05-31T09:20:42.000Z</time>
      </trkpt>
      <trkpt lat="45.71959" lon="4.68316">
        <ele>278.20001220703</ele>
        <time>2017-05-31T09:20:43.000Z</time>
      </trkpt>
      <trkpt lat="45.71967" lon="4.6829">
        <ele>278.20001220703</ele>
        <time>2017-05-31T09:20:48.000Z</time>
      </trkpt>
      <trkpt lat="45.71984" lon="4.68237">
        <ele>278.20001220703</ele>
        <time>2017-05-31T09:20:59.000Z</time>
      </trkpt>
      <trkpt lat="45.72" lon="4.68182">
        <ele>278.20001220703</ele>
        <time>2017-05-31T09:21:11.000Z</time>
      </trkpt>
      <trkpt lat="45.72003" lon="4.68174">
        <ele>278.60000610352</ele>
        <time>2017-05-31T09:21:13.000Z</time>
      </trkpt>
      <trkpt lat="45.72004" lon="4.6817">
        <ele>279</ele>
        <time>2017-05-31T09:21:14.000Z</time>
      </trkpt>
      <trkpt lat="45.72004" lon="4.68166">
        <ele>279.39999389648</ele>
        <time>2017-05-31T09:21:15.000Z</time>
      </trkpt>
      <trkpt lat="45.72005" lon="4.68162">
        <ele>279.79998779297</ele>
        <time>2017-05-31T09:21:16.000Z</time>
      </trkpt>
      <trkpt lat="45.72006" lon="4.68158">
        <ele>280.20001220703</ele>
        <time>2017-05-31T09:21:17.000Z</time>
      </trkpt>
      <trkpt lat="45.72016" lon="4.68118">
        <ele>280.20001220703</ele>
        <time>2017-05-31T09:21:26.000Z</time>
      </trkpt>
      <trkpt lat="45.72023" lon="4.68089">
        <ele>280.20001220703</ele>
        <time>2017-05-31T09:21:33.000Z</time>
      </trkpt>
      <trkpt lat="45.72032" lon="4.6806">
        <ele>280.20001220703</ele>
        <time>2017-05-31T09:21:39.000Z</time>
      </trkpt>
      <trkpt lat="45.72039" lon="4.6803">
        <ele>280.60000610352</ele>
        <time>2017-05-31T09:21:45.000Z</time>
      </trkpt>
      <trkpt lat="45.7204" lon="4.68026">
        <ele>281.39999389648</ele>
        <time>2017-05-31T09:21:46.000Z</time>
      </trkpt>
      <trkpt lat="45.72042" lon="4.68021">
        <ele>281.79998779297</ele>
        <time>2017-05-31T09:21:47.000Z</time>
      </trkpt>
      <trkpt lat="45.72044" lon="4.68013">
        <ele>282.39999389648</ele>
        <time>2017-05-31T09:21:49.000Z</time>
      </trkpt>
      <trkpt lat="45.7205" lon="4.67989">
        <ele>282.39999389648</ele>
        <time>2017-05-31T09:21:55.000Z</time>
      </trkpt>
      <trkpt lat="45.7206" lon="4.67955">
        <ele>282.39999389648</ele>
        <time>2017-05-31T09:22:05.000Z</time>
      </trkpt>
      <trkpt lat="45.72072" lon="4.67926">
        <ele>282.39999389648</ele>
        <time>2017-05-31T09:22:12.000Z</time>
      </trkpt>
      <trkpt lat="45.7209" lon="4.67883">
        <ele>282.39999389648</ele>
        <time>2017-05-31T09:22:20.000Z</time>
      </trkpt>
      <trkpt lat="45.72109" lon="4.67839">
        <ele>282.39999389648</ele>
        <time>2017-05-31T09:22:27.000Z</time>
      </trkpt>
      <trkpt lat="45.72137" lon="4.67788">
        <ele>281.79998779297</ele>
        <time>2017-05-31T09:22:34.000Z</time>
      </trkpt>
      <trkpt lat="45.72142" lon="4.67781">
        <ele>281.39999389648</ele>
        <time>2017-05-31T09:22:35.000Z</time>
      </trkpt>
      <trkpt lat="45.72146" lon="4.67773">
        <ele>281</ele>
        <time>2017-05-31T09:22:36.000Z</time>
      </trkpt>
      <trkpt lat="45.72151" lon="4.67766">
        <ele>280.60000610352</ele>
        <time>2017-05-31T09:22:37.000Z</time>
      </trkpt>
      <trkpt lat="45.72156" lon="4.67758">
        <ele>280</ele>
        <time>2017-05-31T09:22:38.000Z</time>
      </trkpt>
      <trkpt lat="45.72165" lon="4.67742">
        <ele>279.60000610352</ele>
        <time>2017-05-31T09:22:40.000Z</time>
      </trkpt>
      <trkpt lat="45.7217" lon="4.67734">
        <ele>279.20001220703</ele>
        <time>2017-05-31T09:22:41.000Z</time>
      </trkpt>
      <trkpt lat="45.72174" lon="4.67725">
        <ele>278.79998779297</ele>
        <time>2017-05-31T09:22:42.000Z</time>
      </trkpt>
      <trkpt lat="45.72179" lon="4.67717">
        <ele>278.20001220703</ele>
        <time>2017-05-31T09:22:43.000Z</time>
      </trkpt>
      <trkpt lat="45.72182" lon="4.67709">
        <ele>277.79998779297</ele>
        <time>2017-05-31T09:22:44.000Z</time>
      </trkpt>
      <trkpt lat="45.72192" lon="4.67687">
        <ele>277.39999389648</ele>
        <time>2017-05-31T09:22:47.000Z</time>
      </trkpt>
      <trkpt lat="45.72194" lon="4.67681">
        <ele>277</ele>
        <time>2017-05-31T09:22:48.000Z</time>
      </trkpt>
      <trkpt lat="45.72196" lon="4.67675">
        <ele>276.60000610352</ele>
        <time>2017-05-31T09:22:49.000Z</time>
      </trkpt>
      <trkpt lat="45.72198" lon="4.6767">
        <ele>276</ele>
        <time>2017-05-31T09:22:50.000Z</time>
      </trkpt>
      <trkpt lat="45.722" lon="4.67665">
        <ele>275.60000610352</ele>
        <time>2017-05-31T09:22:51.000Z</time>
      </trkpt>
      <trkpt lat="45.72203" lon="4.67654">
        <ele>275.60000610352</ele>
        <time>2017-05-31T09:22:53.000Z</time>
      </trkpt>
      <trkpt lat="45.72223" lon="4.67602">
        <ele>275.60000610352</ele>
        <time>2017-05-31T09:23:03.000Z</time>
      </trkpt>
      <trkpt lat="45.72245" lon="4.67546">
        <ele>275.60000610352</ele>
        <time>2017-05-31T09:23:12.000Z</time>
      </trkpt>
      <trkpt lat="45.72252" lon="4.67534">
        <ele>275.20001220703</ele>
        <time>2017-05-31T09:23:14.000Z</time>
      </trkpt>
      <trkpt lat="45.72256" lon="4.67527">
        <ele>274.79998779297</ele>
        <time>2017-05-31T09:23:15.000Z</time>
      </trkpt>
      <trkpt lat="45.7226" lon="4.6752">
        <ele>274.20001220703</ele>
        <time>2017-05-31T09:23:16.000Z</time>
      </trkpt>
      <trkpt lat="45.72264" lon="4.67512">
        <ele>273.79998779297</ele>
        <time>2017-05-31T09:23:17.000Z</time>
      </trkpt>
      <trkpt lat="45.72268" lon="4.67504">
        <ele>273.39999389648</ele>
        <time>2017-05-31T09:23:18.000Z</time>
      </trkpt>
      <trkpt lat="45.72279" lon="4.67479">
        <ele>273</ele>
        <time>2017-05-31T09:23:21.000Z</time>
      </trkpt>
      <trkpt lat="45.72283" lon="4.6747">
        <ele>272.60000610352</ele>
        <time>2017-05-31T09:23:22.000Z</time>
      </trkpt>
      <trkpt lat="45.72287" lon="4.67462">
        <ele>272</ele>
        <time>2017-05-31T09:23:23.000Z</time>
      </trkpt>
      <trkpt lat="45.72291" lon="4.67453">
        <ele>271.60000610352</ele>
        <time>2017-05-31T09:23:24.000Z</time>
      </trkpt>
      <trkpt lat="45.72295" lon="4.67445">
        <ele>271.20001220703</ele>
        <time>2017-05-31T09:23:25.000Z</time>
      </trkpt>
      <trkpt lat="45.72312" lon="4.6741">
        <ele>270.60000610352</ele>
        <time>2017-05-31T09:23:30.000Z</time>
      </trkpt>
      <trkpt lat="45.72315" lon="4.67404">
        <ele>270.20001220703</ele>
        <time>2017-05-31T09:23:31.000Z</time>
      </trkpt>
      <trkpt lat="45.72318" lon="4.67394">
        <ele>269.60000610352</ele>
        <time>2017-05-31T09:23:32.000Z</time>
      </trkpt>
      <trkpt lat="45.72322" lon="4.67386">
        <ele>269.20001220703</ele>
        <time>2017-05-31T09:23:33.000Z</time>
      </trkpt>
      <trkpt lat="45.72325" lon="4.67379">
        <ele>268.60000610352</ele>
        <time>2017-05-31T09:23:34.000Z</time>
      </trkpt>
      <trkpt lat="45.72338" lon="4.67348">
        <ele>268.60000610352</ele>
        <time>2017-05-31T09:23:39.000Z</time>
      </trkpt>
      <trkpt lat="45.72353" lon="4.67315">
        <ele>268.20001220703</ele>
        <time>2017-05-31T09:23:45.000Z</time>
      </trkpt>
      <trkpt lat="45.72355" lon="4.67309">
        <ele>267.79998779297</ele>
        <time>2017-05-31T09:23:46.000Z</time>
      </trkpt>
      <trkpt lat="45.72357" lon="4.67304">
        <ele>267.39999389648</ele>
        <time>2017-05-31T09:23:47.000Z</time>
      </trkpt>
      <trkpt lat="45.72359" lon="4.67298">
        <ele>267</ele>
        <time>2017-05-31T09:23:48.000Z</time>
      </trkpt>
      <trkpt lat="45.72362" lon="4.67294">
        <ele>266.60000610352</ele>
        <time>2017-05-31T09:23:49.000Z</time>
      </trkpt>
      <trkpt lat="45.72377" lon="4.67262">
        <ele>266.60000610352</ele>
        <time>2017-05-31T09:23:56.000Z</time>
      </trkpt>
      <trkpt lat="45.72385" lon="4.67249">
        <ele>266</ele>
        <time>2017-05-31T09:24:01.000Z</time>
      </trkpt>
      <trkpt lat="45.72385" lon="4.67246">
        <ele>265.60000610352</ele>
        <time>2017-05-31T09:24:02.000Z</time>
      </trkpt>
      <trkpt lat="45.72385" lon="4.67243">
        <ele>265.20001220703</ele>
        <time>2017-05-31T09:24:03.000Z</time>
      </trkpt>
      <trkpt lat="45.72385" lon="4.67241">
        <ele>264.79998779297</ele>
        <time>2017-05-31T09:24:04.000Z</time>
      </trkpt>
      <trkpt lat="45.72385" lon="4.6724">
        <ele>264.20001220703</ele>
        <time>2017-05-31T09:24:05.000Z</time>
      </trkpt>
      <trkpt lat="45.72384" lon="4.67239">
        <ele>264.20001220703</ele>
        <time>2017-05-31T09:24:06.000Z</time>
      </trkpt>
      <trkpt lat="45.72384" lon="4.67239">
        <ele>264.20001220703</ele>
        <time>2017-05-31T09:24:07.000Z</time>
      </trkpt>
      <trkpt lat="45.72381" lon="4.67242">
        <ele>264.20001220703</ele>
        <time>2017-05-31T09:25:36.000Z</time>
      </trkpt>
      <trkpt lat="45.72378" lon="4.6725">
        <ele>264.20001220703</ele>
        <time>2017-05-31T09:25:39.000Z</time>
      </trkpt>
      <trkpt lat="45.72369" lon="4.6727">
        <ele>264.20001220703</ele>
        <time>2017-05-31T09:25:48.000Z</time>
      </trkpt>
      <trkpt lat="45.72358" lon="4.67292">
        <ele>264.20001220703</ele>
        <time>2017-05-31T09:25:55.000Z</time>
      </trkpt>
      <trkpt lat="45.72357" lon="4.67295">
        <ele>264.60000610352</ele>
        <time>2017-05-31T09:25:56.000Z</time>
      </trkpt>
      <trkpt lat="45.72355" lon="4.67299">
        <ele>265</ele>
        <time>2017-05-31T09:25:57.000Z</time>
      </trkpt>
      <trkpt lat="45.72353" lon="4.67303">
        <ele>265.60000610352</ele>
        <time>2017-05-31T09:25:58.000Z</time>
      </trkpt>
      <trkpt lat="45.72351" lon="4.67306">
        <ele>266</ele>
        <time>2017-05-31T09:25:59.000Z</time>
      </trkpt>
      <trkpt lat="45.72349" lon="4.6731">
        <ele>266.39999389648</ele>
        <time>2017-05-31T09:26:00.000Z</time>
      </trkpt>
      <trkpt lat="45.7234" lon="4.67327">
        <ele>266.39999389648</ele>
        <time>2017-05-31T09:26:04.000Z</time>
      </trkpt>
      <trkpt lat="45.72317" lon="4.67376">
        <ele>266.39999389648</ele>
        <time>2017-05-31T09:26:15.000Z</time>
      </trkpt>
      <trkpt lat="45.723" lon="4.67412">
        <ele>266.79998779297</ele>
        <time>2017-05-31T09:26:23.000Z</time>
      </trkpt>
      <trkpt lat="45.72298" lon="4.67416">
        <ele>267.20001220703</ele>
        <time>2017-05-31T09:26:24.000Z</time>
      </trkpt>
      <trkpt lat="45.72296" lon="4.6742">
        <ele>267.60000610352</ele>
        <time>2017-05-31T09:26:25.000Z</time>
      </trkpt>
      <trkpt lat="45.72294" lon="4.67425">
        <ele>268</ele>
        <time>2017-05-31T09:26:26.000Z</time>
      </trkpt>
      <trkpt lat="45.72292" lon="4.67428">
        <ele>268.39999389648</ele>
        <time>2017-05-31T09:26:27.000Z</time>
      </trkpt>
      <trkpt lat="45.7228" lon="4.67456">
        <ele>268.39999389648</ele>
        <time>2017-05-31T09:26:34.000Z</time>
      </trkpt>
      <trkpt lat="45.72277" lon="4.67464">
        <ele>268.79998779297</ele>
        <time>2017-05-31T09:26:36.000Z</time>
      </trkpt>
      <trkpt lat="45.72274" lon="4.67468">
        <ele>269.20001220703</ele>
        <time>2017-05-31T09:26:37.000Z</time>
      </trkpt>
      <trkpt lat="45.72272" lon="4.67471">
        <ele>269.60000610352</ele>
        <time>2017-05-31T09:26:38.000Z</time>
      </trkpt>
      <trkpt lat="45.7227" lon="4.67475">
        <ele>270</ele>
        <time>2017-05-31T09:26:39.000Z</time>
      </trkpt>
      <trkpt lat="45.72266" lon="4.67483">
        <ele>270.39999389648</ele>
        <time>2017-05-31T09:26:41.000Z</time>
      </trkpt>
      <trkpt lat="45.72255" lon="4.67509">
        <ele>270.39999389648</ele>
        <time>2017-05-31T09:26:48.000Z</time>
      </trkpt>
      <trkpt lat="45.72248" lon="4.67526">
        <ele>271</ele>
        <time>2017-05-31T09:26:54.000Z</time>
      </trkpt>
      <trkpt lat="45.72247" lon="4.67529">
        <ele>271.39999389648</ele>
        <time>2017-05-31T09:26:55.000Z</time>
      </trkpt>
      <trkpt lat="45.72245" lon="4.67531">
        <ele>271.79998779297</ele>
        <time>2017-05-31T09:26:56.000Z</time>
      </trkpt>
      <trkpt lat="45.72244" lon="4.67534">
        <ele>272.20001220703</ele>
        <time>2017-05-31T09:26:57.000Z</time>
      </trkpt>
      <trkpt lat="45.72242" lon="4.67537">
        <ele>272.60000610352</ele>
        <time>2017-05-31T09:26:58.000Z</time>
      </trkpt>
      <trkpt lat="45.72239" lon="4.67548">
        <ele>272.60000610352</ele>
        <time>2017-05-31T09:27:02.000Z</time>
      </trkpt>
      <trkpt lat="45.72229" lon="4.67574">
        <ele>273</ele>
        <time>2017-05-31T09:27:08.000Z</time>
      </trkpt>
      <trkpt lat="45.72227" lon="4.67578">
        <ele>273.60000610352</ele>
        <time>2017-05-31T09:27:09.000Z</time>
      </trkpt>
      <trkpt lat="45.72225" lon="4.67584">
        <ele>274</ele>
        <time>2017-05-31T09:27:10.000Z</time>
      </trkpt>
      <trkpt lat="45.72224" lon="4.67589">
        <ele>274.39999389648</ele>
        <time>2017-05-31T09:27:11.000Z</time>
      </trkpt>
      <trkpt lat="45.72223" lon="4.67594">
        <ele>274.79998779297</ele>
        <time>2017-05-31T09:27:12.000Z</time>
      </trkpt>
      <trkpt lat="45.72214" lon="4.6762">
        <ele>274.79998779297</ele>
        <time>2017-05-31T09:27:17.000Z</time>
      </trkpt>
      <trkpt lat="45.72195" lon="4.67671">
        <ele>274.79998779297</ele>
        <time>2017-05-31T09:27:27.000Z</time>
      </trkpt>
      <trkpt lat="45.72179" lon="4.67709">
        <ele>274.79998779297</ele>
        <time>2017-05-31T09:27:34.000Z</time>
      </trkpt>
      <trkpt lat="45.72165" lon="4.67737">
        <ele>275.20001220703</ele>
        <time>2017-05-31T09:27:40.000Z</time>
      </trkpt>
      <trkpt lat="45.72164" lon="4.6774">
        <ele>275.60000610352</ele>
        <time>2017-05-31T09:27:41.000Z</time>
      </trkpt>
      <trkpt lat="45.72161" lon="4.67745">
        <ele>276</ele>
        <time>2017-05-31T09:27:42.000Z</time>
      </trkpt>
      <trkpt lat="45.72158" lon="4.67749">
        <ele>276.39999389648</ele>
        <time>2017-05-31T09:27:43.000Z</time>
      </trkpt>
      <trkpt lat="45.72156" lon="4.67752">
        <ele>276.79998779297</ele>
        <time>2017-05-31T09:27:44.000Z</time>
      </trkpt>
      <trkpt lat="45.72138" lon="4.6778">
        <ele>276.79998779297</ele>
        <time>2017-05-31T09:27:52.000Z</time>
      </trkpt>
      <trkpt lat="45.72129" lon="4.67795">
        <ele>277.20001220703</ele>
        <time>2017-05-31T09:27:56.000Z</time>
      </trkpt>
      <trkpt lat="45.72127" lon="4.67798">
        <ele>277.60000610352</ele>
        <time>2017-05-31T09:27:57.000Z</time>
      </trkpt>
      <trkpt lat="45.72125" lon="4.67802">
        <ele>278</ele>
        <time>2017-05-31T09:27:58.000Z</time>
      </trkpt>
      <trkpt lat="45.72123" lon="4.67806">
        <ele>278.39999389648</ele>
        <time>2017-05-31T09:27:59.000Z</time>
      </trkpt>
      <trkpt lat="45.72121" lon="4.67809">
        <ele>278.79998779297</ele>
        <time>2017-05-31T09:28:00.000Z</time>
      </trkpt>
      <trkpt lat="45.72105" lon="4.6784">
        <ele>279.39999389648</ele>
        <time>2017-05-31T09:28:08.000Z</time>
      </trkpt>
      <trkpt lat="45.72103" lon="4.67844">
        <ele>279.79998779297</ele>
        <time>2017-05-31T09:28:09.000Z</time>
      </trkpt>
      <trkpt lat="45.72101" lon="4.67848">
        <ele>280.20001220703</ele>
        <time>2017-05-31T09:28:10.000Z</time>
      </trkpt>
      <trkpt lat="45.72099" lon="4.67853">
        <ele>280.60000610352</ele>
        <time>2017-05-31T09:28:11.000Z</time>
      </trkpt>
      <trkpt lat="45.72097" lon="4.67857">
        <ele>281</ele>
        <time>2017-05-31T09:28:12.000Z</time>
      </trkpt>
      <trkpt lat="45.72085" lon="4.67888">
        <ele>281</ele>
        <time>2017-05-31T09:28:19.000Z</time>
      </trkpt>
      <trkpt lat="45.72081" lon="4.67896">
        <ele>281.39999389648</ele>
        <time>2017-05-31T09:28:21.000Z</time>
      </trkpt>
      <trkpt lat="45.72079" lon="4.67901">
        <ele>281.79998779297</ele>
        <time>2017-05-31T09:28:22.000Z</time>
      </trkpt>
      <trkpt lat="45.72078" lon="4.67905">
        <ele>282.20001220703</ele>
        <time>2017-05-31T09:28:23.000Z</time>
      </trkpt>
      <trkpt lat="45.72076" lon="4.67909">
        <ele>282.60000610352</ele>
        <time>2017-05-31T09:28:24.000Z</time>
      </trkpt>
      <trkpt lat="45.72074" lon="4.67913">
        <ele>283</ele>
        <time>2017-05-31T09:28:25.000Z</time>
      </trkpt>
      <trkpt lat="45.72058" lon="4.67952">
        <ele>283</ele>
        <time>2017-05-31T09:28:34.000Z</time>
      </trkpt>
      <trkpt lat="45.72047" lon="4.67985">
        <ele>283</ele>
        <time>2017-05-31T09:28:41.000Z</time>
      </trkpt>
      <trkpt lat="45.72036" lon="4.68029">
        <ele>283</ele>
        <time>2017-05-31T09:28:48.000Z</time>
      </trkpt>
      <trkpt lat="45.72018" lon="4.68102">
        <ele>283</ele>
        <time>2017-05-31T09:28:58.000Z</time>
      </trkpt>
      <trkpt lat="45.72009" lon="4.6814">
        <ele>283</ele>
        <time>2017-05-31T09:29:04.000Z</time>
      </trkpt>
      <trkpt lat="45.72001" lon="4.68166">
        <ele>283</ele>
        <time>2017-05-31T09:29:10.000Z</time>
      </trkpt>
      <trkpt lat="45.71999" lon="4.68167">
        <ele>283</ele>
        <time>2017-05-31T09:29:11.000Z</time>
      </trkpt>
      <trkpt lat="45.71996" lon="4.68164">
        <ele>283</ele>
        <time>2017-05-31T09:29:13.000Z</time>
      </trkpt>
      <trkpt lat="45.71994" lon="4.68163">
        <ele>282.60000610352</ele>
        <time>2017-05-31T09:29:14.000Z</time>
      </trkpt>
      <trkpt lat="45.71994" lon="4.68159">
        <ele>282.20001220703</ele>
        <time>2017-05-31T09:29:15.000Z</time>
      </trkpt>
      <trkpt lat="45.71993" lon="4.68154">
        <ele>281.79998779297</ele>
        <time>2017-05-31T09:29:16.000Z</time>
      </trkpt>
      <trkpt lat="45.71992" lon="4.68151">
        <ele>281.39999389648</ele>
        <time>2017-05-31T09:29:17.000Z</time>
      </trkpt>
      <trkpt lat="45.71991" lon="4.68147">
        <ele>281</ele>
        <time>2017-05-31T09:29:18.000Z</time>
      </trkpt>
      <trkpt lat="45.71985" lon="4.68128">
        <ele>281</ele>
        <time>2017-05-31T09:29:24.000Z</time>
      </trkpt>
      <trkpt lat="45.71979" lon="4.68103">
        <ele>281</ele>
        <time>2017-05-31T09:29:31.000Z</time>
      </trkpt>
      <trkpt lat="45.71972" lon="4.68069">
        <ele>281</ele>
        <time>2017-05-31T09:29:40.000Z</time>
      </trkpt>
      <trkpt lat="45.71965" lon="4.68046">
        <ele>281.60000610352</ele>
        <time>2017-05-31T09:29:45.000Z</time>
      </trkpt>
      <trkpt lat="45.71964" lon="4.68042">
        <ele>282</ele>
        <time>2017-05-31T09:29:46.000Z</time>
      </trkpt>
      <trkpt lat="45.71962" lon="4.68036">
        <ele>282.39999389648</ele>
        <time>2017-05-31T09:29:47.000Z</time>
      </trkpt>
      <trkpt lat="45.71961" lon="4.68033">
        <ele>282.79998779297</ele>
        <time>2017-05-31T09:29:48.000Z</time>
      </trkpt>
      <trkpt lat="45.71961" lon="4.68029">
        <ele>283.20001220703</ele>
        <time>2017-05-31T09:29:49.000Z</time>
      </trkpt>
      <trkpt lat="45.71957" lon="4.68005">
        <ele>283.20001220703</ele>
        <time>2017-05-31T09:29:55.000Z</time>
      </trkpt>
      <trkpt lat="45.71949" lon="4.67972">
        <ele>283.60000610352</ele>
        <time>2017-05-31T09:30:03.000Z</time>
      </trkpt>
      <trkpt lat="45.71949" lon="4.67968">
        <ele>284.20001220703</ele>
        <time>2017-05-31T09:30:04.000Z</time>
      </trkpt>
      <trkpt lat="45.71948" lon="4.67964">
        <ele>284.60000610352</ele>
        <time>2017-05-31T09:30:05.000Z</time>
      </trkpt>
      <trkpt lat="45.71946" lon="4.6796">
        <ele>285</ele>
        <time>2017-05-31T09:30:06.000Z</time>
      </trkpt>
      <trkpt lat="45.71945" lon="4.67956">
        <ele>285.39999389648</ele>
        <time>2017-05-31T09:30:07.000Z</time>
      </trkpt>
      <trkpt lat="45.71942" lon="4.67939">
        <ele>285.39999389648</ele>
        <time>2017-05-31T09:30:12.000Z</time>
      </trkpt>
      <trkpt lat="45.71936" lon="4.67915">
        <ele>285.39999389648</ele>
        <time>2017-05-31T09:30:20.000Z</time>
      </trkpt>
      <trkpt lat="45.71933" lon="4.679">
        <ele>285.79998779297</ele>
        <time>2017-05-31T09:30:24.000Z</time>
      </trkpt>
      <trkpt lat="45.71932" lon="4.67896">
        <ele>286.39999389648</ele>
        <time>2017-05-31T09:30:25.000Z</time>
      </trkpt>
      <trkpt lat="45.71932" lon="4.67893">
        <ele>286.79998779297</ele>
        <time>2017-05-31T09:30:26.000Z</time>
      </trkpt>
      <trkpt lat="45.71931" lon="4.67889">
        <ele>287.20001220703</ele>
        <time>2017-05-31T09:30:27.000Z</time>
      </trkpt>
      <trkpt lat="45.71931" lon="4.67886">
        <ele>287.79998779297</ele>
        <time>2017-05-31T09:30:28.000Z</time>
      </trkpt>
      <trkpt lat="45.71927" lon="4.67862">
        <ele>287.79998779297</ele>
        <time>2017-05-31T09:30:34.000Z</time>
      </trkpt>
      <trkpt lat="45.71925" lon="4.67854">
        <ele>288.20001220703</ele>
        <time>2017-05-31T09:30:36.000Z</time>
      </trkpt>
      <trkpt lat="45.71925" lon="4.67851">
        <ele>288.60000610352</ele>
        <time>2017-05-31T09:30:37.000Z</time>
      </trkpt>
      <trkpt lat="45.71923" lon="4.67848">
        <ele>289.20001220703</ele>
        <time>2017-05-31T09:30:38.000Z</time>
      </trkpt>
      <trkpt lat="45.71923" lon="4.67844">
        <ele>289.60000610352</ele>
        <time>2017-05-31T09:30:39.000Z</time>
      </trkpt>
      <trkpt lat="45.71922" lon="4.67842">
        <ele>290</ele>
        <time>2017-05-31T09:30:40.000Z</time>
      </trkpt>
      <trkpt lat="45.71921" lon="4.67838">
        <ele>290</ele>
        <time>2017-05-31T09:30:41.000Z</time>
      </trkpt>
      <trkpt lat="45.7192" lon="4.67819">
        <ele>290.60000610352</ele>
        <time>2017-05-31T09:30:46.000Z</time>
      </trkpt>
      <trkpt lat="45.71919" lon="4.67815">
        <ele>291</ele>
        <time>2017-05-31T09:30:47.000Z</time>
      </trkpt>
      <trkpt lat="45.71919" lon="4.6781">
        <ele>291.39999389648</ele>
        <time>2017-05-31T09:30:48.000Z</time>
      </trkpt>
      <trkpt lat="45.71918" lon="4.67807">
        <ele>291.79998779297</ele>
        <time>2017-05-31T09:30:49.000Z</time>
      </trkpt>
      <trkpt lat="45.71917" lon="4.67804">
        <ele>292.39999389648</ele>
        <time>2017-05-31T09:30:50.000Z</time>
      </trkpt>
      <trkpt lat="45.71917" lon="4.67802">
        <ele>292.39999389648</ele>
        <time>2017-05-31T09:30:51.000Z</time>
      </trkpt>
      <trkpt lat="45.71916" lon="4.6778">
        <ele>292.39999389648</ele>
        <time>2017-05-31T09:30:58.000Z</time>
      </trkpt>
      <trkpt lat="45.71915" lon="4.67777">
        <ele>292.79998779297</ele>
        <time>2017-05-31T09:30:59.000Z</time>
      </trkpt>
      <trkpt lat="45.71915" lon="4.67774">
        <ele>293.20001220703</ele>
        <time>2017-05-31T09:31:00.000Z</time>
      </trkpt>
      <trkpt lat="45.71915" lon="4.67771">
        <ele>293.60000610352</ele>
        <time>2017-05-31T09:31:01.000Z</time>
      </trkpt>
      <trkpt lat="45.71914" lon="4.67764">
        <ele>294.20001220703</ele>
        <time>2017-05-31T09:31:03.000Z</time>
      </trkpt>
      <trkpt lat="45.71914" lon="4.6776">
        <ele>294.60000610352</ele>
        <time>2017-05-31T09:31:04.000Z</time>
      </trkpt>
      <trkpt lat="45.71911" lon="4.67747">
        <ele>295</ele>
        <time>2017-05-31T09:31:07.000Z</time>
      </trkpt>
      <trkpt lat="45.71911" lon="4.67743">
        <ele>295.39999389648</ele>
        <time>2017-05-31T09:31:08.000Z</time>
      </trkpt>
      <trkpt lat="45.7191" lon="4.67739">
        <ele>295.79998779297</ele>
        <time>2017-05-31T09:31:09.000Z</time>
      </trkpt>
      <trkpt lat="45.71909" lon="4.67736">
        <ele>296.20001220703</ele>
        <time>2017-05-31T09:31:10.000Z</time>
      </trkpt>
      <trkpt lat="45.71908" lon="4.67727">
        <ele>296.60000610352</ele>
        <time>2017-05-31T09:31:12.000Z</time>
      </trkpt>
      <trkpt lat="45.71907" lon="4.67711">
        <ele>296.60000610352</ele>
        <time>2017-05-31T09:31:17.000Z</time>
      </trkpt>
      <trkpt lat="45.71904" lon="4.677">
        <ele>297</ele>
        <time>2017-05-31T09:31:20.000Z</time>
      </trkpt>
      <trkpt lat="45.71903" lon="4.67697">
        <ele>297.60000610352</ele>
        <time>2017-05-31T09:31:21.000Z</time>
      </trkpt>
      <trkpt lat="45.71903" lon="4.67694">
        <ele>298</ele>
        <time>2017-05-31T09:31:22.000Z</time>
      </trkpt>
      <trkpt lat="45.71902" lon="4.67691">
        <ele>298.39999389648</ele>
        <time>2017-05-31T09:31:23.000Z</time>
      </trkpt>
      <trkpt lat="45.71902" lon="4.67688">
        <ele>298.79998779297</ele>
        <time>2017-05-31T09:31:24.000Z</time>
      </trkpt>
      <trkpt lat="45.71899" lon="4.67666">
        <ele>298.79998779297</ele>
        <time>2017-05-31T09:31:33.000Z</time>
      </trkpt>
      <trkpt lat="45.71895" lon="4.67649">
        <ele>299.20001220703</ele>
        <time>2017-05-31T09:31:39.000Z</time>
      </trkpt>
      <trkpt lat="45.71894" lon="4.67645">
        <ele>299.60000610352</ele>
        <time>2017-05-31T09:31:40.000Z</time>
      </trkpt>
      <trkpt lat="45.71894" lon="4.67642">
        <ele>300</ele>
        <time>2017-05-31T09:31:41.000Z</time>
      </trkpt>
      <trkpt lat="45.71893" lon="4.67639">
        <ele>300.39999389648</ele>
        <time>2017-05-31T09:31:42.000Z</time>
      </trkpt>
      <trkpt lat="45.71893" lon="4.67636">
        <ele>300.79998779297</ele>
        <time>2017-05-31T09:31:43.000Z</time>
      </trkpt>
      <trkpt lat="45.7189" lon="4.67621">
        <ele>300.79998779297</ele>
        <time>2017-05-31T09:31:49.000Z</time>
      </trkpt>
      <trkpt lat="45.71884" lon="4.676">
        <ele>300.79998779297</ele>
        <time>2017-05-31T09:31:59.000Z</time>
      </trkpt>
      <trkpt lat="45.71879" lon="4.67583">
        <ele>300.79998779297</ele>
        <time>2017-05-31T09:32:05.000Z</time>
      </trkpt>
      <trkpt lat="45.7187" lon="4.67557">
        <ele>300.79998779297</ele>
        <time>2017-05-31T09:32:14.000Z</time>
      </trkpt>
      <trkpt lat="45.71864" lon="4.67547">
        <ele>300.79998779297</ele>
        <time>2017-05-31T09:32:17.000Z</time>
      </trkpt>
      <trkpt lat="45.71854" lon="4.67531">
        <ele>300.79998779297</ele>
        <time>2017-05-31T09:32:21.000Z</time>
      </trkpt>
      <trkpt lat="45.71827" lon="4.67492">
        <ele>300.79998779297</ele>
        <time>2017-05-31T09:32:30.000Z</time>
      </trkpt>
      <trkpt lat="45.71804" lon="4.67457">
        <ele>300.79998779297</ele>
        <time>2017-05-31T09:32:38.000Z</time>
      </trkpt>
      <trkpt lat="45.71781" lon="4.67422">
        <ele>300.79998779297</ele>
        <time>2017-05-31T09:32:47.000Z</time>
      </trkpt>
      <trkpt lat="45.71766" lon="4.67392">
        <ele>300.79998779297</ele>
        <time>2017-05-31T09:32:55.000Z</time>
      </trkpt>
      <trkpt lat="45.71754" lon="4.67349">
        <ele>300.79998779297</ele>
        <time>2017-05-31T09:33:04.000Z</time>
      </trkpt>
      <trkpt lat="45.71752" lon="4.67315">
        <ele>300.79998779297</ele>
        <time>2017-05-31T09:33:12.000Z</time>
      </trkpt>
      <trkpt lat="45.71751" lon="4.67304">
        <ele>301.20001220703</ele>
        <time>2017-05-31T09:33:15.000Z</time>
      </trkpt>
      <trkpt lat="45.71751" lon="4.673">
        <ele>301.60000610352</ele>
        <time>2017-05-31T09:33:16.000Z</time>
      </trkpt>
      <trkpt lat="45.71751" lon="4.67296">
        <ele>302</ele>
        <time>2017-05-31T09:33:17.000Z</time>
      </trkpt>
      <trkpt lat="45.71751" lon="4.67292">
        <ele>302.39999389648</ele>
        <time>2017-05-31T09:33:18.000Z</time>
      </trkpt>
      <trkpt lat="45.71751" lon="4.67288">
        <ele>302.79998779297</ele>
        <time>2017-05-31T09:33:19.000Z</time>
      </trkpt>
      <trkpt lat="45.7175" lon="4.67279">
        <ele>302.79998779297</ele>
        <time>2017-05-31T09:33:22.000Z</time>
      </trkpt>
      <trkpt lat="45.71751" lon="4.67259">
        <ele>303.39999389648</ele>
        <time>2017-05-31T09:33:27.000Z</time>
      </trkpt>
      <trkpt lat="45.71751" lon="4.67255">
        <ele>303.79998779297</ele>
        <time>2017-05-31T09:33:28.000Z</time>
      </trkpt>
      <trkpt lat="45.7175" lon="4.67251">
        <ele>304.20001220703</ele>
        <time>2017-05-31T09:33:29.000Z</time>
      </trkpt>
      <trkpt lat="45.7175" lon="4.67247">
        <ele>304.60000610352</ele>
        <time>2017-05-31T09:33:30.000Z</time>
      </trkpt>
      <trkpt lat="45.7175" lon="4.67243">
        <ele>305.20001220703</ele>
        <time>2017-05-31T09:33:31.000Z</time>
      </trkpt>
      <trkpt lat="45.71751" lon="4.67232">
        <ele>305.60000610352</ele>
        <time>2017-05-31T09:33:34.000Z</time>
      </trkpt>
      <trkpt lat="45.71751" lon="4.67229">
        <ele>306</ele>
        <time>2017-05-31T09:33:35.000Z</time>
      </trkpt>
      <trkpt lat="45.71751" lon="4.67225">
        <ele>306.39999389648</ele>
        <time>2017-05-31T09:33:36.000Z</time>
      </trkpt>
      <trkpt lat="45.71751" lon="4.67222">
        <ele>306.79998779297</ele>
        <time>2017-05-31T09:33:37.000Z</time>
      </trkpt>
      <trkpt lat="45.71751" lon="4.67219">
        <ele>307.20001220703</ele>
        <time>2017-05-31T09:33:38.000Z</time>
      </trkpt>
      <trkpt lat="45.71751" lon="4.67199">
        <ele>307.60000610352</ele>
        <time>2017-05-31T09:33:44.000Z</time>
      </trkpt>
      <trkpt lat="45.71751" lon="4.67196">
        <ele>308</ele>
        <time>2017-05-31T09:33:45.000Z</time>
      </trkpt>
      <trkpt lat="45.71751" lon="4.67192">
        <ele>308.39999389648</ele>
        <time>2017-05-31T09:33:46.000Z</time>
      </trkpt>
      <trkpt lat="45.71751" lon="4.67189">
        <ele>309</ele>
        <time>2017-05-31T09:33:47.000Z</time>
      </trkpt>
      <trkpt lat="45.71751" lon="4.67185">
        <ele>309.39999389648</ele>
        <time>2017-05-31T09:33:48.000Z</time>
      </trkpt>
      <trkpt lat="45.7175" lon="4.67173">
        <ele>309.79998779297</ele>
        <time>2017-05-31T09:33:51.000Z</time>
      </trkpt>
      <trkpt lat="45.71749" lon="4.67168">
        <ele>310.20001220703</ele>
        <time>2017-05-31T09:33:52.000Z</time>
      </trkpt>
      <trkpt lat="45.71748" lon="4.67163">
        <ele>310.60000610352</ele>
        <time>2017-05-31T09:33:53.000Z</time>
      </trkpt>
      <trkpt lat="45.71746" lon="4.6716">
        <ele>311</ele>
        <time>2017-05-31T09:33:54.000Z</time>
      </trkpt>
      <trkpt lat="45.71746" lon="4.67156">
        <ele>311.39999389648</ele>
        <time>2017-05-31T09:33:55.000Z</time>
      </trkpt>
      <trkpt lat="45.7174" lon="4.67132">
        <ele>311.79998779297</ele>
        <time>2017-05-31T09:34:02.000Z</time>
      </trkpt>
      <trkpt lat="45.71739" lon="4.67129">
        <ele>312.20001220703</ele>
        <time>2017-05-31T09:34:03.000Z</time>
      </trkpt>
      <trkpt lat="45.71737" lon="4.67127">
        <ele>312.60000610352</ele>
        <time>2017-05-31T09:34:04.000Z</time>
      </trkpt>
      <trkpt lat="45.71735" lon="4.67125">
        <ele>313</ele>
        <time>2017-05-31T09:34:05.000Z</time>
      </trkpt>
      <trkpt lat="45.71734" lon="4.67122">
        <ele>313.39999389648</ele>
        <time>2017-05-31T09:34:06.000Z</time>
      </trkpt>
      <trkpt lat="45.71729" lon="4.67117">
        <ele>313.79998779297</ele>
        <time>2017-05-31T09:34:09.000Z</time>
      </trkpt>
      <trkpt lat="45.71727" lon="4.67116">
        <ele>314.20001220703</ele>
        <time>2017-05-31T09:34:10.000Z</time>
      </trkpt>
      <trkpt lat="45.71725" lon="4.67115">
        <ele>314.60000610352</ele>
        <time>2017-05-31T09:34:11.000Z</time>
      </trkpt>
      <trkpt lat="45.71723" lon="4.67114">
        <ele>315</ele>
        <time>2017-05-31T09:34:12.000Z</time>
      </trkpt>
      <trkpt lat="45.71721" lon="4.67113">
        <ele>315.39999389648</ele>
        <time>2017-05-31T09:34:13.000Z</time>
      </trkpt>
      <trkpt lat="45.71706" lon="4.67105">
        <ele>315.79998779297</ele>
        <time>2017-05-31T09:34:20.000Z</time>
      </trkpt>
      <trkpt lat="45.71705" lon="4.67104">
        <ele>316.20001220703</ele>
        <time>2017-05-31T09:34:21.000Z</time>
      </trkpt>
      <trkpt lat="45.71703" lon="4.67103">
        <ele>316.79998779297</ele>
        <time>2017-05-31T09:34:22.000Z</time>
      </trkpt>
      <trkpt lat="45.717" lon="4.67103">
        <ele>317.20001220703</ele>
        <time>2017-05-31T09:34:23.000Z</time>
      </trkpt>
      <trkpt lat="45.71699" lon="4.67102">
        <ele>317.60000610352</ele>
        <time>2017-05-31T09:34:24.000Z</time>
      </trkpt>
      <trkpt lat="45.71683" lon="4.67093">
        <ele>317.60000610352</ele>
        <time>2017-05-31T09:34:32.000Z</time>
      </trkpt>
      <trkpt lat="45.71681" lon="4.67093">
        <ele>318</ele>
        <time>2017-05-31T09:34:33.000Z</time>
      </trkpt>
      <trkpt lat="45.71679" lon="4.67091">
        <ele>318.60000610352</ele>
        <time>2017-05-31T09:34:34.000Z</time>
      </trkpt>
      <trkpt lat="45.71677" lon="4.6709">
        <ele>319</ele>
        <time>2017-05-31T09:34:35.000Z</time>
      </trkpt>
      <trkpt lat="45.71675" lon="4.67089">
        <ele>319.39999389648</ele>
        <time>2017-05-31T09:34:36.000Z</time>
      </trkpt>
      <trkpt lat="45.71673" lon="4.67087">
        <ele>319.79998779297</ele>
        <time>2017-05-31T09:34:37.000Z</time>
      </trkpt>
      <trkpt lat="45.71662" lon="4.6708">
        <ele>319.79998779297</ele>
        <time>2017-05-31T09:34:43.000Z</time>
      </trkpt>
      <trkpt lat="45.71639" lon="4.67069">
        <ele>319.79998779297</ele>
        <time>2017-05-31T09:34:52.000Z</time>
      </trkpt>
      <trkpt lat="45.71617" lon="4.67059">
        <ele>319.79998779297</ele>
        <time>2017-05-31T09:34:58.000Z</time>
      </trkpt>
      <trkpt lat="45.71594" lon="4.67056">
        <ele>319.79998779297</ele>
        <time>2017-05-31T09:35:05.000Z</time>
      </trkpt>
      <trkpt lat="45.71564" lon="4.6706">
        <ele>319.79998779297</ele>
        <time>2017-05-31T09:35:13.000Z</time>
      </trkpt>
      <trkpt lat="45.71543" lon="4.6707">
        <ele>319.79998779297</ele>
        <time>2017-05-31T09:35:19.000Z</time>
      </trkpt>
      <trkpt lat="45.71535" lon="4.67073">
        <ele>320.20001220703</ele>
        <time>2017-05-31T09:35:22.000Z</time>
      </trkpt>
      <trkpt lat="45.71532" lon="4.67075">
        <ele>320.79998779297</ele>
        <time>2017-05-31T09:35:23.000Z</time>
      </trkpt>
      <trkpt lat="45.7153" lon="4.67076">
        <ele>321.20001220703</ele>
        <time>2017-05-31T09:35:24.000Z</time>
      </trkpt>
      <trkpt lat="45.71527" lon="4.67078">
        <ele>321.60000610352</ele>
        <time>2017-05-31T09:35:25.000Z</time>
      </trkpt>
      <trkpt lat="45.71524" lon="4.67079">
        <ele>322</ele>
        <time>2017-05-31T09:35:26.000Z</time>
      </trkpt>
      <trkpt lat="45.71503" lon="4.67082">
        <ele>322</ele>
        <time>2017-05-31T09:35:33.000Z</time>
      </trkpt>
      <trkpt lat="45.71484" lon="4.67093">
        <ele>322</ele>
        <time>2017-05-31T09:35:39.000Z</time>
      </trkpt>
      <trkpt lat="45.71453" lon="4.67108">
        <ele>322</ele>
        <time>2017-05-31T09:35:45.000Z</time>
      </trkpt>
      <trkpt lat="45.71436" lon="4.67113">
        <ele>321.60000610352</ele>
        <time>2017-05-31T09:35:48.000Z</time>
      </trkpt>
      <trkpt lat="45.71429" lon="4.67115">
        <ele>321.20001220703</ele>
        <time>2017-05-31T09:35:49.000Z</time>
      </trkpt>
      <trkpt lat="45.71423" lon="4.67116">
        <ele>320.79998779297</ele>
        <time>2017-05-31T09:35:50.000Z</time>
      </trkpt>
      <trkpt lat="45.71417" lon="4.67117">
        <ele>320.20001220703</ele>
        <time>2017-05-31T09:35:51.000Z</time>
      </trkpt>
      <trkpt lat="45.71411" lon="4.67118">
        <ele>319.79998779297</ele>
        <time>2017-05-31T09:35:52.000Z</time>
      </trkpt>
      <trkpt lat="45.71355" lon="4.67123">
        <ele>319.79998779297</ele>
        <time>2017-05-31T09:36:01.000Z</time>
      </trkpt>
      <trkpt lat="45.71349" lon="4.67124">
        <ele>319.39999389648</ele>
        <time>2017-05-31T09:36:02.000Z</time>
      </trkpt>
      <trkpt lat="45.71343" lon="4.67124">
        <ele>319</ele>
        <time>2017-05-31T09:36:03.000Z</time>
      </trkpt>
      <trkpt lat="45.71337" lon="4.67124">
        <ele>318.60000610352</ele>
        <time>2017-05-31T09:36:04.000Z</time>
      </trkpt>
      <trkpt lat="45.7133" lon="4.67125">
        <ele>318.20001220703</ele>
        <time>2017-05-31T09:36:05.000Z</time>
      </trkpt>
      <trkpt lat="45.71324" lon="4.67126">
        <ele>317.60000610352</ele>
        <time>2017-05-31T09:36:06.000Z</time>
      </trkpt>
      <trkpt lat="45.71295" lon="4.67129">
        <ele>317.60000610352</ele>
        <time>2017-05-31T09:36:11.000Z</time>
      </trkpt>
      <trkpt lat="45.71265" lon="4.67134">
        <ele>317.60000610352</ele>
        <time>2017-05-31T09:36:17.000Z</time>
      </trkpt>
      <trkpt lat="45.71256" lon="4.67134">
        <ele>317.60000610352</ele>
        <time>2017-05-31T09:36:19.000Z</time>
      </trkpt>
      <trkpt lat="45.71237" lon="4.67136">
        <ele>317.60000610352</ele>
        <time>2017-05-31T09:36:23.000Z</time>
      </trkpt>
      <trkpt lat="45.71182" lon="4.67143">
        <ele>317.60000610352</ele>
        <time>2017-05-31T09:36:35.000Z</time>
      </trkpt>
      <trkpt lat="45.71131" lon="4.67147">
        <ele>317.60000610352</ele>
        <time>2017-05-31T09:36:45.000Z</time>
      </trkpt>
      <trkpt lat="45.71102" lon="4.6715">
        <ele>317.20001220703</ele>
        <time>2017-05-31T09:36:50.000Z</time>
      </trkpt>
      <trkpt lat="45.71097" lon="4.6715">
        <ele>316.79998779297</ele>
        <time>2017-05-31T09:36:51.000Z</time>
      </trkpt>
      <trkpt lat="45.7109" lon="4.6715">
        <ele>316.39999389648</ele>
        <time>2017-05-31T09:36:52.000Z</time>
      </trkpt>
      <trkpt lat="45.71084" lon="4.6715">
        <ele>315.79998779297</ele>
        <time>2017-05-31T09:36:53.000Z</time>
      </trkpt>
      <trkpt lat="45.71077" lon="4.67149">
        <ele>315.39999389648</ele>
        <time>2017-05-31T09:36:54.000Z</time>
      </trkpt>
      <trkpt lat="45.71058" lon="4.67146">
        <ele>315</ele>
        <time>2017-05-31T09:36:57.000Z</time>
      </trkpt>
      <trkpt lat="45.71051" lon="4.67145">
        <ele>314.60000610352</ele>
        <time>2017-05-31T09:36:58.000Z</time>
      </trkpt>
      <trkpt lat="45.71044" lon="4.67143">
        <ele>314.20001220703</ele>
        <time>2017-05-31T09:36:59.000Z</time>
      </trkpt>
      <trkpt lat="45.71036" lon="4.67141">
        <ele>313.79998779297</ele>
        <time>2017-05-31T09:37:00.000Z</time>
      </trkpt>
      <trkpt lat="45.71029" lon="4.67139">
        <ele>313.39999389648</ele>
        <time>2017-05-31T09:37:01.000Z</time>
      </trkpt>
      <trkpt lat="45.70999" lon="4.67139">
        <ele>313.39999389648</ele>
        <time>2017-05-31T09:37:06.000Z</time>
      </trkpt>
      <trkpt lat="45.70972" lon="4.67148">
        <ele>313.39999389648</ele>
        <time>2017-05-31T09:37:12.000Z</time>
      </trkpt>
      <trkpt lat="45.70941" lon="4.6716">
        <ele>313.79998779297</ele>
        <time>2017-05-31T09:37:20.000Z</time>
      </trkpt>
      <trkpt lat="45.70938" lon="4.67162">
        <ele>314.39999389648</ele>
        <time>2017-05-31T09:37:21.000Z</time>
      </trkpt>
      <trkpt lat="45.70934" lon="4.67163">
        <ele>314.79998779297</ele>
        <time>2017-05-31T09:37:22.000Z</time>
      </trkpt>
      <trkpt lat="45.7093" lon="4.67165">
        <ele>315.20001220703</ele>
        <time>2017-05-31T09:37:23.000Z</time>
      </trkpt>
      <trkpt lat="45.70927" lon="4.67166">
        <ele>315.79998779297</ele>
        <time>2017-05-31T09:37:24.000Z</time>
      </trkpt>
      <trkpt lat="45.70912" lon="4.67171">
        <ele>316.20001220703</ele>
        <time>2017-05-31T09:37:28.000Z</time>
      </trkpt>
      <trkpt lat="45.70909" lon="4.67172">
        <ele>316.60000610352</ele>
        <time>2017-05-31T09:37:29.000Z</time>
      </trkpt>
      <trkpt lat="45.70905" lon="4.67173">
        <ele>317</ele>
        <time>2017-05-31T09:37:30.000Z</time>
      </trkpt>
      <trkpt lat="45.70902" lon="4.67174">
        <ele>317.39999389648</ele>
        <time>2017-05-31T09:37:31.000Z</time>
      </trkpt>
      <trkpt lat="45.70898" lon="4.67175">
        <ele>317.79998779297</ele>
        <time>2017-05-31T09:37:32.000Z</time>
      </trkpt>
      <trkpt lat="45.70882" lon="4.67182">
        <ele>318.39999389648</ele>
        <time>2017-05-31T09:37:37.000Z</time>
      </trkpt>
      <trkpt lat="45.70879" lon="4.67183">
        <ele>318.79998779297</ele>
        <time>2017-05-31T09:37:38.000Z</time>
      </trkpt>
      <trkpt lat="45.70875" lon="4.67185">
        <ele>319.20001220703</ele>
        <time>2017-05-31T09:37:39.000Z</time>
      </trkpt>
      <trkpt lat="45.70872" lon="4.67186">
        <ele>319.79998779297</ele>
        <time>2017-05-31T09:37:40.000Z</time>
      </trkpt>
      <trkpt lat="45.70869" lon="4.67186">
        <ele>320.20001220703</ele>
        <time>2017-05-31T09:37:41.000Z</time>
      </trkpt>
      <trkpt lat="45.70854" lon="4.67191">
        <ele>320.20001220703</ele>
        <time>2017-05-31T09:37:46.000Z</time>
      </trkpt>
      <trkpt lat="45.70843" lon="4.67192">
        <ele>320.60000610352</ele>
        <time>2017-05-31T09:37:50.000Z</time>
      </trkpt>
      <trkpt lat="45.7084" lon="4.67193">
        <ele>321.20001220703</ele>
        <time>2017-05-31T09:37:51.000Z</time>
      </trkpt>
      <trkpt lat="45.70837" lon="4.67193">
        <ele>321.60000610352</ele>
        <time>2017-05-31T09:37:52.000Z</time>
      </trkpt>
      <trkpt lat="45.70834" lon="4.67194">
        <ele>322</ele>
        <time>2017-05-31T09:37:53.000Z</time>
      </trkpt>
      <trkpt lat="45.70831" lon="4.67194">
        <ele>322.60000610352</ele>
        <time>2017-05-31T09:37:54.000Z</time>
      </trkpt>
      <trkpt lat="45.70825" lon="4.67195">
        <ele>322.60000610352</ele>
        <time>2017-05-31T09:37:56.000Z</time>
      </trkpt>
      <trkpt lat="45.70816" lon="4.67196">
        <ele>323</ele>
        <time>2017-05-31T09:37:59.000Z</time>
      </trkpt>
      <trkpt lat="45.70812" lon="4.67196">
        <ele>323.39999389648</ele>
        <time>2017-05-31T09:38:00.000Z</time>
      </trkpt>
      <trkpt lat="45.70809" lon="4.67197">
        <ele>323.79998779297</ele>
        <time>2017-05-31T09:38:01.000Z</time>
      </trkpt>
      <trkpt lat="45.70805" lon="4.67198">
        <ele>324.20001220703</ele>
        <time>2017-05-31T09:38:02.000Z</time>
      </trkpt>
      <trkpt lat="45.70802" lon="4.67199">
        <ele>324.60000610352</ele>
        <time>2017-05-31T09:38:03.000Z</time>
      </trkpt>
      <trkpt lat="45.70798" lon="4.67199">
        <ele>324.60000610352</ele>
        <time>2017-05-31T09:38:04.000Z</time>
      </trkpt>
      <trkpt lat="45.70764" lon="4.67204">
        <ele>324.60000610352</ele>
        <time>2017-05-31T09:38:14.000Z</time>
      </trkpt>
      <trkpt lat="45.70729" lon="4.67208">
        <ele>324.60000610352</ele>
        <time>2017-05-31T09:38:22.000Z</time>
      </trkpt>
      <trkpt lat="45.70717" lon="4.67208">
        <ele>324.60000610352</ele>
        <time>2017-05-31T09:38:24.000Z</time>
      </trkpt>
      <trkpt lat="45.70705" lon="4.67209">
        <ele>324.20001220703</ele>
        <time>2017-05-31T09:38:26.000Z</time>
      </trkpt>
      <trkpt lat="45.707" lon="4.6721">
        <ele>323.79998779297</ele>
        <time>2017-05-31T09:38:27.000Z</time>
      </trkpt>
      <trkpt lat="45.70688" lon="4.67211">
        <ele>323.39999389648</ele>
        <time>2017-05-31T09:38:29.000Z</time>
      </trkpt>
      <trkpt lat="45.70682" lon="4.67211">
        <ele>323</ele>
        <time>2017-05-31T09:38:30.000Z</time>
      </trkpt>
      <trkpt lat="45.70676" lon="4.67211">
        <ele>322.60000610352</ele>
        <time>2017-05-31T09:38:31.000Z</time>
      </trkpt>
      <trkpt lat="45.70658" lon="4.67211">
        <ele>322</ele>
        <time>2017-05-31T09:38:34.000Z</time>
      </trkpt>
      <trkpt lat="45.70652" lon="4.67211">
        <ele>321.60000610352</ele>
        <time>2017-05-31T09:38:35.000Z</time>
      </trkpt>
      <trkpt lat="45.70646" lon="4.67211">
        <ele>321</ele>
        <time>2017-05-31T09:38:36.000Z</time>
      </trkpt>
      <trkpt lat="45.70639" lon="4.67212">
        <ele>320.39999389648</ele>
        <time>2017-05-31T09:38:37.000Z</time>
      </trkpt>
      <trkpt lat="45.70633" lon="4.67212">
        <ele>320</ele>
        <time>2017-05-31T09:38:38.000Z</time>
      </trkpt>
      <trkpt lat="45.70628" lon="4.67212">
        <ele>319.60000610352</ele>
        <time>2017-05-31T09:38:39.000Z</time>
      </trkpt>
      <trkpt lat="45.70621" lon="4.67212">
        <ele>319.20001220703</ele>
        <time>2017-05-31T09:38:40.000Z</time>
      </trkpt>
      <trkpt lat="45.70615" lon="4.67211">
        <ele>318.79998779297</ele>
        <time>2017-05-31T09:38:41.000Z</time>
      </trkpt>
      <trkpt lat="45.70608" lon="4.67212">
        <ele>318.20001220703</ele>
        <time>2017-05-31T09:38:42.000Z</time>
      </trkpt>
      <trkpt lat="45.70602" lon="4.67213">
        <ele>317.79998779297</ele>
        <time>2017-05-31T09:38:43.000Z</time>
      </trkpt>
      <trkpt lat="45.70596" lon="4.67214">
        <ele>317.20001220703</ele>
        <time>2017-05-31T09:38:44.000Z</time>
      </trkpt>
      <trkpt lat="45.7059" lon="4.67215">
        <ele>316.79998779297</ele>
        <time>2017-05-31T09:38:45.000Z</time>
      </trkpt>
      <trkpt lat="45.70584" lon="4.67215">
        <ele>316</ele>
        <time>2017-05-31T09:38:46.000Z</time>
      </trkpt>
      <trkpt lat="45.70577" lon="4.67216">
        <ele>315.39999389648</ele>
        <time>2017-05-31T09:38:47.000Z</time>
      </trkpt>
      <trkpt lat="45.7057" lon="4.67216">
        <ele>314.79998779297</ele>
        <time>2017-05-31T09:38:48.000Z</time>
      </trkpt>
      <trkpt lat="45.70564" lon="4.67216">
        <ele>314</ele>
        <time>2017-05-31T09:38:49.000Z</time>
      </trkpt>
      <trkpt lat="45.70557" lon="4.67217">
        <ele>313.39999389648</ele>
        <time>2017-05-31T09:38:50.000Z</time>
      </trkpt>
      <trkpt lat="45.7055" lon="4.67217">
        <ele>312.60000610352</ele>
        <time>2017-05-31T09:38:51.000Z</time>
      </trkpt>
      <trkpt lat="45.70542" lon="4.67218">
        <ele>312</ele>
        <time>2017-05-31T09:38:52.000Z</time>
      </trkpt>
      <trkpt lat="45.70535" lon="4.67218">
        <ele>311.20001220703</ele>
        <time>2017-05-31T09:38:53.000Z</time>
      </trkpt>
      <trkpt lat="45.70527" lon="4.67219">
        <ele>310.39999389648</ele>
        <time>2017-05-31T09:38:54.000Z</time>
      </trkpt>
      <trkpt lat="45.7052" lon="4.6722">
        <ele>309.79998779297</ele>
        <time>2017-05-31T09:38:55.000Z</time>
      </trkpt>
      <trkpt lat="45.70511" lon="4.6722">
        <ele>309</ele>
        <time>2017-05-31T09:38:56.000Z</time>
      </trkpt>
      <trkpt lat="45.70503" lon="4.67221">
        <ele>308.39999389648</ele>
        <time>2017-05-31T09:38:57.000Z</time>
      </trkpt>
      <trkpt lat="45.70495" lon="4.67221">
        <ele>307.60000610352</ele>
        <time>2017-05-31T09:38:58.000Z</time>
      </trkpt>
      <trkpt lat="45.70486" lon="4.6722">
        <ele>306.79998779297</ele>
        <time>2017-05-31T09:38:59.000Z</time>
      </trkpt>
      <trkpt lat="45.70478" lon="4.67216">
        <ele>306.20001220703</ele>
        <time>2017-05-31T09:39:00.000Z</time>
      </trkpt>
      <trkpt lat="45.7047" lon="4.67213">
        <ele>305.39999389648</ele>
        <time>2017-05-31T09:39:01.000Z</time>
      </trkpt>
      <trkpt lat="45.70462" lon="4.67209">
        <ele>304.79998779297</ele>
        <time>2017-05-31T09:39:02.000Z</time>
      </trkpt>
      <trkpt lat="45.70455" lon="4.67205">
        <ele>304.20001220703</ele>
        <time>2017-05-31T09:39:03.000Z</time>
      </trkpt>
      <trkpt lat="45.70447" lon="4.67203">
        <ele>303.79998779297</ele>
        <time>2017-05-31T09:39:04.000Z</time>
      </trkpt>
      <trkpt lat="45.70439" lon="4.67201">
        <ele>303.39999389648</ele>
        <time>2017-05-31T09:39:05.000Z</time>
      </trkpt>
      <trkpt lat="45.70432" lon="4.67201">
        <ele>302.79998779297</ele>
        <time>2017-05-31T09:39:06.000Z</time>
      </trkpt>
      <trkpt lat="45.70425" lon="4.67203">
        <ele>302.39999389648</ele>
        <time>2017-05-31T09:39:07.000Z</time>
      </trkpt>
      <trkpt lat="45.70409" lon="4.67213">
        <ele>302.39999389648</ele>
        <time>2017-05-31T09:39:10.000Z</time>
      </trkpt>
      <trkpt lat="45.70394" lon="4.67231">
        <ele>302.39999389648</ele>
        <time>2017-05-31T09:39:14.000Z</time>
      </trkpt>
      <trkpt lat="45.70382" lon="4.67259">
        <ele>302.39999389648</ele>
        <time>2017-05-31T09:39:19.000Z</time>
      </trkpt>
      <trkpt lat="45.70381" lon="4.6727">
        <ele>302.39999389648</ele>
        <time>2017-05-31T09:39:21.000Z</time>
      </trkpt>
      <trkpt lat="45.70377" lon="4.67292">
        <ele>302.79998779297</ele>
        <time>2017-05-31T09:39:25.000Z</time>
      </trkpt>
      <trkpt lat="45.70375" lon="4.67298">
        <ele>302.79998779297</ele>
        <time>2017-05-31T09:39:26.000Z</time>
      </trkpt>
      <trkpt lat="45.70374" lon="4.67304">
        <ele>303.20001220703</ele>
        <time>2017-05-31T09:39:27.000Z</time>
      </trkpt>
      <trkpt lat="45.70372" lon="4.67309">
        <ele>303.79998779297</ele>
        <time>2017-05-31T09:39:28.000Z</time>
      </trkpt>
      <trkpt lat="45.70368" lon="4.67314">
        <ele>304.20001220703</ele>
        <time>2017-05-31T09:39:29.000Z</time>
      </trkpt>
      <trkpt lat="45.70366" lon="4.67317">
        <ele>304.60000610352</ele>
        <time>2017-05-31T09:39:30.000Z</time>
      </trkpt>
      <trkpt lat="45.70358" lon="4.67325">
        <ele>305</ele>
        <time>2017-05-31T09:39:33.000Z</time>
      </trkpt>
      <trkpt lat="45.70355" lon="4.67326">
        <ele>305.39999389648</ele>
        <time>2017-05-31T09:39:34.000Z</time>
      </trkpt>
      <trkpt lat="45.70353" lon="4.67328">
        <ele>305.79998779297</ele>
        <time>2017-05-31T09:39:35.000Z</time>
      </trkpt>
      <trkpt lat="45.7035" lon="4.6733">
        <ele>306.20001220703</ele>
        <time>2017-05-31T09:39:36.000Z</time>
      </trkpt>
      <trkpt lat="45.70347" lon="4.67331">
        <ele>306.60000610352</ele>
        <time>2017-05-31T09:39:37.000Z</time>
      </trkpt>
      <trkpt lat="45.70338" lon="4.67333">
        <ele>307</ele>
        <time>2017-05-31T09:39:40.000Z</time>
      </trkpt>
      <trkpt lat="45.70334" lon="4.67335">
        <ele>307.60000610352</ele>
        <time>2017-05-31T09:39:41.000Z</time>
      </trkpt>
      <trkpt lat="45.7033" lon="4.67336">
        <ele>308</ele>
        <time>2017-05-31T09:39:42.000Z</time>
      </trkpt>
      <trkpt lat="45.70326" lon="4.67338">
        <ele>308.39999389648</ele>
        <time>2017-05-31T09:39:43.000Z</time>
      </trkpt>
      <trkpt lat="45.70322" lon="4.67339">
        <ele>309</ele>
        <time>2017-05-31T09:39:44.000Z</time>
      </trkpt>
      <trkpt lat="45.70298" lon="4.67348">
        <ele>309</ele>
        <time>2017-05-31T09:39:51.000Z</time>
      </trkpt>
      <trkpt lat="45.70293" lon="4.67349">
        <ele>309.39999389648</ele>
        <time>2017-05-31T09:39:53.000Z</time>
      </trkpt>
      <trkpt lat="45.7029" lon="4.67349">
        <ele>309.79998779297</ele>
        <time>2017-05-31T09:39:54.000Z</time>
      </trkpt>
      <trkpt lat="45.70287" lon="4.67349">
        <ele>310.20001220703</ele>
        <time>2017-05-31T09:39:55.000Z</time>
      </trkpt>
      <trkpt lat="45.70283" lon="4.6735">
        <ele>310.79998779297</ele>
        <time>2017-05-31T09:39:56.000Z</time>
      </trkpt>
      <trkpt lat="45.70281" lon="4.6735">
        <ele>311.20001220703</ele>
        <time>2017-05-31T09:39:57.000Z</time>
      </trkpt>
      <trkpt lat="45.70269" lon="4.67352">
        <ele>311.20001220703</ele>
        <time>2017-05-31T09:40:01.000Z</time>
      </trkpt>
      <trkpt lat="45.70236" lon="4.67358">
        <ele>311.20001220703</ele>
        <time>2017-05-31T09:40:11.000Z</time>
      </trkpt>
      <trkpt lat="45.70211" lon="4.67363">
        <ele>311.20001220703</ele>
        <time>2017-05-31T09:40:19.000Z</time>
      </trkpt>
      <trkpt lat="45.70197" lon="4.67366">
        <ele>311.20001220703</ele>
        <time>2017-05-31T09:40:25.000Z</time>
      </trkpt>
      <trkpt lat="45.70181" lon="4.67368">
        <ele>311.20001220703</ele>
        <time>2017-05-31T09:40:31.000Z</time>
      </trkpt>
      <trkpt lat="45.70158" lon="4.67374">
        <ele>311.20001220703</ele>
        <time>2017-05-31T09:40:38.000Z</time>
      </trkpt>
      <trkpt lat="45.70128" lon="4.67381">
        <ele>311.20001220703</ele>
        <time>2017-05-31T09:40:47.000Z</time>
      </trkpt>
      <trkpt lat="45.70122" lon="4.67383">
        <ele>311.20001220703</ele>
        <time>2017-05-31T09:40:51.000Z</time>
      </trkpt>
      <trkpt lat="45.70122" lon="4.67383">
        <ele>311.20001220703</ele>
        <time>2017-05-31T09:40:52.000Z</time>
      </trkpt>
      <trkpt lat="45.7012" lon="4.67384">
        <ele>311.20001220703</ele>
        <time>2017-05-31T09:42:51.000Z</time>
      </trkpt>
      <trkpt lat="45.70116" lon="4.67385">
        <ele>311.20001220703</ele>
        <time>2017-05-31T09:42:53.000Z</time>
      </trkpt>
      <trkpt lat="45.701" lon="4.6739">
        <ele>311.20001220703</ele>
        <time>2017-05-31T09:42:59.000Z</time>
      </trkpt>
      <trkpt lat="45.70073" lon="4.67395">
        <ele>311.20001220703</ele>
        <time>2017-05-31T09:43:06.000Z</time>
      </trkpt>
      <trkpt lat="45.70039" lon="4.67402">
        <ele>311.20001220703</ele>
        <time>2017-05-31T09:43:15.000Z</time>
      </trkpt>
      <trkpt lat="45.70019" lon="4.67405">
        <ele>311.20001220703</ele>
        <time>2017-05-31T09:43:20.000Z</time>
      </trkpt>
      <trkpt lat="45.69992" lon="4.67407">
        <ele>311.20001220703</ele>
        <time>2017-05-31T09:43:26.000Z</time>
      </trkpt>
      <trkpt lat="45.69952" lon="4.67415">
        <ele>311.20001220703</ele>
        <time>2017-05-31T09:43:36.000Z</time>
      </trkpt>
      <trkpt lat="45.69932" lon="4.67425">
        <ele>311.20001220703</ele>
        <time>2017-05-31T09:43:42.000Z</time>
      </trkpt>
      <trkpt lat="45.69914" lon="4.67432">
        <ele>311.20001220703</ele>
        <time>2017-05-31T09:43:48.000Z</time>
      </trkpt>
      <trkpt lat="45.69897" lon="4.67441">
        <ele>311.20001220703</ele>
        <time>2017-05-31T09:43:54.000Z</time>
      </trkpt>
      <trkpt lat="45.6988" lon="4.67452">
        <ele>311.20001220703</ele>
        <time>2017-05-31T09:44:00.000Z</time>
      </trkpt>
      <trkpt lat="45.69866" lon="4.67453">
        <ele>311.20001220703</ele>
        <time>2017-05-31T09:44:04.000Z</time>
      </trkpt>
      <trkpt lat="45.6984" lon="4.67456">
        <ele>311.20001220703</ele>
        <time>2017-05-31T09:44:11.000Z</time>
      </trkpt>
      <trkpt lat="45.69817" lon="4.67459">
        <ele>311.20001220703</ele>
        <time>2017-05-31T09:44:19.000Z</time>
      </trkpt>
      <trkpt lat="45.69814" lon="4.6745">
        <ele>311.20001220703</ele>
        <time>2017-05-31T09:44:24.000Z</time>
      </trkpt>
      <trkpt lat="45.69813" lon="4.67426">
        <ele>311.20001220703</ele>
        <time>2017-05-31T09:44:29.000Z</time>
      </trkpt>
      <trkpt lat="45.69813" lon="4.67399">
        <ele>311.60000610352</ele>
        <time>2017-05-31T09:44:35.000Z</time>
      </trkpt>
      <trkpt lat="45.69814" lon="4.67395">
        <ele>312</ele>
        <time>2017-05-31T09:44:36.000Z</time>
      </trkpt>
      <trkpt lat="45.69814" lon="4.67391">
        <ele>312.39999389648</ele>
        <time>2017-05-31T09:44:37.000Z</time>
      </trkpt>
      <trkpt lat="45.69814" lon="4.67387">
        <ele>312.79998779297</ele>
        <time>2017-05-31T09:44:38.000Z</time>
      </trkpt>
      <trkpt lat="45.69815" lon="4.67383">
        <ele>313.20001220703</ele>
        <time>2017-05-31T09:44:39.000Z</time>
      </trkpt>
      <trkpt lat="45.69814" lon="4.67366">
        <ele>313.20001220703</ele>
        <time>2017-05-31T09:44:43.000Z</time>
      </trkpt>
      <trkpt lat="45.69807" lon="4.67359">
        <ele>313.79998779297</ele>
        <time>2017-05-31T09:44:47.000Z</time>
      </trkpt>
      <trkpt lat="45.69804" lon="4.67358">
        <ele>314.20001220703</ele>
        <time>2017-05-31T09:44:48.000Z</time>
      </trkpt>
      <trkpt lat="45.69802" lon="4.67359">
        <ele>314.60000610352</ele>
        <time>2017-05-31T09:44:49.000Z</time>
      </trkpt>
      <trkpt lat="45.69799" lon="4.67359">
        <ele>315</ele>
        <time>2017-05-31T09:44:50.000Z</time>
      </trkpt>
      <trkpt lat="45.69797" lon="4.67359">
        <ele>315.39999389648</ele>
        <time>2017-05-31T09:44:51.000Z</time>
      </trkpt>
      <trkpt lat="45.69791" lon="4.6736">
        <ele>315.39999389648</ele>
        <time>2017-05-31T09:44:54.000Z</time>
      </trkpt>
      <trkpt lat="45.69789" lon="4.67361">
        <ele>315.39999389648</ele>
        <time>2017-05-31T09:44:56.000Z</time>
      </trkpt>
      <trkpt lat="45.69775" lon="4.67363">
        <ele>315.39999389648</ele>
        <time>2017-05-31T09:56:54.000Z</time>
      </trkpt>
      <trkpt lat="45.69773" lon="4.67362">
        <ele>315.39999389648</ele>
        <time>2017-05-31T09:56:55.000Z</time>
      </trkpt>
      <trkpt lat="45.69753" lon="4.67363">
        <ele>315.39999389648</ele>
        <time>2017-05-31T09:57:01.000Z</time>
      </trkpt>
      <trkpt lat="45.69737" lon="4.67368">
        <ele>315.39999389648</ele>
        <time>2017-05-31T09:57:05.000Z</time>
      </trkpt>
      <trkpt lat="45.69724" lon="4.6737">
        <ele>315.39999389648</ele>
        <time>2017-05-31T09:57:10.000Z</time>
      </trkpt>
      <trkpt lat="45.6971" lon="4.67394">
        <ele>315.39999389648</ele>
        <time>2017-05-31T09:57:15.000Z</time>
      </trkpt>
      <trkpt lat="45.69706" lon="4.67399">
        <ele>315.39999389648</ele>
        <time>2017-05-31T09:57:16.000Z</time>
      </trkpt>
      <trkpt lat="45.69697" lon="4.67405">
        <ele>315.39999389648</ele>
        <time>2017-05-31T09:57:18.000Z</time>
      </trkpt>
      <trkpt lat="45.69684" lon="4.67415">
        <ele>315.39999389648</ele>
        <time>2017-05-31T09:57:21.000Z</time>
      </trkpt>
      <trkpt lat="45.69677" lon="4.67422">
        <ele>315.39999389648</ele>
        <time>2017-05-31T09:57:23.000Z</time>
      </trkpt>
      <trkpt lat="45.69665" lon="4.67427">
        <ele>315</ele>
        <time>2017-05-31T09:57:25.000Z</time>
      </trkpt>
      <trkpt lat="45.69658" lon="4.67429">
        <ele>314.60000610352</ele>
        <time>2017-05-31T09:57:26.000Z</time>
      </trkpt>
      <trkpt lat="45.69653" lon="4.67432">
        <ele>314.20001220703</ele>
        <time>2017-05-31T09:57:27.000Z</time>
      </trkpt>
      <trkpt lat="45.69647" lon="4.67434">
        <ele>313.79998779297</ele>
        <time>2017-05-31T09:57:28.000Z</time>
      </trkpt>
      <trkpt lat="45.69642" lon="4.67434">
        <ele>313.39999389648</ele>
        <time>2017-05-31T09:57:29.000Z</time>
      </trkpt>
      <trkpt lat="45.69612" lon="4.67429">
        <ele>312.79998779297</ele>
        <time>2017-05-31T09:57:34.000Z</time>
      </trkpt>
      <trkpt lat="45.69606" lon="4.67428">
        <ele>312.39999389648</ele>
        <time>2017-05-31T09:57:35.000Z</time>
      </trkpt>
      <trkpt lat="45.696" lon="4.67427">
        <ele>312</ele>
        <time>2017-05-31T09:57:36.000Z</time>
      </trkpt>
      <trkpt lat="45.69595" lon="4.67426">
        <ele>311.60000610352</ele>
        <time>2017-05-31T09:57:37.000Z</time>
      </trkpt>
      <trkpt lat="45.69588" lon="4.67425">
        <ele>311.20001220703</ele>
        <time>2017-05-31T09:57:38.000Z</time>
      </trkpt>
      <trkpt lat="45.69569" lon="4.67426">
        <ele>311.20001220703</ele>
        <time>2017-05-31T09:57:41.000Z</time>
      </trkpt>
      <trkpt lat="45.69562" lon="4.67428">
        <ele>310.79998779297</ele>
        <time>2017-05-31T09:57:42.000Z</time>
      </trkpt>
      <trkpt lat="45.69556" lon="4.6743">
        <ele>310.39999389648</ele>
        <time>2017-05-31T09:57:43.000Z</time>
      </trkpt>
      <trkpt lat="45.69549" lon="4.67432">
        <ele>309.79998779297</ele>
        <time>2017-05-31T09:57:44.000Z</time>
      </trkpt>
      <trkpt lat="45.69543" lon="4.67434">
        <ele>309.39999389648</ele>
        <time>2017-05-31T09:57:45.000Z</time>
      </trkpt>
      <trkpt lat="45.69536" lon="4.67436">
        <ele>309</ele>
        <time>2017-05-31T09:57:46.000Z</time>
      </trkpt>
      <trkpt lat="45.6953" lon="4.6744">
        <ele>309</ele>
        <time>2017-05-31T09:57:47.000Z</time>
      </trkpt>
      <trkpt lat="45.69523" lon="4.67444">
        <ele>308.39999389648</ele>
        <time>2017-05-31T09:57:48.000Z</time>
      </trkpt>
      <trkpt lat="45.69515" lon="4.67448">
        <ele>308</ele>
        <time>2017-05-31T09:57:49.000Z</time>
      </trkpt>
      <trkpt lat="45.69508" lon="4.67452">
        <ele>307.60000610352</ele>
        <time>2017-05-31T09:57:50.000Z</time>
      </trkpt>
      <trkpt lat="45.695" lon="4.67455">
        <ele>307</ele>
        <time>2017-05-31T09:57:51.000Z</time>
      </trkpt>
      <trkpt lat="45.69492" lon="4.67459">
        <ele>306.39999389648</ele>
        <time>2017-05-31T09:57:52.000Z</time>
      </trkpt>
      <trkpt lat="45.69485" lon="4.67462">
        <ele>305.79998779297</ele>
        <time>2017-05-31T09:57:53.000Z</time>
      </trkpt>
      <trkpt lat="45.69478" lon="4.67465">
        <ele>305.39999389648</ele>
        <time>2017-05-31T09:57:54.000Z</time>
      </trkpt>
      <trkpt lat="45.6947" lon="4.67468">
        <ele>304.60000610352</ele>
        <time>2017-05-31T09:57:55.000Z</time>
      </trkpt>
      <trkpt lat="45.69463" lon="4.67471">
        <ele>304</ele>
        <time>2017-05-31T09:57:56.000Z</time>
      </trkpt>
      <trkpt lat="45.69455" lon="4.67473">
        <ele>303.39999389648</ele>
        <time>2017-05-31T09:57:57.000Z</time>
      </trkpt>
      <trkpt lat="45.69447" lon="4.67476">
        <ele>302.60000610352</ele>
        <time>2017-05-31T09:57:58.000Z</time>
      </trkpt>
      <trkpt lat="45.6944" lon="4.67478">
        <ele>302</ele>
        <time>2017-05-31T09:57:59.000Z</time>
      </trkpt>
      <trkpt lat="45.69432" lon="4.67481">
        <ele>301.39999389648</ele>
        <time>2017-05-31T09:58:00.000Z</time>
      </trkpt>
      <trkpt lat="45.69424" lon="4.67483">
        <ele>300.79998779297</ele>
        <time>2017-05-31T09:58:01.000Z</time>
      </trkpt>
      <trkpt lat="45.69416" lon="4.67485">
        <ele>300</ele>
        <time>2017-05-31T09:58:02.000Z</time>
      </trkpt>
      <trkpt lat="45.69408" lon="4.67486">
        <ele>299.39999389648</ele>
        <time>2017-05-31T09:58:03.000Z</time>
      </trkpt>
      <trkpt lat="45.694" lon="4.67488">
        <ele>298.60000610352</ele>
        <time>2017-05-31T09:58:04.000Z</time>
      </trkpt>
      <trkpt lat="45.69391" lon="4.67489">
        <ele>297.79998779297</ele>
        <time>2017-05-31T09:58:05.000Z</time>
      </trkpt>
      <trkpt lat="45.69381" lon="4.6749">
        <ele>297.20001220703</ele>
        <time>2017-05-31T09:58:06.000Z</time>
      </trkpt>
      <trkpt lat="45.69371" lon="4.67492">
        <ele>296.39999389648</ele>
        <time>2017-05-31T09:58:07.000Z</time>
      </trkpt>
      <trkpt lat="45.69361" lon="4.67493">
        <ele>295.79998779297</ele>
        <time>2017-05-31T09:58:08.000Z</time>
      </trkpt>
      <trkpt lat="45.6935" lon="4.67495">
        <ele>295</ele>
        <time>2017-05-31T09:58:09.000Z</time>
      </trkpt>
      <trkpt lat="45.6934" lon="4.67496">
        <ele>294.20001220703</ele>
        <time>2017-05-31T09:58:10.000Z</time>
      </trkpt>
      <trkpt lat="45.6933" lon="4.67498">
        <ele>293.39999389648</ele>
        <time>2017-05-31T09:58:11.000Z</time>
      </trkpt>
      <trkpt lat="45.6932" lon="4.67499">
        <ele>292.60000610352</ele>
        <time>2017-05-31T09:58:12.000Z</time>
      </trkpt>
      <trkpt lat="45.69311" lon="4.67498">
        <ele>291.79998779297</ele>
        <time>2017-05-31T09:58:13.000Z</time>
      </trkpt>
      <trkpt lat="45.69301" lon="4.67496">
        <ele>291</ele>
        <time>2017-05-31T09:58:14.000Z</time>
      </trkpt>
      <trkpt lat="45.69292" lon="4.67492">
        <ele>290.39999389648</ele>
        <time>2017-05-31T09:58:15.000Z</time>
      </trkpt>
      <trkpt lat="45.69282" lon="4.67488">
        <ele>289.79998779297</ele>
        <time>2017-05-31T09:58:16.000Z</time>
      </trkpt>
      <trkpt lat="45.69273" lon="4.67483">
        <ele>289.20001220703</ele>
        <time>2017-05-31T09:58:17.000Z</time>
      </trkpt>
      <trkpt lat="45.69264" lon="4.67477">
        <ele>288.60000610352</ele>
        <time>2017-05-31T09:58:18.000Z</time>
      </trkpt>
      <trkpt lat="45.69256" lon="4.67471">
        <ele>288</ele>
        <time>2017-05-31T09:58:19.000Z</time>
      </trkpt>
      <trkpt lat="45.6924" lon="4.67459">
        <ele>287.60000610352</ele>
        <time>2017-05-31T09:58:21.000Z</time>
      </trkpt>
      <trkpt lat="45.69231" lon="4.67453">
        <ele>287.20001220703</ele>
        <time>2017-05-31T09:58:22.000Z</time>
      </trkpt>
      <trkpt lat="45.69223" lon="4.67447">
        <ele>286.79998779297</ele>
        <time>2017-05-31T09:58:23.000Z</time>
      </trkpt>
      <trkpt lat="45.69214" lon="4.67441">
        <ele>286.20001220703</ele>
        <time>2017-05-31T09:58:24.000Z</time>
      </trkpt>
      <trkpt lat="45.69206" lon="4.67435">
        <ele>285.79998779297</ele>
        <time>2017-05-31T09:58:25.000Z</time>
      </trkpt>
      <trkpt lat="45.69189" lon="4.67424">
        <ele>285.79998779297</ele>
        <time>2017-05-31T09:58:27.000Z</time>
      </trkpt>
      <trkpt lat="45.69171" lon="4.67417">
        <ele>285.39999389648</ele>
        <time>2017-05-31T09:58:29.000Z</time>
      </trkpt>
      <trkpt lat="45.69162" lon="4.67415">
        <ele>284.79998779297</ele>
        <time>2017-05-31T09:58:30.000Z</time>
      </trkpt>
      <trkpt lat="45.69153" lon="4.67415">
        <ele>284.39999389648</ele>
        <time>2017-05-31T09:58:31.000Z</time>
      </trkpt>
      <trkpt lat="45.69144" lon="4.67414">
        <ele>284</ele>
        <time>2017-05-31T09:58:32.000Z</time>
      </trkpt>
      <trkpt lat="45.69135" lon="4.67414">
        <ele>283.39999389648</ele>
        <time>2017-05-31T09:58:33.000Z</time>
      </trkpt>
      <trkpt lat="45.6909" lon="4.67416">
        <ele>283.39999389648</ele>
        <time>2017-05-31T09:58:38.000Z</time>
      </trkpt>
      <trkpt lat="45.69033" lon="4.67416">
        <ele>283.39999389648</ele>
        <time>2017-05-31T09:58:45.000Z</time>
      </trkpt>
      <trkpt lat="45.69025" lon="4.67415">
        <ele>283</ele>
        <time>2017-05-31T09:58:46.000Z</time>
      </trkpt>
      <trkpt lat="45.69017" lon="4.67414">
        <ele>282.60000610352</ele>
        <time>2017-05-31T09:58:47.000Z</time>
      </trkpt>
      <trkpt lat="45.69009" lon="4.67413">
        <ele>282.20001220703</ele>
        <time>2017-05-31T09:58:48.000Z</time>
      </trkpt>
      <trkpt lat="45.69" lon="4.67413">
        <ele>281.79998779297</ele>
        <time>2017-05-31T09:58:49.000Z</time>
      </trkpt>
      <trkpt lat="45.68992" lon="4.67413">
        <ele>281.39999389648</ele>
        <time>2017-05-31T09:58:50.000Z</time>
      </trkpt>
      <trkpt lat="45.68966" lon="4.67412">
        <ele>281</ele>
        <time>2017-05-31T09:58:53.000Z</time>
      </trkpt>
      <trkpt lat="45.68958" lon="4.67412">
        <ele>280.60000610352</ele>
        <time>2017-05-31T09:58:54.000Z</time>
      </trkpt>
      <trkpt lat="45.68949" lon="4.67412">
        <ele>280.20001220703</ele>
        <time>2017-05-31T09:58:55.000Z</time>
      </trkpt>
      <trkpt lat="45.68941" lon="4.67412">
        <ele>279.79998779297</ele>
        <time>2017-05-31T09:58:56.000Z</time>
      </trkpt>
      <trkpt lat="45.68932" lon="4.67412">
        <ele>279.39999389648</ele>
        <time>2017-05-31T09:58:57.000Z</time>
      </trkpt>
      <trkpt lat="45.68909" lon="4.67415">
        <ele>279.39999389648</ele>
        <time>2017-05-31T09:59:00.000Z</time>
      </trkpt>
      <trkpt lat="45.68882" lon="4.67415">
        <ele>279</ele>
        <time>2017-05-31T09:59:04.000Z</time>
      </trkpt>
      <trkpt lat="45.68875" lon="4.67412">
        <ele>278.39999389648</ele>
        <time>2017-05-31T09:59:05.000Z</time>
      </trkpt>
      <trkpt lat="45.68869" lon="4.67408">
        <ele>278</ele>
        <time>2017-05-31T09:59:06.000Z</time>
      </trkpt>
      <trkpt lat="45.68863" lon="4.67404">
        <ele>277.60000610352</ele>
        <time>2017-05-31T09:59:07.000Z</time>
      </trkpt>
      <trkpt lat="45.68858" lon="4.67401">
        <ele>277.20001220703</ele>
        <time>2017-05-31T09:59:08.000Z</time>
      </trkpt>
      <trkpt lat="45.68853" lon="4.674">
        <ele>277.20001220703</ele>
        <time>2017-05-31T09:59:09.000Z</time>
      </trkpt>
      <trkpt lat="45.68831" lon="4.67394">
        <ele>277.20001220703</ele>
        <time>2017-05-31T09:59:14.000Z</time>
      </trkpt>
      <trkpt lat="45.68803" lon="4.67368">
        <ele>277.20001220703</ele>
        <time>2017-05-31T09:59:22.000Z</time>
      </trkpt>
      <trkpt lat="45.68783" lon="4.67334">
        <ele>277.20001220703</ele>
        <time>2017-05-31T09:59:30.000Z</time>
      </trkpt>
      <trkpt lat="45.68761" lon="4.67297">
        <ele>277.20001220703</ele>
        <time>2017-05-31T09:59:38.000Z</time>
      </trkpt>
      <trkpt lat="45.68733" lon="4.6725">
        <ele>277.20001220703</ele>
        <time>2017-05-31T09:59:48.000Z</time>
      </trkpt>
      <trkpt lat="45.68701" lon="4.67202">
        <ele>277.20001220703</ele>
        <time>2017-05-31T09:59:58.000Z</time>
      </trkpt>
      <trkpt lat="45.68676" lon="4.67171">
        <ele>277.20001220703</ele>
        <time>2017-05-31T10:00:05.000Z</time>
      </trkpt>
      <trkpt lat="45.68669" lon="4.67162">
        <ele>277.20001220703</ele>
        <time>2017-05-31T10:00:07.000Z</time>
      </trkpt>
      <trkpt lat="45.68647" lon="4.67134">
        <ele>277.60000610352</ele>
        <time>2017-05-31T10:00:13.000Z</time>
      </trkpt>
      <trkpt lat="45.68644" lon="4.67129">
        <ele>278</ele>
        <time>2017-05-31T10:00:14.000Z</time>
      </trkpt>
      <trkpt lat="45.6864" lon="4.67125">
        <ele>278.39999389648</ele>
        <time>2017-05-31T10:00:15.000Z</time>
      </trkpt>
      <trkpt lat="45.68636" lon="4.6712">
        <ele>279</ele>
        <time>2017-05-31T10:00:16.000Z</time>
      </trkpt>
      <trkpt lat="45.68632" lon="4.67116">
        <ele>279.39999389648</ele>
        <time>2017-05-31T10:00:17.000Z</time>
      </trkpt>
      <trkpt lat="45.68618" lon="4.67099">
        <ele>279.39999389648</ele>
        <time>2017-05-31T10:00:21.000Z</time>
      </trkpt>
      <trkpt lat="45.68585" lon="4.67044">
        <ele>279.39999389648</ele>
        <time>2017-05-31T10:00:30.000Z</time>
      </trkpt>
      <trkpt lat="45.68553" lon="4.6698">
        <ele>279.39999389648</ele>
        <time>2017-05-31T10:00:40.000Z</time>
      </trkpt>
      <trkpt lat="45.68551" lon="4.66973">
        <ele>279.39999389648</ele>
        <time>2017-05-31T10:00:41.000Z</time>
      </trkpt>
      <trkpt lat="45.68525" lon="4.66921">
        <ele>279.39999389648</ele>
        <time>2017-05-31T10:00:49.000Z</time>
      </trkpt>
      <trkpt lat="45.6849" lon="4.66867">
        <ele>279.39999389648</ele>
        <time>2017-05-31T10:00:58.000Z</time>
      </trkpt>
      <trkpt lat="45.68447" lon="4.66813">
        <ele>279.39999389648</ele>
        <time>2017-05-31T10:01:08.000Z</time>
      </trkpt>
      <trkpt lat="45.68404" lon="4.6676">
        <ele>279.39999389648</ele>
        <time>2017-05-31T10:01:18.000Z</time>
      </trkpt>
      <trkpt lat="45.684" lon="4.66755">
        <ele>279.39999389648</ele>
        <time>2017-05-31T10:01:19.000Z</time>
      </trkpt>
      <trkpt lat="45.68369" lon="4.66708">
        <ele>279.39999389648</ele>
        <time>2017-05-31T10:01:28.000Z</time>
      </trkpt>
      <trkpt lat="45.68339" lon="4.66663">
        <ele>279.39999389648</ele>
        <time>2017-05-31T10:01:37.000Z</time>
      </trkpt>
      <trkpt lat="45.68309" lon="4.6661">
        <ele>279.39999389648</ele>
        <time>2017-05-31T10:01:45.000Z</time>
      </trkpt>
      <trkpt lat="45.68277" lon="4.66545">
        <ele>279.39999389648</ele>
        <time>2017-05-31T10:01:54.000Z</time>
      </trkpt>
      <trkpt lat="45.68274" lon="4.66539">
        <ele>279.39999389648</ele>
        <time>2017-05-31T10:01:55.000Z</time>
      </trkpt>
      <trkpt lat="45.6824" lon="4.66473">
        <ele>279.39999389648</ele>
        <time>2017-05-31T10:02:05.000Z</time>
      </trkpt>
      <trkpt lat="45.68217" lon="4.66424">
        <ele>279.39999389648</ele>
        <time>2017-05-31T10:02:13.000Z</time>
      </trkpt>
      <trkpt lat="45.68191" lon="4.66373">
        <ele>279.39999389648</ele>
        <time>2017-05-31T10:02:21.000Z</time>
      </trkpt>
      <trkpt lat="45.6817" lon="4.66337">
        <ele>279.39999389648</ele>
        <time>2017-05-31T10:02:27.000Z</time>
      </trkpt>
      <trkpt lat="45.68167" lon="4.66331">
        <ele>279.39999389648</ele>
        <time>2017-05-31T10:02:28.000Z</time>
      </trkpt>
      <trkpt lat="45.68137" lon="4.66298">
        <ele>279.39999389648</ele>
        <time>2017-05-31T10:02:35.000Z</time>
      </trkpt>
      <trkpt lat="45.68107" lon="4.66267">
        <ele>279.39999389648</ele>
        <time>2017-05-31T10:02:42.000Z</time>
      </trkpt>
      <trkpt lat="45.68071" lon="4.66224">
        <ele>279.39999389648</ele>
        <time>2017-05-31T10:02:51.000Z</time>
      </trkpt>
      <trkpt lat="45.6804" lon="4.66182">
        <ele>279.39999389648</ele>
        <time>2017-05-31T10:02:59.000Z</time>
      </trkpt>
      <trkpt lat="45.68003" lon="4.66126">
        <ele>279.39999389648</ele>
        <time>2017-05-31T10:03:09.000Z</time>
      </trkpt>
      <trkpt lat="45.67982" lon="4.66093">
        <ele>278.79998779297</ele>
        <time>2017-05-31T10:03:14.000Z</time>
      </trkpt>
      <trkpt lat="45.67977" lon="4.66086">
        <ele>278.39999389648</ele>
        <time>2017-05-31T10:03:15.000Z</time>
      </trkpt>
      <trkpt lat="45.67973" lon="4.66079">
        <ele>278</ele>
        <time>2017-05-31T10:03:16.000Z</time>
      </trkpt>
      <trkpt lat="45.67969" lon="4.66072">
        <ele>277.60000610352</ele>
        <time>2017-05-31T10:03:17.000Z</time>
      </trkpt>
      <trkpt lat="45.67965" lon="4.66064">
        <ele>277.20001220703</ele>
        <time>2017-05-31T10:03:18.000Z</time>
      </trkpt>
      <trkpt lat="45.67944" lon="4.66023">
        <ele>276.79998779297</ele>
        <time>2017-05-31T10:03:23.000Z</time>
      </trkpt>
      <trkpt lat="45.6794" lon="4.66013">
        <ele>276.39999389648</ele>
        <time>2017-05-31T10:03:24.000Z</time>
      </trkpt>
      <trkpt lat="45.67937" lon="4.66004">
        <ele>276</ele>
        <time>2017-05-31T10:03:25.000Z</time>
      </trkpt>
      <trkpt lat="45.67933" lon="4.65995">
        <ele>275.60000610352</ele>
        <time>2017-05-31T10:03:26.000Z</time>
      </trkpt>
      <trkpt lat="45.67931" lon="4.65986">
        <ele>275.20001220703</ele>
        <time>2017-05-31T10:03:27.000Z</time>
      </trkpt>
      <trkpt lat="45.67927" lon="4.65969">
        <ele>275.20001220703</ele>
        <time>2017-05-31T10:03:29.000Z</time>
      </trkpt>
      <trkpt lat="45.67926" lon="4.6596">
        <ele>274.79998779297</ele>
        <time>2017-05-31T10:03:30.000Z</time>
      </trkpt>
      <trkpt lat="45.67925" lon="4.65953">
        <ele>274.39999389648</ele>
        <time>2017-05-31T10:03:31.000Z</time>
      </trkpt>
      <trkpt lat="45.67923" lon="4.65945">
        <ele>273.79998779297</ele>
        <time>2017-05-31T10:03:32.000Z</time>
      </trkpt>
      <trkpt lat="45.67922" lon="4.65938">
        <ele>273.39999389648</ele>
        <time>2017-05-31T10:03:33.000Z</time>
      </trkpt>
      <trkpt lat="45.67921" lon="4.65931">
        <ele>273</ele>
        <time>2017-05-31T10:03:34.000Z</time>
      </trkpt>
      <trkpt lat="45.67918" lon="4.65896">
        <ele>273</ele>
        <time>2017-05-31T10:03:39.000Z</time>
      </trkpt>
      <trkpt lat="45.67913" lon="4.65892">
        <ele>272.60000610352</ele>
        <time>2017-05-31T10:03:40.000Z</time>
      </trkpt>
      <trkpt lat="45.67908" lon="4.65889">
        <ele>272.20001220703</ele>
        <time>2017-05-31T10:03:41.000Z</time>
      </trkpt>
      <trkpt lat="45.67903" lon="4.65889">
        <ele>271.79998779297</ele>
        <time>2017-05-31T10:03:42.000Z</time>
      </trkpt>
      <trkpt lat="45.67898" lon="4.65891">
        <ele>271.39999389648</ele>
        <time>2017-05-31T10:03:43.000Z</time>
      </trkpt>
      <trkpt lat="45.67893" lon="4.65895">
        <ele>271</ele>
        <time>2017-05-31T10:03:44.000Z</time>
      </trkpt>
      <trkpt lat="45.67887" lon="4.65907">
        <ele>271</ele>
        <time>2017-05-31T10:03:46.000Z</time>
      </trkpt>
      <trkpt lat="45.67886" lon="4.65928">
        <ele>271</ele>
        <time>2017-05-31T10:03:49.000Z</time>
      </trkpt>
      <trkpt lat="45.67885" lon="4.65948">
        <ele>271</ele>
        <time>2017-05-31T10:03:52.000Z</time>
      </trkpt>
      <trkpt lat="45.67881" lon="4.65961">
        <ele>271</ele>
        <time>2017-05-31T10:03:54.000Z</time>
      </trkpt>
      <trkpt lat="45.67873" lon="4.65993">
        <ele>271</ele>
        <time>2017-05-31T10:03:58.000Z</time>
      </trkpt>
      <trkpt lat="45.6787" lon="4.66009">
        <ele>271</ele>
        <time>2017-05-31T10:04:00.000Z</time>
      </trkpt>
      <trkpt lat="45.6787" lon="4.66017">
        <ele>271</ele>
        <time>2017-05-31T10:04:01.000Z</time>
      </trkpt>
      <trkpt lat="45.6787" lon="4.6604">
        <ele>271</ele>
        <time>2017-05-31T10:04:04.000Z</time>
      </trkpt>
      <trkpt lat="45.67871" lon="4.66055">
        <ele>270.60000610352</ele>
        <time>2017-05-31T10:04:06.000Z</time>
      </trkpt>
      <trkpt lat="45.67872" lon="4.66063">
        <ele>270.20001220703</ele>
        <time>2017-05-31T10:04:07.000Z</time>
      </trkpt>
      <trkpt lat="45.67873" lon="4.66071">
        <ele>269.79998779297</ele>
        <time>2017-05-31T10:04:08.000Z</time>
      </trkpt>
      <trkpt lat="45.67875" lon="4.66079">
        <ele>269.39999389648</ele>
        <time>2017-05-31T10:04:09.000Z</time>
      </trkpt>
      <trkpt lat="45.67876" lon="4.66087">
        <ele>269</ele>
        <time>2017-05-31T10:04:10.000Z</time>
      </trkpt>
      <trkpt lat="45.67877" lon="4.66095">
        <ele>269</ele>
        <time>2017-05-31T10:04:11.000Z</time>
      </trkpt>
      <trkpt lat="45.67887" lon="4.66164">
        <ele>269</ele>
        <time>2017-05-31T10:04:20.000Z</time>
      </trkpt>
      <trkpt lat="45.67892" lon="4.66212">
        <ele>269</ele>
        <time>2017-05-31T10:04:27.000Z</time>
      </trkpt>
      <trkpt lat="45.67894" lon="4.66231">
        <ele>269.39999389648</ele>
        <time>2017-05-31T10:04:31.000Z</time>
      </trkpt>
      <trkpt lat="45.67895" lon="4.66235">
        <ele>269.79998779297</ele>
        <time>2017-05-31T10:04:32.000Z</time>
      </trkpt>
      <trkpt lat="45.67895" lon="4.6624">
        <ele>270.20001220703</ele>
        <time>2017-05-31T10:04:33.000Z</time>
      </trkpt>
      <trkpt lat="45.67895" lon="4.66244">
        <ele>270.60000610352</ele>
        <time>2017-05-31T10:04:34.000Z</time>
      </trkpt>
      <trkpt lat="45.67895" lon="4.66249">
        <ele>271</ele>
        <time>2017-05-31T10:04:35.000Z</time>
      </trkpt>
      <trkpt lat="45.67896" lon="4.66275">
        <ele>271.39999389648</ele>
        <time>2017-05-31T10:04:41.000Z</time>
      </trkpt>
      <trkpt lat="45.67896" lon="4.6628">
        <ele>271.79998779297</ele>
        <time>2017-05-31T10:04:42.000Z</time>
      </trkpt>
      <trkpt lat="45.67896" lon="4.66284">
        <ele>272.20001220703</ele>
        <time>2017-05-31T10:04:43.000Z</time>
      </trkpt>
      <trkpt lat="45.67896" lon="4.66288">
        <ele>272.60000610352</ele>
        <time>2017-05-31T10:04:44.000Z</time>
      </trkpt>
      <trkpt lat="45.67896" lon="4.66319">
        <ele>273.60000610352</ele>
        <time>2017-05-31T10:04:51.000Z</time>
      </trkpt>
      <trkpt lat="45.67896" lon="4.66324">
        <ele>274</ele>
        <time>2017-05-31T10:04:52.000Z</time>
      </trkpt>
      <trkpt lat="45.67896" lon="4.66328">
        <ele>274.39999389648</ele>
        <time>2017-05-31T10:04:53.000Z</time>
      </trkpt>
      <trkpt lat="45.67896" lon="4.66333">
        <ele>274.79998779297</ele>
        <time>2017-05-31T10:04:54.000Z</time>
      </trkpt>
      <trkpt lat="45.67896" lon="4.66337">
        <ele>275.39999389648</ele>
        <time>2017-05-31T10:04:55.000Z</time>
      </trkpt>
      <trkpt lat="45.67894" lon="4.66358">
        <ele>275.39999389648</ele>
        <time>2017-05-31T10:05:00.000Z</time>
      </trkpt>
      <trkpt lat="45.67893" lon="4.66379">
        <ele>275.79998779297</ele>
        <time>2017-05-31T10:05:05.000Z</time>
      </trkpt>
      <trkpt lat="45.67892" lon="4.66383">
        <ele>276.20001220703</ele>
        <time>2017-05-31T10:05:06.000Z</time>
      </trkpt>
      <trkpt lat="45.67892" lon="4.66387">
        <ele>276.79998779297</ele>
        <time>2017-05-31T10:05:07.000Z</time>
      </trkpt>
      <trkpt lat="45.67892" lon="4.66391">
        <ele>277.20001220703</ele>
        <time>2017-05-31T10:05:08.000Z</time>
      </trkpt>
      <trkpt lat="45.67891" lon="4.66395">
        <ele>277.79998779297</ele>
        <time>2017-05-31T10:05:09.000Z</time>
      </trkpt>
      <trkpt lat="45.6789" lon="4.66407">
        <ele>277.79998779297</ele>
        <time>2017-05-31T10:05:12.000Z</time>
      </trkpt>
      <trkpt lat="45.67887" lon="4.6643">
        <ele>278.20001220703</ele>
        <time>2017-05-31T10:05:18.000Z</time>
      </trkpt>
      <trkpt lat="45.67887" lon="4.66434">
        <ele>278.60000610352</ele>
        <time>2017-05-31T10:05:19.000Z</time>
      </trkpt>
      <trkpt lat="45.67886" lon="4.66438">
        <ele>279</ele>
        <time>2017-05-31T10:05:20.000Z</time>
      </trkpt>
      <trkpt lat="45.67886" lon="4.66442">
        <ele>279.39999389648</ele>
        <time>2017-05-31T10:05:21.000Z</time>
      </trkpt>
      <trkpt lat="45.67886" lon="4.66446">
        <ele>279.79998779297</ele>
        <time>2017-05-31T10:05:22.000Z</time>
      </trkpt>
      <trkpt lat="45.67884" lon="4.66458">
        <ele>279.79998779297</ele>
        <time>2017-05-31T10:05:25.000Z</time>
      </trkpt>
      <trkpt lat="45.67877" lon="4.66499">
        <ele>280.20001220703</ele>
        <time>2017-05-31T10:05:35.000Z</time>
      </trkpt>
      <trkpt lat="45.67876" lon="4.66503">
        <ele>280.60000610352</ele>
        <time>2017-05-31T10:05:36.000Z</time>
      </trkpt>
      <trkpt lat="45.67876" lon="4.66506">
        <ele>281.20001220703</ele>
        <time>2017-05-31T10:05:37.000Z</time>
      </trkpt>
      <trkpt lat="45.67875" lon="4.66511">
        <ele>281.60000610352</ele>
        <time>2017-05-31T10:05:38.000Z</time>
      </trkpt>
      <trkpt lat="45.67874" lon="4.66515">
        <ele>282</ele>
        <time>2017-05-31T10:05:39.000Z</time>
      </trkpt>
      <trkpt lat="45.6787" lon="4.66547">
        <ele>282</ele>
        <time>2017-05-31T10:05:47.000Z</time>
      </trkpt>
      <trkpt lat="45.67861" lon="4.6658">
        <ele>282</ele>
        <time>2017-05-31T10:05:55.000Z</time>
      </trkpt>
      <trkpt lat="45.67857" lon="4.6659">
        <ele>282.39999389648</ele>
        <time>2017-05-31T10:05:57.000Z</time>
      </trkpt>
      <trkpt lat="45.67855" lon="4.66595">
        <ele>282.79998779297</ele>
        <time>2017-05-31T10:05:58.000Z</time>
      </trkpt>
      <trkpt lat="45.67853" lon="4.666">
        <ele>283.20001220703</ele>
        <time>2017-05-31T10:05:59.000Z</time>
      </trkpt>
      <trkpt lat="45.67851" lon="4.66605">
        <ele>283.60000610352</ele>
        <time>2017-05-31T10:06:00.000Z</time>
      </trkpt>
      <trkpt lat="45.67848" lon="4.66609">
        <ele>284</ele>
        <time>2017-05-31T10:06:01.000Z</time>
      </trkpt>
      <trkpt lat="45.67842" lon="4.66624">
        <ele>284</ele>
        <time>2017-05-31T10:06:04.000Z</time>
      </trkpt>
      <trkpt lat="45.67817" lon="4.66686">
        <ele>284</ele>
        <time>2017-05-31T10:06:16.000Z</time>
      </trkpt>
      <trkpt lat="45.67813" lon="4.66698">
        <ele>284</ele>
        <time>2017-05-31T10:06:18.000Z</time>
      </trkpt>
      <trkpt lat="45.67808" lon="4.66721">
        <ele>284.39999389648</ele>
        <time>2017-05-31T10:06:22.000Z</time>
      </trkpt>
      <trkpt lat="45.67807" lon="4.66727">
        <ele>284.79998779297</ele>
        <time>2017-05-31T10:06:23.000Z</time>
      </trkpt>
      <trkpt lat="45.67806" lon="4.66732">
        <ele>285.39999389648</ele>
        <time>2017-05-31T10:06:24.000Z</time>
      </trkpt>
      <trkpt lat="45.67805" lon="4.66737">
        <ele>285.79998779297</ele>
        <time>2017-05-31T10:06:25.000Z</time>
      </trkpt>
      <trkpt lat="45.67804" lon="4.66743">
        <ele>286.20001220703</ele>
        <time>2017-05-31T10:06:26.000Z</time>
      </trkpt>
      <trkpt lat="45.67801" lon="4.66779">
        <ele>286.20001220703</ele>
        <time>2017-05-31T10:06:33.000Z</time>
      </trkpt>
      <trkpt lat="45.67803" lon="4.66825">
        <ele>286.60000610352</ele>
        <time>2017-05-31T10:06:41.000Z</time>
      </trkpt>
      <trkpt lat="45.67803" lon="4.66832">
        <ele>287</ele>
        <time>2017-05-31T10:06:42.000Z</time>
      </trkpt>
      <trkpt lat="45.67804" lon="4.66839">
        <ele>287.39999389648</ele>
        <time>2017-05-31T10:06:43.000Z</time>
      </trkpt>
      <trkpt lat="45.67804" lon="4.66845">
        <ele>287.79998779297</ele>
        <time>2017-05-31T10:06:44.000Z</time>
      </trkpt>
      <trkpt lat="45.67803" lon="4.66851">
        <ele>288.20001220703</ele>
        <time>2017-05-31T10:06:45.000Z</time>
      </trkpt>
      <trkpt lat="45.67804" lon="4.66872">
        <ele>288.20001220703</ele>
        <time>2017-05-31T10:06:49.000Z</time>
      </trkpt>
      <trkpt lat="45.67806" lon="4.66901">
        <ele>288.60000610352</ele>
        <time>2017-05-31T10:06:54.000Z</time>
      </trkpt>
      <trkpt lat="45.67806" lon="4.66906">
        <ele>289.20001220703</ele>
        <time>2017-05-31T10:06:55.000Z</time>
      </trkpt>
      <trkpt lat="45.67806" lon="4.66912">
        <ele>289.60000610352</ele>
        <time>2017-05-31T10:06:56.000Z</time>
      </trkpt>
      <trkpt lat="45.67806" lon="4.66917">
        <ele>290</ele>
        <time>2017-05-31T10:06:57.000Z</time>
      </trkpt>
      <trkpt lat="45.67806" lon="4.66922">
        <ele>290.39999389648</ele>
        <time>2017-05-31T10:06:58.000Z</time>
      </trkpt>
      <trkpt lat="45.67801" lon="4.66996">
        <ele>290.79998779297</ele>
        <time>2017-05-31T10:07:12.000Z</time>
      </trkpt>
      <trkpt lat="45.67801" lon="4.67001">
        <ele>291.20001220703</ele>
        <time>2017-05-31T10:07:13.000Z</time>
      </trkpt>
      <trkpt lat="45.678" lon="4.67006">
        <ele>291.60000610352</ele>
        <time>2017-05-31T10:07:14.000Z</time>
      </trkpt>
      <trkpt lat="45.67799" lon="4.67011">
        <ele>292</ele>
        <time>2017-05-31T10:07:15.000Z</time>
      </trkpt>
      <trkpt lat="45.67799" lon="4.67017">
        <ele>292.39999389648</ele>
        <time>2017-05-31T10:07:16.000Z</time>
      </trkpt>
      <trkpt lat="45.67791" lon="4.67084">
        <ele>292.39999389648</ele>
        <time>2017-05-31T10:07:29.000Z</time>
      </trkpt>
      <trkpt lat="45.67788" lon="4.6711">
        <ele>292.79998779297</ele>
        <time>2017-05-31T10:07:34.000Z</time>
      </trkpt>
      <trkpt lat="45.67788" lon="4.67114">
        <ele>293.20001220703</ele>
        <time>2017-05-31T10:07:35.000Z</time>
      </trkpt>
      <trkpt lat="45.67787" lon="4.67119">
        <ele>293.60000610352</ele>
        <time>2017-05-31T10:07:36.000Z</time>
      </trkpt>
      <trkpt lat="45.67786" lon="4.67124">
        <ele>294</ele>
        <time>2017-05-31T10:07:37.000Z</time>
      </trkpt>
      <trkpt lat="45.67786" lon="4.67129">
        <ele>294.39999389648</ele>
        <time>2017-05-31T10:07:38.000Z</time>
      </trkpt>
      <trkpt lat="45.67784" lon="4.67143">
        <ele>294.39999389648</ele>
        <time>2017-05-31T10:07:41.000Z</time>
      </trkpt>
      <trkpt lat="45.67781" lon="4.67179">
        <ele>294.39999389648</ele>
        <time>2017-05-31T10:07:49.000Z</time>
      </trkpt>
      <trkpt lat="45.67779" lon="4.67223">
        <ele>294.39999389648</ele>
        <time>2017-05-31T10:07:59.000Z</time>
      </trkpt>
      <trkpt lat="45.67779" lon="4.67237">
        <ele>295</ele>
        <time>2017-05-31T10:08:02.000Z</time>
      </trkpt>
      <trkpt lat="45.67779" lon="4.67241">
        <ele>295.39999389648</ele>
        <time>2017-05-31T10:08:03.000Z</time>
      </trkpt>
      <trkpt lat="45.6778" lon="4.67246">
        <ele>295.79998779297</ele>
        <time>2017-05-31T10:08:04.000Z</time>
      </trkpt>
      <trkpt lat="45.6778" lon="4.67251">
        <ele>296.20001220703</ele>
        <time>2017-05-31T10:08:05.000Z</time>
      </trkpt>
      <trkpt lat="45.67781" lon="4.67255">
        <ele>296.79998779297</ele>
        <time>2017-05-31T10:08:06.000Z</time>
      </trkpt>
      <trkpt lat="45.67783" lon="4.67279">
        <ele>296.79998779297</ele>
        <time>2017-05-31T10:08:11.000Z</time>
      </trkpt>
      <trkpt lat="45.67788" lon="4.67338">
        <ele>296.79998779297</ele>
        <time>2017-05-31T10:08:23.000Z</time>
      </trkpt>
      <trkpt lat="45.67788" lon="4.67377">
        <ele>297.20001220703</ele>
        <time>2017-05-31T10:08:31.000Z</time>
      </trkpt>
      <trkpt lat="45.67788" lon="4.67382">
        <ele>297.60000610352</ele>
        <time>2017-05-31T10:08:32.000Z</time>
      </trkpt>
      <trkpt lat="45.67788" lon="4.67386">
        <ele>298</ele>
        <time>2017-05-31T10:08:33.000Z</time>
      </trkpt>
      <trkpt lat="45.67787" lon="4.67391">
        <ele>298.39999389648</ele>
        <time>2017-05-31T10:08:34.000Z</time>
      </trkpt>
      <trkpt lat="45.67787" lon="4.67396">
        <ele>298.79998779297</ele>
        <time>2017-05-31T10:08:35.000Z</time>
      </trkpt>
      <trkpt lat="45.67787" lon="4.67416">
        <ele>298.79998779297</ele>
        <time>2017-05-31T10:08:39.000Z</time>
      </trkpt>
      <trkpt lat="45.67787" lon="4.6747">
        <ele>298.79998779297</ele>
        <time>2017-05-31T10:08:50.000Z</time>
      </trkpt>
      <trkpt lat="45.67786" lon="4.67526">
        <ele>298.79998779297</ele>
        <time>2017-05-31T10:09:01.000Z</time>
      </trkpt>
      <trkpt lat="45.67786" lon="4.67569">
        <ele>298.79998779297</ele>
        <time>2017-05-31T10:09:10.000Z</time>
      </trkpt>
      <trkpt lat="45.67784" lon="4.67588">
        <ele>299.20001220703</ele>
        <time>2017-05-31T10:09:14.000Z</time>
      </trkpt>
      <trkpt lat="45.67784" lon="4.67592">
        <ele>299.60000610352</ele>
        <time>2017-05-31T10:09:15.000Z</time>
      </trkpt>
      <trkpt lat="45.67783" lon="4.67597">
        <ele>300</ele>
        <time>2017-05-31T10:09:16.000Z</time>
      </trkpt>
      <trkpt lat="45.67783" lon="4.67602">
        <ele>300.39999389648</ele>
        <time>2017-05-31T10:09:17.000Z</time>
      </trkpt>
      <trkpt lat="45.67782" lon="4.67606">
        <ele>301</ele>
        <time>2017-05-31T10:09:18.000Z</time>
      </trkpt>
      <trkpt lat="45.67779" lon="4.67636">
        <ele>301</ele>
        <time>2017-05-31T10:09:25.000Z</time>
      </trkpt>
      <trkpt lat="45.67776" lon="4.67665">
        <ele>301.39999389648</ele>
        <time>2017-05-31T10:09:33.000Z</time>
      </trkpt>
      <trkpt lat="45.67776" lon="4.67669">
        <ele>301.79998779297</ele>
        <time>2017-05-31T10:09:34.000Z</time>
      </trkpt>
      <trkpt lat="45.67776" lon="4.67672">
        <ele>302.20001220703</ele>
        <time>2017-05-31T10:09:35.000Z</time>
      </trkpt>
      <trkpt lat="45.67776" lon="4.67676">
        <ele>302.60000610352</ele>
        <time>2017-05-31T10:09:36.000Z</time>
      </trkpt>
      <trkpt lat="45.67776" lon="4.67679">
        <ele>303</ele>
        <time>2017-05-31T10:09:37.000Z</time>
      </trkpt>
      <trkpt lat="45.67776" lon="4.67683">
        <ele>303</ele>
        <time>2017-05-31T10:09:38.000Z</time>
      </trkpt>
      <trkpt lat="45.67776" lon="4.67713">
        <ele>303</ele>
        <time>2017-05-31T10:09:46.000Z</time>
      </trkpt>
      <trkpt lat="45.67777" lon="4.67725">
        <ele>303.39999389648</ele>
        <time>2017-05-31T10:09:49.000Z</time>
      </trkpt>
      <trkpt lat="45.67777" lon="4.67729">
        <ele>303.79998779297</ele>
        <time>2017-05-31T10:09:50.000Z</time>
      </trkpt>
      <trkpt lat="45.67777" lon="4.67733">
        <ele>304.20001220703</ele>
        <time>2017-05-31T10:09:51.000Z</time>
      </trkpt>
      <trkpt lat="45.67778" lon="4.67738">
        <ele>304.60000610352</ele>
        <time>2017-05-31T10:09:52.000Z</time>
      </trkpt>
      <trkpt lat="45.67779" lon="4.67743">
        <ele>305</ele>
        <time>2017-05-31T10:09:53.000Z</time>
      </trkpt>
      <trkpt lat="45.67782" lon="4.67765">
        <ele>305.39999389648</ele>
        <time>2017-05-31T10:09:57.000Z</time>
      </trkpt>
      <trkpt lat="45.67783" lon="4.6777">
        <ele>305.79998779297</ele>
        <time>2017-05-31T10:09:58.000Z</time>
      </trkpt>
      <trkpt lat="45.67784" lon="4.67775">
        <ele>306.20001220703</ele>
        <time>2017-05-31T10:09:59.000Z</time>
      </trkpt>
      <trkpt lat="45.67785" lon="4.6778">
        <ele>306.60000610352</ele>
        <time>2017-05-31T10:10:00.000Z</time>
      </trkpt>
      <trkpt lat="45.67786" lon="4.67785">
        <ele>307</ele>
        <time>2017-05-31T10:10:01.000Z</time>
      </trkpt>
      <trkpt lat="45.67793" lon="4.67813">
        <ele>307</ele>
        <time>2017-05-31T10:10:07.000Z</time>
      </trkpt>
      <trkpt lat="45.67797" lon="4.67825">
        <ele>307.60000610352</ele>
        <time>2017-05-31T10:10:10.000Z</time>
      </trkpt>
      <trkpt lat="45.67798" lon="4.6783">
        <ele>308</ele>
        <time>2017-05-31T10:10:11.000Z</time>
      </trkpt>
      <trkpt lat="45.678" lon="4.67834">
        <ele>308.60000610352</ele>
        <time>2017-05-31T10:10:12.000Z</time>
      </trkpt>
      <trkpt lat="45.67801" lon="4.67838">
        <ele>309</ele>
        <time>2017-05-31T10:10:13.000Z</time>
      </trkpt>
      <trkpt lat="45.67803" lon="4.67842">
        <ele>309.60000610352</ele>
        <time>2017-05-31T10:10:14.000Z</time>
      </trkpt>
      <trkpt lat="45.67807" lon="4.67855">
        <ele>309.60000610352</ele>
        <time>2017-05-31T10:10:17.000Z</time>
      </trkpt>
      <trkpt lat="45.67816" lon="4.67881">
        <ele>310</ele>
        <time>2017-05-31T10:10:23.000Z</time>
      </trkpt>
      <trkpt lat="45.67817" lon="4.67886">
        <ele>310.39999389648</ele>
        <time>2017-05-31T10:10:24.000Z</time>
      </trkpt>
      <trkpt lat="45.67819" lon="4.6789">
        <ele>310.79998779297</ele>
        <time>2017-05-31T10:10:25.000Z</time>
      </trkpt>
      <trkpt lat="45.6782" lon="4.67895">
        <ele>311.20001220703</ele>
        <time>2017-05-31T10:10:26.000Z</time>
      </trkpt>
      <trkpt lat="45.67821" lon="4.67899">
        <ele>311.60000610352</ele>
        <time>2017-05-31T10:10:27.000Z</time>
      </trkpt>
      <trkpt lat="45.67829" lon="4.67944">
        <ele>311.60000610352</ele>
        <time>2017-05-31T10:10:36.000Z</time>
      </trkpt>
      <trkpt lat="45.6783" lon="4.67985">
        <ele>311.60000610352</ele>
        <time>2017-05-31T10:10:43.000Z</time>
      </trkpt>
      <trkpt lat="45.67829" lon="4.68041">
        <ele>311.60000610352</ele>
        <time>2017-05-31T10:10:51.000Z</time>
      </trkpt>
      <trkpt lat="45.67825" lon="4.68109">
        <ele>311.60000610352</ele>
        <time>2017-05-31T10:10:59.000Z</time>
      </trkpt>
      <trkpt lat="45.67822" lon="4.68173">
        <ele>311.20001220703</ele>
        <time>2017-05-31T10:11:05.000Z</time>
      </trkpt>
      <trkpt lat="45.67821" lon="4.68185">
        <ele>310.79998779297</ele>
        <time>2017-05-31T10:11:06.000Z</time>
      </trkpt>
      <trkpt lat="45.6782" lon="4.68197">
        <ele>310.20001220703</ele>
        <time>2017-05-31T10:11:07.000Z</time>
      </trkpt>
      <trkpt lat="45.6782" lon="4.68209">
        <ele>309.79998779297</ele>
        <time>2017-05-31T10:11:08.000Z</time>
      </trkpt>
      <trkpt lat="45.67819" lon="4.68221">
        <ele>309.39999389648</ele>
        <time>2017-05-31T10:11:09.000Z</time>
      </trkpt>
      <trkpt lat="45.67815" lon="4.6828">
        <ele>309</ele>
        <time>2017-05-31T10:11:14.000Z</time>
      </trkpt>
      <trkpt lat="45.67815" lon="4.68291">
        <ele>308.60000610352</ele>
        <time>2017-05-31T10:11:15.000Z</time>
      </trkpt>
      <trkpt lat="45.67814" lon="4.68303">
        <ele>308.20001220703</ele>
        <time>2017-05-31T10:11:16.000Z</time>
      </trkpt>
      <trkpt lat="45.67814" lon="4.68315">
        <ele>307.79998779297</ele>
        <time>2017-05-31T10:11:17.000Z</time>
      </trkpt>
      <trkpt lat="45.67813" lon="4.68326">
        <ele>307.39999389648</ele>
        <time>2017-05-31T10:11:18.000Z</time>
      </trkpt>
      <trkpt lat="45.67811" lon="4.6836">
        <ele>307</ele>
        <time>2017-05-31T10:11:21.000Z</time>
      </trkpt>
      <trkpt lat="45.6781" lon="4.68371">
        <ele>306.60000610352</ele>
        <time>2017-05-31T10:11:22.000Z</time>
      </trkpt>
      <trkpt lat="45.67809" lon="4.68382">
        <ele>306.20001220703</ele>
        <time>2017-05-31T10:11:23.000Z</time>
      </trkpt>
      <trkpt lat="45.67809" lon="4.68393">
        <ele>305.79998779297</ele>
        <time>2017-05-31T10:11:24.000Z</time>
      </trkpt>
      <trkpt lat="45.67808" lon="4.68405">
        <ele>305.20001220703</ele>
        <time>2017-05-31T10:11:25.000Z</time>
      </trkpt>
      <trkpt lat="45.67804" lon="4.68459">
        <ele>305.20001220703</ele>
        <time>2017-05-31T10:11:30.000Z</time>
      </trkpt>
      <trkpt lat="45.67799" lon="4.6854">
        <ele>305.20001220703</ele>
        <time>2017-05-31T10:11:38.000Z</time>
      </trkpt>
      <trkpt lat="45.67797" lon="4.68558">
        <ele>305.20001220703</ele>
        <time>2017-05-31T10:11:40.000Z</time>
      </trkpt>
      <trkpt lat="45.67796" lon="4.68627">
        <ele>305.20001220703</ele>
        <time>2017-05-31T10:11:48.000Z</time>
      </trkpt>
      <trkpt lat="45.67797" lon="4.68635">
        <ele>305.20001220703</ele>
        <time>2017-05-31T10:11:49.000Z</time>
      </trkpt>
      <trkpt lat="45.678" lon="4.68673">
        <ele>305.79998779297</ele>
        <time>2017-05-31T10:11:54.000Z</time>
      </trkpt>
      <trkpt lat="45.67801" lon="4.68681">
        <ele>306.20001220703</ele>
        <time>2017-05-31T10:11:55.000Z</time>
      </trkpt>
      <trkpt lat="45.67802" lon="4.68688">
        <ele>306.60000610352</ele>
        <time>2017-05-31T10:11:56.000Z</time>
      </trkpt>
      <trkpt lat="45.67803" lon="4.68695">
        <ele>307</ele>
        <time>2017-05-31T10:11:57.000Z</time>
      </trkpt>
      <trkpt lat="45.67805" lon="4.68703">
        <ele>307.39999389648</ele>
        <time>2017-05-31T10:11:58.000Z</time>
      </trkpt>
      <trkpt lat="45.67815" lon="4.6876">
        <ele>307.39999389648</ele>
        <time>2017-05-31T10:12:06.000Z</time>
      </trkpt>
      <trkpt lat="45.67821" lon="4.68794">
        <ele>307.79998779297</ele>
        <time>2017-05-31T10:12:11.000Z</time>
      </trkpt>
      <trkpt lat="45.67822" lon="4.68801">
        <ele>308.20001220703</ele>
        <time>2017-05-31T10:12:12.000Z</time>
      </trkpt>
      <trkpt lat="45.67823" lon="4.68808">
        <ele>308.60000610352</ele>
        <time>2017-05-31T10:12:13.000Z</time>
      </trkpt>
      <trkpt lat="45.67824" lon="4.68816">
        <ele>309</ele>
        <time>2017-05-31T10:12:14.000Z</time>
      </trkpt>
      <trkpt lat="45.67824" lon="4.68823">
        <ele>309.39999389648</ele>
        <time>2017-05-31T10:12:15.000Z</time>
      </trkpt>
      <trkpt lat="45.67825" lon="4.68837">
        <ele>309.39999389648</ele>
        <time>2017-05-31T10:12:17.000Z</time>
      </trkpt>
      <trkpt lat="45.67827" lon="4.68902">
        <ele>309.79998779297</ele>
        <time>2017-05-31T10:12:27.000Z</time>
      </trkpt>
      <trkpt lat="45.67827" lon="4.68908">
        <ele>310.20001220703</ele>
        <time>2017-05-31T10:12:28.000Z</time>
      </trkpt>
      <trkpt lat="45.67827" lon="4.68914">
        <ele>310.60000610352</ele>
        <time>2017-05-31T10:12:29.000Z</time>
      </trkpt>
      <trkpt lat="45.67827" lon="4.6892">
        <ele>311.20001220703</ele>
        <time>2017-05-31T10:12:30.000Z</time>
      </trkpt>
      <trkpt lat="45.67827" lon="4.68926">
        <ele>311.60000610352</ele>
        <time>2017-05-31T10:12:31.000Z</time>
      </trkpt>
      <trkpt lat="45.67828" lon="4.68981">
        <ele>311.60000610352</ele>
        <time>2017-05-31T10:12:40.000Z</time>
      </trkpt>
      <trkpt lat="45.67819" lon="4.69049">
        <ele>312</ele>
        <time>2017-05-31T10:12:51.000Z</time>
      </trkpt>
      <trkpt lat="45.67818" lon="4.69056">
        <ele>312.39999389648</ele>
        <time>2017-05-31T10:12:52.000Z</time>
      </trkpt>
      <trkpt lat="45.67817" lon="4.69063">
        <ele>312.79998779297</ele>
        <time>2017-05-31T10:12:53.000Z</time>
      </trkpt>
      <trkpt lat="45.67816" lon="4.69069">
        <ele>313.20001220703</ele>
        <time>2017-05-31T10:12:54.000Z</time>
      </trkpt>
      <trkpt lat="45.67815" lon="4.69076">
        <ele>313.60000610352</ele>
        <time>2017-05-31T10:12:55.000Z</time>
      </trkpt>
      <trkpt lat="45.67808" lon="4.69119">
        <ele>313.60000610352</ele>
        <time>2017-05-31T10:13:02.000Z</time>
      </trkpt>
      <trkpt lat="45.67804" lon="4.69137">
        <ele>313.60000610352</ele>
        <time>2017-05-31T10:13:05.000Z</time>
      </trkpt>
      <trkpt lat="45.67795" lon="4.69172">
        <ele>313.60000610352</ele>
        <time>2017-05-31T10:13:11.000Z</time>
      </trkpt>
      <trkpt lat="45.67786" lon="4.69215">
        <ele>314</ele>
        <time>2017-05-31T10:13:19.000Z</time>
      </trkpt>
      <trkpt lat="45.67784" lon="4.69221">
        <ele>314.39999389648</ele>
        <time>2017-05-31T10:13:20.000Z</time>
      </trkpt>
      <trkpt lat="45.67783" lon="4.69225">
        <ele>314.79998779297</ele>
        <time>2017-05-31T10:13:21.000Z</time>
      </trkpt>
      <trkpt lat="45.67782" lon="4.6923">
        <ele>315.20001220703</ele>
        <time>2017-05-31T10:13:22.000Z</time>
      </trkpt>
      <trkpt lat="45.67781" lon="4.69235">
        <ele>315.60000610352</ele>
        <time>2017-05-31T10:13:23.000Z</time>
      </trkpt>
      <trkpt lat="45.67772" lon="4.69265">
        <ele>315.60000610352</ele>
        <time>2017-05-31T10:13:30.000Z</time>
      </trkpt>
      <trkpt lat="45.67768" lon="4.69278">
        <ele>316</ele>
        <time>2017-05-31T10:13:33.000Z</time>
      </trkpt>
      <trkpt lat="45.67766" lon="4.69281">
        <ele>316.39999389648</ele>
        <time>2017-05-31T10:13:34.000Z</time>
      </trkpt>
      <trkpt lat="45.67764" lon="4.69285">
        <ele>316.79998779297</ele>
        <time>2017-05-31T10:13:35.000Z</time>
      </trkpt>
      <trkpt lat="45.67762" lon="4.69288">
        <ele>317.20001220703</ele>
        <time>2017-05-31T10:13:36.000Z</time>
      </trkpt>
      <trkpt lat="45.6776" lon="4.69291">
        <ele>317.60000610352</ele>
        <time>2017-05-31T10:13:37.000Z</time>
      </trkpt>
      <trkpt lat="45.67757" lon="4.69292">
        <ele>317.60000610352</ele>
        <time>2017-05-31T10:13:38.000Z</time>
      </trkpt>
      <trkpt lat="45.67742" lon="4.69302">
        <ele>317.60000610352</ele>
        <time>2017-05-31T10:13:44.000Z</time>
      </trkpt>
      <trkpt lat="45.67741" lon="4.69304">
        <ele>317.60000610352</ele>
        <time>2017-05-31T10:13:45.000Z</time>
      </trkpt>
      <trkpt lat="45.6774" lon="4.69304">
        <ele>317.60000610352</ele>
        <time>2017-05-31T10:13:47.000Z</time>
      </trkpt>
      <trkpt lat="45.67737" lon="4.69311">
        <ele>317.60000610352</ele>
        <time>2017-05-31T10:17:34.000Z</time>
      </trkpt>
      <trkpt lat="45.67735" lon="4.69328">
        <ele>317.60000610352</ele>
        <time>2017-05-31T10:17:39.000Z</time>
      </trkpt>
      <trkpt lat="45.67723" lon="4.69351">
        <ele>317.60000610352</ele>
        <time>2017-05-31T10:17:45.000Z</time>
      </trkpt>
      <trkpt lat="45.67703" lon="4.6938">
        <ele>317.60000610352</ele>
        <time>2017-05-31T10:17:52.000Z</time>
      </trkpt>
      <trkpt lat="45.67671" lon="4.69409">
        <ele>317.60000610352</ele>
        <time>2017-05-31T10:18:00.000Z</time>
      </trkpt>
      <trkpt lat="45.67649" lon="4.6943">
        <ele>317.20001220703</ele>
        <time>2017-05-31T10:18:05.000Z</time>
      </trkpt>
      <trkpt lat="45.67645" lon="4.69434">
        <ele>316.79998779297</ele>
        <time>2017-05-31T10:18:06.000Z</time>
      </trkpt>
      <trkpt lat="45.6764" lon="4.69439">
        <ele>316.39999389648</ele>
        <time>2017-05-31T10:18:07.000Z</time>
      </trkpt>
      <trkpt lat="45.67635" lon="4.69443">
        <ele>316</ele>
        <time>2017-05-31T10:18:08.000Z</time>
      </trkpt>
      <trkpt lat="45.67631" lon="4.69447">
        <ele>315.60000610352</ele>
        <time>2017-05-31T10:18:09.000Z</time>
      </trkpt>
      <trkpt lat="45.67622" lon="4.69456">
        <ele>315.60000610352</ele>
        <time>2017-05-31T10:18:11.000Z</time>
      </trkpt>
      <trkpt lat="45.67592" lon="4.69496">
        <ele>315.60000610352</ele>
        <time>2017-05-31T10:18:18.000Z</time>
      </trkpt>
      <trkpt lat="45.67588" lon="4.69503">
        <ele>315.20001220703</ele>
        <time>2017-05-31T10:18:19.000Z</time>
      </trkpt>
      <trkpt lat="45.67584" lon="4.6951">
        <ele>314.79998779297</ele>
        <time>2017-05-31T10:18:20.000Z</time>
      </trkpt>
      <trkpt lat="45.6758" lon="4.69518">
        <ele>314.39999389648</ele>
        <time>2017-05-31T10:18:21.000Z</time>
      </trkpt>
      <trkpt lat="45.67576" lon="4.69526">
        <ele>314</ele>
        <time>2017-05-31T10:18:22.000Z</time>
      </trkpt>
      <trkpt lat="45.67573" lon="4.69535">
        <ele>313.60000610352</ele>
        <time>2017-05-31T10:18:23.000Z</time>
      </trkpt>
      <trkpt lat="45.67569" lon="4.69543">
        <ele>313.60000610352</ele>
        <time>2017-05-31T10:18:24.000Z</time>
      </trkpt>
      <trkpt lat="45.67553" lon="4.6959">
        <ele>313.20001220703</ele>
        <time>2017-05-31T10:18:29.000Z</time>
      </trkpt>
      <trkpt lat="45.67551" lon="4.69599">
        <ele>312.79998779297</ele>
        <time>2017-05-31T10:18:30.000Z</time>
      </trkpt>
      <trkpt lat="45.67548" lon="4.69607">
        <ele>312.20001220703</ele>
        <time>2017-05-31T10:18:31.000Z</time>
      </trkpt>
      <trkpt lat="45.67544" lon="4.69614">
        <ele>311.79998779297</ele>
        <time>2017-05-31T10:18:32.000Z</time>
      </trkpt>
      <trkpt lat="45.67541" lon="4.69621">
        <ele>311.39999389648</ele>
        <time>2017-05-31T10:18:33.000Z</time>
      </trkpt>
      <trkpt lat="45.67537" lon="4.69627">
        <ele>311.39999389648</ele>
        <time>2017-05-31T10:18:34.000Z</time>
      </trkpt>
      <trkpt lat="45.67529" lon="4.6964">
        <ele>311.39999389648</ele>
        <time>2017-05-31T10:18:36.000Z</time>
      </trkpt>
      <trkpt lat="45.67521" lon="4.69658">
        <ele>311</ele>
        <time>2017-05-31T10:18:38.000Z</time>
      </trkpt>
      <trkpt lat="45.67518" lon="4.69667">
        <ele>310.60000610352</ele>
        <time>2017-05-31T10:18:39.000Z</time>
      </trkpt>
      <trkpt lat="45.67514" lon="4.69677">
        <ele>310.20001220703</ele>
        <time>2017-05-31T10:18:40.000Z</time>
      </trkpt>
      <trkpt lat="45.6751" lon="4.69686">
        <ele>309.79998779297</ele>
        <time>2017-05-31T10:18:41.000Z</time>
      </trkpt>
      <trkpt lat="45.67508" lon="4.69695">
        <ele>309.20001220703</ele>
        <time>2017-05-31T10:18:42.000Z</time>
      </trkpt>
      <trkpt lat="45.67505" lon="4.69706">
        <ele>308.79998779297</ele>
        <time>2017-05-31T10:18:43.000Z</time>
      </trkpt>
      <trkpt lat="45.67503" lon="4.69717">
        <ele>308.20001220703</ele>
        <time>2017-05-31T10:18:44.000Z</time>
      </trkpt>
      <trkpt lat="45.67501" lon="4.69728">
        <ele>307.60000610352</ele>
        <time>2017-05-31T10:18:45.000Z</time>
      </trkpt>
      <trkpt lat="45.67498" lon="4.69738">
        <ele>307</ele>
        <time>2017-05-31T10:18:46.000Z</time>
      </trkpt>
      <trkpt lat="45.67495" lon="4.69748">
        <ele>306.39999389648</ele>
        <time>2017-05-31T10:18:47.000Z</time>
      </trkpt>
      <trkpt lat="45.67491" lon="4.69758">
        <ele>305.79998779297</ele>
        <time>2017-05-31T10:18:48.000Z</time>
      </trkpt>
      <trkpt lat="45.67486" lon="4.69769">
        <ele>305.20001220703</ele>
        <time>2017-05-31T10:18:49.000Z</time>
      </trkpt>
      <trkpt lat="45.67482" lon="4.6978">
        <ele>304.60000610352</ele>
        <time>2017-05-31T10:18:50.000Z</time>
      </trkpt>
      <trkpt lat="45.67478" lon="4.69791">
        <ele>304</ele>
        <time>2017-05-31T10:18:51.000Z</time>
      </trkpt>
      <trkpt lat="45.67474" lon="4.69802">
        <ele>303.39999389648</ele>
        <time>2017-05-31T10:18:52.000Z</time>
      </trkpt>
      <trkpt lat="45.6747" lon="4.69812">
        <ele>302.79998779297</ele>
        <time>2017-05-31T10:18:53.000Z</time>
      </trkpt>
      <trkpt lat="45.67467" lon="4.69822">
        <ele>302.20001220703</ele>
        <time>2017-05-31T10:18:54.000Z</time>
      </trkpt>
      <trkpt lat="45.67464" lon="4.6983">
        <ele>302.20001220703</ele>
        <time>2017-05-31T10:18:55.000Z</time>
      </trkpt>
      <trkpt lat="45.67462" lon="4.69836">
        <ele>301</ele>
        <time>2017-05-31T10:18:56.000Z</time>
      </trkpt>
      <trkpt lat="45.67458" lon="4.69844">
        <ele>300.39999389648</ele>
        <time>2017-05-31T10:18:58.000Z</time>
      </trkpt>
      <trkpt lat="45.67456" lon="4.69847">
        <ele>299.79998779297</ele>
        <time>2017-05-31T10:18:59.000Z</time>
      </trkpt>
      <trkpt lat="45.67454" lon="4.6985">
        <ele>299.39999389648</ele>
        <time>2017-05-31T10:19:00.000Z</time>
      </trkpt>
      <trkpt lat="45.67452" lon="4.69854">
        <ele>298.79998779297</ele>
        <time>2017-05-31T10:19:01.000Z</time>
      </trkpt>
      <trkpt lat="45.67449" lon="4.69858">
        <ele>298.20001220703</ele>
        <time>2017-05-31T10:19:02.000Z</time>
      </trkpt>
      <trkpt lat="45.67442" lon="4.69867">
        <ele>298.20001220703</ele>
        <time>2017-05-31T10:19:04.000Z</time>
      </trkpt>
      <trkpt lat="45.67417" lon="4.69893">
        <ele>298.20001220703</ele>
        <time>2017-05-31T10:19:09.000Z</time>
      </trkpt>
      <trkpt lat="45.67412" lon="4.699">
        <ele>297.79998779297</ele>
        <time>2017-05-31T10:19:10.000Z</time>
      </trkpt>
      <trkpt lat="45.67407" lon="4.69909">
        <ele>297.39999389648</ele>
        <time>2017-05-31T10:19:11.000Z</time>
      </trkpt>
      <trkpt lat="45.67401" lon="4.69918">
        <ele>297</ele>
        <time>2017-05-31T10:19:12.000Z</time>
      </trkpt>
      <trkpt lat="45.67396" lon="4.69928">
        <ele>296.39999389648</ele>
        <time>2017-05-31T10:19:13.000Z</time>
      </trkpt>
      <trkpt lat="45.67392" lon="4.69938">
        <ele>295.79998779297</ele>
        <time>2017-05-31T10:19:14.000Z</time>
      </trkpt>
      <trkpt lat="45.67388" lon="4.69948">
        <ele>295.20001220703</ele>
        <time>2017-05-31T10:19:15.000Z</time>
      </trkpt>
      <trkpt lat="45.67384" lon="4.69959">
        <ele>294.60000610352</ele>
        <time>2017-05-31T10:19:16.000Z</time>
      </trkpt>
      <trkpt lat="45.67381" lon="4.69969">
        <ele>294</ele>
        <time>2017-05-31T10:19:17.000Z</time>
      </trkpt>
      <trkpt lat="45.67378" lon="4.69979">
        <ele>293.39999389648</ele>
        <time>2017-05-31T10:19:18.000Z</time>
      </trkpt>
      <trkpt lat="45.67376" lon="4.69989">
        <ele>293</ele>
        <time>2017-05-31T10:19:19.000Z</time>
      </trkpt>
      <trkpt lat="45.67374" lon="4.69999">
        <ele>292.20001220703</ele>
        <time>2017-05-31T10:19:20.000Z</time>
      </trkpt>
      <trkpt lat="45.67372" lon="4.70008">
        <ele>291.60000610352</ele>
        <time>2017-05-31T10:19:21.000Z</time>
      </trkpt>
      <trkpt lat="45.6737" lon="4.70016">
        <ele>290.79998779297</ele>
        <time>2017-05-31T10:19:22.000Z</time>
      </trkpt>
      <trkpt lat="45.67368" lon="4.70023">
        <ele>290.20001220703</ele>
        <time>2017-05-31T10:19:23.000Z</time>
      </trkpt>
      <trkpt lat="45.67366" lon="4.70028">
        <ele>289.39999389648</ele>
        <time>2017-05-31T10:19:24.000Z</time>
      </trkpt>
      <trkpt lat="45.67363" lon="4.70033">
        <ele>288.60000610352</ele>
        <time>2017-05-31T10:19:25.000Z</time>
      </trkpt>
      <trkpt lat="45.67359" lon="4.70036">
        <ele>288</ele>
        <time>2017-05-31T10:19:26.000Z</time>
      </trkpt>
      <trkpt lat="45.67354" lon="4.70036">
        <ele>287.20001220703</ele>
        <time>2017-05-31T10:19:27.000Z</time>
      </trkpt>
      <trkpt lat="45.67349" lon="4.70033">
        <ele>287.20001220703</ele>
        <time>2017-05-31T10:19:28.000Z</time>
      </trkpt>
      <trkpt lat="45.67338" lon="4.70023">
        <ele>287.20001220703</ele>
        <time>2017-05-31T10:19:30.000Z</time>
      </trkpt>
      <trkpt lat="45.67333" lon="4.70018">
        <ele>286.79998779297</ele>
        <time>2017-05-31T10:19:31.000Z</time>
      </trkpt>
      <trkpt lat="45.67327" lon="4.70013">
        <ele>286.39999389648</ele>
        <time>2017-05-31T10:19:32.000Z</time>
      </trkpt>
      <trkpt lat="45.67322" lon="4.70007">
        <ele>286</ele>
        <time>2017-05-31T10:19:33.000Z</time>
      </trkpt>
      <trkpt lat="45.67316" lon="4.70001">
        <ele>285.60000610352</ele>
        <time>2017-05-31T10:19:34.000Z</time>
      </trkpt>
      <trkpt lat="45.6731" lon="4.69993">
        <ele>285.20001220703</ele>
        <time>2017-05-31T10:19:35.000Z</time>
      </trkpt>
      <trkpt lat="45.67298" lon="4.69976">
        <ele>284.79998779297</ele>
        <time>2017-05-31T10:19:37.000Z</time>
      </trkpt>
      <trkpt lat="45.67291" lon="4.69967">
        <ele>284.39999389648</ele>
        <time>2017-05-31T10:19:38.000Z</time>
      </trkpt>
      <trkpt lat="45.67285" lon="4.69957">
        <ele>283.79998779297</ele>
        <time>2017-05-31T10:19:39.000Z</time>
      </trkpt>
      <trkpt lat="45.67278" lon="4.69947">
        <ele>283.39999389648</ele>
        <time>2017-05-31T10:19:40.000Z</time>
      </trkpt>
      <trkpt lat="45.67271" lon="4.69936">
        <ele>283</ele>
        <time>2017-05-31T10:19:41.000Z</time>
      </trkpt>
      <trkpt lat="45.67264" lon="4.69926">
        <ele>282.39999389648</ele>
        <time>2017-05-31T10:19:42.000Z</time>
      </trkpt>
      <trkpt lat="45.67258" lon="4.69916">
        <ele>281.79998779297</ele>
        <time>2017-05-31T10:19:43.000Z</time>
      </trkpt>
      <trkpt lat="45.67251" lon="4.69906">
        <ele>281.39999389648</ele>
        <time>2017-05-31T10:19:44.000Z</time>
      </trkpt>
      <trkpt lat="45.67244" lon="4.69897">
        <ele>280.79998779297</ele>
        <time>2017-05-31T10:19:45.000Z</time>
      </trkpt>
      <trkpt lat="45.67236" lon="4.6989">
        <ele>280.20001220703</ele>
        <time>2017-05-31T10:19:46.000Z</time>
      </trkpt>
      <trkpt lat="45.67227" lon="4.69885">
        <ele>279.60000610352</ele>
        <time>2017-05-31T10:19:47.000Z</time>
      </trkpt>
      <trkpt lat="45.67218" lon="4.69883">
        <ele>279</ele>
        <time>2017-05-31T10:19:48.000Z</time>
      </trkpt>
      <trkpt lat="45.67208" lon="4.69882">
        <ele>278.39999389648</ele>
        <time>2017-05-31T10:19:49.000Z</time>
      </trkpt>
      <trkpt lat="45.67199" lon="4.69885">
        <ele>278.39999389648</ele>
        <time>2017-05-31T10:19:50.000Z</time>
      </trkpt>
      <trkpt lat="45.6719" lon="4.69887">
        <ele>278</ele>
        <time>2017-05-31T10:19:51.000Z</time>
      </trkpt>
      <trkpt lat="45.67181" lon="4.69889">
        <ele>277.60000610352</ele>
        <time>2017-05-31T10:19:52.000Z</time>
      </trkpt>
      <trkpt lat="45.67173" lon="4.69888">
        <ele>277.20001220703</ele>
        <time>2017-05-31T10:19:53.000Z</time>
      </trkpt>
      <trkpt lat="45.67165" lon="4.69885">
        <ele>276.79998779297</ele>
        <time>2017-05-31T10:19:54.000Z</time>
      </trkpt>
      <trkpt lat="45.67159" lon="4.69881">
        <ele>276.20001220703</ele>
        <time>2017-05-31T10:19:55.000Z</time>
      </trkpt>
      <trkpt lat="45.67141" lon="4.69864">
        <ele>276.20001220703</ele>
        <time>2017-05-31T10:19:59.000Z</time>
      </trkpt>
      <trkpt lat="45.67131" lon="4.69856">
        <ele>276.79998779297</ele>
        <time>2017-05-31T10:20:02.000Z</time>
      </trkpt>
      <trkpt lat="45.67128" lon="4.69853">
        <ele>277.20001220703</ele>
        <time>2017-05-31T10:20:03.000Z</time>
      </trkpt>
      <trkpt lat="45.67124" lon="4.6985">
        <ele>277.60000610352</ele>
        <time>2017-05-31T10:20:04.000Z</time>
      </trkpt>
      <trkpt lat="45.67121" lon="4.69848">
        <ele>278</ele>
        <time>2017-05-31T10:20:05.000Z</time>
      </trkpt>
      <trkpt lat="45.67119" lon="4.69846">
        <ele>278.39999389648</ele>
        <time>2017-05-31T10:20:06.000Z</time>
      </trkpt>
      <trkpt lat="45.67105" lon="4.69836">
        <ele>278.79998779297</ele>
        <time>2017-05-31T10:20:12.000Z</time>
      </trkpt>
      <trkpt lat="45.67103" lon="4.69835">
        <ele>279.20001220703</ele>
        <time>2017-05-31T10:20:13.000Z</time>
      </trkpt>
      <trkpt lat="45.671" lon="4.69833">
        <ele>279.60000610352</ele>
        <time>2017-05-31T10:20:14.000Z</time>
      </trkpt>
      <trkpt lat="45.67098" lon="4.69831">
        <ele>280</ele>
        <time>2017-05-31T10:20:15.000Z</time>
      </trkpt>
      <trkpt lat="45.67095" lon="4.69829">
        <ele>280.39999389648</ele>
        <time>2017-05-31T10:20:16.000Z</time>
      </trkpt>
      <trkpt lat="45.67085" lon="4.69824">
        <ele>280.39999389648</ele>
        <time>2017-05-31T10:20:20.000Z</time>
      </trkpt>
      <trkpt lat="45.67074" lon="4.69815">
        <ele>280.79998779297</ele>
        <time>2017-05-31T10:20:25.000Z</time>
      </trkpt>
      <trkpt lat="45.6707" lon="4.69812">
        <ele>281.20001220703</ele>
        <time>2017-05-31T10:20:27.000Z</time>
      </trkpt>
      <trkpt lat="45.67068" lon="4.69811">
        <ele>281.60000610352</ele>
        <time>2017-05-31T10:20:28.000Z</time>
      </trkpt>
      <trkpt lat="45.67065" lon="4.6981">
        <ele>282</ele>
        <time>2017-05-31T10:20:29.000Z</time>
      </trkpt>
      <trkpt lat="45.67063" lon="4.69808">
        <ele>282.39999389648</ele>
        <time>2017-05-31T10:20:30.000Z</time>
      </trkpt>
      <trkpt lat="45.67061" lon="4.69807">
        <ele>282.39999389648</ele>
        <time>2017-05-31T10:20:31.000Z</time>
      </trkpt>
      <trkpt lat="45.67044" lon="4.69795">
        <ele>282.39999389648</ele>
        <time>2017-05-31T10:20:39.000Z</time>
      </trkpt>
      <trkpt lat="45.67042" lon="4.69794">
        <ele>283</ele>
        <time>2017-05-31T10:20:40.000Z</time>
      </trkpt>
      <trkpt lat="45.6704" lon="4.69793">
        <ele>283.39999389648</ele>
        <time>2017-05-31T10:20:41.000Z</time>
      </trkpt>
      <trkpt lat="45.67038" lon="4.69791">
        <ele>283.79998779297</ele>
        <time>2017-05-31T10:20:42.000Z</time>
      </trkpt>
      <trkpt lat="45.67036" lon="4.6979">
        <ele>284.20001220703</ele>
        <time>2017-05-31T10:20:43.000Z</time>
      </trkpt>
      <trkpt lat="45.67034" lon="4.69789">
        <ele>284.60000610352</ele>
        <time>2017-05-31T10:20:44.000Z</time>
      </trkpt>
      <trkpt lat="45.67027" lon="4.69784">
        <ele>284.60000610352</ele>
        <time>2017-05-31T10:20:47.000Z</time>
      </trkpt>
      <trkpt lat="45.67015" lon="4.69778">
        <ele>285.20001220703</ele>
        <time>2017-05-31T10:20:52.000Z</time>
      </trkpt>
      <trkpt lat="45.67013" lon="4.69776">
        <ele>285.60000610352</ele>
        <time>2017-05-31T10:20:53.000Z</time>
      </trkpt>
      <trkpt lat="45.67012" lon="4.69775">
        <ele>286</ele>
        <time>2017-05-31T10:20:54.000Z</time>
      </trkpt>
      <trkpt lat="45.67009" lon="4.69773">
        <ele>286.60000610352</ele>
        <time>2017-05-31T10:20:55.000Z</time>
      </trkpt>
      <trkpt lat="45.67007" lon="4.69772">
        <ele>287</ele>
        <time>2017-05-31T10:20:56.000Z</time>
      </trkpt>
      <trkpt lat="45.67005" lon="4.69771">
        <ele>287</ele>
        <time>2017-05-31T10:20:57.000Z</time>
      </trkpt>
      <trkpt lat="45.66991" lon="4.6976">
        <ele>287</ele>
        <time>2017-05-31T10:21:02.000Z</time>
      </trkpt>
      <trkpt lat="45.66978" lon="4.69748">
        <ele>287.39999389648</ele>
        <time>2017-05-31T10:21:07.000Z</time>
      </trkpt>
      <trkpt lat="45.66976" lon="4.69746">
        <ele>287.79998779297</ele>
        <time>2017-05-31T10:21:08.000Z</time>
      </trkpt>
      <trkpt lat="45.66973" lon="4.69744">
        <ele>288.20001220703</ele>
        <time>2017-05-31T10:21:09.000Z</time>
      </trkpt>
      <trkpt lat="45.66969" lon="4.69742">
        <ele>288.60000610352</ele>
        <time>2017-05-31T10:21:10.000Z</time>
      </trkpt>
      <trkpt lat="45.66966" lon="4.6974">
        <ele>289</ele>
        <time>2017-05-31T10:21:11.000Z</time>
      </trkpt>
      <trkpt lat="45.6695" lon="4.69724">
        <ele>289.39999389648</ele>
        <time>2017-05-31T10:21:16.000Z</time>
      </trkpt>
      <trkpt lat="45.66946" lon="4.69721">
        <ele>289.79998779297</ele>
        <time>2017-05-31T10:21:17.000Z</time>
      </trkpt>
      <trkpt lat="45.66943" lon="4.69718">
        <ele>290.20001220703</ele>
        <time>2017-05-31T10:21:18.000Z</time>
      </trkpt>
      <trkpt lat="45.6694" lon="4.69715">
        <ele>290.60000610352</ele>
        <time>2017-05-31T10:21:19.000Z</time>
      </trkpt>
      <trkpt lat="45.66937" lon="4.69713">
        <ele>291</ele>
        <time>2017-05-31T10:21:20.000Z</time>
      </trkpt>
      <trkpt lat="45.66917" lon="4.69695">
        <ele>291</ele>
        <time>2017-05-31T10:21:27.000Z</time>
      </trkpt>
      <trkpt lat="45.66903" lon="4.69683">
        <ele>291.60000610352</ele>
        <time>2017-05-31T10:21:33.000Z</time>
      </trkpt>
      <trkpt lat="45.669" lon="4.6968">
        <ele>292</ele>
        <time>2017-05-31T10:21:34.000Z</time>
      </trkpt>
      <trkpt lat="45.66898" lon="4.69678">
        <ele>292.39999389648</ele>
        <time>2017-05-31T10:21:35.000Z</time>
      </trkpt>
      <trkpt lat="45.66895" lon="4.69676">
        <ele>292.79998779297</ele>
        <time>2017-05-31T10:21:36.000Z</time>
      </trkpt>
      <trkpt lat="45.66893" lon="4.69674">
        <ele>293.20001220703</ele>
        <time>2017-05-31T10:21:37.000Z</time>
      </trkpt>
      <trkpt lat="45.66867" lon="4.69651">
        <ele>293.60000610352</ele>
        <time>2017-05-31T10:21:47.000Z</time>
      </trkpt>
      <trkpt lat="45.66864" lon="4.69649">
        <ele>294</ele>
        <time>2017-05-31T10:21:48.000Z</time>
      </trkpt>
      <trkpt lat="45.66862" lon="4.69647">
        <ele>294.39999389648</ele>
        <time>2017-05-31T10:21:49.000Z</time>
      </trkpt>
      <trkpt lat="45.66859" lon="4.69645">
        <ele>294.79998779297</ele>
        <time>2017-05-31T10:21:50.000Z</time>
      </trkpt>
      <trkpt lat="45.66856" lon="4.69643">
        <ele>295.20001220703</ele>
        <time>2017-05-31T10:21:51.000Z</time>
      </trkpt>
      <trkpt lat="45.66836" lon="4.69628">
        <ele>295.20001220703</ele>
        <time>2017-05-31T10:22:00.000Z</time>
      </trkpt>
      <trkpt lat="45.66826" lon="4.69622">
        <ele>295.60000610352</ele>
        <time>2017-05-31T10:22:04.000Z</time>
      </trkpt>
      <trkpt lat="45.66823" lon="4.6962">
        <ele>296</ele>
        <time>2017-05-31T10:22:05.000Z</time>
      </trkpt>
      <trkpt lat="45.6682" lon="4.69619">
        <ele>296.39999389648</ele>
        <time>2017-05-31T10:22:06.000Z</time>
      </trkpt>
      <trkpt lat="45.66817" lon="4.69617">
        <ele>296.79998779297</ele>
        <time>2017-05-31T10:22:07.000Z</time>
      </trkpt>
      <trkpt lat="45.66815" lon="4.69615">
        <ele>297.20001220703</ele>
        <time>2017-05-31T10:22:08.000Z</time>
      </trkpt>
      <trkpt lat="45.66806" lon="4.69609">
        <ele>297.20001220703</ele>
        <time>2017-05-31T10:22:11.000Z</time>
      </trkpt>
      <trkpt lat="45.66778" lon="4.69593">
        <ele>297.20001220703</ele>
        <time>2017-05-31T10:22:20.000Z</time>
      </trkpt>
      <trkpt lat="45.66756" lon="4.6958">
        <ele>297.79998779297</ele>
        <time>2017-05-31T10:22:28.000Z</time>
      </trkpt>
      <trkpt lat="45.66753" lon="4.69579">
        <ele>298.20001220703</ele>
        <time>2017-05-31T10:22:29.000Z</time>
      </trkpt>
      <trkpt lat="45.66751" lon="4.69577">
        <ele>298.60000610352</ele>
        <time>2017-05-31T10:22:30.000Z</time>
      </trkpt>
      <trkpt lat="45.66748" lon="4.69576">
        <ele>299</ele>
        <time>2017-05-31T10:22:31.000Z</time>
      </trkpt>
      <trkpt lat="45.66745" lon="4.69574">
        <ele>299.39999389648</ele>
        <time>2017-05-31T10:22:32.000Z</time>
      </trkpt>
      <trkpt lat="45.66725" lon="4.69564">
        <ele>299.39999389648</ele>
        <time>2017-05-31T10:22:40.000Z</time>
      </trkpt>
      <trkpt lat="45.66711" lon="4.69554">
        <ele>299.39999389648</ele>
        <time>2017-05-31T10:22:47.000Z</time>
      </trkpt>
      <trkpt lat="45.6671" lon="4.69553">
        <ele>299.79998779297</ele>
        <time>2017-05-31T10:22:48.000Z</time>
      </trkpt>
      <trkpt lat="45.6671" lon="4.69551">
        <ele>300.20001220703</ele>
        <time>2017-05-31T10:22:49.000Z</time>
      </trkpt>
      <trkpt lat="45.6671" lon="4.69548">
        <ele>300.60000610352</ele>
        <time>2017-05-31T10:22:50.000Z</time>
      </trkpt>
      <trkpt lat="45.6671" lon="4.69546">
        <ele>301</ele>
        <time>2017-05-31T10:22:51.000Z</time>
      </trkpt>
      <trkpt lat="45.6671" lon="4.69544">
        <ele>301.39999389648</ele>
        <time>2017-05-31T10:22:52.000Z</time>
      </trkpt>
      <trkpt lat="45.6671" lon="4.6954">
        <ele>301.39999389648</ele>
        <time>2017-05-31T10:22:54.000Z</time>
      </trkpt>
      <trkpt lat="45.66712" lon="4.69538">
        <ele>301.39999389648</ele>
        <time>2017-05-31T10:23:57.000Z</time>
      </trkpt>
      <trkpt lat="45.66711" lon="4.69533">
        <ele>301.39999389648</ele>
        <time>2017-05-31T10:24:02.000Z</time>
      </trkpt>
      <trkpt lat="45.6671" lon="4.69539">
        <ele>301.39999389648</ele>
        <time>2017-05-31T10:25:40.000Z</time>
      </trkpt>
      <trkpt lat="45.6671" lon="4.69527">
        <ele>301.39999389648</ele>
        <time>2017-05-31T10:25:45.000Z</time>
      </trkpt>
      <trkpt lat="45.66709" lon="4.69511">
        <ele>301.79998779297</ele>
        <time>2017-05-31T10:25:51.000Z</time>
      </trkpt>
      <trkpt lat="45.66708" lon="4.69508">
        <ele>302.20001220703</ele>
        <time>2017-05-31T10:25:52.000Z</time>
      </trkpt>
      <trkpt lat="45.66707" lon="4.69506">
        <ele>302.60000610352</ele>
        <time>2017-05-31T10:25:53.000Z</time>
      </trkpt>
      <trkpt lat="45.66707" lon="4.69503">
        <ele>303</ele>
        <time>2017-05-31T10:25:54.000Z</time>
      </trkpt>
      <trkpt lat="45.66706" lon="4.695">
        <ele>303.39999389648</ele>
        <time>2017-05-31T10:25:55.000Z</time>
      </trkpt>
      <trkpt lat="45.66706" lon="4.69495">
        <ele>303.39999389648</ele>
        <time>2017-05-31T10:25:57.000Z</time>
      </trkpt>
      <trkpt lat="45.667" lon="4.69476">
        <ele>304</ele>
        <time>2017-05-31T10:26:05.000Z</time>
      </trkpt>
      <trkpt lat="45.66699" lon="4.69474">
        <ele>304.39999389648</ele>
        <time>2017-05-31T10:26:06.000Z</time>
      </trkpt>
      <trkpt lat="45.66697" lon="4.69472">
        <ele>304.79998779297</ele>
        <time>2017-05-31T10:26:07.000Z</time>
      </trkpt>
      <trkpt lat="45.66696" lon="4.6947">
        <ele>305.39999389648</ele>
        <time>2017-05-31T10:26:08.000Z</time>
      </trkpt>
      <trkpt lat="45.66694" lon="4.69468">
        <ele>305.79998779297</ele>
        <time>2017-05-31T10:26:09.000Z</time>
      </trkpt>
      <trkpt lat="45.66688" lon="4.69458">
        <ele>305.79998779297</ele>
        <time>2017-05-31T10:26:13.000Z</time>
      </trkpt>
      <trkpt lat="45.66682" lon="4.69448">
        <ele>306.20001220703</ele>
        <time>2017-05-31T10:26:17.000Z</time>
      </trkpt>
      <trkpt lat="45.66681" lon="4.69446">
        <ele>306.60000610352</ele>
        <time>2017-05-31T10:26:18.000Z</time>
      </trkpt>
      <trkpt lat="45.66679" lon="4.69444">
        <ele>307.20001220703</ele>
        <time>2017-05-31T10:26:19.000Z</time>
      </trkpt>
      <trkpt lat="45.66678" lon="4.69441">
        <ele>307.60000610352</ele>
        <time>2017-05-31T10:26:20.000Z</time>
      </trkpt>
      <trkpt lat="45.66676" lon="4.69439">
        <ele>308</ele>
        <time>2017-05-31T10:26:21.000Z</time>
      </trkpt>
      <trkpt lat="45.66664" lon="4.69422">
        <ele>308</ele>
        <time>2017-05-31T10:26:28.000Z</time>
      </trkpt>
      <trkpt lat="45.66663" lon="4.69419">
        <ele>308.39999389648</ele>
        <time>2017-05-31T10:26:29.000Z</time>
      </trkpt>
      <trkpt lat="45.66662" lon="4.69416">
        <ele>308.79998779297</ele>
        <time>2017-05-31T10:26:30.000Z</time>
      </trkpt>
      <trkpt lat="45.6666" lon="4.69413">
        <ele>309.20001220703</ele>
        <time>2017-05-31T10:26:31.000Z</time>
      </trkpt>
      <trkpt lat="45.66659" lon="4.69411">
        <ele>309.79998779297</ele>
        <time>2017-05-31T10:26:32.000Z</time>
      </trkpt>
      <trkpt lat="45.66658" lon="4.69408">
        <ele>310.20001220703</ele>
        <time>2017-05-31T10:26:33.000Z</time>
      </trkpt>
      <trkpt lat="45.66649" lon="4.69394">
        <ele>310.20001220703</ele>
        <time>2017-05-31T10:26:39.000Z</time>
      </trkpt>
      <trkpt lat="45.66645" lon="4.69387">
        <ele>310.60000610352</ele>
        <time>2017-05-31T10:26:42.000Z</time>
      </trkpt>
      <trkpt lat="45.66643" lon="4.69384">
        <ele>311</ele>
        <time>2017-05-31T10:26:43.000Z</time>
      </trkpt>
      <trkpt lat="45.66642" lon="4.69381">
        <ele>311.39999389648</ele>
        <time>2017-05-31T10:26:44.000Z</time>
      </trkpt>
      <trkpt lat="45.66641" lon="4.69379">
        <ele>311.79998779297</ele>
        <time>2017-05-31T10:26:45.000Z</time>
      </trkpt>
      <trkpt lat="45.66639" lon="4.69376">
        <ele>312.39999389648</ele>
        <time>2017-05-31T10:26:46.000Z</time>
      </trkpt>
      <trkpt lat="45.66631" lon="4.69363">
        <ele>312.39999389648</ele>
        <time>2017-05-31T10:26:51.000Z</time>
      </trkpt>
      <trkpt lat="45.66622" lon="4.69345">
        <ele>312.79998779297</ele>
        <time>2017-05-31T10:26:57.000Z</time>
      </trkpt>
      <trkpt lat="45.6662" lon="4.69341">
        <ele>313.20001220703</ele>
        <time>2017-05-31T10:26:58.000Z</time>
      </trkpt>
      <trkpt lat="45.66619" lon="4.69338">
        <ele>313.60000610352</ele>
        <time>2017-05-31T10:26:59.000Z</time>
      </trkpt>
      <trkpt lat="45.66618" lon="4.69335">
        <ele>314</ele>
        <time>2017-05-31T10:27:00.000Z</time>
      </trkpt>
      <trkpt lat="45.66616" lon="4.69332">
        <ele>314.39999389648</ele>
        <time>2017-05-31T10:27:01.000Z</time>
      </trkpt>
      <trkpt lat="45.66601" lon="4.69302">
        <ele>314.39999389648</ele>
        <time>2017-05-31T10:27:11.000Z</time>
      </trkpt>
      <trkpt lat="45.66599" lon="4.69299">
        <ele>314.79998779297</ele>
        <time>2017-05-31T10:27:12.000Z</time>
      </trkpt>
      <trkpt lat="45.66598" lon="4.69296">
        <ele>315.20001220703</ele>
        <time>2017-05-31T10:27:13.000Z</time>
      </trkpt>
      <trkpt lat="45.66596" lon="4.69292">
        <ele>315.60000610352</ele>
        <time>2017-05-31T10:27:14.000Z</time>
      </trkpt>
      <trkpt lat="45.66594" lon="4.69289">
        <ele>316</ele>
        <time>2017-05-31T10:27:15.000Z</time>
      </trkpt>
      <trkpt lat="45.66593" lon="4.69285">
        <ele>316.60000610352</ele>
        <time>2017-05-31T10:27:16.000Z</time>
      </trkpt>
      <trkpt lat="45.66585" lon="4.69269">
        <ele>316.60000610352</ele>
        <time>2017-05-31T10:27:21.000Z</time>
      </trkpt>
      <trkpt lat="45.66564" lon="4.6923">
        <ele>316.60000610352</ele>
        <time>2017-05-31T10:27:33.000Z</time>
      </trkpt>
      <trkpt lat="45.66561" lon="4.69227">
        <ele>317</ele>
        <time>2017-05-31T10:27:34.000Z</time>
      </trkpt>
      <trkpt lat="45.6656" lon="4.69224">
        <ele>317.39999389648</ele>
        <time>2017-05-31T10:27:35.000Z</time>
      </trkpt>
      <trkpt lat="45.66557" lon="4.6922">
        <ele>317.79998779297</ele>
        <time>2017-05-31T10:27:36.000Z</time>
      </trkpt>
      <trkpt lat="45.66555" lon="4.69217">
        <ele>318.20001220703</ele>
        <time>2017-05-31T10:27:37.000Z</time>
      </trkpt>
      <trkpt lat="45.66553" lon="4.69214">
        <ele>318.60000610352</ele>
        <time>2017-05-31T10:27:38.000Z</time>
      </trkpt>
      <trkpt lat="45.6654" lon="4.69196">
        <ele>318.60000610352</ele>
        <time>2017-05-31T10:27:44.000Z</time>
      </trkpt>
      <trkpt lat="45.66524" lon="4.69181">
        <ele>318.60000610352</ele>
        <time>2017-05-31T10:27:50.000Z</time>
      </trkpt>
      <trkpt lat="45.66516" lon="4.69175">
        <ele>318.60000610352</ele>
        <time>2017-05-31T10:27:53.000Z</time>
      </trkpt>
      <trkpt lat="45.66513" lon="4.69174">
        <ele>319</ele>
        <time>2017-05-31T10:27:54.000Z</time>
      </trkpt>
      <trkpt lat="45.6651" lon="4.69173">
        <ele>319.39999389648</ele>
        <time>2017-05-31T10:27:55.000Z</time>
      </trkpt>
      <trkpt lat="45.66507" lon="4.69171">
        <ele>319.79998779297</ele>
        <time>2017-05-31T10:27:56.000Z</time>
      </trkpt>
      <trkpt lat="45.66504" lon="4.6917">
        <ele>320.20001220703</ele>
        <time>2017-05-31T10:27:57.000Z</time>
      </trkpt>
      <trkpt lat="45.66501" lon="4.69168">
        <ele>320.60000610352</ele>
        <time>2017-05-31T10:27:58.000Z</time>
      </trkpt>
      <trkpt lat="45.66495" lon="4.69165">
        <ele>320.60000610352</ele>
        <time>2017-05-31T10:28:00.000Z</time>
      </trkpt>
      <trkpt lat="45.66458" lon="4.69148">
        <ele>320.60000610352</ele>
        <time>2017-05-31T10:28:10.000Z</time>
      </trkpt>
      <trkpt lat="45.6642" lon="4.69124">
        <ele>320.60000610352</ele>
        <time>2017-05-31T10:28:19.000Z</time>
      </trkpt>
      <trkpt lat="45.66375" lon="4.69091">
        <ele>320.60000610352</ele>
        <time>2017-05-31T10:28:29.000Z</time>
      </trkpt>
      <trkpt lat="45.66329" lon="4.69052">
        <ele>320.60000610352</ele>
        <time>2017-05-31T10:28:40.000Z</time>
      </trkpt>
      <trkpt lat="45.66279" lon="4.69016">
        <ele>320.60000610352</ele>
        <time>2017-05-31T10:28:52.000Z</time>
      </trkpt>
      <trkpt lat="45.66243" lon="4.68999">
        <ele>320.60000610352</ele>
        <time>2017-05-31T10:29:01.000Z</time>
      </trkpt>
      <trkpt lat="45.66234" lon="4.68995">
        <ele>321</ele>
        <time>2017-05-31T10:29:04.000Z</time>
      </trkpt>
      <trkpt lat="45.66229" lon="4.68991">
        <ele>321.60000610352</ele>
        <time>2017-05-31T10:29:06.000Z</time>
      </trkpt>
      <trkpt lat="45.66226" lon="4.68989">
        <ele>322</ele>
        <time>2017-05-31T10:29:07.000Z</time>
      </trkpt>
      <trkpt lat="45.66223" lon="4.68987">
        <ele>322.39999389648</ele>
        <time>2017-05-31T10:29:08.000Z</time>
      </trkpt>
      <trkpt lat="45.6622" lon="4.68985">
        <ele>323</ele>
        <time>2017-05-31T10:29:09.000Z</time>
      </trkpt>
      <trkpt lat="45.66198" lon="4.6897">
        <ele>323.39999389648</ele>
        <time>2017-05-31T10:29:18.000Z</time>
      </trkpt>
      <trkpt lat="45.66196" lon="4.68968">
        <ele>323.79998779297</ele>
        <time>2017-05-31T10:29:19.000Z</time>
      </trkpt>
      <trkpt lat="45.66194" lon="4.68966">
        <ele>324.39999389648</ele>
        <time>2017-05-31T10:29:20.000Z</time>
      </trkpt>
      <trkpt lat="45.66192" lon="4.68964">
        <ele>324.79998779297</ele>
        <time>2017-05-31T10:29:21.000Z</time>
      </trkpt>
      <trkpt lat="45.66189" lon="4.68963">
        <ele>325.39999389648</ele>
        <time>2017-05-31T10:29:22.000Z</time>
      </trkpt>
      <trkpt lat="45.66178" lon="4.68955">
        <ele>325.39999389648</ele>
        <time>2017-05-31T10:29:27.000Z</time>
      </trkpt>
      <trkpt lat="45.66168" lon="4.68949">
        <ele>325.79998779297</ele>
        <time>2017-05-31T10:29:32.000Z</time>
      </trkpt>
      <trkpt lat="45.66166" lon="4.68948">
        <ele>326.20001220703</ele>
        <time>2017-05-31T10:29:33.000Z</time>
      </trkpt>
      <trkpt lat="45.66164" lon="4.68946">
        <ele>326.60000610352</ele>
        <time>2017-05-31T10:29:34.000Z</time>
      </trkpt>
      <trkpt lat="45.66162" lon="4.68944">
        <ele>327</ele>
        <time>2017-05-31T10:29:35.000Z</time>
      </trkpt>
      <trkpt lat="45.6616" lon="4.68942">
        <ele>327.60000610352</ele>
        <time>2017-05-31T10:29:36.000Z</time>
      </trkpt>
      <trkpt lat="45.66158" lon="4.68941">
        <ele>327.60000610352</ele>
        <time>2017-05-31T10:29:37.000Z</time>
      </trkpt>
      <trkpt lat="45.66144" lon="4.68931">
        <ele>327.60000610352</ele>
        <time>2017-05-31T10:29:45.000Z</time>
      </trkpt>
      <trkpt lat="45.66138" lon="4.68926">
        <ele>328</ele>
        <time>2017-05-31T10:29:48.000Z</time>
      </trkpt>
      <trkpt lat="45.66137" lon="4.68924">
        <ele>328.39999389648</ele>
        <time>2017-05-31T10:29:49.000Z</time>
      </trkpt>
      <trkpt lat="45.66135" lon="4.68922">
        <ele>328.79998779297</ele>
        <time>2017-05-31T10:29:50.000Z</time>
      </trkpt>
      <trkpt lat="45.66134" lon="4.6892">
        <ele>329.20001220703</ele>
        <time>2017-05-31T10:29:51.000Z</time>
      </trkpt>
      <trkpt lat="45.66132" lon="4.68917">
        <ele>329.60000610352</ele>
        <time>2017-05-31T10:29:52.000Z</time>
      </trkpt>
      <trkpt lat="45.6613" lon="4.68915">
        <ele>329.60000610352</ele>
        <time>2017-05-31T10:29:53.000Z</time>
      </trkpt>
      <trkpt lat="45.6612" lon="4.68899">
        <ele>330</ele>
        <time>2017-05-31T10:30:00.000Z</time>
      </trkpt>
      <trkpt lat="45.66118" lon="4.68897">
        <ele>330.39999389648</ele>
        <time>2017-05-31T10:30:01.000Z</time>
      </trkpt>
      <trkpt lat="45.66117" lon="4.68895">
        <ele>330.79998779297</ele>
        <time>2017-05-31T10:30:02.000Z</time>
      </trkpt>
      <trkpt lat="45.66115" lon="4.68893">
        <ele>331.20001220703</ele>
        <time>2017-05-31T10:30:03.000Z</time>
      </trkpt>
      <trkpt lat="45.66114" lon="4.6889">
        <ele>331.60000610352</ele>
        <time>2017-05-31T10:30:04.000Z</time>
      </trkpt>
      <trkpt lat="45.66113" lon="4.68887">
        <ele>331.60000610352</ele>
        <time>2017-05-31T10:30:05.000Z</time>
      </trkpt>
      <trkpt lat="45.66103" lon="4.68868">
        <ele>332</ele>
        <time>2017-05-31T10:30:13.000Z</time>
      </trkpt>
      <trkpt lat="45.66102" lon="4.68865">
        <ele>332.60000610352</ele>
        <time>2017-05-31T10:30:14.000Z</time>
      </trkpt>
      <trkpt lat="45.66101" lon="4.68863">
        <ele>333</ele>
        <time>2017-05-31T10:30:15.000Z</time>
      </trkpt>
      <trkpt lat="45.661" lon="4.68861">
        <ele>333.39999389648</ele>
        <time>2017-05-31T10:30:16.000Z</time>
      </trkpt>
      <trkpt lat="45.66099" lon="4.68858">
        <ele>333.79998779297</ele>
        <time>2017-05-31T10:30:17.000Z</time>
      </trkpt>
      <trkpt lat="45.66088" lon="4.68836">
        <ele>334.20001220703</ele>
        <time>2017-05-31T10:30:26.000Z</time>
      </trkpt>
      <trkpt lat="45.66087" lon="4.68833">
        <ele>334.79998779297</ele>
        <time>2017-05-31T10:30:27.000Z</time>
      </trkpt>
      <trkpt lat="45.66086" lon="4.6883">
        <ele>335.20001220703</ele>
        <time>2017-05-31T10:30:28.000Z</time>
      </trkpt>
      <trkpt lat="45.66085" lon="4.68828">
        <ele>335.60000610352</ele>
        <time>2017-05-31T10:30:29.000Z</time>
      </trkpt>
      <trkpt lat="45.66083" lon="4.68826">
        <ele>336</ele>
        <time>2017-05-31T10:30:30.000Z</time>
      </trkpt>
      <trkpt lat="45.66074" lon="4.68807">
        <ele>336</ele>
        <time>2017-05-31T10:30:38.000Z</time>
      </trkpt>
      <trkpt lat="45.66068" lon="4.68791">
        <ele>336.39999389648</ele>
        <time>2017-05-31T10:30:44.000Z</time>
      </trkpt>
      <trkpt lat="45.66066" lon="4.68789">
        <ele>336.79998779297</ele>
        <time>2017-05-31T10:30:45.000Z</time>
      </trkpt>
      <trkpt lat="45.66065" lon="4.68786">
        <ele>337.20001220703</ele>
        <time>2017-05-31T10:30:46.000Z</time>
      </trkpt>
      <trkpt lat="45.66063" lon="4.68784">
        <ele>337.60000610352</ele>
        <time>2017-05-31T10:30:47.000Z</time>
      </trkpt>
      <trkpt lat="45.66062" lon="4.68781">
        <ele>338</ele>
        <time>2017-05-31T10:30:48.000Z</time>
      </trkpt>
      <trkpt lat="45.6606" lon="4.68779">
        <ele>338</ele>
        <time>2017-05-31T10:30:49.000Z</time>
      </trkpt>
      <trkpt lat="45.66046" lon="4.68749">
        <ele>338</ele>
        <time>2017-05-31T10:30:59.000Z</time>
      </trkpt>
      <trkpt lat="45.66044" lon="4.68746">
        <ele>338.39999389648</ele>
        <time>2017-05-31T10:31:00.000Z</time>
      </trkpt>
      <trkpt lat="45.66042" lon="4.68743">
        <ele>339</ele>
        <time>2017-05-31T10:31:01.000Z</time>
      </trkpt>
      <trkpt lat="45.66041" lon="4.6874">
        <ele>339.39999389648</ele>
        <time>2017-05-31T10:31:02.000Z</time>
      </trkpt>
      <trkpt lat="45.66039" lon="4.68737">
        <ele>339.79998779297</ele>
        <time>2017-05-31T10:31:03.000Z</time>
      </trkpt>
      <trkpt lat="45.66038" lon="4.68734">
        <ele>340.20001220703</ele>
        <time>2017-05-31T10:31:04.000Z</time>
      </trkpt>
      <trkpt lat="45.66025" lon="4.68712">
        <ele>340.20001220703</ele>
        <time>2017-05-31T10:31:12.000Z</time>
      </trkpt>
      <trkpt lat="45.66014" lon="4.68693">
        <ele>340.60000610352</ele>
        <time>2017-05-31T10:31:18.000Z</time>
      </trkpt>
      <trkpt lat="45.66012" lon="4.68689">
        <ele>341</ele>
        <time>2017-05-31T10:31:19.000Z</time>
      </trkpt>
      <trkpt lat="45.6601" lon="4.68686">
        <ele>341.39999389648</ele>
        <time>2017-05-31T10:31:20.000Z</time>
      </trkpt>
      <trkpt lat="45.66008" lon="4.68683">
        <ele>341.79998779297</ele>
        <time>2017-05-31T10:31:21.000Z</time>
      </trkpt>
      <trkpt lat="45.66006" lon="4.68679">
        <ele>342.20001220703</ele>
        <time>2017-05-31T10:31:22.000Z</time>
      </trkpt>
      <trkpt lat="45.66002" lon="4.68673">
        <ele>342.20001220703</ele>
        <time>2017-05-31T10:31:24.000Z</time>
      </trkpt>
      <trkpt lat="45.65983" lon="4.68644">
        <ele>342.60000610352</ele>
        <time>2017-05-31T10:31:34.000Z</time>
      </trkpt>
      <trkpt lat="45.65981" lon="4.68641">
        <ele>343.20001220703</ele>
        <time>2017-05-31T10:31:35.000Z</time>
      </trkpt>
      <trkpt lat="45.65979" lon="4.68638">
        <ele>343.60000610352</ele>
        <time>2017-05-31T10:31:36.000Z</time>
      </trkpt>
      <trkpt lat="45.65977" lon="4.68634">
        <ele>344</ele>
        <time>2017-05-31T10:31:37.000Z</time>
      </trkpt>
      <trkpt lat="45.65976" lon="4.68631">
        <ele>344.39999389648</ele>
        <time>2017-05-31T10:31:38.000Z</time>
      </trkpt>
      <trkpt lat="45.65953" lon="4.68595">
        <ele>344.39999389648</ele>
        <time>2017-05-31T10:31:50.000Z</time>
      </trkpt>
      <trkpt lat="45.65926" lon="4.68549">
        <ele>344.79998779297</ele>
        <time>2017-05-31T10:32:03.000Z</time>
      </trkpt>
      <trkpt lat="45.65923" lon="4.68545">
        <ele>345.39999389648</ele>
        <time>2017-05-31T10:32:04.000Z</time>
      </trkpt>
      <trkpt lat="45.65921" lon="4.68542">
        <ele>345.79998779297</ele>
        <time>2017-05-31T10:32:05.000Z</time>
      </trkpt>
      <trkpt lat="45.65919" lon="4.68538">
        <ele>346.20001220703</ele>
        <time>2017-05-31T10:32:06.000Z</time>
      </trkpt>
      <trkpt lat="45.65916" lon="4.68531">
        <ele>346.20001220703</ele>
        <time>2017-05-31T10:32:07.000Z</time>
      </trkpt>
      <trkpt lat="45.65914" lon="4.68528">
        <ele>346.60000610352</ele>
        <time>2017-05-31T10:32:08.000Z</time>
      </trkpt>
      <trkpt lat="45.6589" lon="4.68483">
        <ele>346.60000610352</ele>
        <time>2017-05-31T10:32:20.000Z</time>
      </trkpt>
      <trkpt lat="45.65874" lon="4.68455">
        <ele>346.60000610352</ele>
        <time>2017-05-31T10:32:28.000Z</time>
      </trkpt>
      <trkpt lat="45.65862" lon="4.68432">
        <ele>347</ele>
        <time>2017-05-31T10:32:35.000Z</time>
      </trkpt>
      <trkpt lat="45.6586" lon="4.68429">
        <ele>347.39999389648</ele>
        <time>2017-05-31T10:32:36.000Z</time>
      </trkpt>
      <trkpt lat="45.65858" lon="4.68425">
        <ele>347.79998779297</ele>
        <time>2017-05-31T10:32:37.000Z</time>
      </trkpt>
      <trkpt lat="45.65856" lon="4.68422">
        <ele>348.20001220703</ele>
        <time>2017-05-31T10:32:38.000Z</time>
      </trkpt>
      <trkpt lat="45.65854" lon="4.68418">
        <ele>348.60000610352</ele>
        <time>2017-05-31T10:32:39.000Z</time>
      </trkpt>
      <trkpt lat="45.65834" lon="4.68385">
        <ele>348.60000610352</ele>
        <time>2017-05-31T10:32:48.000Z</time>
      </trkpt>
      <trkpt lat="45.65826" lon="4.68372">
        <ele>349</ele>
        <time>2017-05-31T10:32:52.000Z</time>
      </trkpt>
      <trkpt lat="45.65824" lon="4.68369">
        <ele>349.39999389648</ele>
        <time>2017-05-31T10:32:53.000Z</time>
      </trkpt>
      <trkpt lat="45.65822" lon="4.68365">
        <ele>349.79998779297</ele>
        <time>2017-05-31T10:32:54.000Z</time>
      </trkpt>
      <trkpt lat="45.65821" lon="4.68362">
        <ele>350.20001220703</ele>
        <time>2017-05-31T10:32:55.000Z</time>
      </trkpt>
      <trkpt lat="45.65819" lon="4.68359">
        <ele>350.60000610352</ele>
        <time>2017-05-31T10:32:56.000Z</time>
      </trkpt>
      <trkpt lat="45.658" lon="4.68326">
        <ele>351.20001220703</ele>
        <time>2017-05-31T10:33:07.000Z</time>
      </trkpt>
      <trkpt lat="45.65798" lon="4.68323">
        <ele>351.60000610352</ele>
        <time>2017-05-31T10:33:08.000Z</time>
      </trkpt>
      <trkpt lat="45.65797" lon="4.68321">
        <ele>352</ele>
        <time>2017-05-31T10:33:09.000Z</time>
      </trkpt>
      <trkpt lat="45.65795" lon="4.68317">
        <ele>352.39999389648</ele>
        <time>2017-05-31T10:33:10.000Z</time>
      </trkpt>
      <trkpt lat="45.65793" lon="4.68314">
        <ele>352.79998779297</ele>
        <time>2017-05-31T10:33:11.000Z</time>
      </trkpt>
      <trkpt lat="45.65783" lon="4.68295">
        <ele>352.79998779297</ele>
        <time>2017-05-31T10:33:16.000Z</time>
      </trkpt>
      <trkpt lat="45.65777" lon="4.68274">
        <ele>353.20001220703</ele>
        <time>2017-05-31T10:33:21.000Z</time>
      </trkpt>
      <trkpt lat="45.65776" lon="4.6827">
        <ele>353.60000610352</ele>
        <time>2017-05-31T10:33:22.000Z</time>
      </trkpt>
      <trkpt lat="45.65775" lon="4.68266">
        <ele>354</ele>
        <time>2017-05-31T10:33:23.000Z</time>
      </trkpt>
      <trkpt lat="45.65773" lon="4.68262">
        <ele>354.39999389648</ele>
        <time>2017-05-31T10:33:24.000Z</time>
      </trkpt>
      <trkpt lat="45.65771" lon="4.68259">
        <ele>354.79998779297</ele>
        <time>2017-05-31T10:33:25.000Z</time>
      </trkpt>
      <trkpt lat="45.65767" lon="4.68252">
        <ele>355.20001220703</ele>
        <time>2017-05-31T10:33:27.000Z</time>
      </trkpt>
      <trkpt lat="45.65766" lon="4.68249">
        <ele>355.60000610352</ele>
        <time>2017-05-31T10:33:28.000Z</time>
      </trkpt>
      <trkpt lat="45.65764" lon="4.68245">
        <ele>356</ele>
        <time>2017-05-31T10:33:29.000Z</time>
      </trkpt>
      <trkpt lat="45.65762" lon="4.68241">
        <ele>356.39999389648</ele>
        <time>2017-05-31T10:33:30.000Z</time>
      </trkpt>
      <trkpt lat="45.6576" lon="4.68238">
        <ele>357</ele>
        <time>2017-05-31T10:33:31.000Z</time>
      </trkpt>
      <trkpt lat="45.65753" lon="4.6823">
        <ele>357.39999389648</ele>
        <time>2017-05-31T10:33:34.000Z</time>
      </trkpt>
      <trkpt lat="45.65751" lon="4.68227">
        <ele>357.79998779297</ele>
        <time>2017-05-31T10:33:35.000Z</time>
      </trkpt>
      <trkpt lat="45.65748" lon="4.68224">
        <ele>358.20001220703</ele>
        <time>2017-05-31T10:33:36.000Z</time>
      </trkpt>
      <trkpt lat="45.65746" lon="4.68221">
        <ele>358.79998779297</ele>
        <time>2017-05-31T10:33:37.000Z</time>
      </trkpt>
      <trkpt lat="45.65744" lon="4.68218">
        <ele>359.20001220703</ele>
        <time>2017-05-31T10:33:38.000Z</time>
      </trkpt>
      <trkpt lat="45.65739" lon="4.68213">
        <ele>359.60000610352</ele>
        <time>2017-05-31T10:33:40.000Z</time>
      </trkpt>
      <trkpt lat="45.65737" lon="4.68211">
        <ele>360</ele>
        <time>2017-05-31T10:33:41.000Z</time>
      </trkpt>
      <trkpt lat="45.65735" lon="4.68209">
        <ele>360.60000610352</ele>
        <time>2017-05-31T10:33:42.000Z</time>
      </trkpt>
      <trkpt lat="45.65732" lon="4.68207">
        <ele>361</ele>
        <time>2017-05-31T10:33:43.000Z</time>
      </trkpt>
      <trkpt lat="45.6573" lon="4.68205">
        <ele>361.39999389648</ele>
        <time>2017-05-31T10:33:44.000Z</time>
      </trkpt>
      <trkpt lat="45.65724" lon="4.682">
        <ele>361.39999389648</ele>
        <time>2017-05-31T10:33:47.000Z</time>
      </trkpt>
      <trkpt lat="45.65706" lon="4.68184">
        <ele>361.79998779297</ele>
        <time>2017-05-31T10:33:56.000Z</time>
      </trkpt>
      <trkpt lat="45.65704" lon="4.68182">
        <ele>362.20001220703</ele>
        <time>2017-05-31T10:33:57.000Z</time>
      </trkpt>
      <trkpt lat="45.65702" lon="4.6818">
        <ele>362.60000610352</ele>
        <time>2017-05-31T10:33:58.000Z</time>
      </trkpt>
      <trkpt lat="45.657" lon="4.68179">
        <ele>363</ele>
        <time>2017-05-31T10:33:59.000Z</time>
      </trkpt>
      <trkpt lat="45.65698" lon="4.68177">
        <ele>363.39999389648</ele>
        <time>2017-05-31T10:34:00.000Z</time>
      </trkpt>
      <trkpt lat="45.65696" lon="4.68176">
        <ele>363.39999389648</ele>
        <time>2017-05-31T10:34:01.000Z</time>
      </trkpt>
      <trkpt lat="45.65679" lon="4.68163">
        <ele>364</ele>
        <time>2017-05-31T10:34:10.000Z</time>
      </trkpt>
      <trkpt lat="45.65677" lon="4.68161">
        <ele>364.39999389648</ele>
        <time>2017-05-31T10:34:11.000Z</time>
      </trkpt>
      <trkpt lat="45.65675" lon="4.6816">
        <ele>364.79998779297</ele>
        <time>2017-05-31T10:34:12.000Z</time>
      </trkpt>
      <trkpt lat="45.65672" lon="4.68159">
        <ele>365.39999389648</ele>
        <time>2017-05-31T10:34:13.000Z</time>
      </trkpt>
      <trkpt lat="45.6567" lon="4.68158">
        <ele>365.79998779297</ele>
        <time>2017-05-31T10:34:14.000Z</time>
      </trkpt>
      <trkpt lat="45.65663" lon="4.68153">
        <ele>365.79998779297</ele>
        <time>2017-05-31T10:34:18.000Z</time>
      </trkpt>
      <trkpt lat="45.65652" lon="4.68146">
        <ele>366.20001220703</ele>
        <time>2017-05-31T10:34:23.000Z</time>
      </trkpt>
      <trkpt lat="45.6565" lon="4.68145">
        <ele>366.60000610352</ele>
        <time>2017-05-31T10:34:24.000Z</time>
      </trkpt>
      <trkpt lat="45.65648" lon="4.68144">
        <ele>367</ele>
        <time>2017-05-31T10:34:25.000Z</time>
      </trkpt>
      <trkpt lat="45.65646" lon="4.68143">
        <ele>367.39999389648</ele>
        <time>2017-05-31T10:34:26.000Z</time>
      </trkpt>
      <trkpt lat="45.65644" lon="4.68142">
        <ele>367.79998779297</ele>
        <time>2017-05-31T10:34:27.000Z</time>
      </trkpt>
      <trkpt lat="45.6564" lon="4.68138">
        <ele>367.79998779297</ele>
        <time>2017-05-31T10:34:29.000Z</time>
      </trkpt>
      <trkpt lat="45.65629" lon="4.68131">
        <ele>368.20001220703</ele>
        <time>2017-05-31T10:34:34.000Z</time>
      </trkpt>
      <trkpt lat="45.65627" lon="4.68129">
        <ele>368.60000610352</ele>
        <time>2017-05-31T10:34:35.000Z</time>
      </trkpt>
      <trkpt lat="45.65625" lon="4.68128">
        <ele>369</ele>
        <time>2017-05-31T10:34:36.000Z</time>
      </trkpt>
      <trkpt lat="45.65622" lon="4.68126">
        <ele>369.39999389648</ele>
        <time>2017-05-31T10:34:37.000Z</time>
      </trkpt>
      <trkpt lat="45.6562" lon="4.68124">
        <ele>369.79998779297</ele>
        <time>2017-05-31T10:34:38.000Z</time>
      </trkpt>
      <trkpt lat="45.65618" lon="4.68123">
        <ele>369.79998779297</ele>
        <time>2017-05-31T10:34:39.000Z</time>
      </trkpt>
      <trkpt lat="45.65599" lon="4.6811">
        <ele>369.79998779297</ele>
        <time>2017-05-31T10:34:47.000Z</time>
      </trkpt>
      <trkpt lat="45.65581" lon="4.68099">
        <ele>370.20001220703</ele>
        <time>2017-05-31T10:34:54.000Z</time>
      </trkpt>
      <trkpt lat="45.65579" lon="4.68098">
        <ele>370.79998779297</ele>
        <time>2017-05-31T10:34:55.000Z</time>
      </trkpt>
      <trkpt lat="45.65576" lon="4.68096">
        <ele>371.20001220703</ele>
        <time>2017-05-31T10:34:56.000Z</time>
      </trkpt>
      <trkpt lat="45.65574" lon="4.68094">
        <ele>371.60000610352</ele>
        <time>2017-05-31T10:34:57.000Z</time>
      </trkpt>
      <trkpt lat="45.65571" lon="4.68092">
        <ele>372</ele>
        <time>2017-05-31T10:34:58.000Z</time>
      </trkpt>
      <trkpt lat="45.65543" lon="4.68074">
        <ele>372</ele>
        <time>2017-05-31T10:35:08.000Z</time>
      </trkpt>
      <trkpt lat="45.65522" lon="4.6806">
        <ele>372</ele>
        <time>2017-05-31T10:35:16.000Z</time>
      </trkpt>
      <trkpt lat="45.65503" lon="4.68048">
        <ele>372</ele>
        <time>2017-05-31T10:35:23.000Z</time>
      </trkpt>
      <trkpt lat="45.65469" lon="4.68023">
        <ele>372</ele>
        <time>2017-05-31T10:35:33.000Z</time>
      </trkpt>
      <trkpt lat="45.65437" lon="4.68001">
        <ele>372</ele>
        <time>2017-05-31T10:35:42.000Z</time>
      </trkpt>
      <trkpt lat="45.65408" lon="4.67984">
        <ele>372.39999389648</ele>
        <time>2017-05-31T10:35:50.000Z</time>
      </trkpt>
      <trkpt lat="45.65404" lon="4.67982">
        <ele>372.79998779297</ele>
        <time>2017-05-31T10:35:51.000Z</time>
      </trkpt>
      <trkpt lat="45.654" lon="4.6798">
        <ele>373.20001220703</ele>
        <time>2017-05-31T10:35:52.000Z</time>
      </trkpt>
      <trkpt lat="45.65397" lon="4.67979">
        <ele>373.60000610352</ele>
        <time>2017-05-31T10:35:53.000Z</time>
      </trkpt>
      <trkpt lat="45.65393" lon="4.67977">
        <ele>374</ele>
        <time>2017-05-31T10:35:54.000Z</time>
      </trkpt>
      <trkpt lat="45.6537" lon="4.67968">
        <ele>374</ele>
        <time>2017-05-31T10:36:00.000Z</time>
      </trkpt>
      <trkpt lat="45.65365" lon="4.67965">
        <ele>374</ele>
        <time>2017-05-31T10:36:01.000Z</time>
      </trkpt>
      <trkpt lat="45.6535" lon="4.6795">
        <ele>373.60000610352</ele>
        <time>2017-05-31T10:36:04.000Z</time>
      </trkpt>
      <trkpt lat="45.65345" lon="4.67944">
        <ele>373.20001220703</ele>
        <time>2017-05-31T10:36:05.000Z</time>
      </trkpt>
      <trkpt lat="45.65339" lon="4.67937">
        <ele>372.79998779297</ele>
        <time>2017-05-31T10:36:06.000Z</time>
      </trkpt>
      <trkpt lat="45.65334" lon="4.67929">
        <ele>372.39999389648</ele>
        <time>2017-05-31T10:36:07.000Z</time>
      </trkpt>
      <trkpt lat="45.65328" lon="4.67921">
        <ele>372</ele>
        <time>2017-05-31T10:36:08.000Z</time>
      </trkpt>
      <trkpt lat="45.65316" lon="4.67906">
        <ele>371.60000610352</ele>
        <time>2017-05-31T10:36:10.000Z</time>
      </trkpt>
      <trkpt lat="45.65309" lon="4.67898">
        <ele>371.20001220703</ele>
        <time>2017-05-31T10:36:11.000Z</time>
      </trkpt>
      <trkpt lat="45.65303" lon="4.67891">
        <ele>370.79998779297</ele>
        <time>2017-05-31T10:36:12.000Z</time>
      </trkpt>
      <trkpt lat="45.65298" lon="4.67884">
        <ele>370.39999389648</ele>
        <time>2017-05-31T10:36:13.000Z</time>
      </trkpt>
      <trkpt lat="45.65292" lon="4.67877">
        <ele>370</ele>
        <time>2017-05-31T10:36:14.000Z</time>
      </trkpt>
      <trkpt lat="45.65271" lon="4.67857">
        <ele>370</ele>
        <time>2017-05-31T10:36:18.000Z</time>
      </trkpt>
      <trkpt lat="45.65256" lon="4.67843">
        <ele>369.60000610352</ele>
        <time>2017-05-31T10:36:21.000Z</time>
      </trkpt>
      <trkpt lat="45.65251" lon="4.67839">
        <ele>369.20001220703</ele>
        <time>2017-05-31T10:36:22.000Z</time>
      </trkpt>
      <trkpt lat="45.65246" lon="4.67835">
        <ele>368.79998779297</ele>
        <time>2017-05-31T10:36:23.000Z</time>
      </trkpt>
      <trkpt lat="45.6524" lon="4.67832">
        <ele>368.20001220703</ele>
        <time>2017-05-31T10:36:24.000Z</time>
      </trkpt>
      <trkpt lat="45.65234" lon="4.67831">
        <ele>367.79998779297</ele>
        <time>2017-05-31T10:36:25.000Z</time>
      </trkpt>
      <trkpt lat="45.65218" lon="4.67838">
        <ele>367.79998779297</ele>
        <time>2017-05-31T10:36:28.000Z</time>
      </trkpt>
      <trkpt lat="45.65213" lon="4.67841">
        <ele>367.79998779297</ele>
        <time>2017-05-31T10:36:29.000Z</time>
      </trkpt>
      <trkpt lat="45.65198" lon="4.67853">
        <ele>367.79998779297</ele>
        <time>2017-05-31T10:36:33.000Z</time>
      </trkpt>
      <trkpt lat="45.65169" lon="4.67872">
        <ele>367.79998779297</ele>
        <time>2017-05-31T10:36:41.000Z</time>
      </trkpt>
      <trkpt lat="45.65152" lon="4.6788">
        <ele>367.79998779297</ele>
        <time>2017-05-31T10:36:45.000Z</time>
      </trkpt>
      <trkpt lat="45.65136" lon="4.6789">
        <ele>367.79998779297</ele>
        <time>2017-05-31T10:36:49.000Z</time>
      </trkpt>
      <trkpt lat="45.65116" lon="4.67898">
        <ele>368.39999389648</ele>
        <time>2017-05-31T10:36:54.000Z</time>
      </trkpt>
      <trkpt lat="45.65113" lon="4.67899">
        <ele>368.79998779297</ele>
        <time>2017-05-31T10:36:55.000Z</time>
      </trkpt>
      <trkpt lat="45.65109" lon="4.67901">
        <ele>369.20001220703</ele>
        <time>2017-05-31T10:36:56.000Z</time>
      </trkpt>
      <trkpt lat="45.65105" lon="4.67902">
        <ele>369.79998779297</ele>
        <time>2017-05-31T10:36:57.000Z</time>
      </trkpt>
      <trkpt lat="45.65101" lon="4.67903">
        <ele>370.20001220703</ele>
        <time>2017-05-31T10:36:58.000Z</time>
      </trkpt>
      <trkpt lat="45.65097" lon="4.67904">
        <ele>370.20001220703</ele>
        <time>2017-05-31T10:36:59.000Z</time>
      </trkpt>
      <trkpt lat="45.65052" lon="4.67921">
        <ele>370.20001220703</ele>
        <time>2017-05-31T10:37:11.000Z</time>
      </trkpt>
      <trkpt lat="45.65018" lon="4.67932">
        <ele>370.60000610352</ele>
        <time>2017-05-31T10:37:21.000Z</time>
      </trkpt>
      <trkpt lat="45.65014" lon="4.67933">
        <ele>371</ele>
        <time>2017-05-31T10:37:22.000Z</time>
      </trkpt>
      <trkpt lat="45.65011" lon="4.67933">
        <ele>371.39999389648</ele>
        <time>2017-05-31T10:37:23.000Z</time>
      </trkpt>
      <trkpt lat="45.65008" lon="4.67934">
        <ele>371.79998779297</ele>
        <time>2017-05-31T10:37:24.000Z</time>
      </trkpt>
      <trkpt lat="45.65005" lon="4.67934">
        <ele>372.20001220703</ele>
        <time>2017-05-31T10:37:25.000Z</time>
      </trkpt>
      <trkpt lat="45.64998" lon="4.67937">
        <ele>372.20001220703</ele>
        <time>2017-05-31T10:37:27.000Z</time>
      </trkpt>
      <trkpt lat="45.64968" lon="4.67949">
        <ele>372.20001220703</ele>
        <time>2017-05-31T10:37:36.000Z</time>
      </trkpt>
      <trkpt lat="45.64962" lon="4.67952">
        <ele>372.60000610352</ele>
        <time>2017-05-31T10:37:38.000Z</time>
      </trkpt>
      <trkpt lat="45.64959" lon="4.67953">
        <ele>373.20001220703</ele>
        <time>2017-05-31T10:37:39.000Z</time>
      </trkpt>
      <trkpt lat="45.64955" lon="4.67954">
        <ele>373.60000610352</ele>
        <time>2017-05-31T10:37:40.000Z</time>
      </trkpt>
      <trkpt lat="45.64951" lon="4.67956">
        <ele>374</ele>
        <time>2017-05-31T10:37:41.000Z</time>
      </trkpt>
      <trkpt lat="45.64948" lon="4.67957">
        <ele>374.60000610352</ele>
        <time>2017-05-31T10:37:42.000Z</time>
      </trkpt>
      <trkpt lat="45.64939" lon="4.67961">
        <ele>374.60000610352</ele>
        <time>2017-05-31T10:37:45.000Z</time>
      </trkpt>
      <trkpt lat="45.6492" lon="4.67965">
        <ele>374.60000610352</ele>
        <time>2017-05-31T10:37:53.000Z</time>
      </trkpt>
      <trkpt lat="45.6491" lon="4.67966">
        <ele>374.60000610352</ele>
        <time>2017-05-31T10:38:00.000Z</time>
      </trkpt>
      <trkpt lat="45.6491" lon="4.67966">
        <ele>374.60000610352</ele>
        <time>2017-05-31T10:38:01.000Z</time>
      </trkpt>
      <trkpt lat="45.64908" lon="4.67966">
        <ele>374.60000610352</ele>
        <time>2017-05-31T10:43:21.000Z</time>
      </trkpt>
      <trkpt lat="45.64905" lon="4.67968">
        <ele>374.60000610352</ele>
        <time>2017-05-31T10:43:24.000Z</time>
      </trkpt>
      <trkpt lat="45.64892" lon="4.67968">
        <ele>374.60000610352</ele>
        <time>2017-05-31T10:43:33.000Z</time>
      </trkpt>
      <trkpt lat="45.64892" lon="4.67969">
        <ele>374.60000610352</ele>
        <time>2017-05-31T10:43:34.000Z</time>
      </trkpt>
      <trkpt lat="45.64895" lon="4.6797">
        <ele>374.60000610352</ele>
        <time>2017-05-31T10:43:38.000Z</time>
      </trkpt>
      <trkpt lat="45.649" lon="4.6797">
        <ele>374.60000610352</ele>
        <time>2017-05-31T10:43:45.000Z</time>
      </trkpt>
      <trkpt lat="45.64896" lon="4.67969">
        <ele>374.60000610352</ele>
        <time>2017-05-31T10:43:56.000Z</time>
      </trkpt>
      <trkpt lat="45.6488" lon="4.67969">
        <ele>374.60000610352</ele>
        <time>2017-05-31T10:44:02.000Z</time>
      </trkpt>
      <trkpt lat="45.64873" lon="4.67969">
        <ele>374.60000610352</ele>
        <time>2017-05-31T10:44:04.000Z</time>
      </trkpt>
      <trkpt lat="45.64858" lon="4.67965">
        <ele>374.60000610352</ele>
        <time>2017-05-31T10:44:08.000Z</time>
      </trkpt>
      <trkpt lat="45.64827" lon="4.67953">
        <ele>374.60000610352</ele>
        <time>2017-05-31T10:44:16.000Z</time>
      </trkpt>
      <trkpt lat="45.64801" lon="4.67947">
        <ele>374.60000610352</ele>
        <time>2017-05-31T10:44:24.000Z</time>
      </trkpt>
      <trkpt lat="45.64774" lon="4.67948">
        <ele>374.60000610352</ele>
        <time>2017-05-31T10:44:31.000Z</time>
      </trkpt>
      <trkpt lat="45.64748" lon="4.67954">
        <ele>374.60000610352</ele>
        <time>2017-05-31T10:44:37.000Z</time>
      </trkpt>
      <trkpt lat="45.64717" lon="4.67959">
        <ele>374.60000610352</ele>
        <time>2017-05-31T10:44:43.000Z</time>
      </trkpt>
      <trkpt lat="45.64696" lon="4.67959">
        <ele>374.20001220703</ele>
        <time>2017-05-31T10:44:47.000Z</time>
      </trkpt>
      <trkpt lat="45.64691" lon="4.67959">
        <ele>373.79998779297</ele>
        <time>2017-05-31T10:44:48.000Z</time>
      </trkpt>
      <trkpt lat="45.64687" lon="4.67959">
        <ele>373.39999389648</ele>
        <time>2017-05-31T10:44:49.000Z</time>
      </trkpt>
      <trkpt lat="45.64683" lon="4.67959">
        <ele>373</ele>
        <time>2017-05-31T10:44:50.000Z</time>
      </trkpt>
      <trkpt lat="45.64679" lon="4.67958">
        <ele>372.60000610352</ele>
        <time>2017-05-31T10:44:51.000Z</time>
      </trkpt>
      <trkpt lat="45.64656" lon="4.67955">
        <ele>372.60000610352</ele>
        <time>2017-05-31T10:44:57.000Z</time>
      </trkpt>
      <trkpt lat="45.64636" lon="4.67955">
        <ele>372.60000610352</ele>
        <time>2017-05-31T10:45:04.000Z</time>
      </trkpt>
      <trkpt lat="45.64622" lon="4.67944">
        <ele>372.60000610352</ele>
        <time>2017-05-31T10:45:12.000Z</time>
      </trkpt>
      <trkpt lat="45.64612" lon="4.67935">
        <ele>372</ele>
        <time>2017-05-31T10:45:16.000Z</time>
      </trkpt>
      <trkpt lat="45.64609" lon="4.67933">
        <ele>371.60000610352</ele>
        <time>2017-05-31T10:45:17.000Z</time>
      </trkpt>
      <trkpt lat="45.64606" lon="4.6793">
        <ele>371.20001220703</ele>
        <time>2017-05-31T10:45:18.000Z</time>
      </trkpt>
      <trkpt lat="45.64602" lon="4.67928">
        <ele>370.60000610352</ele>
        <time>2017-05-31T10:45:19.000Z</time>
      </trkpt>
      <trkpt lat="45.64599" lon="4.67925">
        <ele>370.20001220703</ele>
        <time>2017-05-31T10:45:20.000Z</time>
      </trkpt>
      <trkpt lat="45.64575" lon="4.67909">
        <ele>370.20001220703</ele>
        <time>2017-05-31T10:45:26.000Z</time>
      </trkpt>
      <trkpt lat="45.64556" lon="4.67903">
        <ele>370.20001220703</ele>
        <time>2017-05-31T10:45:30.000Z</time>
      </trkpt>
      <trkpt lat="45.64546" lon="4.67901">
        <ele>370.20001220703</ele>
        <time>2017-05-31T10:45:32.000Z</time>
      </trkpt>
      <trkpt lat="45.64529" lon="4.67901">
        <ele>369.79998779297</ele>
        <time>2017-05-31T10:45:35.000Z</time>
      </trkpt>
      <trkpt lat="45.64524" lon="4.67901">
        <ele>369.39999389648</ele>
        <time>2017-05-31T10:45:36.000Z</time>
      </trkpt>
      <trkpt lat="45.64518" lon="4.67901">
        <ele>368.79998779297</ele>
        <time>2017-05-31T10:45:37.000Z</time>
      </trkpt>
      <trkpt lat="45.64512" lon="4.67901">
        <ele>368.39999389648</ele>
        <time>2017-05-31T10:45:38.000Z</time>
      </trkpt>
      <trkpt lat="45.64507" lon="4.67901">
        <ele>368</ele>
        <time>2017-05-31T10:45:39.000Z</time>
      </trkpt>
      <trkpt lat="45.6448" lon="4.67898">
        <ele>368</ele>
        <time>2017-05-31T10:45:44.000Z</time>
      </trkpt>
      <trkpt lat="45.64471" lon="4.67892">
        <ele>368</ele>
        <time>2017-05-31T10:45:46.000Z</time>
      </trkpt>
      <trkpt lat="45.64455" lon="4.67884">
        <ele>368</ele>
        <time>2017-05-31T10:45:51.000Z</time>
      </trkpt>
      <trkpt lat="45.64435" lon="4.67876">
        <ele>368</ele>
        <time>2017-05-31T10:45:59.000Z</time>
      </trkpt>
      <trkpt lat="45.64414" lon="4.67872">
        <ele>368</ele>
        <time>2017-05-31T10:46:06.000Z</time>
      </trkpt>
      <trkpt lat="45.64388" lon="4.67864">
        <ele>368</ele>
        <time>2017-05-31T10:46:14.000Z</time>
      </trkpt>
      <trkpt lat="45.64363" lon="4.67853">
        <ele>368</ele>
        <time>2017-05-31T10:46:22.000Z</time>
      </trkpt>
      <trkpt lat="45.64339" lon="4.67844">
        <ele>368</ele>
        <time>2017-05-31T10:46:30.000Z</time>
      </trkpt>
      <trkpt lat="45.64315" lon="4.67838">
        <ele>368</ele>
        <time>2017-05-31T10:46:38.000Z</time>
      </trkpt>
      <trkpt lat="45.643" lon="4.67832">
        <ele>368</ele>
        <time>2017-05-31T10:46:46.000Z</time>
      </trkpt>
      <trkpt lat="45.64292" lon="4.67828">
        <ele>368</ele>
        <time>2017-05-31T10:46:52.000Z</time>
      </trkpt>
      <trkpt lat="45.64293" lon="4.6782">
        <ele>368.39999389648</ele>
        <time>2017-05-31T10:46:55.000Z</time>
      </trkpt>
      <trkpt lat="45.64293" lon="4.67818">
        <ele>368.79998779297</ele>
        <time>2017-05-31T10:46:56.000Z</time>
      </trkpt>
      <trkpt lat="45.64294" lon="4.67816">
        <ele>369.20001220703</ele>
        <time>2017-05-31T10:46:57.000Z</time>
      </trkpt>
      <trkpt lat="45.64295" lon="4.67814">
        <ele>369.60000610352</ele>
        <time>2017-05-31T10:46:58.000Z</time>
      </trkpt>
      <trkpt lat="45.64296" lon="4.67812">
        <ele>369.60000610352</ele>
        <time>2017-05-31T10:46:59.000Z</time>
      </trkpt>
      <trkpt lat="45.64297" lon="4.67809">
        <ele>370.20001220703</ele>
        <time>2017-05-31T10:47:00.000Z</time>
      </trkpt>
      <trkpt lat="45.643" lon="4.67803">
        <ele>370.20001220703</ele>
        <time>2017-05-31T10:47:03.000Z</time>
      </trkpt>
      <trkpt lat="45.64301" lon="4.67798">
        <ele>370.20001220703</ele>
        <time>2017-05-31T10:47:05.000Z</time>
      </trkpt>
      <trkpt lat="45.64302" lon="4.67793">
        <ele>370.60000610352</ele>
        <time>2017-05-31T10:47:07.000Z</time>
      </trkpt>
      <trkpt lat="45.64303" lon="4.67791">
        <ele>371</ele>
        <time>2017-05-31T10:47:08.000Z</time>
      </trkpt>
      <trkpt lat="45.64303" lon="4.67789">
        <ele>371.39999389648</ele>
        <time>2017-05-31T10:47:09.000Z</time>
      </trkpt>
      <trkpt lat="45.64304" lon="4.67787">
        <ele>371.79998779297</ele>
        <time>2017-05-31T10:47:10.000Z</time>
      </trkpt>
      <trkpt lat="45.6431" lon="4.67771">
        <ele>372.60000610352</ele>
        <time>2017-05-31T10:47:17.000Z</time>
      </trkpt>
      <trkpt lat="45.64311" lon="4.67769">
        <ele>373</ele>
        <time>2017-05-31T10:47:18.000Z</time>
      </trkpt>
      <trkpt lat="45.64312" lon="4.67767">
        <ele>373.39999389648</ele>
        <time>2017-05-31T10:47:19.000Z</time>
      </trkpt>
      <trkpt lat="45.64313" lon="4.67765">
        <ele>373.79998779297</ele>
        <time>2017-05-31T10:47:20.000Z</time>
      </trkpt>
      <trkpt lat="45.64314" lon="4.67763">
        <ele>374.20001220703</ele>
        <time>2017-05-31T10:47:21.000Z</time>
      </trkpt>
      <trkpt lat="45.64319" lon="4.6775">
        <ele>374.20001220703</ele>
        <time>2017-05-31T10:47:27.000Z</time>
      </trkpt>
      <trkpt lat="45.64323" lon="4.67738">
        <ele>374.60000610352</ele>
        <time>2017-05-31T10:47:32.000Z</time>
      </trkpt>
      <trkpt lat="45.64324" lon="4.67736">
        <ele>375.20001220703</ele>
        <time>2017-05-31T10:47:33.000Z</time>
      </trkpt>
      <trkpt lat="45.64325" lon="4.67734">
        <ele>375.60000610352</ele>
        <time>2017-05-31T10:47:34.000Z</time>
      </trkpt>
      <trkpt lat="45.64326" lon="4.67732">
        <ele>376</ele>
        <time>2017-05-31T10:47:35.000Z</time>
      </trkpt>
      <trkpt lat="45.64327" lon="4.6773">
        <ele>376.60000610352</ele>
        <time>2017-05-31T10:47:36.000Z</time>
      </trkpt>
      <trkpt lat="45.64327" lon="4.67724">
        <ele>377</ele>
        <time>2017-05-31T10:47:41.000Z</time>
      </trkpt>
      <trkpt lat="45.64336" lon="4.67697">
        <ele>378.60000610352</ele>
        <time>2017-05-31T10:48:07.000Z</time>
      </trkpt>
      <trkpt lat="45.64339" lon="4.67689">
        <ele>379</ele>
        <time>2017-05-31T10:48:12.000Z</time>
      </trkpt>
      <trkpt lat="45.6434" lon="4.67688">
        <ele>379.39999389648</ele>
        <time>2017-05-31T10:48:13.000Z</time>
      </trkpt>
      <trkpt lat="45.64341" lon="4.67687">
        <ele>379.79998779297</ele>
        <time>2017-05-31T10:48:14.000Z</time>
      </trkpt>
      <trkpt lat="45.64342" lon="4.67686">
        <ele>380.20001220703</ele>
        <time>2017-05-31T10:48:15.000Z</time>
      </trkpt>
      <trkpt lat="45.64343" lon="4.67685">
        <ele>380.60000610352</ele>
        <time>2017-05-31T10:48:16.000Z</time>
      </trkpt>
      <trkpt lat="45.64345" lon="4.67685">
        <ele>380.60000610352</ele>
        <time>2017-05-31T10:48:17.000Z</time>
      </trkpt>
      <trkpt lat="45.64351" lon="4.67675">
        <ele>380.60000610352</ele>
        <time>2017-05-31T10:48:26.000Z</time>
      </trkpt>
      <trkpt lat="45.64354" lon="4.67669">
        <ele>381.20001220703</ele>
        <time>2017-05-31T10:48:30.000Z</time>
      </trkpt>
      <trkpt lat="45.64355" lon="4.67668">
        <ele>381.60000610352</ele>
        <time>2017-05-31T10:48:31.000Z</time>
      </trkpt>
      <trkpt lat="45.64356" lon="4.67667">
        <ele>382</ele>
        <time>2017-05-31T10:48:32.000Z</time>
      </trkpt>
      <trkpt lat="45.64356" lon="4.67666">
        <ele>382.39999389648</ele>
        <time>2017-05-31T10:48:33.000Z</time>
      </trkpt>
      <trkpt lat="45.64357" lon="4.67665">
        <ele>382.79998779297</ele>
        <time>2017-05-31T10:48:34.000Z</time>
      </trkpt>
      <trkpt lat="45.64358" lon="4.67664">
        <ele>382.79998779297</ele>
        <time>2017-05-31T10:48:35.000Z</time>
      </trkpt>
      <trkpt lat="45.64361" lon="4.67661">
        <ele>383.20001220703</ele>
        <time>2017-05-31T10:48:39.000Z</time>
      </trkpt>
      <trkpt lat="45.64362" lon="4.67659">
        <ele>383.60000610352</ele>
        <time>2017-05-31T10:48:40.000Z</time>
      </trkpt>
      <trkpt lat="45.64363" lon="4.67658">
        <ele>384</ele>
        <time>2017-05-31T10:48:41.000Z</time>
      </trkpt>
      <trkpt lat="45.64363" lon="4.67657">
        <ele>384.39999389648</ele>
        <time>2017-05-31T10:48:42.000Z</time>
      </trkpt>
      <trkpt lat="45.64364" lon="4.67656">
        <ele>384.79998779297</ele>
        <time>2017-05-31T10:48:43.000Z</time>
      </trkpt>
      <trkpt lat="45.64365" lon="4.67653">
        <ele>384.79998779297</ele>
        <time>2017-05-31T10:48:45.000Z</time>
      </trkpt>
      <trkpt lat="45.6437" lon="4.67645">
        <ele>384.79998779297</ele>
        <time>2017-05-31T10:48:53.000Z</time>
      </trkpt>
      <trkpt lat="45.64375" lon="4.67645">
        <ele>384.79998779297</ele>
        <time>2017-05-31T10:48:58.000Z</time>
      </trkpt>
      <trkpt lat="45.6438" lon="4.67644">
        <ele>385.20001220703</ele>
        <time>2017-05-31T10:49:02.000Z</time>
      </trkpt>
      <trkpt lat="45.64382" lon="4.67644">
        <ele>385.79998779297</ele>
        <time>2017-05-31T10:49:03.000Z</time>
      </trkpt>
      <trkpt lat="45.64382" lon="4.67643">
        <ele>386.20001220703</ele>
        <time>2017-05-31T10:49:04.000Z</time>
      </trkpt>
      <trkpt lat="45.64384" lon="4.67643">
        <ele>386.60000610352</ele>
        <time>2017-05-31T10:49:05.000Z</time>
      </trkpt>
      <trkpt lat="45.64385" lon="4.67644">
        <ele>387</ele>
        <time>2017-05-31T10:49:06.000Z</time>
      </trkpt>
      <trkpt lat="45.64392" lon="4.67644">
        <ele>387</ele>
        <time>2017-05-31T10:49:11.000Z</time>
      </trkpt>
      <trkpt lat="45.64402" lon="4.67645">
        <ele>387</ele>
        <time>2017-05-31T10:49:20.000Z</time>
      </trkpt>
      <trkpt lat="45.64402" lon="4.67643">
        <ele>387</ele>
        <time>2017-05-31T10:49:22.000Z</time>
      </trkpt>
      <trkpt lat="45.64407" lon="4.67639">
        <ele>387</ele>
        <time>2017-05-31T10:49:30.000Z</time>
      </trkpt>
      <trkpt lat="45.64409" lon="4.67638">
        <ele>387</ele>
        <time>2017-05-31T10:49:31.000Z</time>
      </trkpt>
      <trkpt lat="45.64414" lon="4.67634">
        <ele>387.39999389648</ele>
        <time>2017-05-31T10:49:34.000Z</time>
      </trkpt>
      <trkpt lat="45.64415" lon="4.67632">
        <ele>387.79998779297</ele>
        <time>2017-05-31T10:49:35.000Z</time>
      </trkpt>
      <trkpt lat="45.64417" lon="4.6763">
        <ele>388.20001220703</ele>
        <time>2017-05-31T10:49:36.000Z</time>
      </trkpt>
      <trkpt lat="45.64418" lon="4.67628">
        <ele>388.60000610352</ele>
        <time>2017-05-31T10:49:37.000Z</time>
      </trkpt>
      <trkpt lat="45.64419" lon="4.67626">
        <ele>389</ele>
        <time>2017-05-31T10:49:38.000Z</time>
      </trkpt>
      <trkpt lat="45.64429" lon="4.67611">
        <ele>389.39999389648</ele>
        <time>2017-05-31T10:49:46.000Z</time>
      </trkpt>
      <trkpt lat="45.64431" lon="4.67609">
        <ele>389.79998779297</ele>
        <time>2017-05-31T10:49:47.000Z</time>
      </trkpt>
      <trkpt lat="45.64433" lon="4.67609">
        <ele>390.20001220703</ele>
        <time>2017-05-31T10:49:48.000Z</time>
      </trkpt>
      <trkpt lat="45.64434" lon="4.67608">
        <ele>390.60000610352</ele>
        <time>2017-05-31T10:49:49.000Z</time>
      </trkpt>
      <trkpt lat="45.64436" lon="4.67607">
        <ele>391</ele>
        <time>2017-05-31T10:49:50.000Z</time>
      </trkpt>
      <trkpt lat="45.64446" lon="4.67598">
        <ele>391</ele>
        <time>2017-05-31T10:49:57.000Z</time>
      </trkpt>
      <trkpt lat="45.6445" lon="4.67593">
        <ele>391.39999389648</ele>
        <time>2017-05-31T10:50:00.000Z</time>
      </trkpt>
      <trkpt lat="45.64451" lon="4.67592">
        <ele>391.79998779297</ele>
        <time>2017-05-31T10:50:01.000Z</time>
      </trkpt>
      <trkpt lat="45.64453" lon="4.67592">
        <ele>392.20001220703</ele>
        <time>2017-05-31T10:50:02.000Z</time>
      </trkpt>
      <trkpt lat="45.64455" lon="4.67591">
        <ele>392.60000610352</ele>
        <time>2017-05-31T10:50:03.000Z</time>
      </trkpt>
      <trkpt lat="45.64457" lon="4.67591">
        <ele>393</ele>
        <time>2017-05-31T10:50:04.000Z</time>
      </trkpt>
      <trkpt lat="45.64462" lon="4.6759">
        <ele>393</ele>
        <time>2017-05-31T10:50:07.000Z</time>
      </trkpt>
      <trkpt lat="45.64476" lon="4.6759">
        <ele>393.39999389648</ele>
        <time>2017-05-31T10:50:15.000Z</time>
      </trkpt>
      <trkpt lat="45.64479" lon="4.6759">
        <ele>394</ele>
        <time>2017-05-31T10:50:16.000Z</time>
      </trkpt>
      <trkpt lat="45.64481" lon="4.6759">
        <ele>394.39999389648</ele>
        <time>2017-05-31T10:50:17.000Z</time>
      </trkpt>
      <trkpt lat="45.64484" lon="4.6759">
        <ele>394.79998779297</ele>
        <time>2017-05-31T10:50:18.000Z</time>
      </trkpt>
      <trkpt lat="45.64486" lon="4.6759">
        <ele>395.20001220703</ele>
        <time>2017-05-31T10:50:19.000Z</time>
      </trkpt>
      <trkpt lat="45.64496" lon="4.67589">
        <ele>395.20001220703</ele>
        <time>2017-05-31T10:50:24.000Z</time>
      </trkpt>
      <trkpt lat="45.64511" lon="4.67586">
        <ele>395.60000610352</ele>
        <time>2017-05-31T10:50:32.000Z</time>
      </trkpt>
      <trkpt lat="45.64514" lon="4.67587">
        <ele>396</ele>
        <time>2017-05-31T10:50:33.000Z</time>
      </trkpt>
      <trkpt lat="45.64516" lon="4.67587">
        <ele>396.39999389648</ele>
        <time>2017-05-31T10:50:34.000Z</time>
      </trkpt>
      <trkpt lat="45.64517" lon="4.67586">
        <ele>397</ele>
        <time>2017-05-31T10:50:35.000Z</time>
      </trkpt>
      <trkpt lat="45.6452" lon="4.67587">
        <ele>397.39999389648</ele>
        <time>2017-05-31T10:50:36.000Z</time>
      </trkpt>
      <trkpt lat="45.64529" lon="4.67589">
        <ele>397.39999389648</ele>
        <time>2017-05-31T10:50:40.000Z</time>
      </trkpt>
      <trkpt lat="45.64549" lon="4.67592">
        <ele>397.39999389648</ele>
        <time>2017-05-31T10:50:50.000Z</time>
      </trkpt>
      <trkpt lat="45.64554" lon="4.67587">
        <ele>397.79998779297</ele>
        <time>2017-05-31T10:50:53.000Z</time>
      </trkpt>
      <trkpt lat="45.64555" lon="4.67585">
        <ele>398.20001220703</ele>
        <time>2017-05-31T10:50:54.000Z</time>
      </trkpt>
      <trkpt lat="45.64556" lon="4.67582">
        <ele>398.60000610352</ele>
        <time>2017-05-31T10:50:55.000Z</time>
      </trkpt>
      <trkpt lat="45.64557" lon="4.6758">
        <ele>399</ele>
        <time>2017-05-31T10:50:56.000Z</time>
      </trkpt>
      <trkpt lat="45.64557" lon="4.67577">
        <ele>399.39999389648</ele>
        <time>2017-05-31T10:50:57.000Z</time>
      </trkpt>
      <trkpt lat="45.64556" lon="4.67571">
        <ele>399.39999389648</ele>
        <time>2017-05-31T10:50:59.000Z</time>
      </trkpt>
      <trkpt lat="45.64554" lon="4.67567">
        <ele>399.39999389648</ele>
        <time>2017-05-31T10:51:01.000Z</time>
      </trkpt>
      <trkpt lat="45.64545" lon="4.67564">
        <ele>399.39999389648</ele>
        <time>2017-05-31T10:51:06.000Z</time>
      </trkpt>
      <trkpt lat="45.64543" lon="4.67563">
        <ele>400</ele>
        <time>2017-05-31T10:51:07.000Z</time>
      </trkpt>
      <trkpt lat="45.64542" lon="4.67562">
        <ele>400.39999389648</ele>
        <time>2017-05-31T10:51:08.000Z</time>
      </trkpt>
      <trkpt lat="45.6454" lon="4.67562">
        <ele>400.79998779297</ele>
        <time>2017-05-31T10:51:09.000Z</time>
      </trkpt>
      <trkpt lat="45.64538" lon="4.67561">
        <ele>401.20001220703</ele>
        <time>2017-05-31T10:51:10.000Z</time>
      </trkpt>
      <trkpt lat="45.64536" lon="4.67561">
        <ele>401.60000610352</ele>
        <time>2017-05-31T10:51:11.000Z</time>
      </trkpt>
      <trkpt lat="45.64529" lon="4.67558">
        <ele>401.60000610352</ele>
        <time>2017-05-31T10:51:15.000Z</time>
      </trkpt>
      <trkpt lat="45.64518" lon="4.67542">
        <ele>402</ele>
        <time>2017-05-31T10:51:23.000Z</time>
      </trkpt>
      <trkpt lat="45.64517" lon="4.6754">
        <ele>402.39999389648</ele>
        <time>2017-05-31T10:51:24.000Z</time>
      </trkpt>
      <trkpt lat="45.64515" lon="4.67538">
        <ele>402.79998779297</ele>
        <time>2017-05-31T10:51:25.000Z</time>
      </trkpt>
      <trkpt lat="45.64514" lon="4.67535">
        <ele>403.20001220703</ele>
        <time>2017-05-31T10:51:26.000Z</time>
      </trkpt>
      <trkpt lat="45.64513" lon="4.67533">
        <ele>403.79998779297</ele>
        <time>2017-05-31T10:51:27.000Z</time>
      </trkpt>
      <trkpt lat="45.64508" lon="4.6752">
        <ele>403.79998779297</ele>
        <time>2017-05-31T10:51:33.000Z</time>
      </trkpt>
      <trkpt lat="45.64507" lon="4.6751">
        <ele>404.20001220703</ele>
        <time>2017-05-31T10:51:37.000Z</time>
      </trkpt>
      <trkpt lat="45.64507" lon="4.67507">
        <ele>404.60000610352</ele>
        <time>2017-05-31T10:51:38.000Z</time>
      </trkpt>
      <trkpt lat="45.64507" lon="4.67505">
        <ele>405</ele>
        <time>2017-05-31T10:51:39.000Z</time>
      </trkpt>
      <trkpt lat="45.64507" lon="4.67502">
        <ele>405.39999389648</ele>
        <time>2017-05-31T10:51:40.000Z</time>
      </trkpt>
      <trkpt lat="45.64509" lon="4.675">
        <ele>405.79998779297</ele>
        <time>2017-05-31T10:51:41.000Z</time>
      </trkpt>
      <trkpt lat="45.64509" lon="4.67497">
        <ele>405.79998779297</ele>
        <time>2017-05-31T10:51:42.000Z</time>
      </trkpt>
      <trkpt lat="45.64512" lon="4.67493">
        <ele>405.79998779297</ele>
        <time>2017-05-31T10:51:44.000Z</time>
      </trkpt>
      <trkpt lat="45.64514" lon="4.67485">
        <ele>405.79998779297</ele>
        <time>2017-05-31T10:51:47.000Z</time>
      </trkpt>
      <trkpt lat="45.64515" lon="4.67484">
        <ele>406.20001220703</ele>
        <time>2017-05-31T10:51:48.000Z</time>
      </trkpt>
      <trkpt lat="45.64516" lon="4.67482">
        <ele>406.60000610352</ele>
        <time>2017-05-31T10:51:49.000Z</time>
      </trkpt>
      <trkpt lat="45.64518" lon="4.67482">
        <ele>407</ele>
        <time>2017-05-31T10:51:50.000Z</time>
      </trkpt>
      <trkpt lat="45.64521" lon="4.67484">
        <ele>407.39999389648</ele>
        <time>2017-05-31T10:51:51.000Z</time>
      </trkpt>
      <trkpt lat="45.64523" lon="4.67485">
        <ele>407.79998779297</ele>
        <time>2017-05-31T10:51:52.000Z</time>
      </trkpt>
      <trkpt lat="45.64531" lon="4.67489">
        <ele>408.20001220703</ele>
        <time>2017-05-31T10:51:57.000Z</time>
      </trkpt>
      <trkpt lat="45.64533" lon="4.67489">
        <ele>408.79998779297</ele>
        <time>2017-05-31T10:51:58.000Z</time>
      </trkpt>
      <trkpt lat="45.64535" lon="4.67489">
        <ele>409.20001220703</ele>
        <time>2017-05-31T10:51:59.000Z</time>
      </trkpt>
      <trkpt lat="45.64536" lon="4.6749">
        <ele>409.60000610352</ele>
        <time>2017-05-31T10:52:00.000Z</time>
      </trkpt>
      <trkpt lat="45.64538" lon="4.6749">
        <ele>410</ele>
        <time>2017-05-31T10:52:01.000Z</time>
      </trkpt>
      <trkpt lat="45.64551" lon="4.67494">
        <ele>410</ele>
        <time>2017-05-31T10:52:10.000Z</time>
      </trkpt>
      <trkpt lat="45.64554" lon="4.67495">
        <ele>410.60000610352</ele>
        <time>2017-05-31T10:52:12.000Z</time>
      </trkpt>
      <trkpt lat="45.64557" lon="4.67495">
        <ele>411</ele>
        <time>2017-05-31T10:52:13.000Z</time>
      </trkpt>
      <trkpt lat="45.64558" lon="4.67495">
        <ele>411.39999389648</ele>
        <time>2017-05-31T10:52:14.000Z</time>
      </trkpt>
      <trkpt lat="45.64561" lon="4.67494">
        <ele>412</ele>
        <time>2017-05-31T10:52:15.000Z</time>
      </trkpt>
      <trkpt lat="45.64563" lon="4.67494">
        <ele>412.39999389648</ele>
        <time>2017-05-31T10:52:16.000Z</time>
      </trkpt>
      <trkpt lat="45.64571" lon="4.67497">
        <ele>412.39999389648</ele>
        <time>2017-05-31T10:52:20.000Z</time>
      </trkpt>
      <trkpt lat="45.64583" lon="4.67501">
        <ele>412.39999389648</ele>
        <time>2017-05-31T10:52:26.000Z</time>
      </trkpt>
      <trkpt lat="45.64595" lon="4.67503">
        <ele>412.79998779297</ele>
        <time>2017-05-31T10:52:31.000Z</time>
      </trkpt>
      <trkpt lat="45.64597" lon="4.67503">
        <ele>413.20001220703</ele>
        <time>2017-05-31T10:52:32.000Z</time>
      </trkpt>
      <trkpt lat="45.64599" lon="4.67503">
        <ele>413.60000610352</ele>
        <time>2017-05-31T10:52:33.000Z</time>
      </trkpt>
      <trkpt lat="45.64601" lon="4.67503">
        <ele>414.20001220703</ele>
        <time>2017-05-31T10:52:34.000Z</time>
      </trkpt>
      <trkpt lat="45.64603" lon="4.67503">
        <ele>414.60000610352</ele>
        <time>2017-05-31T10:52:35.000Z</time>
      </trkpt>
      <trkpt lat="45.64605" lon="4.67504">
        <ele>414.60000610352</ele>
        <time>2017-05-31T10:52:36.000Z</time>
      </trkpt>
      <trkpt lat="45.64618" lon="4.67501">
        <ele>415</ele>
        <time>2017-05-31T10:52:44.000Z</time>
      </trkpt>
      <trkpt lat="45.6462" lon="4.67501">
        <ele>415.39999389648</ele>
        <time>2017-05-31T10:52:45.000Z</time>
      </trkpt>
      <trkpt lat="45.64622" lon="4.67501">
        <ele>415.79998779297</ele>
        <time>2017-05-31T10:52:46.000Z</time>
      </trkpt>
      <trkpt lat="45.64624" lon="4.675">
        <ele>416.39999389648</ele>
        <time>2017-05-31T10:52:47.000Z</time>
      </trkpt>
      <trkpt lat="45.64625" lon="4.67499">
        <ele>416.79998779297</ele>
        <time>2017-05-31T10:52:48.000Z</time>
      </trkpt>
      <trkpt lat="45.64634" lon="4.67502">
        <ele>416.79998779297</ele>
        <time>2017-05-31T10:52:53.000Z</time>
      </trkpt>
      <trkpt lat="45.64636" lon="4.67502">
        <ele>417.20001220703</ele>
        <time>2017-05-31T10:52:54.000Z</time>
      </trkpt>
      <trkpt lat="45.64638" lon="4.67502">
        <ele>417.60000610352</ele>
        <time>2017-05-31T10:52:55.000Z</time>
      </trkpt>
      <trkpt lat="45.6464" lon="4.67501">
        <ele>418</ele>
        <time>2017-05-31T10:52:56.000Z</time>
      </trkpt>
      <trkpt lat="45.64642" lon="4.67502">
        <ele>418.39999389648</ele>
        <time>2017-05-31T10:52:57.000Z</time>
      </trkpt>
      <trkpt lat="45.64644" lon="4.67501">
        <ele>418.79998779297</ele>
        <time>2017-05-31T10:52:58.000Z</time>
      </trkpt>
      <trkpt lat="45.64652" lon="4.67505">
        <ele>419.39999389648</ele>
        <time>2017-05-31T10:53:02.000Z</time>
      </trkpt>
      <trkpt lat="45.64654" lon="4.67506">
        <ele>419.79998779297</ele>
        <time>2017-05-31T10:53:03.000Z</time>
      </trkpt>
      <trkpt lat="45.64655" lon="4.67507">
        <ele>420.20001220703</ele>
        <time>2017-05-31T10:53:04.000Z</time>
      </trkpt>
      <trkpt lat="45.64657" lon="4.67508">
        <ele>420.60000610352</ele>
        <time>2017-05-31T10:53:05.000Z</time>
      </trkpt>
      <trkpt lat="45.64659" lon="4.67509">
        <ele>421</ele>
        <time>2017-05-31T10:53:06.000Z</time>
      </trkpt>
      <trkpt lat="45.64668" lon="4.67514">
        <ele>421</ele>
        <time>2017-05-31T10:53:11.000Z</time>
      </trkpt>
      <trkpt lat="45.64674" lon="4.6752">
        <ele>421.39999389648</ele>
        <time>2017-05-31T10:53:16.000Z</time>
      </trkpt>
      <trkpt lat="45.64675" lon="4.6752">
        <ele>421.79998779297</ele>
        <time>2017-05-31T10:53:17.000Z</time>
      </trkpt>
      <trkpt lat="45.64677" lon="4.67521">
        <ele>422.39999389648</ele>
        <time>2017-05-31T10:53:18.000Z</time>
      </trkpt>
      <trkpt lat="45.64679" lon="4.67522">
        <ele>422.79998779297</ele>
        <time>2017-05-31T10:53:19.000Z</time>
      </trkpt>
      <trkpt lat="45.6468" lon="4.67524">
        <ele>423.20001220703</ele>
        <time>2017-05-31T10:53:20.000Z</time>
      </trkpt>
      <trkpt lat="45.6469" lon="4.67528">
        <ele>423.20001220703</ele>
        <time>2017-05-31T10:53:25.000Z</time>
      </trkpt>
      <trkpt lat="45.64696" lon="4.67529">
        <ele>423.60000610352</ele>
        <time>2017-05-31T10:53:28.000Z</time>
      </trkpt>
      <trkpt lat="45.64697" lon="4.6753">
        <ele>424</ele>
        <time>2017-05-31T10:53:29.000Z</time>
      </trkpt>
      <trkpt lat="45.64699" lon="4.67532">
        <ele>424.39999389648</ele>
        <time>2017-05-31T10:53:30.000Z</time>
      </trkpt>
      <trkpt lat="45.64701" lon="4.67533">
        <ele>424.79998779297</ele>
        <time>2017-05-31T10:53:31.000Z</time>
      </trkpt>
      <trkpt lat="45.64702" lon="4.67534">
        <ele>425.39999389648</ele>
        <time>2017-05-31T10:53:32.000Z</time>
      </trkpt>
      <trkpt lat="45.64705" lon="4.67534">
        <ele>425.39999389648</ele>
        <time>2017-05-31T10:53:34.000Z</time>
      </trkpt>
      <trkpt lat="45.64718" lon="4.6753">
        <ele>425.39999389648</ele>
        <time>2017-05-31T10:53:41.000Z</time>
      </trkpt>
      <trkpt lat="45.64728" lon="4.67514">
        <ele>425.79998779297</ele>
        <time>2017-05-31T10:53:49.000Z</time>
      </trkpt>
      <trkpt lat="45.64729" lon="4.67511">
        <ele>426.20001220703</ele>
        <time>2017-05-31T10:53:50.000Z</time>
      </trkpt>
      <trkpt lat="45.6473" lon="4.67509">
        <ele>426.60000610352</ele>
        <time>2017-05-31T10:53:51.000Z</time>
      </trkpt>
      <trkpt lat="45.64731" lon="4.67506">
        <ele>427</ele>
        <time>2017-05-31T10:53:52.000Z</time>
      </trkpt>
      <trkpt lat="45.64732" lon="4.67503">
        <ele>427.39999389648</ele>
        <time>2017-05-31T10:53:53.000Z</time>
      </trkpt>
      <trkpt lat="45.64732" lon="4.67483">
        <ele>427.39999389648</ele>
        <time>2017-05-31T10:54:00.000Z</time>
      </trkpt>
      <trkpt lat="45.64731" lon="4.67473">
        <ele>427.79998779297</ele>
        <time>2017-05-31T10:54:04.000Z</time>
      </trkpt>
      <trkpt lat="45.6473" lon="4.67471">
        <ele>428.20001220703</ele>
        <time>2017-05-31T10:54:05.000Z</time>
      </trkpt>
      <trkpt lat="45.6473" lon="4.67468">
        <ele>428.60000610352</ele>
        <time>2017-05-31T10:54:06.000Z</time>
      </trkpt>
      <trkpt lat="45.64729" lon="4.67466">
        <ele>429</ele>
        <time>2017-05-31T10:54:07.000Z</time>
      </trkpt>
      <trkpt lat="45.64729" lon="4.67464">
        <ele>429.39999389648</ele>
        <time>2017-05-31T10:54:08.000Z</time>
      </trkpt>
      <trkpt lat="45.64728" lon="4.67459">
        <ele>429.39999389648</ele>
        <time>2017-05-31T10:54:10.000Z</time>
      </trkpt>
      <trkpt lat="45.64722" lon="4.67445">
        <ele>429.79998779297</ele>
        <time>2017-05-31T10:54:17.000Z</time>
      </trkpt>
      <trkpt lat="45.64721" lon="4.67444">
        <ele>430.20001220703</ele>
        <time>2017-05-31T10:54:18.000Z</time>
      </trkpt>
      <trkpt lat="45.6472" lon="4.67442">
        <ele>430.79998779297</ele>
        <time>2017-05-31T10:54:19.000Z</time>
      </trkpt>
      <trkpt lat="45.64719" lon="4.6744">
        <ele>431.20001220703</ele>
        <time>2017-05-31T10:54:20.000Z</time>
      </trkpt>
      <trkpt lat="45.64718" lon="4.67438">
        <ele>431.60000610352</ele>
        <time>2017-05-31T10:54:21.000Z</time>
      </trkpt>
      <trkpt lat="45.64705" lon="4.6742">
        <ele>432</ele>
        <time>2017-05-31T10:54:31.000Z</time>
      </trkpt>
      <trkpt lat="45.64704" lon="4.67419">
        <ele>432.39999389648</ele>
        <time>2017-05-31T10:54:32.000Z</time>
      </trkpt>
      <trkpt lat="45.64702" lon="4.67417">
        <ele>432.79998779297</ele>
        <time>2017-05-31T10:54:33.000Z</time>
      </trkpt>
      <trkpt lat="45.64701" lon="4.67416">
        <ele>433.20001220703</ele>
        <time>2017-05-31T10:54:34.000Z</time>
      </trkpt>
      <trkpt lat="45.647" lon="4.67414">
        <ele>433.79998779297</ele>
        <time>2017-05-31T10:54:35.000Z</time>
      </trkpt>
      <trkpt lat="45.64691" lon="4.67402">
        <ele>433.79998779297</ele>
        <time>2017-05-31T10:54:42.000Z</time>
      </trkpt>
      <trkpt lat="45.64688" lon="4.67396">
        <ele>434.20001220703</ele>
        <time>2017-05-31T10:54:46.000Z</time>
      </trkpt>
      <trkpt lat="45.64687" lon="4.67395">
        <ele>434.60000610352</ele>
        <time>2017-05-31T10:54:47.000Z</time>
      </trkpt>
      <trkpt lat="45.64686" lon="4.67393">
        <ele>435</ele>
        <time>2017-05-31T10:54:48.000Z</time>
      </trkpt>
      <trkpt lat="45.64685" lon="4.67391">
        <ele>435.39999389648</ele>
        <time>2017-05-31T10:54:49.000Z</time>
      </trkpt>
      <trkpt lat="45.64684" lon="4.6739">
        <ele>435.79998779297</ele>
        <time>2017-05-31T10:54:50.000Z</time>
      </trkpt>
      <trkpt lat="45.64682" lon="4.67386">
        <ele>435.79998779297</ele>
        <time>2017-05-31T10:54:52.000Z</time>
      </trkpt>
      <trkpt lat="45.64672" lon="4.67374">
        <ele>436.39999389648</ele>
        <time>2017-05-31T10:55:01.000Z</time>
      </trkpt>
      <trkpt lat="45.64672" lon="4.67375">
        <ele>436.79998779297</ele>
        <time>2017-05-31T10:55:02.000Z</time>
      </trkpt>
      <trkpt lat="45.64672" lon="4.67376">
        <ele>437.20001220703</ele>
        <time>2017-05-31T10:55:03.000Z</time>
      </trkpt>
      <trkpt lat="45.64673" lon="4.67377">
        <ele>437.60000610352</ele>
        <time>2017-05-31T10:55:04.000Z</time>
      </trkpt>
      <trkpt lat="45.64674" lon="4.67377">
        <ele>438</ele>
        <time>2017-05-31T10:55:05.000Z</time>
      </trkpt>
      <trkpt lat="45.64674" lon="4.67377">
        <ele>438</ele>
        <time>2017-05-31T10:55:06.000Z</time>
      </trkpt>
      <trkpt lat="45.64677" lon="4.67381">
        <ele>438</ele>
        <time>2017-05-31T10:55:57.000Z</time>
      </trkpt>
      <trkpt lat="45.6468" lon="4.67386">
        <ele>438</ele>
        <time>2017-05-31T10:56:00.000Z</time>
      </trkpt>
      <trkpt lat="45.64682" lon="4.67389">
        <ele>438</ele>
        <time>2017-05-31T10:56:04.000Z</time>
      </trkpt>
      <trkpt lat="45.64692" lon="4.67405">
        <ele>433.79998779297</ele>
        <time>2017-05-31T11:34:31.000Z</time>
      </trkpt>
      <trkpt lat="45.64691" lon="4.67405">
        <ele>433.79998779297</ele>
        <time>2017-05-31T11:34:32.000Z</time>
      </trkpt>
      <trkpt lat="45.64688" lon="4.67399">
        <ele>433.79998779297</ele>
        <time>2017-05-31T11:34:36.000Z</time>
      </trkpt>
      <trkpt lat="45.64686" lon="4.67395">
        <ele>433.79998779297</ele>
        <time>2017-05-31T11:34:39.000Z</time>
      </trkpt>
      <trkpt lat="45.6468" lon="4.67384">
        <ele>434.20001220703</ele>
        <time>2017-05-31T11:34:45.000Z</time>
      </trkpt>
      <trkpt lat="45.64679" lon="4.67383">
        <ele>434.60000610352</ele>
        <time>2017-05-31T11:34:46.000Z</time>
      </trkpt>
      <trkpt lat="45.64678" lon="4.67382">
        <ele>435</ele>
        <time>2017-05-31T11:34:47.000Z</time>
      </trkpt>
      <trkpt lat="45.64677" lon="4.6738">
        <ele>435.39999389648</ele>
        <time>2017-05-31T11:34:48.000Z</time>
      </trkpt>
      <trkpt lat="45.64676" lon="4.67379">
        <ele>435.79998779297</ele>
        <time>2017-05-31T11:34:49.000Z</time>
      </trkpt>
      <trkpt lat="45.64665" lon="4.67363">
        <ele>435.79998779297</ele>
        <time>2017-05-31T11:35:00.000Z</time>
      </trkpt>
      <trkpt lat="45.64661" lon="4.67347">
        <ele>435.79998779297</ele>
        <time>2017-05-31T11:35:07.000Z</time>
      </trkpt>
      <trkpt lat="45.64654" lon="4.67321">
        <ele>435.79998779297</ele>
        <time>2017-05-31T11:35:18.000Z</time>
      </trkpt>
      <trkpt lat="45.64654" lon="4.67318">
        <ele>436.39999389648</ele>
        <time>2017-05-31T11:35:19.000Z</time>
      </trkpt>
      <trkpt lat="45.64654" lon="4.67316">
        <ele>436.79998779297</ele>
        <time>2017-05-31T11:35:20.000Z</time>
      </trkpt>
      <trkpt lat="45.64653" lon="4.67313">
        <ele>437.20001220703</ele>
        <time>2017-05-31T11:35:21.000Z</time>
      </trkpt>
      <trkpt lat="45.64653" lon="4.6731">
        <ele>437.60000610352</ele>
        <time>2017-05-31T11:35:22.000Z</time>
      </trkpt>
      <trkpt lat="45.64653" lon="4.67307">
        <ele>438.20001220703</ele>
        <time>2017-05-31T11:35:23.000Z</time>
      </trkpt>
      <trkpt lat="45.64651" lon="4.67292">
        <ele>438.20001220703</ele>
        <time>2017-05-31T11:35:28.000Z</time>
      </trkpt>
      <trkpt lat="45.6465" lon="4.67266">
        <ele>438.20001220703</ele>
        <time>2017-05-31T11:35:35.000Z</time>
      </trkpt>
      <trkpt lat="45.64647" lon="4.67233">
        <ele>438.20001220703</ele>
        <time>2017-05-31T11:35:46.000Z</time>
      </trkpt>
      <trkpt lat="45.64645" lon="4.67216">
        <ele>438.20001220703</ele>
        <time>2017-05-31T11:35:54.000Z</time>
      </trkpt>
      <trkpt lat="45.64645" lon="4.67216">
        <ele>438.20001220703</ele>
        <time>2017-05-31T11:35:56.000Z</time>
      </trkpt>
      <trkpt lat="45.64648" lon="4.67219">
        <ele>438.20001220703</ele>
        <time>2017-05-31T11:36:06.000Z</time>
      </trkpt>
      <trkpt lat="45.64649" lon="4.67222">
        <ele>438.20001220703</ele>
        <time>2017-05-31T11:36:07.000Z</time>
      </trkpt>
      <trkpt lat="45.64649" lon="4.67227">
        <ele>438.20001220703</ele>
        <time>2017-05-31T11:36:10.000Z</time>
      </trkpt>
      <trkpt lat="45.64649" lon="4.6723">
        <ele>438.20001220703</ele>
        <time>2017-05-31T11:36:13.000Z</time>
      </trkpt>
      <trkpt lat="45.64647" lon="4.67224">
        <ele>438.20001220703</ele>
        <time>2017-05-31T11:36:20.000Z</time>
      </trkpt>
      <trkpt lat="45.64647" lon="4.67215">
        <ele>438.20001220703</ele>
        <time>2017-05-31T11:36:23.000Z</time>
      </trkpt>
      <trkpt lat="45.64645" lon="4.67208">
        <ele>438.20001220703</ele>
        <time>2017-05-31T11:36:30.000Z</time>
      </trkpt>
      <trkpt lat="45.64648" lon="4.67228">
        <ele>438.20001220703</ele>
        <time>2017-05-31T11:36:37.000Z</time>
      </trkpt>
      <trkpt lat="45.64649" lon="4.67229">
        <ele>438.20001220703</ele>
        <time>2017-05-31T11:36:39.000Z</time>
      </trkpt>
      <trkpt lat="45.64648" lon="4.67225">
        <ele>438.20001220703</ele>
        <time>2017-05-31T11:36:53.000Z</time>
      </trkpt>
      <trkpt lat="45.6465" lon="4.67201">
        <ele>438.20001220703</ele>
        <time>2017-05-31T11:37:01.000Z</time>
      </trkpt>
      <trkpt lat="45.64663" lon="4.6717">
        <ele>438.20001220703</ele>
        <time>2017-05-31T11:37:09.000Z</time>
      </trkpt>
      <trkpt lat="45.64682" lon="4.67121">
        <ele>438.20001220703</ele>
        <time>2017-05-31T11:37:18.000Z</time>
      </trkpt>
      <trkpt lat="45.64693" lon="4.6708">
        <ele>438.20001220703</ele>
        <time>2017-05-31T11:37:24.000Z</time>
      </trkpt>
      <trkpt lat="45.64702" lon="4.67042">
        <ele>438.20001220703</ele>
        <time>2017-05-31T11:37:30.000Z</time>
      </trkpt>
      <trkpt lat="45.64703" lon="4.67026">
        <ele>438.20001220703</ele>
        <time>2017-05-31T11:37:34.000Z</time>
      </trkpt>
      <trkpt lat="45.64703" lon="4.67026">
        <ele>438.20001220703</ele>
        <time>2017-05-31T11:37:36.000Z</time>
      </trkpt>
      <trkpt lat="45.64701" lon="4.67024">
        <ele>438.20001220703</ele>
        <time>2017-05-31T11:37:58.000Z</time>
      </trkpt>
      <trkpt lat="45.64689" lon="4.67011">
        <ele>438.20001220703</ele>
        <time>2017-05-31T11:38:01.000Z</time>
      </trkpt>
      <trkpt lat="45.64684" lon="4.67006">
        <ele>437.60000610352</ele>
        <time>2017-05-31T11:38:02.000Z</time>
      </trkpt>
      <trkpt lat="45.64679" lon="4.67001">
        <ele>437.20001220703</ele>
        <time>2017-05-31T11:38:03.000Z</time>
      </trkpt>
      <trkpt lat="45.64675" lon="4.66994">
        <ele>436.79998779297</ele>
        <time>2017-05-31T11:38:04.000Z</time>
      </trkpt>
      <trkpt lat="45.6467" lon="4.66987">
        <ele>436.39999389648</ele>
        <time>2017-05-31T11:38:05.000Z</time>
      </trkpt>
      <trkpt lat="45.64665" lon="4.66979">
        <ele>436</ele>
        <time>2017-05-31T11:38:06.000Z</time>
      </trkpt>
      <trkpt lat="45.64655" lon="4.66964">
        <ele>435.39999389648</ele>
        <time>2017-05-31T11:38:08.000Z</time>
      </trkpt>
      <trkpt lat="45.6465" lon="4.66957">
        <ele>435</ele>
        <time>2017-05-31T11:38:09.000Z</time>
      </trkpt>
      <trkpt lat="45.64645" lon="4.66949">
        <ele>434.39999389648</ele>
        <time>2017-05-31T11:38:10.000Z</time>
      </trkpt>
      <trkpt lat="45.6464" lon="4.66941">
        <ele>434</ele>
        <time>2017-05-31T11:38:11.000Z</time>
      </trkpt>
      <trkpt lat="45.64632" lon="4.66925">
        <ele>433.60000610352</ele>
        <time>2017-05-31T11:38:13.000Z</time>
      </trkpt>
      <trkpt lat="45.64628" lon="4.66916">
        <ele>433</ele>
        <time>2017-05-31T11:38:14.000Z</time>
      </trkpt>
      <trkpt lat="45.64619" lon="4.66899">
        <ele>432.60000610352</ele>
        <time>2017-05-31T11:38:16.000Z</time>
      </trkpt>
      <trkpt lat="45.64615" lon="4.66889">
        <ele>432.20001220703</ele>
        <time>2017-05-31T11:38:17.000Z</time>
      </trkpt>
      <trkpt lat="45.64612" lon="4.66879">
        <ele>431.60000610352</ele>
        <time>2017-05-31T11:38:18.000Z</time>
      </trkpt>
      <trkpt lat="45.64609" lon="4.6687">
        <ele>431</ele>
        <time>2017-05-31T11:38:19.000Z</time>
      </trkpt>
      <trkpt lat="45.64606" lon="4.66859">
        <ele>430.20001220703</ele>
        <time>2017-05-31T11:38:20.000Z</time>
      </trkpt>
      <trkpt lat="45.64603" lon="4.66849">
        <ele>429.60000610352</ele>
        <time>2017-05-31T11:38:21.000Z</time>
      </trkpt>
      <trkpt lat="45.646" lon="4.66837">
        <ele>429</ele>
        <time>2017-05-31T11:38:22.000Z</time>
      </trkpt>
      <trkpt lat="45.64597" lon="4.66825">
        <ele>428.60000610352</ele>
        <time>2017-05-31T11:38:23.000Z</time>
      </trkpt>
      <trkpt lat="45.64595" lon="4.66814">
        <ele>428</ele>
        <time>2017-05-31T11:38:24.000Z</time>
      </trkpt>
      <trkpt lat="45.64593" lon="4.66804">
        <ele>427.39999389648</ele>
        <time>2017-05-31T11:38:25.000Z</time>
      </trkpt>
      <trkpt lat="45.64591" lon="4.66793">
        <ele>426.79998779297</ele>
        <time>2017-05-31T11:38:26.000Z</time>
      </trkpt>
      <trkpt lat="45.64586" lon="4.66785">
        <ele>426.39999389648</ele>
        <time>2017-05-31T11:38:27.000Z</time>
      </trkpt>
      <trkpt lat="45.6458" lon="4.66775">
        <ele>425.79998779297</ele>
        <time>2017-05-31T11:38:28.000Z</time>
      </trkpt>
      <trkpt lat="45.64575" lon="4.66767">
        <ele>425.39999389648</ele>
        <time>2017-05-31T11:38:29.000Z</time>
      </trkpt>
      <trkpt lat="45.64571" lon="4.66758">
        <ele>424.79998779297</ele>
        <time>2017-05-31T11:38:30.000Z</time>
      </trkpt>
      <trkpt lat="45.64567" lon="4.66749">
        <ele>424.39999389648</ele>
        <time>2017-05-31T11:38:31.000Z</time>
      </trkpt>
      <trkpt lat="45.6456" lon="4.66731">
        <ele>423.79998779297</ele>
        <time>2017-05-31T11:38:33.000Z</time>
      </trkpt>
      <trkpt lat="45.64558" lon="4.66724">
        <ele>423.39999389648</ele>
        <time>2017-05-31T11:38:34.000Z</time>
      </trkpt>
      <trkpt lat="45.64555" lon="4.66716">
        <ele>422.79998779297</ele>
        <time>2017-05-31T11:38:35.000Z</time>
      </trkpt>
      <trkpt lat="45.64553" lon="4.66709">
        <ele>422.39999389648</ele>
        <time>2017-05-31T11:38:36.000Z</time>
      </trkpt>
      <trkpt lat="45.6455" lon="4.66702">
        <ele>421.79998779297</ele>
        <time>2017-05-31T11:38:37.000Z</time>
      </trkpt>
      <trkpt lat="45.64546" lon="4.66687">
        <ele>421.39999389648</ele>
        <time>2017-05-31T11:38:39.000Z</time>
      </trkpt>
      <trkpt lat="45.64546" lon="4.66677">
        <ele>421</ele>
        <time>2017-05-31T11:38:40.000Z</time>
      </trkpt>
      <trkpt lat="45.64545" lon="4.66667">
        <ele>420.60000610352</ele>
        <time>2017-05-31T11:38:41.000Z</time>
      </trkpt>
      <trkpt lat="45.64544" lon="4.66658">
        <ele>420</ele>
        <time>2017-05-31T11:38:42.000Z</time>
      </trkpt>
      <trkpt lat="45.64542" lon="4.66649">
        <ele>419.60000610352</ele>
        <time>2017-05-31T11:38:43.000Z</time>
      </trkpt>
      <trkpt lat="45.6454" lon="4.66639">
        <ele>419.60000610352</ele>
        <time>2017-05-31T11:38:44.000Z</time>
      </trkpt>
      <trkpt lat="45.64534" lon="4.66609">
        <ele>419.60000610352</ele>
        <time>2017-05-31T11:38:47.000Z</time>
      </trkpt>
      <trkpt lat="45.6453" lon="4.6658">
        <ele>419.20001220703</ele>
        <time>2017-05-31T11:38:50.000Z</time>
      </trkpt>
      <trkpt lat="45.64529" lon="4.6657">
        <ele>418.79998779297</ele>
        <time>2017-05-31T11:38:51.000Z</time>
      </trkpt>
      <trkpt lat="45.64528" lon="4.66561">
        <ele>418.20001220703</ele>
        <time>2017-05-31T11:38:52.000Z</time>
      </trkpt>
      <trkpt lat="45.64527" lon="4.66551">
        <ele>417.79998779297</ele>
        <time>2017-05-31T11:38:53.000Z</time>
      </trkpt>
      <trkpt lat="45.64526" lon="4.66542">
        <ele>417.39999389648</ele>
        <time>2017-05-31T11:38:54.000Z</time>
      </trkpt>
      <trkpt lat="45.64523" lon="4.66516">
        <ele>417.39999389648</ele>
        <time>2017-05-31T11:38:57.000Z</time>
      </trkpt>
      <trkpt lat="45.64517" lon="4.665">
        <ele>417.39999389648</ele>
        <time>2017-05-31T11:38:59.000Z</time>
      </trkpt>
      <trkpt lat="45.6451" lon="4.66487">
        <ele>417.39999389648</ele>
        <time>2017-05-31T11:39:01.000Z</time>
      </trkpt>
      <trkpt lat="45.64495" lon="4.66463">
        <ele>417.39999389648</ele>
        <time>2017-05-31T11:39:05.000Z</time>
      </trkpt>
      <trkpt lat="45.64462" lon="4.66405">
        <ele>417.39999389648</ele>
        <time>2017-05-31T11:39:14.000Z</time>
      </trkpt>
      <trkpt lat="45.64435" lon="4.6634">
        <ele>417.39999389648</ele>
        <time>2017-05-31T11:39:23.000Z</time>
      </trkpt>
      <trkpt lat="45.64414" lon="4.66308">
        <ele>417.39999389648</ele>
        <time>2017-05-31T11:39:28.000Z</time>
      </trkpt>
      <trkpt lat="45.64409" lon="4.66302">
        <ele>417.39999389648</ele>
        <time>2017-05-31T11:39:29.000Z</time>
      </trkpt>
      <trkpt lat="45.64383" lon="4.66273">
        <ele>417.39999389648</ele>
        <time>2017-05-31T11:39:35.000Z</time>
      </trkpt>
      <trkpt lat="45.64347" lon="4.66227">
        <ele>417.39999389648</ele>
        <time>2017-05-31T11:39:44.000Z</time>
      </trkpt>
      <trkpt lat="45.64302" lon="4.6618">
        <ele>417.39999389648</ele>
        <time>2017-05-31T11:39:54.000Z</time>
      </trkpt>
      <trkpt lat="45.64259" lon="4.66134">
        <ele>417</ele>
        <time>2017-05-31T11:40:04.000Z</time>
      </trkpt>
      <trkpt lat="45.64255" lon="4.66129">
        <ele>416.60000610352</ele>
        <time>2017-05-31T11:40:05.000Z</time>
      </trkpt>
      <trkpt lat="45.6425" lon="4.66124">
        <ele>416.20001220703</ele>
        <time>2017-05-31T11:40:06.000Z</time>
      </trkpt>
      <trkpt lat="45.64246" lon="4.66119">
        <ele>415.79998779297</ele>
        <time>2017-05-31T11:40:07.000Z</time>
      </trkpt>
      <trkpt lat="45.64242" lon="4.66114">
        <ele>415.39999389648</ele>
        <time>2017-05-31T11:40:08.000Z</time>
      </trkpt>
      <trkpt lat="45.64238" lon="4.6611">
        <ele>415.39999389648</ele>
        <time>2017-05-31T11:40:09.000Z</time>
      </trkpt>
      <trkpt lat="45.6422" lon="4.6609">
        <ele>415.39999389648</ele>
        <time>2017-05-31T11:40:13.000Z</time>
      </trkpt>
      <trkpt lat="45.6418" lon="4.66047">
        <ele>415.39999389648</ele>
        <time>2017-05-31T11:40:22.000Z</time>
      </trkpt>
      <trkpt lat="45.64135" lon="4.66001">
        <ele>415.39999389648</ele>
        <time>2017-05-31T11:40:32.000Z</time>
      </trkpt>
      <trkpt lat="45.6413" lon="4.65997">
        <ele>415.39999389648</ele>
        <time>2017-05-31T11:40:33.000Z</time>
      </trkpt>
      <trkpt lat="45.64095" lon="4.65961">
        <ele>415.39999389648</ele>
        <time>2017-05-31T11:40:42.000Z</time>
      </trkpt>
      <trkpt lat="45.64064" lon="4.65929">
        <ele>415.39999389648</ele>
        <time>2017-05-31T11:40:51.000Z</time>
      </trkpt>
      <trkpt lat="45.64042" lon="4.65906">
        <ele>415.39999389648</ele>
        <time>2017-05-31T11:40:58.000Z</time>
      </trkpt>
      <trkpt lat="45.64036" lon="4.659">
        <ele>415</ele>
        <time>2017-05-31T11:41:00.000Z</time>
      </trkpt>
      <trkpt lat="45.64033" lon="4.65897">
        <ele>414.60000610352</ele>
        <time>2017-05-31T11:41:01.000Z</time>
      </trkpt>
      <trkpt lat="45.64031" lon="4.65895">
        <ele>414</ele>
        <time>2017-05-31T11:41:02.000Z</time>
      </trkpt>
      <trkpt lat="45.64029" lon="4.65892">
        <ele>413.60000610352</ele>
        <time>2017-05-31T11:41:03.000Z</time>
      </trkpt>
      <trkpt lat="45.64026" lon="4.65889">
        <ele>413.20001220703</ele>
        <time>2017-05-31T11:41:04.000Z</time>
      </trkpt>
      <trkpt lat="45.6402" lon="4.65884">
        <ele>413.20001220703</ele>
        <time>2017-05-31T11:41:06.000Z</time>
      </trkpt>
      <trkpt lat="45.63997" lon="4.65864">
        <ele>413.20001220703</ele>
        <time>2017-05-31T11:41:15.000Z</time>
      </trkpt>
      <trkpt lat="45.63984" lon="4.65862">
        <ele>413.20001220703</ele>
        <time>2017-05-31T11:41:21.000Z</time>
      </trkpt>
      <trkpt lat="45.63983" lon="4.65865">
        <ele>413.20001220703</ele>
        <time>2017-05-31T11:41:22.000Z</time>
      </trkpt>
      <trkpt lat="45.63978" lon="4.65876">
        <ele>413.20001220703</ele>
        <time>2017-05-31T11:41:25.000Z</time>
      </trkpt>
      <trkpt lat="45.63966" lon="4.65909">
        <ele>413.20001220703</ele>
        <time>2017-05-31T11:41:32.000Z</time>
      </trkpt>
      <trkpt lat="45.63961" lon="4.6592">
        <ele>412.79998779297</ele>
        <time>2017-05-31T11:41:34.000Z</time>
      </trkpt>
      <trkpt lat="45.63959" lon="4.65925">
        <ele>412.39999389648</ele>
        <time>2017-05-31T11:41:35.000Z</time>
      </trkpt>
      <trkpt lat="45.63956" lon="4.65931">
        <ele>411.79998779297</ele>
        <time>2017-05-31T11:41:36.000Z</time>
      </trkpt>
      <trkpt lat="45.63953" lon="4.65936">
        <ele>411.39999389648</ele>
        <time>2017-05-31T11:41:37.000Z</time>
      </trkpt>
      <trkpt lat="45.63951" lon="4.65942">
        <ele>411</ele>
        <time>2017-05-31T11:41:38.000Z</time>
      </trkpt>
      <trkpt lat="45.63946" lon="4.65954">
        <ele>411</ele>
        <time>2017-05-31T11:41:40.000Z</time>
      </trkpt>
      <trkpt lat="45.63943" lon="4.65961">
        <ele>410.60000610352</ele>
        <time>2017-05-31T11:41:41.000Z</time>
      </trkpt>
      <trkpt lat="45.6394" lon="4.65968">
        <ele>410.20001220703</ele>
        <time>2017-05-31T11:41:42.000Z</time>
      </trkpt>
      <trkpt lat="45.63937" lon="4.65975">
        <ele>409.79998779297</ele>
        <time>2017-05-31T11:41:43.000Z</time>
      </trkpt>
      <trkpt lat="45.63934" lon="4.65982">
        <ele>409.39999389648</ele>
        <time>2017-05-31T11:41:44.000Z</time>
      </trkpt>
      <trkpt lat="45.63931" lon="4.65988">
        <ele>409</ele>
        <time>2017-05-31T11:41:45.000Z</time>
      </trkpt>
      <trkpt lat="45.63928" lon="4.65994">
        <ele>409</ele>
        <time>2017-05-31T11:41:46.000Z</time>
      </trkpt>
      <trkpt lat="45.63925" lon="4.65998">
        <ele>409</ele>
        <time>2017-05-31T11:41:47.000Z</time>
      </trkpt>
      <trkpt lat="45.63919" lon="4.66005">
        <ele>408.39999389648</ele>
        <time>2017-05-31T11:41:49.000Z</time>
      </trkpt>
      <trkpt lat="45.63916" lon="4.66009">
        <ele>408</ele>
        <time>2017-05-31T11:41:50.000Z</time>
      </trkpt>
      <trkpt lat="45.63913" lon="4.66013">
        <ele>407.60000610352</ele>
        <time>2017-05-31T11:41:51.000Z</time>
      </trkpt>
      <trkpt lat="45.6391" lon="4.66018">
        <ele>407.20001220703</ele>
        <time>2017-05-31T11:41:52.000Z</time>
      </trkpt>
      <trkpt lat="45.63906" lon="4.66023">
        <ele>406.79998779297</ele>
        <time>2017-05-31T11:41:53.000Z</time>
      </trkpt>
      <trkpt lat="45.63904" lon="4.66028">
        <ele>406.79998779297</ele>
        <time>2017-05-31T11:41:54.000Z</time>
      </trkpt>
      <trkpt lat="45.63892" lon="4.66049">
        <ele>406.39999389648</ele>
        <time>2017-05-31T11:41:58.000Z</time>
      </trkpt>
      <trkpt lat="45.6389" lon="4.66054">
        <ele>406</ele>
        <time>2017-05-31T11:41:59.000Z</time>
      </trkpt>
      <trkpt lat="45.63887" lon="4.6606">
        <ele>405.39999389648</ele>
        <time>2017-05-31T11:42:00.000Z</time>
      </trkpt>
      <trkpt lat="45.63885" lon="4.66066">
        <ele>405</ele>
        <time>2017-05-31T11:42:01.000Z</time>
      </trkpt>
      <trkpt lat="45.63882" lon="4.66072">
        <ele>404.60000610352</ele>
        <time>2017-05-31T11:42:02.000Z</time>
      </trkpt>
      <trkpt lat="45.63874" lon="4.66088">
        <ele>404.60000610352</ele>
        <time>2017-05-31T11:42:05.000Z</time>
      </trkpt>
      <trkpt lat="45.63867" lon="4.661">
        <ele>404</ele>
        <time>2017-05-31T11:42:07.000Z</time>
      </trkpt>
      <trkpt lat="45.63863" lon="4.66106">
        <ele>403.60000610352</ele>
        <time>2017-05-31T11:42:08.000Z</time>
      </trkpt>
      <trkpt lat="45.6386" lon="4.66112">
        <ele>403</ele>
        <time>2017-05-31T11:42:09.000Z</time>
      </trkpt>
      <trkpt lat="45.63856" lon="4.66117">
        <ele>402.60000610352</ele>
        <time>2017-05-31T11:42:10.000Z</time>
      </trkpt>
      <trkpt lat="45.63853" lon="4.66123">
        <ele>402</ele>
        <time>2017-05-31T11:42:11.000Z</time>
      </trkpt>
      <trkpt lat="45.63845" lon="4.66135">
        <ele>402</ele>
        <time>2017-05-31T11:42:13.000Z</time>
      </trkpt>
      <trkpt lat="45.63835" lon="4.66145">
        <ele>401.60000610352</ele>
        <time>2017-05-31T11:42:15.000Z</time>
      </trkpt>
      <trkpt lat="45.63831" lon="4.6615">
        <ele>401.20001220703</ele>
        <time>2017-05-31T11:42:16.000Z</time>
      </trkpt>
      <trkpt lat="45.63826" lon="4.66155">
        <ele>400.60000610352</ele>
        <time>2017-05-31T11:42:17.000Z</time>
      </trkpt>
      <trkpt lat="45.63822" lon="4.6616">
        <ele>400.20001220703</ele>
        <time>2017-05-31T11:42:18.000Z</time>
      </trkpt>
      <trkpt lat="45.63818" lon="4.66166">
        <ele>399.79998779297</ele>
        <time>2017-05-31T11:42:19.000Z</time>
      </trkpt>
      <trkpt lat="45.63804" lon="4.66187">
        <ele>399.39999389648</ele>
        <time>2017-05-31T11:42:22.000Z</time>
      </trkpt>
      <trkpt lat="45.638" lon="4.66194">
        <ele>398.79998779297</ele>
        <time>2017-05-31T11:42:23.000Z</time>
      </trkpt>
      <trkpt lat="45.63796" lon="4.66203">
        <ele>398.39999389648</ele>
        <time>2017-05-31T11:42:24.000Z</time>
      </trkpt>
      <trkpt lat="45.63792" lon="4.66211">
        <ele>398</ele>
        <time>2017-05-31T11:42:25.000Z</time>
      </trkpt>
      <trkpt lat="45.63787" lon="4.6622">
        <ele>397.39999389648</ele>
        <time>2017-05-31T11:42:26.000Z</time>
      </trkpt>
      <trkpt lat="45.63783" lon="4.66228">
        <ele>397</ele>
        <time>2017-05-31T11:42:27.000Z</time>
      </trkpt>
      <trkpt lat="45.63779" lon="4.66236">
        <ele>396.39999389648</ele>
        <time>2017-05-31T11:42:28.000Z</time>
      </trkpt>
      <trkpt lat="45.63775" lon="4.66243">
        <ele>396</ele>
        <time>2017-05-31T11:42:29.000Z</time>
      </trkpt>
      <trkpt lat="45.63771" lon="4.66249">
        <ele>395.39999389648</ele>
        <time>2017-05-31T11:42:30.000Z</time>
      </trkpt>
      <trkpt lat="45.63763" lon="4.66265">
        <ele>395</ele>
        <time>2017-05-31T11:42:32.000Z</time>
      </trkpt>
      <trkpt lat="45.63759" lon="4.66274">
        <ele>394.60000610352</ele>
        <time>2017-05-31T11:42:33.000Z</time>
      </trkpt>
      <trkpt lat="45.63755" lon="4.66281">
        <ele>394.20001220703</ele>
        <time>2017-05-31T11:42:34.000Z</time>
      </trkpt>
      <trkpt lat="45.63751" lon="4.66289">
        <ele>393.60000610352</ele>
        <time>2017-05-31T11:42:35.000Z</time>
      </trkpt>
      <trkpt lat="45.63747" lon="4.66298">
        <ele>393.20001220703</ele>
        <time>2017-05-31T11:42:36.000Z</time>
      </trkpt>
      <trkpt lat="45.63739" lon="4.66315">
        <ele>393.20001220703</ele>
        <time>2017-05-31T11:42:38.000Z</time>
      </trkpt>
      <trkpt lat="45.63734" lon="4.66324">
        <ele>392.79998779297</ele>
        <time>2017-05-31T11:42:39.000Z</time>
      </trkpt>
      <trkpt lat="45.6373" lon="4.66331">
        <ele>392.39999389648</ele>
        <time>2017-05-31T11:42:40.000Z</time>
      </trkpt>
      <trkpt lat="45.63725" lon="4.66338">
        <ele>392</ele>
        <time>2017-05-31T11:42:41.000Z</time>
      </trkpt>
      <trkpt lat="45.6372" lon="4.66344">
        <ele>391.39999389648</ele>
        <time>2017-05-31T11:42:42.000Z</time>
      </trkpt>
      <trkpt lat="45.63715" lon="4.66351">
        <ele>391</ele>
        <time>2017-05-31T11:42:43.000Z</time>
      </trkpt>
      <trkpt lat="45.63704" lon="4.66361">
        <ele>390.60000610352</ele>
        <time>2017-05-31T11:42:45.000Z</time>
      </trkpt>
      <trkpt lat="45.63699" lon="4.66367">
        <ele>390.20001220703</ele>
        <time>2017-05-31T11:42:46.000Z</time>
      </trkpt>
      <trkpt lat="45.63694" lon="4.66373">
        <ele>389.79998779297</ele>
        <time>2017-05-31T11:42:47.000Z</time>
      </trkpt>
      <trkpt lat="45.6369" lon="4.66379">
        <ele>389.39999389648</ele>
        <time>2017-05-31T11:42:48.000Z</time>
      </trkpt>
      <trkpt lat="45.63685" lon="4.66385">
        <ele>388.79998779297</ele>
        <time>2017-05-31T11:42:49.000Z</time>
      </trkpt>
      <trkpt lat="45.63665" lon="4.66404">
        <ele>388.39999389648</ele>
        <time>2017-05-31T11:42:52.000Z</time>
      </trkpt>
      <trkpt lat="45.6366" lon="4.6641">
        <ele>388</ele>
        <time>2017-05-31T11:42:53.000Z</time>
      </trkpt>
      <trkpt lat="45.63654" lon="4.66415">
        <ele>387.39999389648</ele>
        <time>2017-05-31T11:42:54.000Z</time>
      </trkpt>
      <trkpt lat="45.63649" lon="4.66418">
        <ele>387</ele>
        <time>2017-05-31T11:42:55.000Z</time>
      </trkpt>
      <trkpt lat="45.63642" lon="4.66422">
        <ele>386.39999389648</ele>
        <time>2017-05-31T11:42:56.000Z</time>
      </trkpt>
      <trkpt lat="45.6363" lon="4.6643">
        <ele>386</ele>
        <time>2017-05-31T11:42:58.000Z</time>
      </trkpt>
      <trkpt lat="45.63623" lon="4.66433">
        <ele>385.60000610352</ele>
        <time>2017-05-31T11:42:59.000Z</time>
      </trkpt>
      <trkpt lat="45.63616" lon="4.66435">
        <ele>385.20001220703</ele>
        <time>2017-05-31T11:43:00.000Z</time>
      </trkpt>
      <trkpt lat="45.63609" lon="4.66437">
        <ele>384.79998779297</ele>
        <time>2017-05-31T11:43:01.000Z</time>
      </trkpt>
      <trkpt lat="45.63602" lon="4.66439">
        <ele>384.39999389648</ele>
        <time>2017-05-31T11:43:02.000Z</time>
      </trkpt>
      <trkpt lat="45.63595" lon="4.66441">
        <ele>384</ele>
        <time>2017-05-31T11:43:03.000Z</time>
      </trkpt>
      <trkpt lat="45.63588" lon="4.66442">
        <ele>383.60000610352</ele>
        <time>2017-05-31T11:43:04.000Z</time>
      </trkpt>
      <trkpt lat="45.63581" lon="4.66443">
        <ele>383.20001220703</ele>
        <time>2017-05-31T11:43:05.000Z</time>
      </trkpt>
      <trkpt lat="45.63574" lon="4.66444">
        <ele>382.79998779297</ele>
        <time>2017-05-31T11:43:06.000Z</time>
      </trkpt>
      <trkpt lat="45.63567" lon="4.66444">
        <ele>382.20001220703</ele>
        <time>2017-05-31T11:43:07.000Z</time>
      </trkpt>
      <trkpt lat="45.63553" lon="4.66444">
        <ele>382.20001220703</ele>
        <time>2017-05-31T11:43:09.000Z</time>
      </trkpt>
      <trkpt lat="45.63546" lon="4.66443">
        <ele>381.79998779297</ele>
        <time>2017-05-31T11:43:10.000Z</time>
      </trkpt>
      <trkpt lat="45.63539" lon="4.66443">
        <ele>381.39999389648</ele>
        <time>2017-05-31T11:43:11.000Z</time>
      </trkpt>
      <trkpt lat="45.63533" lon="4.66441">
        <ele>381</ele>
        <time>2017-05-31T11:43:12.000Z</time>
      </trkpt>
      <trkpt lat="45.63526" lon="4.6644">
        <ele>380.39999389648</ele>
        <time>2017-05-31T11:43:13.000Z</time>
      </trkpt>
      <trkpt lat="45.6352" lon="4.66438">
        <ele>380</ele>
        <time>2017-05-31T11:43:14.000Z</time>
      </trkpt>
      <trkpt lat="45.63513" lon="4.66438">
        <ele>380</ele>
        <time>2017-05-31T11:43:15.000Z</time>
      </trkpt>
      <trkpt lat="45.63506" lon="4.66437">
        <ele>379.60000610352</ele>
        <time>2017-05-31T11:43:16.000Z</time>
      </trkpt>
      <trkpt lat="45.63499" lon="4.66437">
        <ele>379.20001220703</ele>
        <time>2017-05-31T11:43:17.000Z</time>
      </trkpt>
      <trkpt lat="45.63492" lon="4.66436">
        <ele>378.79998779297</ele>
        <time>2017-05-31T11:43:18.000Z</time>
      </trkpt>
      <trkpt lat="45.63485" lon="4.66435">
        <ele>378.39999389648</ele>
        <time>2017-05-31T11:43:19.000Z</time>
      </trkpt>
      <trkpt lat="45.63478" lon="4.66433">
        <ele>378</ele>
        <time>2017-05-31T11:43:20.000Z</time>
      </trkpt>
      <trkpt lat="45.63471" lon="4.66432">
        <ele>377.60000610352</ele>
        <time>2017-05-31T11:43:22.000Z</time>
      </trkpt>
      <trkpt lat="45.63464" lon="4.66429">
        <ele>377.20001220703</ele>
        <time>2017-05-31T11:43:23.000Z</time>
      </trkpt>
      <trkpt lat="45.63458" lon="4.66426">
        <ele>376.79998779297</ele>
        <time>2017-05-31T11:43:24.000Z</time>
      </trkpt>
      <trkpt lat="45.63451" lon="4.66421">
        <ele>376.39999389648</ele>
        <time>2017-05-31T11:43:25.000Z</time>
      </trkpt>
      <trkpt lat="45.63429" lon="4.66403">
        <ele>376</ele>
        <time>2017-05-31T11:43:28.000Z</time>
      </trkpt>
      <trkpt lat="45.63423" lon="4.66398">
        <ele>376</ele>
        <time>2017-05-31T11:43:29.000Z</time>
      </trkpt>
      <trkpt lat="45.63416" lon="4.66393">
        <ele>375.39999389648</ele>
        <time>2017-05-31T11:43:30.000Z</time>
      </trkpt>
      <trkpt lat="45.63409" lon="4.66388">
        <ele>374.79998779297</ele>
        <time>2017-05-31T11:43:31.000Z</time>
      </trkpt>
      <trkpt lat="45.63402" lon="4.66383">
        <ele>374.39999389648</ele>
        <time>2017-05-31T11:43:32.000Z</time>
      </trkpt>
      <trkpt lat="45.63395" lon="4.66379">
        <ele>373.79998779297</ele>
        <time>2017-05-31T11:43:33.000Z</time>
      </trkpt>
      <trkpt lat="45.63388" lon="4.66375">
        <ele>373.20001220703</ele>
        <time>2017-05-31T11:43:34.000Z</time>
      </trkpt>
      <trkpt lat="45.6338" lon="4.66372">
        <ele>372.79998779297</ele>
        <time>2017-05-31T11:43:35.000Z</time>
      </trkpt>
      <trkpt lat="45.63373" lon="4.6637">
        <ele>372.39999389648</ele>
        <time>2017-05-31T11:43:36.000Z</time>
      </trkpt>
      <trkpt lat="45.63365" lon="4.66368">
        <ele>371.79998779297</ele>
        <time>2017-05-31T11:43:37.000Z</time>
      </trkpt>
      <trkpt lat="45.63357" lon="4.66367">
        <ele>371.39999389648</ele>
        <time>2017-05-31T11:43:38.000Z</time>
      </trkpt>
      <trkpt lat="45.63349" lon="4.66365">
        <ele>370.79998779297</ele>
        <time>2017-05-31T11:43:39.000Z</time>
      </trkpt>
      <trkpt lat="45.63342" lon="4.66364">
        <ele>370.39999389648</ele>
        <time>2017-05-31T11:43:40.000Z</time>
      </trkpt>
      <trkpt lat="45.63334" lon="4.66363">
        <ele>370</ele>
        <time>2017-05-31T11:43:41.000Z</time>
      </trkpt>
      <trkpt lat="45.63326" lon="4.66362">
        <ele>369.60000610352</ele>
        <time>2017-05-31T11:43:42.000Z</time>
      </trkpt>
      <trkpt lat="45.63318" lon="4.66361">
        <ele>369.20001220703</ele>
        <time>2017-05-31T11:43:43.000Z</time>
      </trkpt>
      <trkpt lat="45.6331" lon="4.66359">
        <ele>368.79998779297</ele>
        <time>2017-05-31T11:43:44.000Z</time>
      </trkpt>
      <trkpt lat="45.63303" lon="4.66357">
        <ele>368.39999389648</ele>
        <time>2017-05-31T11:43:45.000Z</time>
      </trkpt>
      <trkpt lat="45.63295" lon="4.66354">
        <ele>367.79998779297</ele>
        <time>2017-05-31T11:43:46.000Z</time>
      </trkpt>
      <trkpt lat="45.63287" lon="4.66351">
        <ele>367.39999389648</ele>
        <time>2017-05-31T11:43:47.000Z</time>
      </trkpt>
      <trkpt lat="45.6328" lon="4.66348">
        <ele>366.79998779297</ele>
        <time>2017-05-31T11:43:48.000Z</time>
      </trkpt>
      <trkpt lat="45.63274" lon="4.66345">
        <ele>366.39999389648</ele>
        <time>2017-05-31T11:43:49.000Z</time>
      </trkpt>
      <trkpt lat="45.63267" lon="4.66342">
        <ele>366</ele>
        <time>2017-05-31T11:43:50.000Z</time>
      </trkpt>
      <trkpt lat="45.63261" lon="4.66338">
        <ele>365.60000610352</ele>
        <time>2017-05-31T11:43:51.000Z</time>
      </trkpt>
      <trkpt lat="45.63247" lon="4.66334">
        <ele>364.79998779297</ele>
        <time>2017-05-31T11:43:53.000Z</time>
      </trkpt>
      <trkpt lat="45.6324" lon="4.66332">
        <ele>364.39999389648</ele>
        <time>2017-05-31T11:43:54.000Z</time>
      </trkpt>
      <trkpt lat="45.63232" lon="4.66332">
        <ele>364.39999389648</ele>
        <time>2017-05-31T11:43:55.000Z</time>
      </trkpt>
      <trkpt lat="45.63225" lon="4.66332">
        <ele>363.79998779297</ele>
        <time>2017-05-31T11:43:56.000Z</time>
      </trkpt>
      <trkpt lat="45.63217" lon="4.66333">
        <ele>363.39999389648</ele>
        <time>2017-05-31T11:43:57.000Z</time>
      </trkpt>
      <trkpt lat="45.63211" lon="4.66334">
        <ele>363</ele>
        <time>2017-05-31T11:43:58.000Z</time>
      </trkpt>
      <trkpt lat="45.63204" lon="4.66335">
        <ele>362.60000610352</ele>
        <time>2017-05-31T11:43:59.000Z</time>
      </trkpt>
      <trkpt lat="45.63196" lon="4.66336">
        <ele>362.20001220703</ele>
        <time>2017-05-31T11:44:00.000Z</time>
      </trkpt>
      <trkpt lat="45.63181" lon="4.66338">
        <ele>361.60000610352</ele>
        <time>2017-05-31T11:44:02.000Z</time>
      </trkpt>
      <trkpt lat="45.63173" lon="4.6634">
        <ele>361</ele>
        <time>2017-05-31T11:44:03.000Z</time>
      </trkpt>
      <trkpt lat="45.63166" lon="4.66341">
        <ele>360.60000610352</ele>
        <time>2017-05-31T11:44:04.000Z</time>
      </trkpt>
      <trkpt lat="45.63159" lon="4.66342">
        <ele>360</ele>
        <time>2017-05-31T11:44:05.000Z</time>
      </trkpt>
      <trkpt lat="45.63151" lon="4.66344">
        <ele>359.60000610352</ele>
        <time>2017-05-31T11:44:06.000Z</time>
      </trkpt>
      <trkpt lat="45.63136" lon="4.66346">
        <ele>359</ele>
        <time>2017-05-31T11:44:08.000Z</time>
      </trkpt>
      <trkpt lat="45.63128" lon="4.66348">
        <ele>358.60000610352</ele>
        <time>2017-05-31T11:44:09.000Z</time>
      </trkpt>
      <trkpt lat="45.6312" lon="4.6635">
        <ele>358</ele>
        <time>2017-05-31T11:44:10.000Z</time>
      </trkpt>
      <trkpt lat="45.63113" lon="4.66352">
        <ele>357.60000610352</ele>
        <time>2017-05-31T11:44:11.000Z</time>
      </trkpt>
      <trkpt lat="45.63105" lon="4.66353">
        <ele>357.20001220703</ele>
        <time>2017-05-31T11:44:12.000Z</time>
      </trkpt>
      <trkpt lat="45.63096" lon="4.66354">
        <ele>356.79998779297</ele>
        <time>2017-05-31T11:44:13.000Z</time>
      </trkpt>
      <trkpt lat="45.63089" lon="4.66356">
        <ele>356.20001220703</ele>
        <time>2017-05-31T11:44:14.000Z</time>
      </trkpt>
      <trkpt lat="45.63081" lon="4.66357">
        <ele>355.79998779297</ele>
        <time>2017-05-31T11:44:15.000Z</time>
      </trkpt>
      <trkpt lat="45.63073" lon="4.66359">
        <ele>355.39999389648</ele>
        <time>2017-05-31T11:44:16.000Z</time>
      </trkpt>
      <trkpt lat="45.63065" lon="4.6636">
        <ele>355</ele>
        <time>2017-05-31T11:44:17.000Z</time>
      </trkpt>
      <trkpt lat="45.6304" lon="4.66365">
        <ele>355</ele>
        <time>2017-05-31T11:44:20.000Z</time>
      </trkpt>
      <trkpt lat="45.63032" lon="4.66368">
        <ele>354.60000610352</ele>
        <time>2017-05-31T11:44:21.000Z</time>
      </trkpt>
      <trkpt lat="45.63024" lon="4.66372">
        <ele>354.20001220703</ele>
        <time>2017-05-31T11:44:22.000Z</time>
      </trkpt>
      <trkpt lat="45.63016" lon="4.66376">
        <ele>353.60000610352</ele>
        <time>2017-05-31T11:44:23.000Z</time>
      </trkpt>
      <trkpt lat="45.63008" lon="4.6638">
        <ele>353.20001220703</ele>
        <time>2017-05-31T11:44:24.000Z</time>
      </trkpt>
      <trkpt lat="45.63" lon="4.66385">
        <ele>352.60000610352</ele>
        <time>2017-05-31T11:44:25.000Z</time>
      </trkpt>
      <trkpt lat="45.62992" lon="4.66389">
        <ele>352.60000610352</ele>
        <time>2017-05-31T11:44:26.000Z</time>
      </trkpt>
      <trkpt lat="45.62967" lon="4.66401">
        <ele>352.20001220703</ele>
        <time>2017-05-31T11:44:29.000Z</time>
      </trkpt>
      <trkpt lat="45.62959" lon="4.66405">
        <ele>351.79998779297</ele>
        <time>2017-05-31T11:44:30.000Z</time>
      </trkpt>
      <trkpt lat="45.62951" lon="4.6641">
        <ele>351.39999389648</ele>
        <time>2017-05-31T11:44:31.000Z</time>
      </trkpt>
      <trkpt lat="45.62943" lon="4.66414">
        <ele>351</ele>
        <time>2017-05-31T11:44:32.000Z</time>
      </trkpt>
      <trkpt lat="45.62935" lon="4.66419">
        <ele>350.60000610352</ele>
        <time>2017-05-31T11:44:33.000Z</time>
      </trkpt>
      <trkpt lat="45.62926" lon="4.66423">
        <ele>350.20001220703</ele>
        <time>2017-05-31T11:44:34.000Z</time>
      </trkpt>
      <trkpt lat="45.62918" lon="4.66428">
        <ele>349.79998779297</ele>
        <time>2017-05-31T11:44:35.000Z</time>
      </trkpt>
      <trkpt lat="45.6291" lon="4.66432">
        <ele>349.20001220703</ele>
        <time>2017-05-31T11:44:36.000Z</time>
      </trkpt>
      <trkpt lat="45.62901" lon="4.66437">
        <ele>348.79998779297</ele>
        <time>2017-05-31T11:44:37.000Z</time>
      </trkpt>
      <trkpt lat="45.62892" lon="4.66442">
        <ele>348.39999389648</ele>
        <time>2017-05-31T11:44:38.000Z</time>
      </trkpt>
      <trkpt lat="45.62884" lon="4.66447">
        <ele>348</ele>
        <time>2017-05-31T11:44:39.000Z</time>
      </trkpt>
      <trkpt lat="45.62875" lon="4.66453">
        <ele>347.39999389648</ele>
        <time>2017-05-31T11:44:40.000Z</time>
      </trkpt>
      <trkpt lat="45.62867" lon="4.66458">
        <ele>347</ele>
        <time>2017-05-31T11:44:41.000Z</time>
      </trkpt>
      <trkpt lat="45.62858" lon="4.66465">
        <ele>346.60000610352</ele>
        <time>2017-05-31T11:44:42.000Z</time>
      </trkpt>
      <trkpt lat="45.62851" lon="4.66472">
        <ele>346.20001220703</ele>
        <time>2017-05-31T11:44:43.000Z</time>
      </trkpt>
      <trkpt lat="45.62843" lon="4.66479">
        <ele>345.60000610352</ele>
        <time>2017-05-31T11:44:44.000Z</time>
      </trkpt>
      <trkpt lat="45.62835" lon="4.66486">
        <ele>345</ele>
        <time>2017-05-31T11:44:45.000Z</time>
      </trkpt>
      <trkpt lat="45.62827" lon="4.66493">
        <ele>344.39999389648</ele>
        <time>2017-05-31T11:44:46.000Z</time>
      </trkpt>
      <trkpt lat="45.62819" lon="4.66501">
        <ele>343.79998779297</ele>
        <time>2017-05-31T11:44:47.000Z</time>
      </trkpt>
      <trkpt lat="45.62812" lon="4.66509">
        <ele>343.39999389648</ele>
        <time>2017-05-31T11:44:48.000Z</time>
      </trkpt>
      <trkpt lat="45.62804" lon="4.66517">
        <ele>342.79998779297</ele>
        <time>2017-05-31T11:44:49.000Z</time>
      </trkpt>
      <trkpt lat="45.62797" lon="4.66525">
        <ele>342.39999389648</ele>
        <time>2017-05-31T11:44:50.000Z</time>
      </trkpt>
      <trkpt lat="45.6279" lon="4.66534">
        <ele>341.79998779297</ele>
        <time>2017-05-31T11:44:51.000Z</time>
      </trkpt>
      <trkpt lat="45.62782" lon="4.66542">
        <ele>341.20001220703</ele>
        <time>2017-05-31T11:44:52.000Z</time>
      </trkpt>
      <trkpt lat="45.62769" lon="4.66556">
        <ele>340.79998779297</ele>
        <time>2017-05-31T11:44:54.000Z</time>
      </trkpt>
      <trkpt lat="45.62762" lon="4.66563">
        <ele>340.39999389648</ele>
        <time>2017-05-31T11:44:55.000Z</time>
      </trkpt>
      <trkpt lat="45.62756" lon="4.6657">
        <ele>340</ele>
        <time>2017-05-31T11:44:56.000Z</time>
      </trkpt>
      <trkpt lat="45.6275" lon="4.66577">
        <ele>339.39999389648</ele>
        <time>2017-05-31T11:44:57.000Z</time>
      </trkpt>
      <trkpt lat="45.62745" lon="4.66583">
        <ele>339</ele>
        <time>2017-05-31T11:44:58.000Z</time>
      </trkpt>
      <trkpt lat="45.62726" lon="4.666">
        <ele>338.60000610352</ele>
        <time>2017-05-31T11:45:01.000Z</time>
      </trkpt>
      <trkpt lat="45.6272" lon="4.66605">
        <ele>338.20001220703</ele>
        <time>2017-05-31T11:45:02.000Z</time>
      </trkpt>
      <trkpt lat="45.62713" lon="4.6661">
        <ele>337.60000610352</ele>
        <time>2017-05-31T11:45:03.000Z</time>
      </trkpt>
      <trkpt lat="45.62707" lon="4.66615">
        <ele>337.20001220703</ele>
        <time>2017-05-31T11:45:04.000Z</time>
      </trkpt>
      <trkpt lat="45.627" lon="4.6662">
        <ele>336.79998779297</ele>
        <time>2017-05-31T11:45:05.000Z</time>
      </trkpt>
      <trkpt lat="45.62686" lon="4.66629">
        <ele>336.20001220703</ele>
        <time>2017-05-31T11:45:07.000Z</time>
      </trkpt>
      <trkpt lat="45.62679" lon="4.66633">
        <ele>335.79998779297</ele>
        <time>2017-05-31T11:45:08.000Z</time>
      </trkpt>
      <trkpt lat="45.62672" lon="4.66637">
        <ele>335.39999389648</ele>
        <time>2017-05-31T11:45:09.000Z</time>
      </trkpt>
      <trkpt lat="45.62665" lon="4.66642">
        <ele>334.79998779297</ele>
        <time>2017-05-31T11:45:10.000Z</time>
      </trkpt>
      <trkpt lat="45.62658" lon="4.66646">
        <ele>334.39999389648</ele>
        <time>2017-05-31T11:45:11.000Z</time>
      </trkpt>
      <trkpt lat="45.62627" lon="4.6667">
        <ele>334.39999389648</ele>
        <time>2017-05-31T11:45:16.000Z</time>
      </trkpt>
      <trkpt lat="45.62603" lon="4.66689">
        <ele>334</ele>
        <time>2017-05-31T11:45:20.000Z</time>
      </trkpt>
      <trkpt lat="45.62597" lon="4.66694">
        <ele>333.39999389648</ele>
        <time>2017-05-31T11:45:21.000Z</time>
      </trkpt>
      <trkpt lat="45.62592" lon="4.66699">
        <ele>333</ele>
        <time>2017-05-31T11:45:22.000Z</time>
      </trkpt>
      <trkpt lat="45.62586" lon="4.66704">
        <ele>332.39999389648</ele>
        <time>2017-05-31T11:45:23.000Z</time>
      </trkpt>
      <trkpt lat="45.6258" lon="4.66709">
        <ele>332</ele>
        <time>2017-05-31T11:45:24.000Z</time>
      </trkpt>
      <trkpt lat="45.62574" lon="4.66714">
        <ele>332</ele>
        <time>2017-05-31T11:45:25.000Z</time>
      </trkpt>
      <trkpt lat="45.62557" lon="4.66727">
        <ele>331.60000610352</ele>
        <time>2017-05-31T11:45:28.000Z</time>
      </trkpt>
      <trkpt lat="45.62552" lon="4.6673">
        <ele>331</ele>
        <time>2017-05-31T11:45:29.000Z</time>
      </trkpt>
      <trkpt lat="45.62547" lon="4.66733">
        <ele>330.60000610352</ele>
        <time>2017-05-31T11:45:30.000Z</time>
      </trkpt>
      <trkpt lat="45.62541" lon="4.66736">
        <ele>330.20001220703</ele>
        <time>2017-05-31T11:45:31.000Z</time>
      </trkpt>
      <trkpt lat="45.62536" lon="4.66738">
        <ele>329.79998779297</ele>
        <time>2017-05-31T11:45:32.000Z</time>
      </trkpt>
      <trkpt lat="45.62532" lon="4.66741">
        <ele>329.79998779297</ele>
        <time>2017-05-31T11:45:33.000Z</time>
      </trkpt>
      <trkpt lat="45.62519" lon="4.66744">
        <ele>329.79998779297</ele>
        <time>2017-05-31T11:45:36.000Z</time>
      </trkpt>
      <trkpt lat="45.62513" lon="4.66744">
        <ele>329.39999389648</ele>
        <time>2017-05-31T11:45:38.000Z</time>
      </trkpt>
      <trkpt lat="45.6251" lon="4.66744">
        <ele>329</ele>
        <time>2017-05-31T11:45:39.000Z</time>
      </trkpt>
      <trkpt lat="45.62507" lon="4.66744">
        <ele>328.60000610352</ele>
        <time>2017-05-31T11:45:40.000Z</time>
      </trkpt>
      <trkpt lat="45.62505" lon="4.66744">
        <ele>328</ele>
        <time>2017-05-31T11:45:41.000Z</time>
      </trkpt>
      <trkpt lat="45.62502" lon="4.66744">
        <ele>327.60000610352</ele>
        <time>2017-05-31T11:45:42.000Z</time>
      </trkpt>
      <trkpt lat="45.62495" lon="4.66744">
        <ele>327.60000610352</ele>
        <time>2017-05-31T11:45:46.000Z</time>
      </trkpt>
      <trkpt lat="45.62494" lon="4.66745">
        <ele>327.60000610352</ele>
        <time>2017-05-31T11:46:23.000Z</time>
      </trkpt>
      <trkpt lat="45.62488" lon="4.66747">
        <ele>327.60000610352</ele>
        <time>2017-05-31T11:46:26.000Z</time>
      </trkpt>
      <trkpt lat="45.62476" lon="4.66749">
        <ele>327.60000610352</ele>
        <time>2017-05-31T11:46:31.000Z</time>
      </trkpt>
      <trkpt lat="45.62456" lon="4.66765">
        <ele>327.60000610352</ele>
        <time>2017-05-31T11:46:39.000Z</time>
      </trkpt>
      <trkpt lat="45.62452" lon="4.66775">
        <ele>327.60000610352</ele>
        <time>2017-05-31T11:46:41.000Z</time>
      </trkpt>
      <trkpt lat="45.62447" lon="4.66783">
        <ele>327.60000610352</ele>
        <time>2017-05-31T11:46:43.000Z</time>
      </trkpt>
      <trkpt lat="45.6244" lon="4.66789">
        <ele>327.60000610352</ele>
        <time>2017-05-31T11:46:45.000Z</time>
      </trkpt>
      <trkpt lat="45.62427" lon="4.66797">
        <ele>327.60000610352</ele>
        <time>2017-05-31T11:46:48.000Z</time>
      </trkpt>
      <trkpt lat="45.62423" lon="4.66799">
        <ele>327.60000610352</ele>
        <time>2017-05-31T11:46:49.000Z</time>
      </trkpt>
      <trkpt lat="45.62378" lon="4.6682">
        <ele>327.60000610352</ele>
        <time>2017-05-31T11:47:00.000Z</time>
      </trkpt>
      <trkpt lat="45.62346" lon="4.66839">
        <ele>327.60000610352</ele>
        <time>2017-05-31T11:47:09.000Z</time>
      </trkpt>
      <trkpt lat="45.62321" lon="4.66849">
        <ele>327.60000610352</ele>
        <time>2017-05-31T11:47:16.000Z</time>
      </trkpt>
      <trkpt lat="45.62318" lon="4.66851">
        <ele>327.20001220703</ele>
        <time>2017-05-31T11:47:17.000Z</time>
      </trkpt>
      <trkpt lat="45.62315" lon="4.66853">
        <ele>326.79998779297</ele>
        <time>2017-05-31T11:47:18.000Z</time>
      </trkpt>
      <trkpt lat="45.62311" lon="4.66854">
        <ele>326.20001220703</ele>
        <time>2017-05-31T11:47:19.000Z</time>
      </trkpt>
      <trkpt lat="45.62308" lon="4.66857">
        <ele>325.79998779297</ele>
        <time>2017-05-31T11:47:20.000Z</time>
      </trkpt>
      <trkpt lat="45.62304" lon="4.66859">
        <ele>325.39999389648</ele>
        <time>2017-05-31T11:47:21.000Z</time>
      </trkpt>
      <trkpt lat="45.62294" lon="4.66867">
        <ele>325.39999389648</ele>
        <time>2017-05-31T11:47:24.000Z</time>
      </trkpt>
      <trkpt lat="45.62268" lon="4.66886">
        <ele>325.39999389648</ele>
        <time>2017-05-31T11:47:32.000Z</time>
      </trkpt>
      <trkpt lat="45.62247" lon="4.66902">
        <ele>325.39999389648</ele>
        <time>2017-05-31T11:47:39.000Z</time>
      </trkpt>
      <trkpt lat="45.62221" lon="4.6692">
        <ele>325.39999389648</ele>
        <time>2017-05-31T11:47:47.000Z</time>
      </trkpt>
      <trkpt lat="45.62205" lon="4.66931">
        <ele>325.39999389648</ele>
        <time>2017-05-31T11:47:53.000Z</time>
      </trkpt>
      <trkpt lat="45.62188" lon="4.66942">
        <ele>325.39999389648</ele>
        <time>2017-05-31T11:47:59.000Z</time>
      </trkpt>
      <trkpt lat="45.62165" lon="4.66956">
        <ele>325.39999389648</ele>
        <time>2017-05-31T11:48:06.000Z</time>
      </trkpt>
      <trkpt lat="45.62141" lon="4.66975">
        <ele>325.39999389648</ele>
        <time>2017-05-31T11:48:14.000Z</time>
      </trkpt>
      <trkpt lat="45.62132" lon="4.66983">
        <ele>325.39999389648</ele>
        <time>2017-05-31T11:48:18.000Z</time>
      </trkpt>
      <trkpt lat="45.62131" lon="4.66987">
        <ele>325.39999389648</ele>
        <time>2017-05-31T11:48:19.000Z</time>
      </trkpt>
      <trkpt lat="45.62137" lon="4.67002">
        <ele>325.39999389648</ele>
        <time>2017-05-31T11:48:23.000Z</time>
      </trkpt>
      <trkpt lat="45.62139" lon="4.67005">
        <ele>325.39999389648</ele>
        <time>2017-05-31T11:48:24.000Z</time>
      </trkpt>
      <trkpt lat="45.62157" lon="4.67025">
        <ele>325.39999389648</ele>
        <time>2017-05-31T11:48:31.000Z</time>
      </trkpt>
      <trkpt lat="45.6218" lon="4.67046">
        <ele>325.39999389648</ele>
        <time>2017-05-31T11:48:40.000Z</time>
      </trkpt>
      <trkpt lat="45.62197" lon="4.67078">
        <ele>325.39999389648</ele>
        <time>2017-05-31T11:48:50.000Z</time>
      </trkpt>
      <trkpt lat="45.62182" lon="4.67097">
        <ele>325.39999389648</ele>
        <time>2017-05-31T11:48:55.000Z</time>
      </trkpt>
      <trkpt lat="45.62179" lon="4.67101">
        <ele>325.39999389648</ele>
        <time>2017-05-31T11:48:56.000Z</time>
      </trkpt>
      <trkpt lat="45.62164" lon="4.67116">
        <ele>325.39999389648</ele>
        <time>2017-05-31T11:49:00.000Z</time>
      </trkpt>
      <trkpt lat="45.6215" lon="4.67131">
        <ele>325.39999389648</ele>
        <time>2017-05-31T11:49:04.000Z</time>
      </trkpt>
      <trkpt lat="45.62144" lon="4.67139">
        <ele>325.39999389648</ele>
        <time>2017-05-31T11:49:06.000Z</time>
      </trkpt>
      <trkpt lat="45.62132" lon="4.67155">
        <ele>325</ele>
        <time>2017-05-31T11:49:10.000Z</time>
      </trkpt>
      <trkpt lat="45.62129" lon="4.67159">
        <ele>324.60000610352</ele>
        <time>2017-05-31T11:49:11.000Z</time>
      </trkpt>
      <trkpt lat="45.62125" lon="4.67163">
        <ele>324.20001220703</ele>
        <time>2017-05-31T11:49:12.000Z</time>
      </trkpt>
      <trkpt lat="45.62121" lon="4.67167">
        <ele>323.79998779297</ele>
        <time>2017-05-31T11:49:13.000Z</time>
      </trkpt>
      <trkpt lat="45.62117" lon="4.67172">
        <ele>323.39999389648</ele>
        <time>2017-05-31T11:49:14.000Z</time>
      </trkpt>
      <trkpt lat="45.62106" lon="4.67187">
        <ele>323.39999389648</ele>
        <time>2017-05-31T11:49:17.000Z</time>
      </trkpt>
      <trkpt lat="45.62085" lon="4.67214">
        <ele>323.39999389648</ele>
        <time>2017-05-31T11:49:23.000Z</time>
      </trkpt>
      <trkpt lat="45.62056" lon="4.67254">
        <ele>322.79998779297</ele>
        <time>2017-05-31T11:49:31.000Z</time>
      </trkpt>
      <trkpt lat="45.62053" lon="4.67258">
        <ele>322.39999389648</ele>
        <time>2017-05-31T11:49:32.000Z</time>
      </trkpt>
      <trkpt lat="45.62051" lon="4.67261">
        <ele>322</ele>
        <time>2017-05-31T11:49:33.000Z</time>
      </trkpt>
      <trkpt lat="45.62049" lon="4.67265">
        <ele>321.60000610352</ele>
        <time>2017-05-31T11:49:34.000Z</time>
      </trkpt>
      <trkpt lat="45.62047" lon="4.67267">
        <ele>321</ele>
        <time>2017-05-31T11:49:35.000Z</time>
      </trkpt>
      <trkpt lat="45.62045" lon="4.6727">
        <ele>321</ele>
        <time>2017-05-31T11:49:37.000Z</time>
      </trkpt>
      <trkpt lat="45.62032" lon="4.67271">
        <ele>321</ele>
        <time>2017-05-31T11:49:43.000Z</time>
      </trkpt>
      <trkpt lat="45.62024" lon="4.67267">
        <ele>320.60000610352</ele>
        <time>2017-05-31T11:49:46.000Z</time>
      </trkpt>
      <trkpt lat="45.62021" lon="4.67264">
        <ele>320.20001220703</ele>
        <time>2017-05-31T11:49:47.000Z</time>
      </trkpt>
      <trkpt lat="45.62019" lon="4.6726">
        <ele>319.79998779297</ele>
        <time>2017-05-31T11:49:48.000Z</time>
      </trkpt>
      <trkpt lat="45.62017" lon="4.67257">
        <ele>319.39999389648</ele>
        <time>2017-05-31T11:49:49.000Z</time>
      </trkpt>
      <trkpt lat="45.62015" lon="4.67253">
        <ele>319</ele>
        <time>2017-05-31T11:49:50.000Z</time>
      </trkpt>
      <trkpt lat="45.62013" lon="4.6725">
        <ele>319</ele>
        <time>2017-05-31T11:49:51.000Z</time>
      </trkpt>
      <trkpt lat="45.62001" lon="4.67234">
        <ele>319</ele>
        <time>2017-05-31T11:49:57.000Z</time>
      </trkpt>
      <trkpt lat="45.61989" lon="4.67209">
        <ele>319</ele>
        <time>2017-05-31T11:50:03.000Z</time>
      </trkpt>
      <trkpt lat="45.61976" lon="4.67195">
        <ele>318.60000610352</ele>
        <time>2017-05-31T11:50:10.000Z</time>
      </trkpt>
      <trkpt lat="45.61974" lon="4.67193">
        <ele>318.20001220703</ele>
        <time>2017-05-31T11:50:11.000Z</time>
      </trkpt>
      <trkpt lat="45.61973" lon="4.67191">
        <ele>317.79998779297</ele>
        <time>2017-05-31T11:50:12.000Z</time>
      </trkpt>
      <trkpt lat="45.61971" lon="4.67189">
        <ele>317.39999389648</ele>
        <time>2017-05-31T11:50:13.000Z</time>
      </trkpt>
      <trkpt lat="45.6197" lon="4.67187">
        <ele>317</ele>
        <time>2017-05-31T11:50:14.000Z</time>
      </trkpt>
      <trkpt lat="45.61963" lon="4.67183">
        <ele>317</ele>
        <time>2017-05-31T11:50:20.000Z</time>
      </trkpt>
      <trkpt lat="45.61949" lon="4.67171">
        <ele>317</ele>
        <time>2017-05-31T12:30:29.000Z</time>
      </trkpt>
      <trkpt lat="45.61955" lon="4.67175">
        <ele>317</ele>
        <time>2017-05-31T12:30:32.000Z</time>
      </trkpt>
      <trkpt lat="45.61966" lon="4.67183">
        <ele>317</ele>
        <time>2017-05-31T12:30:38.000Z</time>
      </trkpt>
      <trkpt lat="45.61981" lon="4.67199">
        <ele>317</ele>
        <time>2017-05-31T12:30:46.000Z</time>
      </trkpt>
      <trkpt lat="45.61993" lon="4.67215">
        <ele>317</ele>
        <time>2017-05-31T12:30:52.000Z</time>
      </trkpt>
      <trkpt lat="45.62009" lon="4.67236">
        <ele>317</ele>
        <time>2017-05-31T12:31:00.000Z</time>
      </trkpt>
      <trkpt lat="45.62026" lon="4.67255">
        <ele>317</ele>
        <time>2017-05-31T12:31:08.000Z</time>
      </trkpt>
      <trkpt lat="45.62033" lon="4.67276">
        <ele>317</ele>
        <time>2017-05-31T12:31:15.000Z</time>
      </trkpt>
      <trkpt lat="45.62032" lon="4.67284">
        <ele>317.39999389648</ele>
        <time>2017-05-31T12:31:17.000Z</time>
      </trkpt>
      <trkpt lat="45.62031" lon="4.67289">
        <ele>317.79998779297</ele>
        <time>2017-05-31T12:31:18.000Z</time>
      </trkpt>
      <trkpt lat="45.6203" lon="4.67292">
        <ele>318.20001220703</ele>
        <time>2017-05-31T12:31:19.000Z</time>
      </trkpt>
      <trkpt lat="45.62029" lon="4.67295">
        <ele>318.60000610352</ele>
        <time>2017-05-31T12:31:20.000Z</time>
      </trkpt>
      <trkpt lat="45.62026" lon="4.67299">
        <ele>319.20001220703</ele>
        <time>2017-05-31T12:31:21.000Z</time>
      </trkpt>
      <trkpt lat="45.62009" lon="4.67329">
        <ele>319.20001220703</ele>
        <time>2017-05-31T12:31:29.000Z</time>
      </trkpt>
      <trkpt lat="45.61988" lon="4.67369">
        <ele>319.20001220703</ele>
        <time>2017-05-31T12:31:38.000Z</time>
      </trkpt>
      <trkpt lat="45.6197" lon="4.67401">
        <ele>319.20001220703</ele>
        <time>2017-05-31T12:31:45.000Z</time>
      </trkpt>
      <trkpt lat="45.61957" lon="4.67431">
        <ele>319.20001220703</ele>
        <time>2017-05-31T12:31:52.000Z</time>
      </trkpt>
      <trkpt lat="45.61949" lon="4.6746">
        <ele>319.20001220703</ele>
        <time>2017-05-31T12:31:58.000Z</time>
      </trkpt>
      <trkpt lat="45.61941" lon="4.67504">
        <ele>319.20001220703</ele>
        <time>2017-05-31T12:32:06.000Z</time>
      </trkpt>
      <trkpt lat="45.61931" lon="4.67552">
        <ele>319.20001220703</ele>
        <time>2017-05-31T12:32:15.000Z</time>
      </trkpt>
      <trkpt lat="45.61922" lon="4.67595">
        <ele>319.20001220703</ele>
        <time>2017-05-31T12:32:21.000Z</time>
      </trkpt>
      <trkpt lat="45.6192" lon="4.67609">
        <ele>318.60000610352</ele>
        <time>2017-05-31T12:32:23.000Z</time>
      </trkpt>
      <trkpt lat="45.61918" lon="4.67615">
        <ele>318.20001220703</ele>
        <time>2017-05-31T12:32:24.000Z</time>
      </trkpt>
      <trkpt lat="45.61915" lon="4.67621">
        <ele>317.79998779297</ele>
        <time>2017-05-31T12:32:25.000Z</time>
      </trkpt>
      <trkpt lat="45.6191" lon="4.67627">
        <ele>317.39999389648</ele>
        <time>2017-05-31T12:32:26.000Z</time>
      </trkpt>
      <trkpt lat="45.61905" lon="4.67632">
        <ele>317</ele>
        <time>2017-05-31T12:32:27.000Z</time>
      </trkpt>
      <trkpt lat="45.61892" lon="4.67636">
        <ele>317</ele>
        <time>2017-05-31T12:32:29.000Z</time>
      </trkpt>
      <trkpt lat="45.61879" lon="4.67633">
        <ele>316.60000610352</ele>
        <time>2017-05-31T12:32:31.000Z</time>
      </trkpt>
      <trkpt lat="45.61874" lon="4.6763">
        <ele>316</ele>
        <time>2017-05-31T12:32:32.000Z</time>
      </trkpt>
      <trkpt lat="45.61871" lon="4.67628">
        <ele>315.60000610352</ele>
        <time>2017-05-31T12:32:33.000Z</time>
      </trkpt>
      <trkpt lat="45.61869" lon="4.67626">
        <ele>315.20001220703</ele>
        <time>2017-05-31T12:32:34.000Z</time>
      </trkpt>
      <trkpt lat="45.61867" lon="4.67621">
        <ele>314.79998779297</ele>
        <time>2017-05-31T12:32:35.000Z</time>
      </trkpt>
      <trkpt lat="45.61864" lon="4.67614">
        <ele>314.79998779297</ele>
        <time>2017-05-31T12:32:36.000Z</time>
      </trkpt>
      <trkpt lat="45.6186" lon="4.67602">
        <ele>314.79998779297</ele>
        <time>2017-05-31T12:32:38.000Z</time>
      </trkpt>
      <trkpt lat="45.61853" lon="4.67596">
        <ele>314.79998779297</ele>
        <time>2017-05-31T12:32:40.000Z</time>
      </trkpt>
      <trkpt lat="45.61847" lon="4.67603">
        <ele>314.79998779297</ele>
        <time>2017-05-31T12:32:42.000Z</time>
      </trkpt>
      <trkpt lat="45.61846" lon="4.67608">
        <ele>314.79998779297</ele>
        <time>2017-05-31T12:32:43.000Z</time>
      </trkpt>
      <trkpt lat="45.61844" lon="4.67645">
        <ele>314.79998779297</ele>
        <time>2017-05-31T12:32:49.000Z</time>
      </trkpt>
      <trkpt lat="45.61833" lon="4.67679">
        <ele>314.79998779297</ele>
        <time>2017-05-31T12:32:54.000Z</time>
      </trkpt>
      <trkpt lat="45.61822" lon="4.67723">
        <ele>314.79998779297</ele>
        <time>2017-05-31T12:33:01.000Z</time>
      </trkpt>
      <trkpt lat="45.61815" lon="4.67768">
        <ele>314.79998779297</ele>
        <time>2017-05-31T12:33:08.000Z</time>
      </trkpt>
      <trkpt lat="45.61815" lon="4.67774">
        <ele>314.79998779297</ele>
        <time>2017-05-31T12:33:09.000Z</time>
      </trkpt>
      <trkpt lat="45.6181" lon="4.67797">
        <ele>315.20001220703</ele>
        <time>2017-05-31T12:33:14.000Z</time>
      </trkpt>
      <trkpt lat="45.61807" lon="4.67801">
        <ele>315.60000610352</ele>
        <time>2017-05-31T12:33:15.000Z</time>
      </trkpt>
      <trkpt lat="45.61805" lon="4.67805">
        <ele>316</ele>
        <time>2017-05-31T12:33:16.000Z</time>
      </trkpt>
      <trkpt lat="45.61802" lon="4.67809">
        <ele>316.39999389648</ele>
        <time>2017-05-31T12:33:17.000Z</time>
      </trkpt>
      <trkpt lat="45.618" lon="4.67813">
        <ele>316.79998779297</ele>
        <time>2017-05-31T12:33:18.000Z</time>
      </trkpt>
      <trkpt lat="45.61799" lon="4.67818">
        <ele>316.79998779297</ele>
        <time>2017-05-31T12:33:19.000Z</time>
      </trkpt>
      <trkpt lat="45.618" lon="4.67839">
        <ele>316.79998779297</ele>
        <time>2017-05-31T12:33:23.000Z</time>
      </trkpt>
      <trkpt lat="45.6181" lon="4.6785">
        <ele>316.79998779297</ele>
        <time>2017-05-31T12:33:26.000Z</time>
      </trkpt>
      <trkpt lat="45.61815" lon="4.67851">
        <ele>316.79998779297</ele>
        <time>2017-05-31T12:33:27.000Z</time>
      </trkpt>
      <trkpt lat="45.61829" lon="4.67844">
        <ele>316.79998779297</ele>
        <time>2017-05-31T12:33:30.000Z</time>
      </trkpt>
      <trkpt lat="45.61839" lon="4.6783">
        <ele>316.79998779297</ele>
        <time>2017-05-31T12:33:33.000Z</time>
      </trkpt>
      <trkpt lat="45.61843" lon="4.67826">
        <ele>316.79998779297</ele>
        <time>2017-05-31T12:33:34.000Z</time>
      </trkpt>
      <trkpt lat="45.6185" lon="4.67819">
        <ele>316.79998779297</ele>
        <time>2017-05-31T12:33:36.000Z</time>
      </trkpt>
      <trkpt lat="45.61865" lon="4.67809">
        <ele>316.79998779297</ele>
        <time>2017-05-31T12:33:39.000Z</time>
      </trkpt>
      <trkpt lat="45.61875" lon="4.67805">
        <ele>316.79998779297</ele>
        <time>2017-05-31T12:33:41.000Z</time>
      </trkpt>
      <trkpt lat="45.61893" lon="4.67805">
        <ele>316.39999389648</ele>
        <time>2017-05-31T12:33:44.000Z</time>
      </trkpt>
      <trkpt lat="45.61899" lon="4.67807">
        <ele>316</ele>
        <time>2017-05-31T12:33:45.000Z</time>
      </trkpt>
      <trkpt lat="45.61905" lon="4.67808">
        <ele>315.39999389648</ele>
        <time>2017-05-31T12:33:46.000Z</time>
      </trkpt>
      <trkpt lat="45.6191" lon="4.6781">
        <ele>315</ele>
        <time>2017-05-31T12:33:47.000Z</time>
      </trkpt>
      <trkpt lat="45.61917" lon="4.67811">
        <ele>314.39999389648</ele>
        <time>2017-05-31T12:33:48.000Z</time>
      </trkpt>
      <trkpt lat="45.61927" lon="4.67814">
        <ele>314.39999389648</ele>
        <time>2017-05-31T12:33:50.000Z</time>
      </trkpt>
      <trkpt lat="45.6194" lon="4.67818">
        <ele>314</ele>
        <time>2017-05-31T12:33:53.000Z</time>
      </trkpt>
      <trkpt lat="45.61945" lon="4.67819">
        <ele>313.60000610352</ele>
        <time>2017-05-31T12:33:54.000Z</time>
      </trkpt>
      <trkpt lat="45.61949" lon="4.6782">
        <ele>313.20001220703</ele>
        <time>2017-05-31T12:33:55.000Z</time>
      </trkpt>
      <trkpt lat="45.61953" lon="4.67821">
        <ele>312.79998779297</ele>
        <time>2017-05-31T12:33:56.000Z</time>
      </trkpt>
      <trkpt lat="45.61958" lon="4.67822">
        <ele>312.39999389648</ele>
        <time>2017-05-31T12:33:57.000Z</time>
      </trkpt>
      <trkpt lat="45.61985" lon="4.6784">
        <ele>312.39999389648</ele>
        <time>2017-05-31T12:34:05.000Z</time>
      </trkpt>
      <trkpt lat="45.61985" lon="4.67868">
        <ele>312.39999389648</ele>
        <time>2017-05-31T12:34:09.000Z</time>
      </trkpt>
      <trkpt lat="45.61986" lon="4.67882">
        <ele>312.39999389648</ele>
        <time>2017-05-31T12:34:11.000Z</time>
      </trkpt>
      <trkpt lat="45.61989" lon="4.67897">
        <ele>312.39999389648</ele>
        <time>2017-05-31T12:34:13.000Z</time>
      </trkpt>
      <trkpt lat="45.61991" lon="4.67905">
        <ele>312.39999389648</ele>
        <time>2017-05-31T12:34:14.000Z</time>
      </trkpt>
      <trkpt lat="45.61998" lon="4.67919">
        <ele>312</ele>
        <time>2017-05-31T12:34:16.000Z</time>
      </trkpt>
      <trkpt lat="45.62001" lon="4.67926">
        <ele>311.60000610352</ele>
        <time>2017-05-31T12:34:17.000Z</time>
      </trkpt>
      <trkpt lat="45.62005" lon="4.67933">
        <ele>311.20001220703</ele>
        <time>2017-05-31T12:34:18.000Z</time>
      </trkpt>
      <trkpt lat="45.62009" lon="4.6794">
        <ele>310.79998779297</ele>
        <time>2017-05-31T12:34:19.000Z</time>
      </trkpt>
      <trkpt lat="45.62013" lon="4.67947">
        <ele>310.20001220703</ele>
        <time>2017-05-31T12:34:20.000Z</time>
      </trkpt>
      <trkpt lat="45.62029" lon="4.67975">
        <ele>309.79998779297</ele>
        <time>2017-05-31T12:34:24.000Z</time>
      </trkpt>
      <trkpt lat="45.62033" lon="4.67981">
        <ele>309.39999389648</ele>
        <time>2017-05-31T12:34:25.000Z</time>
      </trkpt>
      <trkpt lat="45.62036" lon="4.67988">
        <ele>309</ele>
        <time>2017-05-31T12:34:26.000Z</time>
      </trkpt>
      <trkpt lat="45.62038" lon="4.67996">
        <ele>308.60000610352</ele>
        <time>2017-05-31T12:34:27.000Z</time>
      </trkpt>
      <trkpt lat="45.62039" lon="4.68004">
        <ele>308.20001220703</ele>
        <time>2017-05-31T12:34:28.000Z</time>
      </trkpt>
      <trkpt lat="45.6204" lon="4.68022">
        <ele>308.20001220703</ele>
        <time>2017-05-31T12:34:30.000Z</time>
      </trkpt>
      <trkpt lat="45.62041" lon="4.68031">
        <ele>308.20001220703</ele>
        <time>2017-05-31T12:34:31.000Z</time>
      </trkpt>
      <trkpt lat="45.6204" lon="4.6804">
        <ele>308.20001220703</ele>
        <time>2017-05-31T12:34:32.000Z</time>
      </trkpt>
      <trkpt lat="45.62039" lon="4.68048">
        <ele>307.79998779297</ele>
        <time>2017-05-31T12:34:33.000Z</time>
      </trkpt>
      <trkpt lat="45.62036" lon="4.68057">
        <ele>307.39999389648</ele>
        <time>2017-05-31T12:34:34.000Z</time>
      </trkpt>
      <trkpt lat="45.62032" lon="4.68064">
        <ele>307</ele>
        <time>2017-05-31T12:34:35.000Z</time>
      </trkpt>
      <trkpt lat="45.62028" lon="4.68072">
        <ele>306.60000610352</ele>
        <time>2017-05-31T12:34:36.000Z</time>
      </trkpt>
      <trkpt lat="45.62025" lon="4.68079">
        <ele>306.20001220703</ele>
        <time>2017-05-31T12:34:37.000Z</time>
      </trkpt>
      <trkpt lat="45.62013" lon="4.68107">
        <ele>306.20001220703</ele>
        <time>2017-05-31T12:34:41.000Z</time>
      </trkpt>
      <trkpt lat="45.62005" lon="4.6814">
        <ele>306.20001220703</ele>
        <time>2017-05-31T12:34:45.000Z</time>
      </trkpt>
      <trkpt lat="45.62003" lon="4.6815">
        <ele>305.79998779297</ele>
        <time>2017-05-31T12:34:46.000Z</time>
      </trkpt>
      <trkpt lat="45.62002" lon="4.68159">
        <ele>305.39999389648</ele>
        <time>2017-05-31T12:34:47.000Z</time>
      </trkpt>
      <trkpt lat="45.62002" lon="4.68168">
        <ele>305</ele>
        <time>2017-05-31T12:34:48.000Z</time>
      </trkpt>
      <trkpt lat="45.62002" lon="4.68177">
        <ele>304.60000610352</ele>
        <time>2017-05-31T12:34:49.000Z</time>
      </trkpt>
      <trkpt lat="45.62003" lon="4.68185">
        <ele>304</ele>
        <time>2017-05-31T12:34:50.000Z</time>
      </trkpt>
      <trkpt lat="45.62002" lon="4.68202">
        <ele>303.60000610352</ele>
        <time>2017-05-31T12:34:52.000Z</time>
      </trkpt>
      <trkpt lat="45.62001" lon="4.68211">
        <ele>303.20001220703</ele>
        <time>2017-05-31T12:34:53.000Z</time>
      </trkpt>
      <trkpt lat="45.62" lon="4.68219">
        <ele>302.79998779297</ele>
        <time>2017-05-31T12:34:54.000Z</time>
      </trkpt>
      <trkpt lat="45.62" lon="4.68227">
        <ele>302.39999389648</ele>
        <time>2017-05-31T12:34:55.000Z</time>
      </trkpt>
      <trkpt lat="45.62002" lon="4.68235">
        <ele>301.79998779297</ele>
        <time>2017-05-31T12:34:56.000Z</time>
      </trkpt>
      <trkpt lat="45.62007" lon="4.6825">
        <ele>301.79998779297</ele>
        <time>2017-05-31T12:34:58.000Z</time>
      </trkpt>
      <trkpt lat="45.62012" lon="4.68266">
        <ele>301.39999389648</ele>
        <time>2017-05-31T12:35:00.000Z</time>
      </trkpt>
      <trkpt lat="45.62013" lon="4.68274">
        <ele>301</ele>
        <time>2017-05-31T12:35:01.000Z</time>
      </trkpt>
      <trkpt lat="45.62014" lon="4.68282">
        <ele>300.60000610352</ele>
        <time>2017-05-31T12:35:02.000Z</time>
      </trkpt>
      <trkpt lat="45.62013" lon="4.68291">
        <ele>300.20001220703</ele>
        <time>2017-05-31T12:35:03.000Z</time>
      </trkpt>
      <trkpt lat="45.62013" lon="4.68299">
        <ele>299.79998779297</ele>
        <time>2017-05-31T12:35:04.000Z</time>
      </trkpt>
      <trkpt lat="45.62011" lon="4.68307">
        <ele>299.39999389648</ele>
        <time>2017-05-31T12:35:05.000Z</time>
      </trkpt>
      <trkpt lat="45.62007" lon="4.68316">
        <ele>299</ele>
        <time>2017-05-31T12:35:06.000Z</time>
      </trkpt>
      <trkpt lat="45.62005" lon="4.68325">
        <ele>299</ele>
        <time>2017-05-31T12:35:07.000Z</time>
      </trkpt>
      <trkpt lat="45.62003" lon="4.68334">
        <ele>298</ele>
        <time>2017-05-31T12:35:08.000Z</time>
      </trkpt>
      <trkpt lat="45.62" lon="4.68353">
        <ele>297.60000610352</ele>
        <time>2017-05-31T12:35:10.000Z</time>
      </trkpt>
      <trkpt lat="45.61999" lon="4.68371">
        <ele>297.60000610352</ele>
        <time>2017-05-31T12:35:12.000Z</time>
      </trkpt>
      <trkpt lat="45.61997" lon="4.6838">
        <ele>297.60000610352</ele>
        <time>2017-05-31T12:35:13.000Z</time>
      </trkpt>
      <trkpt lat="45.6199" lon="4.68395">
        <ele>297.60000610352</ele>
        <time>2017-05-31T12:35:15.000Z</time>
      </trkpt>
      <trkpt lat="45.61977" lon="4.68414">
        <ele>297.60000610352</ele>
        <time>2017-05-31T12:35:18.000Z</time>
      </trkpt>
      <trkpt lat="45.6197" lon="4.68424">
        <ele>297.60000610352</ele>
        <time>2017-05-31T12:35:20.000Z</time>
      </trkpt>
      <trkpt lat="45.61963" lon="4.68438">
        <ele>297.60000610352</ele>
        <time>2017-05-31T12:35:23.000Z</time>
      </trkpt>
      <trkpt lat="45.61961" lon="4.6845">
        <ele>297.60000610352</ele>
        <time>2017-05-31T12:35:25.000Z</time>
      </trkpt>
      <trkpt lat="45.61963" lon="4.68482">
        <ele>297.60000610352</ele>
        <time>2017-05-31T12:35:30.000Z</time>
      </trkpt>
      <trkpt lat="45.61965" lon="4.68489">
        <ele>297.60000610352</ele>
        <time>2017-05-31T12:35:31.000Z</time>
      </trkpt>
      <trkpt lat="45.61967" lon="4.68496">
        <ele>297.20001220703</ele>
        <time>2017-05-31T12:35:32.000Z</time>
      </trkpt>
      <trkpt lat="45.61969" lon="4.68503">
        <ele>296.79998779297</ele>
        <time>2017-05-31T12:35:33.000Z</time>
      </trkpt>
      <trkpt lat="45.6197" lon="4.68509">
        <ele>296.39999389648</ele>
        <time>2017-05-31T12:35:34.000Z</time>
      </trkpt>
      <trkpt lat="45.61972" lon="4.68514">
        <ele>296</ele>
        <time>2017-05-31T12:35:35.000Z</time>
      </trkpt>
      <trkpt lat="45.61974" lon="4.68518">
        <ele>295.60000610352</ele>
        <time>2017-05-31T12:35:36.000Z</time>
      </trkpt>
      <trkpt lat="45.61981" lon="4.68536">
        <ele>295.20001220703</ele>
        <time>2017-05-31T12:35:39.000Z</time>
      </trkpt>
      <trkpt lat="45.61984" lon="4.68543">
        <ele>294.79998779297</ele>
        <time>2017-05-31T12:35:40.000Z</time>
      </trkpt>
      <trkpt lat="45.61987" lon="4.6855">
        <ele>294.39999389648</ele>
        <time>2017-05-31T12:35:41.000Z</time>
      </trkpt>
      <trkpt lat="45.6199" lon="4.68559">
        <ele>294</ele>
        <time>2017-05-31T12:35:42.000Z</time>
      </trkpt>
      <trkpt lat="45.61993" lon="4.68568">
        <ele>293.60000610352</ele>
        <time>2017-05-31T12:35:43.000Z</time>
      </trkpt>
      <trkpt lat="45.62002" lon="4.68598">
        <ele>293</ele>
        <time>2017-05-31T12:35:46.000Z</time>
      </trkpt>
      <trkpt lat="45.62006" lon="4.68607">
        <ele>292.60000610352</ele>
        <time>2017-05-31T12:35:47.000Z</time>
      </trkpt>
      <trkpt lat="45.62009" lon="4.68617">
        <ele>292.20001220703</ele>
        <time>2017-05-31T12:35:48.000Z</time>
      </trkpt>
      <trkpt lat="45.62014" lon="4.68628">
        <ele>291.79998779297</ele>
        <time>2017-05-31T12:35:49.000Z</time>
      </trkpt>
      <trkpt lat="45.62018" lon="4.68638">
        <ele>291.20001220703</ele>
        <time>2017-05-31T12:35:50.000Z</time>
      </trkpt>
      <trkpt lat="45.62022" lon="4.68647">
        <ele>290.79998779297</ele>
        <time>2017-05-31T12:35:51.000Z</time>
      </trkpt>
      <trkpt lat="45.62026" lon="4.68657">
        <ele>290.20001220703</ele>
        <time>2017-05-31T12:35:52.000Z</time>
      </trkpt>
      <trkpt lat="45.62031" lon="4.68668">
        <ele>289.79998779297</ele>
        <time>2017-05-31T12:35:53.000Z</time>
      </trkpt>
      <trkpt lat="45.62035" lon="4.68678">
        <ele>289.20001220703</ele>
        <time>2017-05-31T12:35:54.000Z</time>
      </trkpt>
      <trkpt lat="45.6204" lon="4.68688">
        <ele>288.79998779297</ele>
        <time>2017-05-31T12:35:55.000Z</time>
      </trkpt>
      <trkpt lat="45.62045" lon="4.68698">
        <ele>288.20001220703</ele>
        <time>2017-05-31T12:35:56.000Z</time>
      </trkpt>
      <trkpt lat="45.62049" lon="4.68708">
        <ele>287.79998779297</ele>
        <time>2017-05-31T12:35:57.000Z</time>
      </trkpt>
      <trkpt lat="45.62054" lon="4.68718">
        <ele>287.20001220703</ele>
        <time>2017-05-31T12:35:58.000Z</time>
      </trkpt>
      <trkpt lat="45.62059" lon="4.68729">
        <ele>286.79998779297</ele>
        <time>2017-05-31T12:35:59.000Z</time>
      </trkpt>
      <trkpt lat="45.62064" lon="4.68739">
        <ele>286.20001220703</ele>
        <time>2017-05-31T12:36:00.000Z</time>
      </trkpt>
      <trkpt lat="45.62069" lon="4.68749">
        <ele>285.79998779297</ele>
        <time>2017-05-31T12:36:01.000Z</time>
      </trkpt>
      <trkpt lat="45.62073" lon="4.68758">
        <ele>285.39999389648</ele>
        <time>2017-05-31T12:36:02.000Z</time>
      </trkpt>
      <trkpt lat="45.62077" lon="4.68768">
        <ele>285</ele>
        <time>2017-05-31T12:36:03.000Z</time>
      </trkpt>
      <trkpt lat="45.62082" lon="4.68776">
        <ele>284.39999389648</ele>
        <time>2017-05-31T12:36:04.000Z</time>
      </trkpt>
      <trkpt lat="45.62086" lon="4.68786">
        <ele>284</ele>
        <time>2017-05-31T12:36:05.000Z</time>
      </trkpt>
      <trkpt lat="45.6209" lon="4.68796">
        <ele>283.60000610352</ele>
        <time>2017-05-31T12:36:06.000Z</time>
      </trkpt>
      <trkpt lat="45.62093" lon="4.68806">
        <ele>283.20001220703</ele>
        <time>2017-05-31T12:36:07.000Z</time>
      </trkpt>
      <trkpt lat="45.62097" lon="4.68817">
        <ele>282.79998779297</ele>
        <time>2017-05-31T12:36:08.000Z</time>
      </trkpt>
      <trkpt lat="45.62101" lon="4.68827">
        <ele>282.39999389648</ele>
        <time>2017-05-31T12:36:09.000Z</time>
      </trkpt>
      <trkpt lat="45.62116" lon="4.68869">
        <ele>281.79998779297</ele>
        <time>2017-05-31T12:36:13.000Z</time>
      </trkpt>
      <trkpt lat="45.6212" lon="4.68879">
        <ele>281.39999389648</ele>
        <time>2017-05-31T12:36:14.000Z</time>
      </trkpt>
      <trkpt lat="45.62124" lon="4.68889">
        <ele>281</ele>
        <time>2017-05-31T12:36:15.000Z</time>
      </trkpt>
      <trkpt lat="45.62128" lon="4.68899">
        <ele>280.60000610352</ele>
        <time>2017-05-31T12:36:16.000Z</time>
      </trkpt>
      <trkpt lat="45.62132" lon="4.68909">
        <ele>280.20001220703</ele>
        <time>2017-05-31T12:36:17.000Z</time>
      </trkpt>
      <trkpt lat="45.62153" lon="4.68959">
        <ele>279.79998779297</ele>
        <time>2017-05-31T12:36:22.000Z</time>
      </trkpt>
      <trkpt lat="45.62156" lon="4.68968">
        <ele>279.39999389648</ele>
        <time>2017-05-31T12:36:23.000Z</time>
      </trkpt>
      <trkpt lat="45.6216" lon="4.68978">
        <ele>279</ele>
        <time>2017-05-31T12:36:24.000Z</time>
      </trkpt>
      <trkpt lat="45.62165" lon="4.68988">
        <ele>278.60000610352</ele>
        <time>2017-05-31T12:36:25.000Z</time>
      </trkpt>
      <trkpt lat="45.62169" lon="4.68998">
        <ele>278.20001220703</ele>
        <time>2017-05-31T12:36:26.000Z</time>
      </trkpt>
      <trkpt lat="45.62177" lon="4.69017">
        <ele>277.79998779297</ele>
        <time>2017-05-31T12:36:28.000Z</time>
      </trkpt>
      <trkpt lat="45.62181" lon="4.69028">
        <ele>277.39999389648</ele>
        <time>2017-05-31T12:36:29.000Z</time>
      </trkpt>
      <trkpt lat="45.62185" lon="4.69037">
        <ele>276.79998779297</ele>
        <time>2017-05-31T12:36:30.000Z</time>
      </trkpt>
      <trkpt lat="45.62189" lon="4.69047">
        <ele>276.39999389648</ele>
        <time>2017-05-31T12:36:31.000Z</time>
      </trkpt>
      <trkpt lat="45.62193" lon="4.69057">
        <ele>276</ele>
        <time>2017-05-31T12:36:32.000Z</time>
      </trkpt>
      <trkpt lat="45.62204" lon="4.69087">
        <ele>275.39999389648</ele>
        <time>2017-05-31T12:36:35.000Z</time>
      </trkpt>
      <trkpt lat="45.6221" lon="4.69096">
        <ele>274.79998779297</ele>
        <time>2017-05-31T12:36:36.000Z</time>
      </trkpt>
      <trkpt lat="45.62214" lon="4.69105">
        <ele>274.20001220703</ele>
        <time>2017-05-31T12:36:37.000Z</time>
      </trkpt>
      <trkpt lat="45.6222" lon="4.69114">
        <ele>273.79998779297</ele>
        <time>2017-05-31T12:36:38.000Z</time>
      </trkpt>
      <trkpt lat="45.62224" lon="4.69122">
        <ele>273.20001220703</ele>
        <time>2017-05-31T12:36:39.000Z</time>
      </trkpt>
      <trkpt lat="45.6223" lon="4.69131">
        <ele>273.20001220703</ele>
        <time>2017-05-31T12:36:40.000Z</time>
      </trkpt>
      <trkpt lat="45.62246" lon="4.69154">
        <ele>272.79998779297</ele>
        <time>2017-05-31T12:36:43.000Z</time>
      </trkpt>
      <trkpt lat="45.62251" lon="4.69161">
        <ele>272.20001220703</ele>
        <time>2017-05-31T12:36:44.000Z</time>
      </trkpt>
      <trkpt lat="45.62257" lon="4.69168">
        <ele>271.79998779297</ele>
        <time>2017-05-31T12:36:45.000Z</time>
      </trkpt>
      <trkpt lat="45.62261" lon="4.69176">
        <ele>271.39999389648</ele>
        <time>2017-05-31T12:36:46.000Z</time>
      </trkpt>
      <trkpt lat="45.62265" lon="4.69184">
        <ele>271</ele>
        <time>2017-05-31T12:36:47.000Z</time>
      </trkpt>
      <trkpt lat="45.62273" lon="4.69211">
        <ele>271</ele>
        <time>2017-05-31T12:36:50.000Z</time>
      </trkpt>
      <trkpt lat="45.62286" lon="4.69256">
        <ele>271</ele>
        <time>2017-05-31T12:36:56.000Z</time>
      </trkpt>
      <trkpt lat="45.62296" lon="4.69289">
        <ele>271.39999389648</ele>
        <time>2017-05-31T12:37:02.000Z</time>
      </trkpt>
      <trkpt lat="45.62297" lon="4.69294">
        <ele>271.79998779297</ele>
        <time>2017-05-31T12:37:03.000Z</time>
      </trkpt>
      <trkpt lat="45.62298" lon="4.69299">
        <ele>272.20001220703</ele>
        <time>2017-05-31T12:37:04.000Z</time>
      </trkpt>
      <trkpt lat="45.623" lon="4.69303">
        <ele>272.60000610352</ele>
        <time>2017-05-31T12:37:05.000Z</time>
      </trkpt>
      <trkpt lat="45.62301" lon="4.69308">
        <ele>273</ele>
        <time>2017-05-31T12:37:06.000Z</time>
      </trkpt>
      <trkpt lat="45.62311" lon="4.69334">
        <ele>273</ele>
        <time>2017-05-31T12:37:12.000Z</time>
      </trkpt>
      <trkpt lat="45.62312" lon="4.69337">
        <ele>273.39999389648</ele>
        <time>2017-05-31T12:37:13.000Z</time>
      </trkpt>
      <trkpt lat="45.62314" lon="4.69341">
        <ele>273.79998779297</ele>
        <time>2017-05-31T12:37:14.000Z</time>
      </trkpt>
      <trkpt lat="45.62315" lon="4.69344">
        <ele>274.20001220703</ele>
        <time>2017-05-31T12:37:15.000Z</time>
      </trkpt>
      <trkpt lat="45.62316" lon="4.69348">
        <ele>274.79998779297</ele>
        <time>2017-05-31T12:37:16.000Z</time>
      </trkpt>
      <trkpt lat="45.62317" lon="4.69351">
        <ele>275.20001220703</ele>
        <time>2017-05-31T12:37:17.000Z</time>
      </trkpt>
      <trkpt lat="45.62326" lon="4.69363">
        <ele>275.20001220703</ele>
        <time>2017-05-31T12:37:21.000Z</time>
      </trkpt>
      <trkpt lat="45.62342" lon="4.69378">
        <ele>275.20001220703</ele>
        <time>2017-05-31T12:37:27.000Z</time>
      </trkpt>
      <trkpt lat="45.62353" lon="4.6939">
        <ele>275.60000610352</ele>
        <time>2017-05-31T12:37:32.000Z</time>
      </trkpt>
      <trkpt lat="45.62355" lon="4.69393">
        <ele>276</ele>
        <time>2017-05-31T12:37:33.000Z</time>
      </trkpt>
      <trkpt lat="45.62357" lon="4.69395">
        <ele>276.39999389648</ele>
        <time>2017-05-31T12:37:34.000Z</time>
      </trkpt>
      <trkpt lat="45.6236" lon="4.69398">
        <ele>276.79998779297</ele>
        <time>2017-05-31T12:37:35.000Z</time>
      </trkpt>
      <trkpt lat="45.62362" lon="4.69401">
        <ele>277.20001220703</ele>
        <time>2017-05-31T12:37:36.000Z</time>
      </trkpt>
      <trkpt lat="45.62364" lon="4.69404">
        <ele>277.20001220703</ele>
        <time>2017-05-31T12:37:37.000Z</time>
      </trkpt>
      <trkpt lat="45.62373" lon="4.69432">
        <ele>277.20001220703</ele>
        <time>2017-05-31T12:37:45.000Z</time>
      </trkpt>
      <trkpt lat="45.62376" lon="4.69471">
        <ele>277.20001220703</ele>
        <time>2017-05-31T12:37:54.000Z</time>
      </trkpt>
      <trkpt lat="45.62377" lon="4.69475">
        <ele>277.60000610352</ele>
        <time>2017-05-31T12:37:55.000Z</time>
      </trkpt>
      <trkpt lat="45.62377" lon="4.69478">
        <ele>278.20001220703</ele>
        <time>2017-05-31T12:37:56.000Z</time>
      </trkpt>
      <trkpt lat="45.62377" lon="4.69482">
        <ele>278.60000610352</ele>
        <time>2017-05-31T12:37:57.000Z</time>
      </trkpt>
      <trkpt lat="45.62378" lon="4.69486">
        <ele>279</ele>
        <time>2017-05-31T12:37:58.000Z</time>
      </trkpt>
      <trkpt lat="45.62379" lon="4.69489">
        <ele>279.39999389648</ele>
        <time>2017-05-31T12:37:59.000Z</time>
      </trkpt>
      <trkpt lat="45.6238" lon="4.69496">
        <ele>279.39999389648</ele>
        <time>2017-05-31T12:38:01.000Z</time>
      </trkpt>
      <trkpt lat="45.6239" lon="4.69533">
        <ele>279.39999389648</ele>
        <time>2017-05-31T12:38:11.000Z</time>
      </trkpt>
      <trkpt lat="45.62394" lon="4.69545">
        <ele>279.79998779297</ele>
        <time>2017-05-31T12:38:15.000Z</time>
      </trkpt>
      <trkpt lat="45.62396" lon="4.69548">
        <ele>280.20001220703</ele>
        <time>2017-05-31T12:38:16.000Z</time>
      </trkpt>
      <trkpt lat="45.62396" lon="4.69551">
        <ele>280.79998779297</ele>
        <time>2017-05-31T12:38:17.000Z</time>
      </trkpt>
      <trkpt lat="45.62397" lon="4.69554">
        <ele>281.20001220703</ele>
        <time>2017-05-31T12:38:18.000Z</time>
      </trkpt>
      <trkpt lat="45.62398" lon="4.69557">
        <ele>281.60000610352</ele>
        <time>2017-05-31T12:38:19.000Z</time>
      </trkpt>
      <trkpt lat="45.62412" lon="4.69603">
        <ele>281.60000610352</ele>
        <time>2017-05-31T12:38:33.000Z</time>
      </trkpt>
      <trkpt lat="45.62414" lon="4.69611">
        <ele>282</ele>
        <time>2017-05-31T12:38:35.000Z</time>
      </trkpt>
      <trkpt lat="45.62415" lon="4.69614">
        <ele>282.60000610352</ele>
        <time>2017-05-31T12:38:36.000Z</time>
      </trkpt>
      <trkpt lat="45.62416" lon="4.69618">
        <ele>283</ele>
        <time>2017-05-31T12:38:37.000Z</time>
      </trkpt>
      <trkpt lat="45.62417" lon="4.69621">
        <ele>283.39999389648</ele>
        <time>2017-05-31T12:38:38.000Z</time>
      </trkpt>
      <trkpt lat="45.62418" lon="4.69625">
        <ele>283.79998779297</ele>
        <time>2017-05-31T12:38:39.000Z</time>
      </trkpt>
      <trkpt lat="45.62423" lon="4.69638">
        <ele>283.79998779297</ele>
        <time>2017-05-31T12:38:43.000Z</time>
      </trkpt>
      <trkpt lat="45.62438" lon="4.69683">
        <ele>283.79998779297</ele>
        <time>2017-05-31T12:38:55.000Z</time>
      </trkpt>
      <trkpt lat="45.62451" lon="4.69731">
        <ele>283.79998779297</ele>
        <time>2017-05-31T12:39:05.000Z</time>
      </trkpt>
      <trkpt lat="45.62449" lon="4.69762">
        <ele>283.79998779297</ele>
        <time>2017-05-31T12:39:11.000Z</time>
      </trkpt>
      <trkpt lat="45.62435" lon="4.69807">
        <ele>283.79998779297</ele>
        <time>2017-05-31T12:39:21.000Z</time>
      </trkpt>
      <trkpt lat="45.62431" lon="4.69822">
        <ele>284.20001220703</ele>
        <time>2017-05-31T12:39:24.000Z</time>
      </trkpt>
      <trkpt lat="45.62429" lon="4.69827">
        <ele>284.79998779297</ele>
        <time>2017-05-31T12:39:25.000Z</time>
      </trkpt>
      <trkpt lat="45.62428" lon="4.69832">
        <ele>285.20001220703</ele>
        <time>2017-05-31T12:39:26.000Z</time>
      </trkpt>
      <trkpt lat="45.62427" lon="4.69837">
        <ele>285.60000610352</ele>
        <time>2017-05-31T12:39:27.000Z</time>
      </trkpt>
      <trkpt lat="45.62426" lon="4.69842">
        <ele>286.20001220703</ele>
        <time>2017-05-31T12:39:28.000Z</time>
      </trkpt>
      <trkpt lat="45.62423" lon="4.69865">
        <ele>286.20001220703</ele>
        <time>2017-05-31T12:39:32.000Z</time>
      </trkpt>
      <trkpt lat="45.62423" lon="4.69871">
        <ele>286.20001220703</ele>
        <time>2017-05-31T12:39:33.000Z</time>
      </trkpt>
      <trkpt lat="45.62426" lon="4.699">
        <ele>286.20001220703</ele>
        <time>2017-05-31T12:39:38.000Z</time>
      </trkpt>
      <trkpt lat="45.62438" lon="4.69939">
        <ele>286.20001220703</ele>
        <time>2017-05-31T12:39:44.000Z</time>
      </trkpt>
      <trkpt lat="45.62445" lon="4.69953">
        <ele>286.20001220703</ele>
        <time>2017-05-31T12:39:46.000Z</time>
      </trkpt>
      <trkpt lat="45.62453" lon="4.69966">
        <ele>285.60000610352</ele>
        <time>2017-05-31T12:39:48.000Z</time>
      </trkpt>
      <trkpt lat="45.62457" lon="4.69971">
        <ele>285.20001220703</ele>
        <time>2017-05-31T12:39:49.000Z</time>
      </trkpt>
      <trkpt lat="45.62462" lon="4.69976">
        <ele>284.79998779297</ele>
        <time>2017-05-31T12:39:50.000Z</time>
      </trkpt>
      <trkpt lat="45.62467" lon="4.6998">
        <ele>284.39999389648</ele>
        <time>2017-05-31T12:39:51.000Z</time>
      </trkpt>
      <trkpt lat="45.62472" lon="4.69985">
        <ele>284</ele>
        <time>2017-05-31T12:39:52.000Z</time>
      </trkpt>
      <trkpt lat="45.62485" lon="4.69998">
        <ele>284</ele>
        <time>2017-05-31T12:39:55.000Z</time>
      </trkpt>
      <trkpt lat="45.62493" lon="4.70007">
        <ele>284</ele>
        <time>2017-05-31T12:39:57.000Z</time>
      </trkpt>
      <trkpt lat="45.62508" lon="4.70024">
        <ele>284</ele>
        <time>2017-05-31T12:40:01.000Z</time>
      </trkpt>
      <trkpt lat="45.62534" lon="4.70059">
        <ele>284</ele>
        <time>2017-05-31T12:40:09.000Z</time>
      </trkpt>
      <trkpt lat="45.62565" lon="4.70103">
        <ele>284</ele>
        <time>2017-05-31T12:40:18.000Z</time>
      </trkpt>
      <trkpt lat="45.62582" lon="4.70123">
        <ele>284</ele>
        <time>2017-05-31T12:40:24.000Z</time>
      </trkpt>
      <trkpt lat="45.62604" lon="4.70142">
        <ele>284</ele>
        <time>2017-05-31T12:40:31.000Z</time>
      </trkpt>
      <trkpt lat="45.62628" lon="4.70159">
        <ele>284</ele>
        <time>2017-05-31T12:40:38.000Z</time>
      </trkpt>
      <trkpt lat="45.62655" lon="4.70175">
        <ele>284</ele>
        <time>2017-05-31T12:40:46.000Z</time>
      </trkpt>
      <trkpt lat="45.62689" lon="4.70194">
        <ele>284</ele>
        <time>2017-05-31T12:40:56.000Z</time>
      </trkpt>
      <trkpt lat="45.62722" lon="4.7021">
        <ele>284</ele>
        <time>2017-05-31T12:41:04.000Z</time>
      </trkpt>
      <trkpt lat="45.62768" lon="4.70232">
        <ele>284</ele>
        <time>2017-05-31T12:41:13.000Z</time>
      </trkpt>
      <trkpt lat="45.62816" lon="4.70264">
        <ele>284</ele>
        <time>2017-05-31T12:41:23.000Z</time>
      </trkpt>
      <trkpt lat="45.62834" lon="4.70279">
        <ele>283.60000610352</ele>
        <time>2017-05-31T12:41:27.000Z</time>
      </trkpt>
      <trkpt lat="45.62838" lon="4.70283">
        <ele>283.20001220703</ele>
        <time>2017-05-31T12:41:28.000Z</time>
      </trkpt>
      <trkpt lat="45.62843" lon="4.70287">
        <ele>282.79998779297</ele>
        <time>2017-05-31T12:41:29.000Z</time>
      </trkpt>
      <trkpt lat="45.62847" lon="4.7029">
        <ele>282.39999389648</ele>
        <time>2017-05-31T12:41:30.000Z</time>
      </trkpt>
      <trkpt lat="45.62852" lon="4.70293">
        <ele>281.79998779297</ele>
        <time>2017-05-31T12:41:31.000Z</time>
      </trkpt>
      <trkpt lat="45.62865" lon="4.70304">
        <ele>281.79998779297</ele>
        <time>2017-05-31T12:41:34.000Z</time>
      </trkpt>
      <trkpt lat="45.62901" lon="4.70339">
        <ele>281.79998779297</ele>
        <time>2017-05-31T12:41:42.000Z</time>
      </trkpt>
      <trkpt lat="45.62943" lon="4.70386">
        <ele>281.79998779297</ele>
        <time>2017-05-31T12:41:51.000Z</time>
      </trkpt>
      <trkpt lat="45.6298" lon="4.70438">
        <ele>281.39999389648</ele>
        <time>2017-05-31T12:42:00.000Z</time>
      </trkpt>
      <trkpt lat="45.62983" lon="4.70445">
        <ele>281</ele>
        <time>2017-05-31T12:42:01.000Z</time>
      </trkpt>
      <trkpt lat="45.62987" lon="4.70451">
        <ele>280.60000610352</ele>
        <time>2017-05-31T12:42:02.000Z</time>
      </trkpt>
      <trkpt lat="45.6299" lon="4.70458">
        <ele>280.20001220703</ele>
        <time>2017-05-31T12:42:03.000Z</time>
      </trkpt>
      <trkpt lat="45.62993" lon="4.70464">
        <ele>279.60000610352</ele>
        <time>2017-05-31T12:42:04.000Z</time>
      </trkpt>
      <trkpt lat="45.63016" lon="4.70506">
        <ele>279.60000610352</ele>
        <time>2017-05-31T12:42:11.000Z</time>
      </trkpt>
      <trkpt lat="45.63046" lon="4.70572">
        <ele>279.60000610352</ele>
        <time>2017-05-31T12:42:21.000Z</time>
      </trkpt>
      <trkpt lat="45.63073" lon="4.70631">
        <ele>279.60000610352</ele>
        <time>2017-05-31T12:42:31.000Z</time>
      </trkpt>
      <trkpt lat="45.63108" lon="4.70675">
        <ele>279.60000610352</ele>
        <time>2017-05-31T12:42:40.000Z</time>
      </trkpt>
      <trkpt lat="45.63136" lon="4.70709">
        <ele>279.60000610352</ele>
        <time>2017-05-31T12:42:48.000Z</time>
      </trkpt>
      <trkpt lat="45.63172" lon="4.70753">
        <ele>279.60000610352</ele>
        <time>2017-05-31T12:42:58.000Z</time>
      </trkpt>
      <trkpt lat="45.63206" lon="4.70797">
        <ele>279.60000610352</ele>
        <time>2017-05-31T12:43:08.000Z</time>
      </trkpt>
      <trkpt lat="45.63239" lon="4.7084">
        <ele>279.60000610352</ele>
        <time>2017-05-31T12:43:18.000Z</time>
      </trkpt>
      <trkpt lat="45.63263" lon="4.70875">
        <ele>279.60000610352</ele>
        <time>2017-05-31T12:43:26.000Z</time>
      </trkpt>
      <trkpt lat="45.63285" lon="4.70917">
        <ele>279.60000610352</ele>
        <time>2017-05-31T12:43:34.000Z</time>
      </trkpt>
      <trkpt lat="45.63312" lon="4.70955">
        <ele>279.60000610352</ele>
        <time>2017-05-31T12:43:43.000Z</time>
      </trkpt>
      <trkpt lat="45.63325" lon="4.70969">
        <ele>280</ele>
        <time>2017-05-31T12:43:47.000Z</time>
      </trkpt>
      <trkpt lat="45.63328" lon="4.70973">
        <ele>280.39999389648</ele>
        <time>2017-05-31T12:43:48.000Z</time>
      </trkpt>
      <trkpt lat="45.63331" lon="4.70977">
        <ele>280.79998779297</ele>
        <time>2017-05-31T12:43:49.000Z</time>
      </trkpt>
      <trkpt lat="45.63333" lon="4.7098">
        <ele>281.39999389648</ele>
        <time>2017-05-31T12:43:50.000Z</time>
      </trkpt>
      <trkpt lat="45.63335" lon="4.70982">
        <ele>281.79998779297</ele>
        <time>2017-05-31T12:43:51.000Z</time>
      </trkpt>
      <trkpt lat="45.63337" lon="4.70985">
        <ele>281.79998779297</ele>
        <time>2017-05-31T12:43:52.000Z</time>
      </trkpt>
      <trkpt lat="45.63356" lon="4.7101">
        <ele>281.79998779297</ele>
        <time>2017-05-31T12:44:00.000Z</time>
      </trkpt>
      <trkpt lat="45.63383" lon="4.71051">
        <ele>282.20001220703</ele>
        <time>2017-05-31T12:44:12.000Z</time>
      </trkpt>
      <trkpt lat="45.63386" lon="4.71055">
        <ele>282.60000610352</ele>
        <time>2017-05-31T12:44:13.000Z</time>
      </trkpt>
      <trkpt lat="45.63388" lon="4.71058">
        <ele>283</ele>
        <time>2017-05-31T12:44:14.000Z</time>
      </trkpt>
      <trkpt lat="45.63391" lon="4.71061">
        <ele>283.39999389648</ele>
        <time>2017-05-31T12:44:15.000Z</time>
      </trkpt>
      <trkpt lat="45.63393" lon="4.71065">
        <ele>283.79998779297</ele>
        <time>2017-05-31T12:44:16.000Z</time>
      </trkpt>
      <trkpt lat="45.63407" lon="4.71088">
        <ele>283.79998779297</ele>
        <time>2017-05-31T12:44:22.000Z</time>
      </trkpt>
      <trkpt lat="45.63436" lon="4.71135">
        <ele>283.79998779297</ele>
        <time>2017-05-31T12:44:33.000Z</time>
      </trkpt>
      <trkpt lat="45.63459" lon="4.7118">
        <ele>283.79998779297</ele>
        <time>2017-05-31T12:44:42.000Z</time>
      </trkpt>
      <trkpt lat="45.63464" lon="4.7119">
        <ele>283.79998779297</ele>
        <time>2017-05-31T12:44:44.000Z</time>
      </trkpt>
      <trkpt lat="45.63469" lon="4.712">
        <ele>284.20001220703</ele>
        <time>2017-05-31T12:44:46.000Z</time>
      </trkpt>
      <trkpt lat="45.63472" lon="4.71206">
        <ele>284.60000610352</ele>
        <time>2017-05-31T12:44:47.000Z</time>
      </trkpt>
      <trkpt lat="45.63474" lon="4.71211">
        <ele>285.20001220703</ele>
        <time>2017-05-31T12:44:48.000Z</time>
      </trkpt>
      <trkpt lat="45.63477" lon="4.71215">
        <ele>285.60000610352</ele>
        <time>2017-05-31T12:44:49.000Z</time>
      </trkpt>
      <trkpt lat="45.63479" lon="4.7122">
        <ele>286</ele>
        <time>2017-05-31T12:44:50.000Z</time>
      </trkpt>
      <trkpt lat="45.63488" lon="4.71241">
        <ele>286</ele>
        <time>2017-05-31T12:44:54.000Z</time>
      </trkpt>
      <trkpt lat="45.63509" lon="4.71289">
        <ele>286</ele>
        <time>2017-05-31T12:45:04.000Z</time>
      </trkpt>
      <trkpt lat="45.63528" lon="4.71318">
        <ele>286</ele>
        <time>2017-05-31T12:45:12.000Z</time>
      </trkpt>
      <trkpt lat="45.63537" lon="4.71326">
        <ele>286.39999389648</ele>
        <time>2017-05-31T12:45:15.000Z</time>
      </trkpt>
      <trkpt lat="45.6354" lon="4.71327">
        <ele>286.79998779297</ele>
        <time>2017-05-31T12:45:16.000Z</time>
      </trkpt>
      <trkpt lat="45.63543" lon="4.71328">
        <ele>287.20001220703</ele>
        <time>2017-05-31T12:45:17.000Z</time>
      </trkpt>
      <trkpt lat="45.63546" lon="4.71329">
        <ele>287.60000610352</ele>
        <time>2017-05-31T12:45:18.000Z</time>
      </trkpt>
      <trkpt lat="45.63548" lon="4.71329">
        <ele>288</ele>
        <time>2017-05-31T12:45:19.000Z</time>
      </trkpt>
      <trkpt lat="45.6356" lon="4.71331">
        <ele>288</ele>
        <time>2017-05-31T12:45:24.000Z</time>
      </trkpt>
      <trkpt lat="45.63587" lon="4.71336">
        <ele>288</ele>
        <time>2017-05-31T12:45:33.000Z</time>
      </trkpt>
      <trkpt lat="45.63596" lon="4.71338">
        <ele>288.60000610352</ele>
        <time>2017-05-31T12:45:36.000Z</time>
      </trkpt>
      <trkpt lat="45.636" lon="4.71339">
        <ele>289</ele>
        <time>2017-05-31T12:45:37.000Z</time>
      </trkpt>
      <trkpt lat="45.63603" lon="4.7134">
        <ele>289.39999389648</ele>
        <time>2017-05-31T12:45:38.000Z</time>
      </trkpt>
      <trkpt lat="45.63606" lon="4.7134">
        <ele>290</ele>
        <time>2017-05-31T12:45:39.000Z</time>
      </trkpt>
      <trkpt lat="45.63609" lon="4.71341">
        <ele>290.39999389648</ele>
        <time>2017-05-31T12:45:40.000Z</time>
      </trkpt>
      <trkpt lat="45.63635" lon="4.71348">
        <ele>290.39999389648</ele>
        <time>2017-05-31T12:45:48.000Z</time>
      </trkpt>
      <trkpt lat="45.6366" lon="4.71356">
        <ele>290.39999389648</ele>
        <time>2017-05-31T12:45:56.000Z</time>
      </trkpt>
      <trkpt lat="45.63666" lon="4.71358">
        <ele>290.79998779297</ele>
        <time>2017-05-31T12:45:58.000Z</time>
      </trkpt>
      <trkpt lat="45.63669" lon="4.71359">
        <ele>291.20001220703</ele>
        <time>2017-05-31T12:45:59.000Z</time>
      </trkpt>
      <trkpt lat="45.63672" lon="4.7136">
        <ele>291.60000610352</ele>
        <time>2017-05-31T12:46:00.000Z</time>
      </trkpt>
      <trkpt lat="45.63674" lon="4.71361">
        <ele>292</ele>
        <time>2017-05-31T12:46:01.000Z</time>
      </trkpt>
      <trkpt lat="45.63681" lon="4.71363">
        <ele>292.39999389648</ele>
        <time>2017-05-31T12:46:03.000Z</time>
      </trkpt>
      <trkpt lat="45.63695" lon="4.71368">
        <ele>292.39999389648</ele>
        <time>2017-05-31T12:46:07.000Z</time>
      </trkpt>
      <trkpt lat="45.63723" lon="4.71379">
        <ele>292.39999389648</ele>
        <time>2017-05-31T12:46:14.000Z</time>
      </trkpt>
      <trkpt lat="45.6376" lon="4.71389">
        <ele>292.39999389648</ele>
        <time>2017-05-31T12:46:23.000Z</time>
      </trkpt>
      <trkpt lat="45.63797" lon="4.71399">
        <ele>292.39999389648</ele>
        <time>2017-05-31T12:46:32.000Z</time>
      </trkpt>
      <trkpt lat="45.63829" lon="4.71424">
        <ele>292.39999389648</ele>
        <time>2017-05-31T12:46:41.000Z</time>
      </trkpt>
      <trkpt lat="45.63858" lon="4.71458">
        <ele>292.39999389648</ele>
        <time>2017-05-31T12:46:51.000Z</time>
      </trkpt>
      <trkpt lat="45.63889" lon="4.71486">
        <ele>292.39999389648</ele>
        <time>2017-05-31T12:47:00.000Z</time>
      </trkpt>
      <trkpt lat="45.63915" lon="4.71512">
        <ele>292.39999389648</ele>
        <time>2017-05-31T12:47:07.000Z</time>
      </trkpt>
      <trkpt lat="45.6393" lon="4.71534">
        <ele>292.39999389648</ele>
        <time>2017-05-31T12:47:12.000Z</time>
      </trkpt>
      <trkpt lat="45.63932" lon="4.71537">
        <ele>292</ele>
        <time>2017-05-31T12:47:13.000Z</time>
      </trkpt>
      <trkpt lat="45.63934" lon="4.7154">
        <ele>291.60000610352</ele>
        <time>2017-05-31T12:47:14.000Z</time>
      </trkpt>
      <trkpt lat="45.63937" lon="4.71542">
        <ele>291.20001220703</ele>
        <time>2017-05-31T12:47:15.000Z</time>
      </trkpt>
      <trkpt lat="45.6394" lon="4.71544">
        <ele>290.79998779297</ele>
        <time>2017-05-31T12:47:16.000Z</time>
      </trkpt>
      <trkpt lat="45.63942" lon="4.71546">
        <ele>290.39999389648</ele>
        <time>2017-05-31T12:47:17.000Z</time>
      </trkpt>
      <trkpt lat="45.63946" lon="4.71553">
        <ele>290.39999389648</ele>
        <time>2017-05-31T12:47:19.000Z</time>
      </trkpt>
      <trkpt lat="45.6395" lon="4.71573">
        <ele>290.39999389648</ele>
        <time>2017-05-31T12:47:23.000Z</time>
      </trkpt>
      <trkpt lat="45.63952" lon="4.71578">
        <ele>290.39999389648</ele>
        <time>2017-05-31T12:47:24.000Z</time>
      </trkpt>
      <trkpt lat="45.63965" lon="4.71621">
        <ele>290.39999389648</ele>
        <time>2017-05-31T12:47:32.000Z</time>
      </trkpt>
      <trkpt lat="45.63983" lon="4.71672">
        <ele>290.39999389648</ele>
        <time>2017-05-31T12:47:41.000Z</time>
      </trkpt>
      <trkpt lat="45.63993" lon="4.71699">
        <ele>290.39999389648</ele>
        <time>2017-05-31T12:47:47.000Z</time>
      </trkpt>
      <trkpt lat="45.64005" lon="4.71723">
        <ele>290.39999389648</ele>
        <time>2017-05-31T12:47:53.000Z</time>
      </trkpt>
      <trkpt lat="45.64016" lon="4.71751">
        <ele>290.39999389648</ele>
        <time>2017-05-31T12:47:59.000Z</time>
      </trkpt>
      <trkpt lat="45.64021" lon="4.71789">
        <ele>290.39999389648</ele>
        <time>2017-05-31T12:48:06.000Z</time>
      </trkpt>
      <trkpt lat="45.64028" lon="4.71835">
        <ele>290.39999389648</ele>
        <time>2017-05-31T12:48:15.000Z</time>
      </trkpt>
      <trkpt lat="45.64034" lon="4.71876">
        <ele>290.39999389648</ele>
        <time>2017-05-31T12:48:24.000Z</time>
      </trkpt>
      <trkpt lat="45.64036" lon="4.71909">
        <ele>290.39999389648</ele>
        <time>2017-05-31T12:48:30.000Z</time>
      </trkpt>
      <trkpt lat="45.64047" lon="4.71951">
        <ele>290.39999389648</ele>
        <time>2017-05-31T12:48:38.000Z</time>
      </trkpt>
      <trkpt lat="45.64051" lon="4.71965">
        <ele>290.39999389648</ele>
        <time>2017-05-31T12:48:41.000Z</time>
      </trkpt>
      <trkpt lat="45.64055" lon="4.71982">
        <ele>290.39999389648</ele>
        <time>2017-05-31T12:48:44.000Z</time>
      </trkpt>
      <trkpt lat="45.64067" lon="4.72018">
        <ele>290.39999389648</ele>
        <time>2017-05-31T12:48:50.000Z</time>
      </trkpt>
      <trkpt lat="45.64087" lon="4.72071">
        <ele>290.39999389648</ele>
        <time>2017-05-31T12:48:59.000Z</time>
      </trkpt>
      <trkpt lat="45.64092" lon="4.7208">
        <ele>290</ele>
        <time>2017-05-31T12:49:01.000Z</time>
      </trkpt>
      <trkpt lat="45.64094" lon="4.72083">
        <ele>289.60000610352</ele>
        <time>2017-05-31T12:49:02.000Z</time>
      </trkpt>
      <trkpt lat="45.64096" lon="4.72086">
        <ele>289.20001220703</ele>
        <time>2017-05-31T12:49:03.000Z</time>
      </trkpt>
      <trkpt lat="45.64099" lon="4.7209">
        <ele>288.79998779297</ele>
        <time>2017-05-31T12:49:04.000Z</time>
      </trkpt>
      <trkpt lat="45.64103" lon="4.72092">
        <ele>288.39999389648</ele>
        <time>2017-05-31T12:49:05.000Z</time>
      </trkpt>
      <trkpt lat="45.64111" lon="4.72089">
        <ele>288.39999389648</ele>
        <time>2017-05-31T12:49:07.000Z</time>
      </trkpt>
      <trkpt lat="45.64118" lon="4.72076">
        <ele>288.39999389648</ele>
        <time>2017-05-31T12:49:11.000Z</time>
      </trkpt>
      <trkpt lat="45.6413" lon="4.72046">
        <ele>288.39999389648</ele>
        <time>2017-05-31T12:49:18.000Z</time>
      </trkpt>
      <trkpt lat="45.64143" lon="4.72029">
        <ele>288.39999389648</ele>
        <time>2017-05-31T12:49:23.000Z</time>
      </trkpt>
      <trkpt lat="45.64157" lon="4.72006">
        <ele>288.39999389648</ele>
        <time>2017-05-31T12:49:29.000Z</time>
      </trkpt>
      <trkpt lat="45.64174" lon="4.71978">
        <ele>288.39999389648</ele>
        <time>2017-05-31T12:49:37.000Z</time>
      </trkpt>
      <trkpt lat="45.64185" lon="4.71957">
        <ele>288.39999389648</ele>
        <time>2017-05-31T12:49:43.000Z</time>
      </trkpt>
      <trkpt lat="45.64197" lon="4.71927">
        <ele>288</ele>
        <time>2017-05-31T12:49:49.000Z</time>
      </trkpt>
      <trkpt lat="45.64199" lon="4.71921">
        <ele>287.60000610352</ele>
        <time>2017-05-31T12:49:50.000Z</time>
      </trkpt>
      <trkpt lat="45.642" lon="4.71915">
        <ele>287.20001220703</ele>
        <time>2017-05-31T12:49:51.000Z</time>
      </trkpt>
      <trkpt lat="45.64202" lon="4.71909">
        <ele>286.79998779297</ele>
        <time>2017-05-31T12:49:52.000Z</time>
      </trkpt>
      <trkpt lat="45.64204" lon="4.71902">
        <ele>286.39999389648</ele>
        <time>2017-05-31T12:49:53.000Z</time>
      </trkpt>
      <trkpt lat="45.64206" lon="4.71895">
        <ele>285.79998779297</ele>
        <time>2017-05-31T12:49:54.000Z</time>
      </trkpt>
      <trkpt lat="45.64209" lon="4.71887">
        <ele>285.39999389648</ele>
        <time>2017-05-31T12:49:55.000Z</time>
      </trkpt>
      <trkpt lat="45.64212" lon="4.71879">
        <ele>284.79998779297</ele>
        <time>2017-05-31T12:49:56.000Z</time>
      </trkpt>
      <trkpt lat="45.64216" lon="4.7187">
        <ele>284.39999389648</ele>
        <time>2017-05-31T12:49:57.000Z</time>
      </trkpt>
      <trkpt lat="45.64219" lon="4.71861">
        <ele>283.79998779297</ele>
        <time>2017-05-31T12:49:58.000Z</time>
      </trkpt>
      <trkpt lat="45.64223" lon="4.71852">
        <ele>283.79998779297</ele>
        <time>2017-05-31T12:49:59.000Z</time>
      </trkpt>
      <trkpt lat="45.64228" lon="4.71843">
        <ele>283.39999389648</ele>
        <time>2017-05-31T12:50:00.000Z</time>
      </trkpt>
      <trkpt lat="45.64232" lon="4.71834">
        <ele>283</ele>
        <time>2017-05-31T12:50:01.000Z</time>
      </trkpt>
      <trkpt lat="45.64236" lon="4.71825">
        <ele>282.39999389648</ele>
        <time>2017-05-31T12:50:02.000Z</time>
      </trkpt>
      <trkpt lat="45.64241" lon="4.71816">
        <ele>281.79998779297</ele>
        <time>2017-05-31T12:50:03.000Z</time>
      </trkpt>
      <trkpt lat="45.64245" lon="4.71807">
        <ele>281</ele>
        <time>2017-05-31T12:50:04.000Z</time>
      </trkpt>
      <trkpt lat="45.6425" lon="4.71798">
        <ele>280.39999389648</ele>
        <time>2017-05-31T12:50:05.000Z</time>
      </trkpt>
      <trkpt lat="45.64255" lon="4.71787">
        <ele>279.60000610352</ele>
        <time>2017-05-31T12:50:06.000Z</time>
      </trkpt>
      <trkpt lat="45.64259" lon="4.71776">
        <ele>279</ele>
        <time>2017-05-31T12:50:07.000Z</time>
      </trkpt>
      <trkpt lat="45.64263" lon="4.71763">
        <ele>278.39999389648</ele>
        <time>2017-05-31T12:50:08.000Z</time>
      </trkpt>
      <trkpt lat="45.64266" lon="4.7175">
        <ele>277.60000610352</ele>
        <time>2017-05-31T12:50:09.000Z</time>
      </trkpt>
      <trkpt lat="45.6427" lon="4.71736">
        <ele>277</ele>
        <time>2017-05-31T12:50:10.000Z</time>
      </trkpt>
      <trkpt lat="45.64273" lon="4.71723">
        <ele>276.20001220703</ele>
        <time>2017-05-31T12:50:11.000Z</time>
      </trkpt>
      <trkpt lat="45.64275" lon="4.7171">
        <ele>275.39999389648</ele>
        <time>2017-05-31T12:50:12.000Z</time>
      </trkpt>
      <trkpt lat="45.64278" lon="4.71695">
        <ele>274.60000610352</ele>
        <time>2017-05-31T12:50:13.000Z</time>
      </trkpt>
      <trkpt lat="45.64281" lon="4.71681">
        <ele>273.60000610352</ele>
        <time>2017-05-31T12:50:14.000Z</time>
      </trkpt>
      <trkpt lat="45.64283" lon="4.71667">
        <ele>273</ele>
        <time>2017-05-31T12:50:15.000Z</time>
      </trkpt>
      <trkpt lat="45.64286" lon="4.71654">
        <ele>272.20001220703</ele>
        <time>2017-05-31T12:50:16.000Z</time>
      </trkpt>
      <trkpt lat="45.64289" lon="4.7164">
        <ele>271.20001220703</ele>
        <time>2017-05-31T12:50:17.000Z</time>
      </trkpt>
      <trkpt lat="45.64293" lon="4.71628">
        <ele>270.39999389648</ele>
        <time>2017-05-31T12:50:18.000Z</time>
      </trkpt>
      <trkpt lat="45.64297" lon="4.71616">
        <ele>269.39999389648</ele>
        <time>2017-05-31T12:50:19.000Z</time>
      </trkpt>
      <trkpt lat="45.64301" lon="4.71605">
        <ele>268.60000610352</ele>
        <time>2017-05-31T12:50:20.000Z</time>
      </trkpt>
      <trkpt lat="45.64312" lon="4.71584">
        <ele>267</ele>
        <time>2017-05-31T12:50:22.000Z</time>
      </trkpt>
      <trkpt lat="45.64319" lon="4.71575">
        <ele>267</ele>
        <time>2017-05-31T12:50:23.000Z</time>
      </trkpt>
      <trkpt lat="45.64326" lon="4.71566">
        <ele>265.39999389648</ele>
        <time>2017-05-31T12:50:24.000Z</time>
      </trkpt>
      <trkpt lat="45.64335" lon="4.71557">
        <ele>264.39999389648</ele>
        <time>2017-05-31T12:50:25.000Z</time>
      </trkpt>
      <trkpt lat="45.64344" lon="4.7155">
        <ele>263.60000610352</ele>
        <time>2017-05-31T12:50:26.000Z</time>
      </trkpt>
      <trkpt lat="45.64353" lon="4.71542">
        <ele>262.79998779297</ele>
        <time>2017-05-31T12:50:27.000Z</time>
      </trkpt>
      <trkpt lat="45.64362" lon="4.71536">
        <ele>262.20001220703</ele>
        <time>2017-05-31T12:50:28.000Z</time>
      </trkpt>
      <trkpt lat="45.64371" lon="4.7153">
        <ele>261.60000610352</ele>
        <time>2017-05-31T12:50:29.000Z</time>
      </trkpt>
      <trkpt lat="45.6438" lon="4.71524">
        <ele>260.79998779297</ele>
        <time>2017-05-31T12:50:30.000Z</time>
      </trkpt>
      <trkpt lat="45.64388" lon="4.71518">
        <ele>260.20001220703</ele>
        <time>2017-05-31T12:50:31.000Z</time>
      </trkpt>
      <trkpt lat="45.64396" lon="4.71514">
        <ele>260.20001220703</ele>
        <time>2017-05-31T12:50:32.000Z</time>
      </trkpt>
      <trkpt lat="45.64431" lon="4.71491">
        <ele>260.20001220703</ele>
        <time>2017-05-31T12:50:37.000Z</time>
      </trkpt>
      <trkpt lat="45.64471" lon="4.71466">
        <ele>260.20001220703</ele>
        <time>2017-05-31T12:50:45.000Z</time>
      </trkpt>
      <trkpt lat="45.64496" lon="4.71452">
        <ele>260.20001220703</ele>
        <time>2017-05-31T12:50:51.000Z</time>
      </trkpt>
      <trkpt lat="45.64517" lon="4.71443">
        <ele>260.20001220703</ele>
        <time>2017-05-31T12:50:56.000Z</time>
      </trkpt>
      <trkpt lat="45.6453" lon="4.71436">
        <ele>260.20001220703</ele>
        <time>2017-05-31T12:50:59.000Z</time>
      </trkpt>
      <trkpt lat="45.6455" lon="4.71423">
        <ele>260.20001220703</ele>
        <time>2017-05-31T12:51:04.000Z</time>
      </trkpt>
      <trkpt lat="45.6456" lon="4.71412">
        <ele>260.20001220703</ele>
        <time>2017-05-31T12:51:07.000Z</time>
      </trkpt>
      <trkpt lat="45.64572" lon="4.71401">
        <ele>260.20001220703</ele>
        <time>2017-05-31T12:51:10.000Z</time>
      </trkpt>
      <trkpt lat="45.64585" lon="4.71386">
        <ele>260.20001220703</ele>
        <time>2017-05-31T12:51:14.000Z</time>
      </trkpt>
      <trkpt lat="45.64614" lon="4.7135">
        <ele>260.20001220703</ele>
        <time>2017-05-31T12:51:23.000Z</time>
      </trkpt>
      <trkpt lat="45.64647" lon="4.71318">
        <ele>260.20001220703</ele>
        <time>2017-05-31T12:51:31.000Z</time>
      </trkpt>
      <trkpt lat="45.64669" lon="4.71308">
        <ele>260.20001220703</ele>
        <time>2017-05-31T12:51:35.000Z</time>
      </trkpt>
      <trkpt lat="45.64675" lon="4.71307">
        <ele>260.20001220703</ele>
        <time>2017-05-31T12:51:36.000Z</time>
      </trkpt>
      <trkpt lat="45.64718" lon="4.71308">
        <ele>260.20001220703</ele>
        <time>2017-05-31T12:51:43.000Z</time>
      </trkpt>
      <trkpt lat="45.64742" lon="4.71308">
        <ele>259.79998779297</ele>
        <time>2017-05-31T12:51:47.000Z</time>
      </trkpt>
      <trkpt lat="45.64748" lon="4.71309">
        <ele>259.39999389648</ele>
        <time>2017-05-31T12:51:48.000Z</time>
      </trkpt>
      <trkpt lat="45.64755" lon="4.71308">
        <ele>259</ele>
        <time>2017-05-31T12:51:49.000Z</time>
      </trkpt>
      <trkpt lat="45.64762" lon="4.71308">
        <ele>258.60000610352</ele>
        <time>2017-05-31T12:51:50.000Z</time>
      </trkpt>
      <trkpt lat="45.64769" lon="4.71307">
        <ele>258.20001220703</ele>
        <time>2017-05-31T12:51:51.000Z</time>
      </trkpt>
      <trkpt lat="45.64775" lon="4.71306">
        <ele>258.20001220703</ele>
        <time>2017-05-31T12:51:52.000Z</time>
      </trkpt>
      <trkpt lat="45.64821" lon="4.71294">
        <ele>258.20001220703</ele>
        <time>2017-05-31T12:51:59.000Z</time>
      </trkpt>
      <trkpt lat="45.64859" lon="4.71283">
        <ele>258.20001220703</ele>
        <time>2017-05-31T12:52:06.000Z</time>
      </trkpt>
      <trkpt lat="45.64884" lon="4.71275">
        <ele>257.79998779297</ele>
        <time>2017-05-31T12:52:11.000Z</time>
      </trkpt>
      <trkpt lat="45.64888" lon="4.71274">
        <ele>257.39999389648</ele>
        <time>2017-05-31T12:52:12.000Z</time>
      </trkpt>
      <trkpt lat="45.64892" lon="4.71273">
        <ele>257</ele>
        <time>2017-05-31T12:52:13.000Z</time>
      </trkpt>
      <trkpt lat="45.64897" lon="4.71272">
        <ele>256.60000610352</ele>
        <time>2017-05-31T12:52:14.000Z</time>
      </trkpt>
      <trkpt lat="45.64901" lon="4.71271">
        <ele>256.20001220703</ele>
        <time>2017-05-31T12:52:15.000Z</time>
      </trkpt>
      <trkpt lat="45.64905" lon="4.71271">
        <ele>256.20001220703</ele>
        <time>2017-05-31T12:52:16.000Z</time>
      </trkpt>
      <trkpt lat="45.64922" lon="4.71272">
        <ele>256.20001220703</ele>
        <time>2017-05-31T12:52:20.000Z</time>
      </trkpt>
      <trkpt lat="45.64962" lon="4.71282">
        <ele>256.20001220703</ele>
        <time>2017-05-31T12:52:28.000Z</time>
      </trkpt>
      <trkpt lat="45.65013" lon="4.71306">
        <ele>256.20001220703</ele>
        <time>2017-05-31T12:52:38.000Z</time>
      </trkpt>
      <trkpt lat="45.65018" lon="4.71308">
        <ele>255.80000305176</ele>
        <time>2017-05-31T12:52:39.000Z</time>
      </trkpt>
      <trkpt lat="45.65024" lon="4.71309">
        <ele>255.39999389648</ele>
        <time>2017-05-31T12:52:40.000Z</time>
      </trkpt>
      <trkpt lat="45.65029" lon="4.7131">
        <ele>254.80000305176</ele>
        <time>2017-05-31T12:52:41.000Z</time>
      </trkpt>
      <trkpt lat="45.65035" lon="4.71311">
        <ele>254.39999389648</ele>
        <time>2017-05-31T12:52:42.000Z</time>
      </trkpt>
      <trkpt lat="45.6504" lon="4.71312">
        <ele>254</ele>
        <time>2017-05-31T12:52:43.000Z</time>
      </trkpt>
      <trkpt lat="45.65044" lon="4.71313">
        <ele>254</ele>
        <time>2017-05-31T12:52:44.000Z</time>
      </trkpt>
      <trkpt lat="45.65079" lon="4.71316">
        <ele>254</ele>
        <time>2017-05-31T12:52:51.000Z</time>
      </trkpt>
      <trkpt lat="45.65121" lon="4.71312">
        <ele>254</ele>
        <time>2017-05-31T12:53:00.000Z</time>
      </trkpt>
      <trkpt lat="45.65169" lon="4.71301">
        <ele>253.60000610352</ele>
        <time>2017-05-31T12:53:09.000Z</time>
      </trkpt>
      <trkpt lat="45.65175" lon="4.713">
        <ele>253.19999694824</ele>
        <time>2017-05-31T12:53:10.000Z</time>
      </trkpt>
      <trkpt lat="45.65181" lon="4.71298">
        <ele>252.60000610352</ele>
        <time>2017-05-31T12:53:11.000Z</time>
      </trkpt>
      <trkpt lat="45.65188" lon="4.71297">
        <ele>252.19999694824</ele>
        <time>2017-05-31T12:53:12.000Z</time>
      </trkpt>
      <trkpt lat="45.65194" lon="4.71296">
        <ele>251.80000305176</ele>
        <time>2017-05-31T12:53:13.000Z</time>
      </trkpt>
      <trkpt lat="45.65221" lon="4.71291">
        <ele>251.80000305176</ele>
        <time>2017-05-31T12:53:17.000Z</time>
      </trkpt>
      <trkpt lat="45.65229" lon="4.71289">
        <ele>251.19999694824</ele>
        <time>2017-05-31T12:53:18.000Z</time>
      </trkpt>
      <trkpt lat="45.65244" lon="4.71286">
        <ele>250.80000305176</ele>
        <time>2017-05-31T12:53:20.000Z</time>
      </trkpt>
      <trkpt lat="45.65251" lon="4.71285">
        <ele>250.19999694824</ele>
        <time>2017-05-31T12:53:21.000Z</time>
      </trkpt>
      <trkpt lat="45.65258" lon="4.71284">
        <ele>249.80000305176</ele>
        <time>2017-05-31T12:53:22.000Z</time>
      </trkpt>
      <trkpt lat="45.65265" lon="4.71283">
        <ele>249.39999389648</ele>
        <time>2017-05-31T12:53:23.000Z</time>
      </trkpt>
      <trkpt lat="45.65293" lon="4.71284">
        <ele>249.39999389648</ele>
        <time>2017-05-31T12:53:27.000Z</time>
      </trkpt>
      <trkpt lat="45.65299" lon="4.71286">
        <ele>249.39999389648</ele>
        <time>2017-05-31T12:53:28.000Z</time>
      </trkpt>
      <trkpt lat="45.65324" lon="4.713">
        <ele>249.39999389648</ele>
        <time>2017-05-31T12:53:33.000Z</time>
      </trkpt>
      <trkpt lat="45.65349" lon="4.7132">
        <ele>249.39999389648</ele>
        <time>2017-05-31T12:53:40.000Z</time>
      </trkpt>
      <trkpt lat="45.65359" lon="4.71329">
        <ele>249.80000305176</ele>
        <time>2017-05-31T12:53:43.000Z</time>
      </trkpt>
      <trkpt lat="45.65363" lon="4.71336">
        <ele>250.19999694824</ele>
        <time>2017-05-31T12:53:45.000Z</time>
      </trkpt>
      <trkpt lat="45.65365" lon="4.71339">
        <ele>250.60000610352</ele>
        <time>2017-05-31T12:53:46.000Z</time>
      </trkpt>
      <trkpt lat="45.65367" lon="4.71342">
        <ele>251</ele>
        <time>2017-05-31T12:53:47.000Z</time>
      </trkpt>
      <trkpt lat="45.6537" lon="4.71345">
        <ele>251.39999389648</ele>
        <time>2017-05-31T12:53:48.000Z</time>
      </trkpt>
      <trkpt lat="45.65383" lon="4.71356">
        <ele>251.80000305176</ele>
        <time>2017-05-31T12:53:53.000Z</time>
      </trkpt>
      <trkpt lat="45.65385" lon="4.71358">
        <ele>252.19999694824</ele>
        <time>2017-05-31T12:53:54.000Z</time>
      </trkpt>
      <trkpt lat="45.65388" lon="4.71361">
        <ele>252.60000610352</ele>
        <time>2017-05-31T12:53:55.000Z</time>
      </trkpt>
      <trkpt lat="45.6539" lon="4.71363">
        <ele>253</ele>
        <time>2017-05-31T12:53:56.000Z</time>
      </trkpt>
      <trkpt lat="45.65392" lon="4.71364">
        <ele>253.39999389648</ele>
        <time>2017-05-31T12:53:57.000Z</time>
      </trkpt>
      <trkpt lat="45.65405" lon="4.71373">
        <ele>254</ele>
        <time>2017-05-31T12:54:02.000Z</time>
      </trkpt>
      <trkpt lat="45.65407" lon="4.71374">
        <ele>254.39999389648</ele>
        <time>2017-05-31T12:54:03.000Z</time>
      </trkpt>
      <trkpt lat="45.65409" lon="4.71375">
        <ele>255</ele>
        <time>2017-05-31T12:54:04.000Z</time>
      </trkpt>
      <trkpt lat="45.65411" lon="4.71377">
        <ele>255.39999389648</ele>
        <time>2017-05-31T12:54:05.000Z</time>
      </trkpt>
      <trkpt lat="45.65413" lon="4.71379">
        <ele>256</ele>
        <time>2017-05-31T12:54:06.000Z</time>
      </trkpt>
      <trkpt lat="45.65426" lon="4.71389">
        <ele>256.39999389648</ele>
        <time>2017-05-31T12:54:12.000Z</time>
      </trkpt>
      <trkpt lat="45.65429" lon="4.71391">
        <ele>256.79998779297</ele>
        <time>2017-05-31T12:54:13.000Z</time>
      </trkpt>
      <trkpt lat="45.65431" lon="4.71393">
        <ele>257.20001220703</ele>
        <time>2017-05-31T12:54:14.000Z</time>
      </trkpt>
      <trkpt lat="45.65434" lon="4.71395">
        <ele>257.60000610352</ele>
        <time>2017-05-31T12:54:15.000Z</time>
      </trkpt>
      <trkpt lat="45.65436" lon="4.71396">
        <ele>258</ele>
        <time>2017-05-31T12:54:16.000Z</time>
      </trkpt>
      <trkpt lat="45.65447" lon="4.71402">
        <ele>258</ele>
        <time>2017-05-31T12:54:21.000Z</time>
      </trkpt>
      <trkpt lat="45.65455" lon="4.71406">
        <ele>258.39999389648</ele>
        <time>2017-05-31T12:54:24.000Z</time>
      </trkpt>
      <trkpt lat="45.65458" lon="4.71407">
        <ele>258.79998779297</ele>
        <time>2017-05-31T12:54:25.000Z</time>
      </trkpt>
      <trkpt lat="45.65462" lon="4.71408">
        <ele>259.20001220703</ele>
        <time>2017-05-31T12:54:26.000Z</time>
      </trkpt>
      <trkpt lat="45.65465" lon="4.71409">
        <ele>259.60000610352</ele>
        <time>2017-05-31T12:54:27.000Z</time>
      </trkpt>
      <trkpt lat="45.65468" lon="4.71411">
        <ele>260</ele>
        <time>2017-05-31T12:54:28.000Z</time>
      </trkpt>
      <trkpt lat="45.6549" lon="4.7142">
        <ele>260</ele>
        <time>2017-05-31T12:54:35.000Z</time>
      </trkpt>
      <trkpt lat="45.65524" lon="4.71437">
        <ele>260</ele>
        <time>2017-05-31T12:54:46.000Z</time>
      </trkpt>
      <trkpt lat="45.6554" lon="4.71443">
        <ele>260.39999389648</ele>
        <time>2017-05-31T12:54:51.000Z</time>
      </trkpt>
      <trkpt lat="45.65543" lon="4.71445">
        <ele>260.79998779297</ele>
        <time>2017-05-31T12:54:52.000Z</time>
      </trkpt>
      <trkpt lat="45.65546" lon="4.71446">
        <ele>261.20001220703</ele>
        <time>2017-05-31T12:54:53.000Z</time>
      </trkpt>
      <trkpt lat="45.65549" lon="4.71447">
        <ele>261.79998779297</ele>
        <time>2017-05-31T12:54:54.000Z</time>
      </trkpt>
      <trkpt lat="45.65552" lon="4.71448">
        <ele>262.20001220703</ele>
        <time>2017-05-31T12:54:55.000Z</time>
      </trkpt>
      <trkpt lat="45.65566" lon="4.71456">
        <ele>262.20001220703</ele>
        <time>2017-05-31T12:55:00.000Z</time>
      </trkpt>
      <trkpt lat="45.65588" lon="4.71466">
        <ele>262.20001220703</ele>
        <time>2017-05-31T12:55:08.000Z</time>
      </trkpt>
      <trkpt lat="45.65607" lon="4.71469">
        <ele>262.60000610352</ele>
        <time>2017-05-31T12:55:15.000Z</time>
      </trkpt>
      <trkpt lat="45.65611" lon="4.71469">
        <ele>263</ele>
        <time>2017-05-31T12:55:16.000Z</time>
      </trkpt>
      <trkpt lat="45.65614" lon="4.71469">
        <ele>263.39999389648</ele>
        <time>2017-05-31T12:55:17.000Z</time>
      </trkpt>
      <trkpt lat="45.65617" lon="4.71468">
        <ele>263.79998779297</ele>
        <time>2017-05-31T12:55:18.000Z</time>
      </trkpt>
      <trkpt lat="45.65618" lon="4.71469">
        <ele>264.20001220703</ele>
        <time>2017-05-31T12:55:19.000Z</time>
      </trkpt>
      <trkpt lat="45.65626" lon="4.71473">
        <ele>264.20001220703</ele>
        <time>2017-05-31T12:55:23.000Z</time>
      </trkpt>
      <trkpt lat="45.65637" lon="4.71489">
        <ele>264.20001220703</ele>
        <time>2017-05-31T12:55:31.000Z</time>
      </trkpt>
      <trkpt lat="45.65646" lon="4.715">
        <ele>264.20001220703</ele>
        <time>2017-05-31T12:55:38.000Z</time>
      </trkpt>
      <trkpt lat="45.65649" lon="4.71503">
        <ele>264.20001220703</ele>
        <time>2017-05-31T12:55:43.000Z</time>
      </trkpt>
      <trkpt lat="45.65652" lon="4.71504">
        <ele>264.20001220703</ele>
        <time>2017-05-31T12:57:08.000Z</time>
      </trkpt>
      <trkpt lat="45.65666" lon="4.71511">
        <ele>264.20001220703</ele>
        <time>2017-05-31T12:57:15.000Z</time>
      </trkpt>
      <trkpt lat="45.65676" lon="4.71514">
        <ele>264.20001220703</ele>
        <time>2017-05-31T12:57:19.000Z</time>
      </trkpt>
      <trkpt lat="45.65688" lon="4.71519">
        <ele>264.20001220703</ele>
        <time>2017-05-31T12:57:24.000Z</time>
      </trkpt>
      <trkpt lat="45.6569" lon="4.7152">
        <ele>264.60000610352</ele>
        <time>2017-05-31T12:57:25.000Z</time>
      </trkpt>
      <trkpt lat="45.65692" lon="4.71522">
        <ele>265.20001220703</ele>
        <time>2017-05-31T12:57:26.000Z</time>
      </trkpt>
      <trkpt lat="45.65694" lon="4.71523">
        <ele>265.60000610352</ele>
        <time>2017-05-31T12:57:27.000Z</time>
      </trkpt>
      <trkpt lat="45.65697" lon="4.71524">
        <ele>266</ele>
        <time>2017-05-31T12:57:28.000Z</time>
      </trkpt>
      <trkpt lat="45.65699" lon="4.71526">
        <ele>266.39999389648</ele>
        <time>2017-05-31T12:57:29.000Z</time>
      </trkpt>
      <trkpt lat="45.6571" lon="4.71533">
        <ele>266.39999389648</ele>
        <time>2017-05-31T12:57:34.000Z</time>
      </trkpt>
      <trkpt lat="45.65723" lon="4.71541">
        <ele>266.39999389648</ele>
        <time>2017-05-31T12:57:40.000Z</time>
      </trkpt>
      <trkpt lat="45.65744" lon="4.71563">
        <ele>266.39999389648</ele>
        <time>2017-05-31T12:57:49.000Z</time>
      </trkpt>
      <trkpt lat="45.65753" lon="4.71583">
        <ele>266.39999389648</ele>
        <time>2017-05-31T12:57:55.000Z</time>
      </trkpt>
      <trkpt lat="45.6576" lon="4.71608">
        <ele>266.39999389648</ele>
        <time>2017-05-31T12:58:02.000Z</time>
      </trkpt>
      <trkpt lat="45.65775" lon="4.71635">
        <ele>266.39999389648</ele>
        <time>2017-05-31T12:58:09.000Z</time>
      </trkpt>
      <trkpt lat="45.6579" lon="4.71662">
        <ele>266.39999389648</ele>
        <time>2017-05-31T12:58:14.000Z</time>
      </trkpt>
      <trkpt lat="45.65796" lon="4.71674">
        <ele>265.79998779297</ele>
        <time>2017-05-31T12:58:16.000Z</time>
      </trkpt>
      <trkpt lat="45.65799" lon="4.71681">
        <ele>265.39999389648</ele>
        <time>2017-05-31T12:58:17.000Z</time>
      </trkpt>
      <trkpt lat="45.65801" lon="4.71687">
        <ele>265</ele>
        <time>2017-05-31T12:58:18.000Z</time>
      </trkpt>
      <trkpt lat="45.65804" lon="4.71693">
        <ele>264.39999389648</ele>
        <time>2017-05-31T12:58:19.000Z</time>
      </trkpt>
      <trkpt lat="45.65807" lon="4.71699">
        <ele>264</ele>
        <time>2017-05-31T12:58:20.000Z</time>
      </trkpt>
      <trkpt lat="45.65816" lon="4.71712">
        <ele>264</ele>
        <time>2017-05-31T12:58:23.000Z</time>
      </trkpt>
      <trkpt lat="45.65819" lon="4.71717">
        <ele>263.60000610352</ele>
        <time>2017-05-31T12:58:24.000Z</time>
      </trkpt>
      <trkpt lat="45.65822" lon="4.71722">
        <ele>263.20001220703</ele>
        <time>2017-05-31T12:58:25.000Z</time>
      </trkpt>
      <trkpt lat="45.65825" lon="4.71725">
        <ele>262.79998779297</ele>
        <time>2017-05-31T12:58:26.000Z</time>
      </trkpt>
      <trkpt lat="45.65828" lon="4.7173">
        <ele>262.39999389648</ele>
        <time>2017-05-31T12:58:27.000Z</time>
      </trkpt>
      <trkpt lat="45.65831" lon="4.71734">
        <ele>261.79998779297</ele>
        <time>2017-05-31T12:58:28.000Z</time>
      </trkpt>
      <trkpt lat="45.65839" lon="4.71744">
        <ele>261.79998779297</ele>
        <time>2017-05-31T12:58:30.000Z</time>
      </trkpt>
      <trkpt lat="45.65844" lon="4.71748">
        <ele>261.79998779297</ele>
        <time>2017-05-31T12:58:31.000Z</time>
      </trkpt>
      <trkpt lat="45.65857" lon="4.71761">
        <ele>261.39999389648</ele>
        <time>2017-05-31T12:58:34.000Z</time>
      </trkpt>
      <trkpt lat="45.65862" lon="4.71765">
        <ele>261</ele>
        <time>2017-05-31T12:58:35.000Z</time>
      </trkpt>
      <trkpt lat="45.65865" lon="4.71767">
        <ele>260.60000610352</ele>
        <time>2017-05-31T12:58:36.000Z</time>
      </trkpt>
      <trkpt lat="45.65869" lon="4.71771">
        <ele>260.20001220703</ele>
        <time>2017-05-31T12:58:37.000Z</time>
      </trkpt>
      <trkpt lat="45.65873" lon="4.71775">
        <ele>259.79998779297</ele>
        <time>2017-05-31T12:58:38.000Z</time>
      </trkpt>
      <trkpt lat="45.65879" lon="4.71792">
        <ele>259.79998779297</ele>
        <time>2017-05-31T12:58:41.000Z</time>
      </trkpt>
      <trkpt lat="45.65874" lon="4.71813">
        <ele>259.39999389648</ele>
        <time>2017-05-31T12:58:44.000Z</time>
      </trkpt>
      <trkpt lat="45.65873" lon="4.71819">
        <ele>259</ele>
        <time>2017-05-31T12:58:45.000Z</time>
      </trkpt>
      <trkpt lat="45.65872" lon="4.71825">
        <ele>258.39999389648</ele>
        <time>2017-05-31T12:58:46.000Z</time>
      </trkpt>
      <trkpt lat="45.6587" lon="4.7183">
        <ele>258</ele>
        <time>2017-05-31T12:58:47.000Z</time>
      </trkpt>
      <trkpt lat="45.65869" lon="4.71835">
        <ele>257.60000610352</ele>
        <time>2017-05-31T12:58:48.000Z</time>
      </trkpt>
      <trkpt lat="45.65867" lon="4.71839">
        <ele>257.60000610352</ele>
        <time>2017-05-31T12:58:49.000Z</time>
      </trkpt>
      <trkpt lat="45.65862" lon="4.71858">
        <ele>257.60000610352</ele>
        <time>2017-05-31T12:58:55.000Z</time>
      </trkpt>
      <trkpt lat="45.65857" lon="4.71859">
        <ele>257.60000610352</ele>
        <time>2017-05-31T12:59:01.000Z</time>
      </trkpt>
      <trkpt lat="45.65856" lon="4.71859">
        <ele>257.60000610352</ele>
        <time>2017-05-31T12:59:02.000Z</time>
      </trkpt>
      <trkpt lat="45.65858" lon="4.7187">
        <ele>255.39999389648</ele>
        <time>2017-05-31T13:01:10.000Z</time>
      </trkpt>
      <trkpt lat="45.65859" lon="4.71874">
        <ele>255.39999389648</ele>
        <time>2017-05-31T13:01:11.000Z</time>
      </trkpt>
      <trkpt lat="45.65856" lon="4.71909">
        <ele>255.39999389648</ele>
        <time>2017-05-31T13:01:18.000Z</time>
      </trkpt>
      <trkpt lat="45.65854" lon="4.71914">
        <ele>255</ele>
        <time>2017-05-31T13:01:19.000Z</time>
      </trkpt>
      <trkpt lat="45.65853" lon="4.7192">
        <ele>254.60000610352</ele>
        <time>2017-05-31T13:01:20.000Z</time>
      </trkpt>
      <trkpt lat="45.65852" lon="4.71925">
        <ele>254.19999694824</ele>
        <time>2017-05-31T13:01:21.000Z</time>
      </trkpt>
      <trkpt lat="45.65852" lon="4.71931">
        <ele>253.80000305176</ele>
        <time>2017-05-31T13:01:22.000Z</time>
      </trkpt>
      <trkpt lat="45.65853" lon="4.71937">
        <ele>253.39999389648</ele>
        <time>2017-05-31T13:01:23.000Z</time>
      </trkpt>
      <trkpt lat="45.65852" lon="4.71952">
        <ele>253.39999389648</ele>
        <time>2017-05-31T13:01:26.000Z</time>
      </trkpt>
      <trkpt lat="45.65853" lon="4.71962">
        <ele>253</ele>
        <time>2017-05-31T13:01:28.000Z</time>
      </trkpt>
      <trkpt lat="45.65854" lon="4.71968">
        <ele>252.60000610352</ele>
        <time>2017-05-31T13:01:29.000Z</time>
      </trkpt>
      <trkpt lat="45.65856" lon="4.71973">
        <ele>252.19999694824</ele>
        <time>2017-05-31T13:01:30.000Z</time>
      </trkpt>
      <trkpt lat="45.65858" lon="4.7198">
        <ele>251.80000305176</ele>
        <time>2017-05-31T13:01:31.000Z</time>
      </trkpt>
      <trkpt lat="45.65859" lon="4.71988">
        <ele>251.39999389648</ele>
        <time>2017-05-31T13:01:32.000Z</time>
      </trkpt>
      <trkpt lat="45.65857" lon="4.71997">
        <ele>251.39999389648</ele>
        <time>2017-05-31T13:01:33.000Z</time>
      </trkpt>
      <trkpt lat="45.65856" lon="4.72006">
        <ele>250.80000305176</ele>
        <time>2017-05-31T13:01:34.000Z</time>
      </trkpt>
      <trkpt lat="45.65854" lon="4.72013">
        <ele>250.39999389648</ele>
        <time>2017-05-31T13:01:35.000Z</time>
      </trkpt>
      <trkpt lat="45.65853" lon="4.7202">
        <ele>250</ele>
        <time>2017-05-31T13:01:36.000Z</time>
      </trkpt>
      <trkpt lat="45.65852" lon="4.72027">
        <ele>249.39999389648</ele>
        <time>2017-05-31T13:01:37.000Z</time>
      </trkpt>
      <trkpt lat="45.65851" lon="4.72033">
        <ele>249</ele>
        <time>2017-05-31T13:01:38.000Z</time>
      </trkpt>
      <trkpt lat="45.6585" lon="4.7204">
        <ele>248.60000610352</ele>
        <time>2017-05-31T13:01:39.000Z</time>
      </trkpt>
      <trkpt lat="45.65848" lon="4.72046">
        <ele>248.19999694824</ele>
        <time>2017-05-31T13:01:40.000Z</time>
      </trkpt>
      <trkpt lat="45.65846" lon="4.72052">
        <ele>247.60000610352</ele>
        <time>2017-05-31T13:01:41.000Z</time>
      </trkpt>
      <trkpt lat="45.65844" lon="4.72059">
        <ele>247.19999694824</ele>
        <time>2017-05-31T13:01:42.000Z</time>
      </trkpt>
      <trkpt lat="45.65843" lon="4.72065">
        <ele>246.80000305176</ele>
        <time>2017-05-31T13:01:43.000Z</time>
      </trkpt>
      <trkpt lat="45.65838" lon="4.72083">
        <ele>246.39999389648</ele>
        <time>2017-05-31T13:01:46.000Z</time>
      </trkpt>
      <trkpt lat="45.65836" lon="4.72088">
        <ele>246</ele>
        <time>2017-05-31T13:01:47.000Z</time>
      </trkpt>
      <trkpt lat="45.65835" lon="4.72092">
        <ele>245.39999389648</ele>
        <time>2017-05-31T13:01:48.000Z</time>
      </trkpt>
      <trkpt lat="45.65834" lon="4.72097">
        <ele>245</ele>
        <time>2017-05-31T13:01:49.000Z</time>
      </trkpt>
      <trkpt lat="45.65835" lon="4.72102">
        <ele>244.60000610352</ele>
        <time>2017-05-31T13:01:50.000Z</time>
      </trkpt>
      <trkpt lat="45.65839" lon="4.7212">
        <ele>244.60000610352</ele>
        <time>2017-05-31T13:01:53.000Z</time>
      </trkpt>
      <trkpt lat="45.65841" lon="4.72125">
        <ele>244.60000610352</ele>
        <time>2017-05-31T13:01:54.000Z</time>
      </trkpt>
      <trkpt lat="45.65854" lon="4.72137">
        <ele>244.60000610352</ele>
        <time>2017-05-31T13:01:57.000Z</time>
      </trkpt>
      <trkpt lat="45.65865" lon="4.7214">
        <ele>244.19999694824</ele>
        <time>2017-05-31T13:01:59.000Z</time>
      </trkpt>
      <trkpt lat="45.6587" lon="4.72141">
        <ele>243.80000305176</ele>
        <time>2017-05-31T13:02:00.000Z</time>
      </trkpt>
      <trkpt lat="45.65876" lon="4.72142">
        <ele>243.19999694824</ele>
        <time>2017-05-31T13:02:01.000Z</time>
      </trkpt>
      <trkpt lat="45.65882" lon="4.72143">
        <ele>242.80000305176</ele>
        <time>2017-05-31T13:02:02.000Z</time>
      </trkpt>
      <trkpt lat="45.65886" lon="4.72144">
        <ele>242.39999389648</ele>
        <time>2017-05-31T13:02:03.000Z</time>
      </trkpt>
      <trkpt lat="45.65903" lon="4.72147">
        <ele>242</ele>
        <time>2017-05-31T13:02:06.000Z</time>
      </trkpt>
      <trkpt lat="45.65909" lon="4.72149">
        <ele>241.60000610352</ele>
        <time>2017-05-31T13:02:07.000Z</time>
      </trkpt>
      <trkpt lat="45.65915" lon="4.7215">
        <ele>241.19999694824</ele>
        <time>2017-05-31T13:02:08.000Z</time>
      </trkpt>
      <trkpt lat="45.6592" lon="4.72152">
        <ele>240.60000610352</ele>
        <time>2017-05-31T13:02:09.000Z</time>
      </trkpt>
      <trkpt lat="45.65926" lon="4.72154">
        <ele>240.19999694824</ele>
        <time>2017-05-31T13:02:10.000Z</time>
      </trkpt>
      <trkpt lat="45.65932" lon="4.72156">
        <ele>239.80000305176</ele>
        <time>2017-05-31T13:02:11.000Z</time>
      </trkpt>
      <trkpt lat="45.65937" lon="4.72156">
        <ele>239.39999389648</ele>
        <time>2017-05-31T13:02:12.000Z</time>
      </trkpt>
      <trkpt lat="45.65944" lon="4.72157">
        <ele>239</ele>
        <time>2017-05-31T13:02:13.000Z</time>
      </trkpt>
      <trkpt lat="45.6595" lon="4.72159">
        <ele>238.60000610352</ele>
        <time>2017-05-31T13:02:14.000Z</time>
      </trkpt>
      <trkpt lat="45.65957" lon="4.72159">
        <ele>238.19999694824</ele>
        <time>2017-05-31T13:02:15.000Z</time>
      </trkpt>
      <trkpt lat="45.65986" lon="4.72159">
        <ele>237.80000305176</ele>
        <time>2017-05-31T13:02:19.000Z</time>
      </trkpt>
      <trkpt lat="45.65994" lon="4.72158">
        <ele>237.19999694824</ele>
        <time>2017-05-31T13:02:20.000Z</time>
      </trkpt>
      <trkpt lat="45.66002" lon="4.72157">
        <ele>236.80000305176</ele>
        <time>2017-05-31T13:02:21.000Z</time>
      </trkpt>
      <trkpt lat="45.66009" lon="4.72156">
        <ele>236.39999389648</ele>
        <time>2017-05-31T13:02:22.000Z</time>
      </trkpt>
      <trkpt lat="45.66018" lon="4.72155">
        <ele>235.80000305176</ele>
        <time>2017-05-31T13:02:23.000Z</time>
      </trkpt>
      <trkpt lat="45.66026" lon="4.72157">
        <ele>235.39999389648</ele>
        <time>2017-05-31T13:02:24.000Z</time>
      </trkpt>
      <trkpt lat="45.66034" lon="4.72159">
        <ele>234.80000305176</ele>
        <time>2017-05-31T13:02:25.000Z</time>
      </trkpt>
      <trkpt lat="45.66043" lon="4.72162">
        <ele>234.39999389648</ele>
        <time>2017-05-31T13:02:26.000Z</time>
      </trkpt>
      <trkpt lat="45.6605" lon="4.72167">
        <ele>233.80000305176</ele>
        <time>2017-05-31T13:02:27.000Z</time>
      </trkpt>
      <trkpt lat="45.66057" lon="4.72174">
        <ele>233.39999389648</ele>
        <time>2017-05-31T13:02:28.000Z</time>
      </trkpt>
      <trkpt lat="45.66061" lon="4.72183">
        <ele>232.80000305176</ele>
        <time>2017-05-31T13:02:29.000Z</time>
      </trkpt>
      <trkpt lat="45.66066" lon="4.72194">
        <ele>232.39999389648</ele>
        <time>2017-05-31T13:02:30.000Z</time>
      </trkpt>
      <trkpt lat="45.66069" lon="4.72206">
        <ele>231.80000305176</ele>
        <time>2017-05-31T13:02:31.000Z</time>
      </trkpt>
      <trkpt lat="45.66069" lon="4.72218">
        <ele>231.39999389648</ele>
        <time>2017-05-31T13:02:32.000Z</time>
      </trkpt>
      <trkpt lat="45.66067" lon="4.7223">
        <ele>231</ele>
        <time>2017-05-31T13:02:33.000Z</time>
      </trkpt>
      <trkpt lat="45.66067" lon="4.72243">
        <ele>230.60000610352</ele>
        <time>2017-05-31T13:02:34.000Z</time>
      </trkpt>
      <trkpt lat="45.66066" lon="4.72254">
        <ele>230</ele>
        <time>2017-05-31T13:02:35.000Z</time>
      </trkpt>
      <trkpt lat="45.66064" lon="4.72266">
        <ele>229.60000610352</ele>
        <time>2017-05-31T13:02:36.000Z</time>
      </trkpt>
      <trkpt lat="45.66062" lon="4.72276">
        <ele>229.19999694824</ele>
        <time>2017-05-31T13:02:37.000Z</time>
      </trkpt>
      <trkpt lat="45.66058" lon="4.72287">
        <ele>228.80000305176</ele>
        <time>2017-05-31T13:02:38.000Z</time>
      </trkpt>
      <trkpt lat="45.66053" lon="4.72296">
        <ele>228.19999694824</ele>
        <time>2017-05-31T13:02:39.000Z</time>
      </trkpt>
      <trkpt lat="45.66047" lon="4.72305">
        <ele>227.80000305176</ele>
        <time>2017-05-31T13:02:40.000Z</time>
      </trkpt>
      <trkpt lat="45.66041" lon="4.72314">
        <ele>227.39999389648</ele>
        <time>2017-05-31T13:02:41.000Z</time>
      </trkpt>
      <trkpt lat="45.66035" lon="4.72324">
        <ele>227</ele>
        <time>2017-05-31T13:02:42.000Z</time>
      </trkpt>
      <trkpt lat="45.6603" lon="4.72336">
        <ele>226.39999389648</ele>
        <time>2017-05-31T13:02:43.000Z</time>
      </trkpt>
      <trkpt lat="45.66026" lon="4.72348">
        <ele>226</ele>
        <time>2017-05-31T13:02:44.000Z</time>
      </trkpt>
      <trkpt lat="45.66021" lon="4.7236">
        <ele>225.39999389648</ele>
        <time>2017-05-31T13:02:45.000Z</time>
      </trkpt>
      <trkpt lat="45.66016" lon="4.72372">
        <ele>225</ele>
        <time>2017-05-31T13:02:46.000Z</time>
      </trkpt>
      <trkpt lat="45.66011" lon="4.72385">
        <ele>224.39999389648</ele>
        <time>2017-05-31T13:02:47.000Z</time>
      </trkpt>
      <trkpt lat="45.66006" lon="4.72398">
        <ele>223.80000305176</ele>
        <time>2017-05-31T13:02:48.000Z</time>
      </trkpt>
      <trkpt lat="45.66002" lon="4.7241">
        <ele>223.19999694824</ele>
        <time>2017-05-31T13:02:49.000Z</time>
      </trkpt>
      <trkpt lat="45.65998" lon="4.72422">
        <ele>222.60000610352</ele>
        <time>2017-05-31T13:02:50.000Z</time>
      </trkpt>
      <trkpt lat="45.65993" lon="4.72435">
        <ele>222.19999694824</ele>
        <time>2017-05-31T13:02:51.000Z</time>
      </trkpt>
      <trkpt lat="45.65989" lon="4.72448">
        <ele>221.60000610352</ele>
        <time>2017-05-31T13:02:52.000Z</time>
      </trkpt>
      <trkpt lat="45.65986" lon="4.72463">
        <ele>221.19999694824</ele>
        <time>2017-05-31T13:02:53.000Z</time>
      </trkpt>
      <trkpt lat="45.65984" lon="4.72478">
        <ele>220.60000610352</ele>
        <time>2017-05-31T13:02:54.000Z</time>
      </trkpt>
      <trkpt lat="45.65981" lon="4.72493">
        <ele>220</ele>
        <time>2017-05-31T13:02:55.000Z</time>
      </trkpt>
      <trkpt lat="45.65981" lon="4.72508">
        <ele>219.19999694824</ele>
        <time>2017-05-31T13:02:56.000Z</time>
      </trkpt>
      <trkpt lat="45.6598" lon="4.72524">
        <ele>218.60000610352</ele>
        <time>2017-05-31T13:02:57.000Z</time>
      </trkpt>
      <trkpt lat="45.65979" lon="4.72539">
        <ele>217.80000305176</ele>
        <time>2017-05-31T13:02:58.000Z</time>
      </trkpt>
      <trkpt lat="45.65979" lon="4.72554">
        <ele>217.19999694824</ele>
        <time>2017-05-31T13:02:59.000Z</time>
      </trkpt>
      <trkpt lat="45.65978" lon="4.72569">
        <ele>216.60000610352</ele>
        <time>2017-05-31T13:03:00.000Z</time>
      </trkpt>
      <trkpt lat="45.65976" lon="4.72583">
        <ele>216</ele>
        <time>2017-05-31T13:03:01.000Z</time>
      </trkpt>
      <trkpt lat="45.65974" lon="4.72597">
        <ele>215.39999389648</ele>
        <time>2017-05-31T13:03:02.000Z</time>
      </trkpt>
      <trkpt lat="45.65972" lon="4.72609">
        <ele>214.60000610352</ele>
        <time>2017-05-31T13:03:03.000Z</time>
      </trkpt>
      <trkpt lat="45.6597" lon="4.72623">
        <ele>214</ele>
        <time>2017-05-31T13:03:04.000Z</time>
      </trkpt>
      <trkpt lat="45.65968" lon="4.72634">
        <ele>213.39999389648</ele>
        <time>2017-05-31T13:03:05.000Z</time>
      </trkpt>
      <trkpt lat="45.65968" lon="4.72646">
        <ele>212.60000610352</ele>
        <time>2017-05-31T13:03:06.000Z</time>
      </trkpt>
      <trkpt lat="45.6597" lon="4.72658">
        <ele>212</ele>
        <time>2017-05-31T13:03:07.000Z</time>
      </trkpt>
      <trkpt lat="45.6597" lon="4.7267">
        <ele>211.19999694824</ele>
        <time>2017-05-31T13:03:08.000Z</time>
      </trkpt>
      <trkpt lat="45.65973" lon="4.72682">
        <ele>210.60000610352</ele>
        <time>2017-05-31T13:03:09.000Z</time>
      </trkpt>
      <trkpt lat="45.65977" lon="4.72707">
        <ele>210</ele>
        <time>2017-05-31T13:03:11.000Z</time>
      </trkpt>
      <trkpt lat="45.65978" lon="4.7272">
        <ele>209.60000610352</ele>
        <time>2017-05-31T13:03:12.000Z</time>
      </trkpt>
      <trkpt lat="45.65979" lon="4.72733">
        <ele>209</ele>
        <time>2017-05-31T13:03:13.000Z</time>
      </trkpt>
      <trkpt lat="45.65977" lon="4.72745">
        <ele>208.60000610352</ele>
        <time>2017-05-31T13:03:14.000Z</time>
      </trkpt>
      <trkpt lat="45.65973" lon="4.72756">
        <ele>208</ele>
        <time>2017-05-31T13:03:15.000Z</time>
      </trkpt>
      <trkpt lat="45.65968" lon="4.72776">
        <ele>208</ele>
        <time>2017-05-31T13:03:17.000Z</time>
      </trkpt>
      <trkpt lat="45.65961" lon="4.72816">
        <ele>208</ele>
        <time>2017-05-31T13:03:22.000Z</time>
      </trkpt>
      <trkpt lat="45.65954" lon="4.72834">
        <ele>208</ele>
        <time>2017-05-31T13:03:25.000Z</time>
      </trkpt>
      <trkpt lat="45.65948" lon="4.72845">
        <ele>208</ele>
        <time>2017-05-31T13:03:27.000Z</time>
      </trkpt>
      <trkpt lat="45.65928" lon="4.7288">
        <ele>208</ele>
        <time>2017-05-31T13:03:33.000Z</time>
      </trkpt>
      <trkpt lat="45.65925" lon="4.72887">
        <ele>208</ele>
        <time>2017-05-31T13:03:34.000Z</time>
      </trkpt>
      <trkpt lat="45.6592" lon="4.72905">
        <ele>208</ele>
        <time>2017-05-31T13:03:36.000Z</time>
      </trkpt>
      <trkpt lat="45.65918" lon="4.72913">
        <ele>208</ele>
        <time>2017-05-31T13:03:37.000Z</time>
      </trkpt>
      <trkpt lat="45.65915" lon="4.72941">
        <ele>208</ele>
        <time>2017-05-31T13:03:40.000Z</time>
      </trkpt>
      <trkpt lat="45.65915" lon="4.72961">
        <ele>208</ele>
        <time>2017-05-31T13:03:42.000Z</time>
      </trkpt>
      <trkpt lat="45.65916" lon="4.73038">
        <ele>208</ele>
        <time>2017-05-31T13:03:49.000Z</time>
      </trkpt>
      <trkpt lat="45.65916" lon="4.73051">
        <ele>207.60000610352</ele>
        <time>2017-05-31T13:03:50.000Z</time>
      </trkpt>
      <trkpt lat="45.65917" lon="4.73062">
        <ele>207.19999694824</ele>
        <time>2017-05-31T13:03:51.000Z</time>
      </trkpt>
      <trkpt lat="45.65916" lon="4.73072">
        <ele>206.80000305176</ele>
        <time>2017-05-31T13:03:52.000Z</time>
      </trkpt>
      <trkpt lat="45.65916" lon="4.73081">
        <ele>206.39999389648</ele>
        <time>2017-05-31T13:03:53.000Z</time>
      </trkpt>
      <trkpt lat="45.65916" lon="4.73089">
        <ele>206</ele>
        <time>2017-05-31T13:03:54.000Z</time>
      </trkpt>
      <trkpt lat="45.65917" lon="4.7317">
        <ele>206</ele>
        <time>2017-05-31T13:04:03.000Z</time>
      </trkpt>
      <trkpt lat="45.65924" lon="4.73232">
        <ele>205.60000610352</ele>
        <time>2017-05-31T13:04:10.000Z</time>
      </trkpt>
      <trkpt lat="45.65925" lon="4.73241">
        <ele>205.19999694824</ele>
        <time>2017-05-31T13:04:11.000Z</time>
      </trkpt>
      <trkpt lat="45.65926" lon="4.73251">
        <ele>204.60000610352</ele>
        <time>2017-05-31T13:04:12.000Z</time>
      </trkpt>
      <trkpt lat="45.65928" lon="4.7326">
        <ele>204.19999694824</ele>
        <time>2017-05-31T13:04:13.000Z</time>
      </trkpt>
      <trkpt lat="45.65929" lon="4.73268">
        <ele>203.80000305176</ele>
        <time>2017-05-31T13:04:14.000Z</time>
      </trkpt>
      <trkpt lat="45.65933" lon="4.7329">
        <ele>203.80000305176</ele>
        <time>2017-05-31T13:04:17.000Z</time>
      </trkpt>
      <trkpt lat="45.65935" lon="4.73323">
        <ele>203.39999389648</ele>
        <time>2017-05-31T13:04:21.000Z</time>
      </trkpt>
      <trkpt lat="45.65934" lon="4.73332">
        <ele>203</ele>
        <time>2017-05-31T13:04:22.000Z</time>
      </trkpt>
      <trkpt lat="45.65933" lon="4.7334">
        <ele>202.60000610352</ele>
        <time>2017-05-31T13:04:23.000Z</time>
      </trkpt>
      <trkpt lat="45.65931" lon="4.73349">
        <ele>202.19999694824</ele>
        <time>2017-05-31T13:04:24.000Z</time>
      </trkpt>
      <trkpt lat="45.65929" lon="4.73357">
        <ele>201.60000610352</ele>
        <time>2017-05-31T13:04:25.000Z</time>
      </trkpt>
      <trkpt lat="45.65925" lon="4.73366">
        <ele>201.60000610352</ele>
        <time>2017-05-31T13:04:26.000Z</time>
      </trkpt>
      <trkpt lat="45.65905" lon="4.73414">
        <ele>201.19999694824</ele>
        <time>2017-05-31T13:04:31.000Z</time>
      </trkpt>
      <trkpt lat="45.65902" lon="4.73423">
        <ele>200.80000305176</ele>
        <time>2017-05-31T13:04:32.000Z</time>
      </trkpt>
      <trkpt lat="45.65899" lon="4.73433">
        <ele>200.39999389648</ele>
        <time>2017-05-31T13:04:33.000Z</time>
      </trkpt>
      <trkpt lat="45.65896" lon="4.73443">
        <ele>200</ele>
        <time>2017-05-31T13:04:34.000Z</time>
      </trkpt>
      <trkpt lat="45.65894" lon="4.73453">
        <ele>199.39999389648</ele>
        <time>2017-05-31T13:04:35.000Z</time>
      </trkpt>
      <trkpt lat="45.65889" lon="4.73474">
        <ele>199.39999389648</ele>
        <time>2017-05-31T13:04:37.000Z</time>
      </trkpt>
      <trkpt lat="45.65887" lon="4.73509">
        <ele>199</ele>
        <time>2017-05-31T13:04:40.000Z</time>
      </trkpt>
      <trkpt lat="45.65887" lon="4.73521">
        <ele>198.39999389648</ele>
        <time>2017-05-31T13:04:41.000Z</time>
      </trkpt>
      <trkpt lat="45.65888" lon="4.73533">
        <ele>198</ele>
        <time>2017-05-31T13:04:42.000Z</time>
      </trkpt>
      <trkpt lat="45.65889" lon="4.73546">
        <ele>197.39999389648</ele>
        <time>2017-05-31T13:04:43.000Z</time>
      </trkpt>
      <trkpt lat="45.65891" lon="4.73559">
        <ele>197</ele>
        <time>2017-05-31T13:04:44.000Z</time>
      </trkpt>
      <trkpt lat="45.65892" lon="4.73573">
        <ele>196.39999389648</ele>
        <time>2017-05-31T13:04:45.000Z</time>
      </trkpt>
      <trkpt lat="45.65893" lon="4.73587">
        <ele>195.80000305176</ele>
        <time>2017-05-31T13:04:46.000Z</time>
      </trkpt>
      <trkpt lat="45.65894" lon="4.73601">
        <ele>195.39999389648</ele>
        <time>2017-05-31T13:04:47.000Z</time>
      </trkpt>
      <trkpt lat="45.65894" lon="4.73615">
        <ele>194.80000305176</ele>
        <time>2017-05-31T13:04:48.000Z</time>
      </trkpt>
      <trkpt lat="45.65894" lon="4.73629">
        <ele>194.19999694824</ele>
        <time>2017-05-31T13:04:49.000Z</time>
      </trkpt>
      <trkpt lat="45.65891" lon="4.73657">
        <ele>193.60000610352</ele>
        <time>2017-05-31T13:04:51.000Z</time>
      </trkpt>
      <trkpt lat="45.65889" lon="4.7367">
        <ele>193.19999694824</ele>
        <time>2017-05-31T13:04:52.000Z</time>
      </trkpt>
      <trkpt lat="45.65887" lon="4.73683">
        <ele>192.60000610352</ele>
        <time>2017-05-31T13:04:53.000Z</time>
      </trkpt>
      <trkpt lat="45.65885" lon="4.73695">
        <ele>192.19999694824</ele>
        <time>2017-05-31T13:04:54.000Z</time>
      </trkpt>
      <trkpt lat="45.65884" lon="4.73707">
        <ele>191.60000610352</ele>
        <time>2017-05-31T13:04:55.000Z</time>
      </trkpt>
      <trkpt lat="45.65881" lon="4.73746">
        <ele>191.19999694824</ele>
        <time>2017-05-31T13:04:58.000Z</time>
      </trkpt>
      <trkpt lat="45.6588" lon="4.7376">
        <ele>190.60000610352</ele>
        <time>2017-05-31T13:04:59.000Z</time>
      </trkpt>
      <trkpt lat="45.65879" lon="4.73773">
        <ele>190.19999694824</ele>
        <time>2017-05-31T13:05:00.000Z</time>
      </trkpt>
      <trkpt lat="45.65879" lon="4.73786">
        <ele>189.60000610352</ele>
        <time>2017-05-31T13:05:01.000Z</time>
      </trkpt>
      <trkpt lat="45.65878" lon="4.73798">
        <ele>189.19999694824</ele>
        <time>2017-05-31T13:05:02.000Z</time>
      </trkpt>
      <trkpt lat="45.65873" lon="4.73822">
        <ele>189.19999694824</ele>
        <time>2017-05-31T13:05:04.000Z</time>
      </trkpt>
      <trkpt lat="45.65872" lon="4.73835">
        <ele>188.60000610352</ele>
        <time>2017-05-31T13:05:05.000Z</time>
      </trkpt>
      <trkpt lat="45.65869" lon="4.73848">
        <ele>188.19999694824</ele>
        <time>2017-05-31T13:05:06.000Z</time>
      </trkpt>
      <trkpt lat="45.65867" lon="4.7386">
        <ele>187.80000305176</ele>
        <time>2017-05-31T13:05:07.000Z</time>
      </trkpt>
      <trkpt lat="45.65865" lon="4.73872">
        <ele>187.39999389648</ele>
        <time>2017-05-31T13:05:08.000Z</time>
      </trkpt>
      <trkpt lat="45.65862" lon="4.73884">
        <ele>187</ele>
        <time>2017-05-31T13:05:09.000Z</time>
      </trkpt>
      <trkpt lat="45.65856" lon="4.73895">
        <ele>187</ele>
        <time>2017-05-31T13:05:10.000Z</time>
      </trkpt>
      <trkpt lat="45.65841" lon="4.73941">
        <ele>186.60000610352</ele>
        <time>2017-05-31T13:05:14.000Z</time>
      </trkpt>
      <trkpt lat="45.65836" lon="4.73966">
        <ele>186.19999694824</ele>
        <time>2017-05-31T13:05:16.000Z</time>
      </trkpt>
      <trkpt lat="45.65834" lon="4.73979">
        <ele>185.80000305176</ele>
        <time>2017-05-31T13:05:17.000Z</time>
      </trkpt>
      <trkpt lat="45.65831" lon="4.73992">
        <ele>185.39999389648</ele>
        <time>2017-05-31T13:05:18.000Z</time>
      </trkpt>
      <trkpt lat="45.65829" lon="4.74005">
        <ele>185</ele>
        <time>2017-05-31T13:05:19.000Z</time>
      </trkpt>
      <trkpt lat="45.6583" lon="4.74057">
        <ele>184.39999389648</ele>
        <time>2017-05-31T13:05:23.000Z</time>
      </trkpt>
      <trkpt lat="45.6583" lon="4.74071">
        <ele>184</ele>
        <time>2017-05-31T13:05:24.000Z</time>
      </trkpt>
      <trkpt lat="45.6583" lon="4.74084">
        <ele>183.60000610352</ele>
        <time>2017-05-31T13:05:25.000Z</time>
      </trkpt>
      <trkpt lat="45.6583" lon="4.74098">
        <ele>183.19999694824</ele>
        <time>2017-05-31T13:05:26.000Z</time>
      </trkpt>
      <trkpt lat="45.65829" lon="4.74111">
        <ele>182.80000305176</ele>
        <time>2017-05-31T13:05:27.000Z</time>
      </trkpt>
      <trkpt lat="45.65828" lon="4.74135">
        <ele>182.80000305176</ele>
        <time>2017-05-31T13:05:29.000Z</time>
      </trkpt>
      <trkpt lat="45.65825" lon="4.74146">
        <ele>182.80000305176</ele>
        <time>2017-05-31T13:05:30.000Z</time>
      </trkpt>
      <trkpt lat="45.65814" lon="4.74166">
        <ele>182.39999389648</ele>
        <time>2017-05-31T13:05:32.000Z</time>
      </trkpt>
      <trkpt lat="45.65806" lon="4.74175">
        <ele>182</ele>
        <time>2017-05-31T13:05:33.000Z</time>
      </trkpt>
      <trkpt lat="45.65799" lon="4.74183">
        <ele>181.39999389648</ele>
        <time>2017-05-31T13:05:34.000Z</time>
      </trkpt>
      <trkpt lat="45.65791" lon="4.74191">
        <ele>181</ele>
        <time>2017-05-31T13:05:35.000Z</time>
      </trkpt>
      <trkpt lat="45.65784" lon="4.74198">
        <ele>180.60000610352</ele>
        <time>2017-05-31T13:05:36.000Z</time>
      </trkpt>
      <trkpt lat="45.6576" lon="4.74215">
        <ele>180.60000610352</ele>
        <time>2017-05-31T13:05:39.000Z</time>
      </trkpt>
      <trkpt lat="45.65751" lon="4.74218">
        <ele>180.60000610352</ele>
        <time>2017-05-31T13:05:40.000Z</time>
      </trkpt>
      <trkpt lat="45.65727" lon="4.74228">
        <ele>180.60000610352</ele>
        <time>2017-05-31T13:05:43.000Z</time>
      </trkpt>
      <trkpt lat="45.6568" lon="4.74238">
        <ele>180.60000610352</ele>
        <time>2017-05-31T13:05:49.000Z</time>
      </trkpt>
      <trkpt lat="45.65673" lon="4.7424">
        <ele>180.19999694824</ele>
        <time>2017-05-31T13:05:50.000Z</time>
      </trkpt>
      <trkpt lat="45.65664" lon="4.74242">
        <ele>179.60000610352</ele>
        <time>2017-05-31T13:05:51.000Z</time>
      </trkpt>
      <trkpt lat="45.65657" lon="4.74243">
        <ele>179.19999694824</ele>
        <time>2017-05-31T13:05:52.000Z</time>
      </trkpt>
      <trkpt lat="45.65649" lon="4.74243">
        <ele>178.80000305176</ele>
        <time>2017-05-31T13:05:53.000Z</time>
      </trkpt>
      <trkpt lat="45.65642" lon="4.74243">
        <ele>178.39999389648</ele>
        <time>2017-05-31T13:05:54.000Z</time>
      </trkpt>
      <trkpt lat="45.65634" lon="4.74243">
        <ele>178.39999389648</ele>
        <time>2017-05-31T13:05:55.000Z</time>
      </trkpt>
      <trkpt lat="45.65584" lon="4.74244">
        <ele>178.39999389648</ele>
        <time>2017-05-31T13:06:02.000Z</time>
      </trkpt>
      <trkpt lat="45.65578" lon="4.74248">
        <ele>178.39999389648</ele>
        <time>2017-05-31T13:06:03.000Z</time>
      </trkpt>
      <trkpt lat="45.6556" lon="4.74268">
        <ele>178.39999389648</ele>
        <time>2017-05-31T13:06:06.000Z</time>
      </trkpt>
      <trkpt lat="45.6555" lon="4.74284">
        <ele>178.39999389648</ele>
        <time>2017-05-31T13:06:08.000Z</time>
      </trkpt>
      <trkpt lat="45.65539" lon="4.74303">
        <ele>178</ele>
        <time>2017-05-31T13:06:10.000Z</time>
      </trkpt>
      <trkpt lat="45.65534" lon="4.74311">
        <ele>177.60000610352</ele>
        <time>2017-05-31T13:06:11.000Z</time>
      </trkpt>
      <trkpt lat="45.65528" lon="4.7432">
        <ele>177.19999694824</ele>
        <time>2017-05-31T13:06:12.000Z</time>
      </trkpt>
      <trkpt lat="45.65522" lon="4.74327">
        <ele>176.80000305176</ele>
        <time>2017-05-31T13:06:13.000Z</time>
      </trkpt>
      <trkpt lat="45.65516" lon="4.74335">
        <ele>176.39999389648</ele>
        <time>2017-05-31T13:06:14.000Z</time>
      </trkpt>
      <trkpt lat="45.65501" lon="4.74346">
        <ele>176.39999389648</ele>
        <time>2017-05-31T13:06:16.000Z</time>
      </trkpt>
      <trkpt lat="45.65494" lon="4.74352">
        <ele>176.39999389648</ele>
        <time>2017-05-31T13:06:17.000Z</time>
      </trkpt>
      <trkpt lat="45.65474" lon="4.74369">
        <ele>175.80000305176</ele>
        <time>2017-05-31T13:06:20.000Z</time>
      </trkpt>
      <trkpt lat="45.65468" lon="4.74374">
        <ele>175.39999389648</ele>
        <time>2017-05-31T13:06:21.000Z</time>
      </trkpt>
      <trkpt lat="45.65461" lon="4.7438">
        <ele>175</ele>
        <time>2017-05-31T13:06:22.000Z</time>
      </trkpt>
      <trkpt lat="45.65455" lon="4.74385">
        <ele>174.39999389648</ele>
        <time>2017-05-31T13:06:23.000Z</time>
      </trkpt>
      <trkpt lat="45.65449" lon="4.74391">
        <ele>174</ele>
        <time>2017-05-31T13:06:24.000Z</time>
      </trkpt>
      <trkpt lat="45.6542" lon="4.74427">
        <ele>174</ele>
        <time>2017-05-31T13:06:29.000Z</time>
      </trkpt>
      <trkpt lat="45.65415" lon="4.74435">
        <ele>173.60000610352</ele>
        <time>2017-05-31T13:06:30.000Z</time>
      </trkpt>
      <trkpt lat="45.65409" lon="4.74444">
        <ele>173.19999694824</ele>
        <time>2017-05-31T13:06:31.000Z</time>
      </trkpt>
      <trkpt lat="45.65403" lon="4.74453">
        <ele>172.80000305176</ele>
        <time>2017-05-31T13:06:32.000Z</time>
      </trkpt>
      <trkpt lat="45.65398" lon="4.74461">
        <ele>172.19999694824</ele>
        <time>2017-05-31T13:06:33.000Z</time>
      </trkpt>
      <trkpt lat="45.65392" lon="4.74468">
        <ele>171.80000305176</ele>
        <time>2017-05-31T13:06:34.000Z</time>
      </trkpt>
      <trkpt lat="45.65386" lon="4.74476">
        <ele>171.19999694824</ele>
        <time>2017-05-31T13:06:35.000Z</time>
      </trkpt>
      <trkpt lat="45.65381" lon="4.74484">
        <ele>170.60000610352</ele>
        <time>2017-05-31T13:06:36.000Z</time>
      </trkpt>
      <trkpt lat="45.65375" lon="4.74492">
        <ele>170.19999694824</ele>
        <time>2017-05-31T13:06:37.000Z</time>
      </trkpt>
      <trkpt lat="45.65372" lon="4.74502">
        <ele>169.60000610352</ele>
        <time>2017-05-31T13:06:38.000Z</time>
      </trkpt>
      <trkpt lat="45.65367" lon="4.74524">
        <ele>169.60000610352</ele>
        <time>2017-05-31T13:06:40.000Z</time>
      </trkpt>
      <trkpt lat="45.65369" lon="4.74556">
        <ele>169.60000610352</ele>
        <time>2017-05-31T13:06:43.000Z</time>
      </trkpt>
      <trkpt lat="45.65369" lon="4.7461">
        <ele>169.60000610352</ele>
        <time>2017-05-31T13:06:49.000Z</time>
      </trkpt>
      <trkpt lat="45.65357" lon="4.74637">
        <ele>169.60000610352</ele>
        <time>2017-05-31T13:06:53.000Z</time>
      </trkpt>
      <trkpt lat="45.65348" lon="4.74668">
        <ele>169.60000610352</ele>
        <time>2017-05-31T13:06:57.000Z</time>
      </trkpt>
      <trkpt lat="45.65347" lon="4.74677">
        <ele>169.60000610352</ele>
        <time>2017-05-31T13:06:58.000Z</time>
      </trkpt>
      <trkpt lat="45.65344" lon="4.74726">
        <ele>169.60000610352</ele>
        <time>2017-05-31T13:07:03.000Z</time>
      </trkpt>
      <trkpt lat="45.65343" lon="4.74769">
        <ele>169.19999694824</ele>
        <time>2017-05-31T13:07:07.000Z</time>
      </trkpt>
      <trkpt lat="45.65343" lon="4.74779">
        <ele>168.80000305176</ele>
        <time>2017-05-31T13:07:08.000Z</time>
      </trkpt>
      <trkpt lat="45.65342" lon="4.7479">
        <ele>168.39999389648</ele>
        <time>2017-05-31T13:07:09.000Z</time>
      </trkpt>
      <trkpt lat="45.65341" lon="4.74801">
        <ele>168</ele>
        <time>2017-05-31T13:07:10.000Z</time>
      </trkpt>
      <trkpt lat="45.65341" lon="4.74812">
        <ele>167.39999389648</ele>
        <time>2017-05-31T13:07:11.000Z</time>
      </trkpt>
      <trkpt lat="45.65333" lon="4.74878">
        <ele>167.39999389648</ele>
        <time>2017-05-31T13:07:18.000Z</time>
      </trkpt>
      <trkpt lat="45.65331" lon="4.74892">
        <ele>167</ele>
        <time>2017-05-31T13:07:20.000Z</time>
      </trkpt>
      <trkpt lat="45.6533" lon="4.74899">
        <ele>166.39999389648</ele>
        <time>2017-05-31T13:07:21.000Z</time>
      </trkpt>
      <trkpt lat="45.65329" lon="4.74904">
        <ele>166</ele>
        <time>2017-05-31T13:07:22.000Z</time>
      </trkpt>
      <trkpt lat="45.65327" lon="4.7491">
        <ele>165.60000610352</ele>
        <time>2017-05-31T13:07:23.000Z</time>
      </trkpt>
      <trkpt lat="45.65326" lon="4.74916">
        <ele>165</ele>
        <time>2017-05-31T13:07:24.000Z</time>
      </trkpt>
      <trkpt lat="45.65323" lon="4.74933">
        <ele>165</ele>
        <time>2017-05-31T13:07:28.000Z</time>
      </trkpt>
      <trkpt lat="45.65321" lon="4.7494">
        <ele>165</ele>
        <time>2017-05-31T13:07:32.000Z</time>
      </trkpt>
      <trkpt lat="45.65319" lon="4.74948">
        <ele>165</ele>
        <time>2017-05-31T13:07:37.000Z</time>
      </trkpt>
      <trkpt lat="45.65316" lon="4.7496">
        <ele>165</ele>
        <time>2017-05-31T13:07:44.000Z</time>
      </trkpt>
      <trkpt lat="45.65314" lon="4.74964">
        <ele>165</ele>
        <time>2017-05-31T13:07:48.000Z</time>
      </trkpt>
      <trkpt lat="45.6531" lon="4.74965">
        <ele>165</ele>
        <time>2017-05-31T13:07:51.000Z</time>
      </trkpt>
      <trkpt lat="45.65297" lon="4.74959">
        <ele>165</ele>
        <time>2017-05-31T13:07:56.000Z</time>
      </trkpt>
      <trkpt lat="45.65267" lon="4.74943">
        <ele>165</ele>
        <time>2017-05-31T13:08:05.000Z</time>
      </trkpt>
      <trkpt lat="45.65249" lon="4.74931">
        <ele>164.60000610352</ele>
        <time>2017-05-31T13:08:10.000Z</time>
      </trkpt>
      <trkpt lat="45.65245" lon="4.74928">
        <ele>164.19999694824</ele>
        <time>2017-05-31T13:08:11.000Z</time>
      </trkpt>
      <trkpt lat="45.65241" lon="4.74926">
        <ele>163.80000305176</ele>
        <time>2017-05-31T13:08:12.000Z</time>
      </trkpt>
      <trkpt lat="45.65237" lon="4.74923">
        <ele>163.39999389648</ele>
        <time>2017-05-31T13:08:13.000Z</time>
      </trkpt>
      <trkpt lat="45.65233" lon="4.74921">
        <ele>163</ele>
        <time>2017-05-31T13:08:14.000Z</time>
      </trkpt>
      <trkpt lat="45.65208" lon="4.74905">
        <ele>163</ele>
        <time>2017-05-31T13:08:20.000Z</time>
      </trkpt>
      <trkpt lat="45.65197" lon="4.74903">
        <ele>163</ele>
        <time>2017-05-31T13:08:22.000Z</time>
      </trkpt>
      <trkpt lat="45.65186" lon="4.74908">
        <ele>163</ele>
        <time>2017-05-31T13:08:24.000Z</time>
      </trkpt>
      <trkpt lat="45.65177" lon="4.74925">
        <ele>163</ele>
        <time>2017-05-31T13:08:27.000Z</time>
      </trkpt>
      <trkpt lat="45.65174" lon="4.74932">
        <ele>163</ele>
        <time>2017-05-31T13:08:28.000Z</time>
      </trkpt>
      <trkpt lat="45.65166" lon="4.74968">
        <ele>163</ele>
        <time>2017-05-31T13:08:33.000Z</time>
      </trkpt>
      <trkpt lat="45.6515" lon="4.75044">
        <ele>163</ele>
        <time>2017-05-31T13:08:44.000Z</time>
      </trkpt>
      <trkpt lat="45.65145" lon="4.75062">
        <ele>163</ele>
        <time>2017-05-31T13:08:47.000Z</time>
      </trkpt>
      <trkpt lat="45.65141" lon="4.75089">
        <ele>163</ele>
        <time>2017-05-31T13:08:51.000Z</time>
      </trkpt>
      <trkpt lat="45.6515" lon="4.7511">
        <ele>163</ele>
        <time>2017-05-31T13:08:55.000Z</time>
      </trkpt>
      <trkpt lat="45.65154" lon="4.75113">
        <ele>162.60000610352</ele>
        <time>2017-05-31T13:08:56.000Z</time>
      </trkpt>
      <trkpt lat="45.65159" lon="4.75114">
        <ele>162.19999694824</ele>
        <time>2017-05-31T13:08:57.000Z</time>
      </trkpt>
      <trkpt lat="45.65164" lon="4.75115">
        <ele>161.80000305176</ele>
        <time>2017-05-31T13:08:58.000Z</time>
      </trkpt>
      <trkpt lat="45.65169" lon="4.75115">
        <ele>161.39999389648</ele>
        <time>2017-05-31T13:08:59.000Z</time>
      </trkpt>
      <trkpt lat="45.65175" lon="4.75116">
        <ele>160.80000305176</ele>
        <time>2017-05-31T13:09:00.000Z</time>
      </trkpt>
      <trkpt lat="45.65205" lon="4.75117">
        <ele>160.80000305176</ele>
        <time>2017-05-31T13:09:06.000Z</time>
      </trkpt>
      <trkpt lat="45.6524" lon="4.75114">
        <ele>160.80000305176</ele>
        <time>2017-05-31T13:09:13.000Z</time>
      </trkpt>
      <trkpt lat="45.65281" lon="4.75107">
        <ele>160.80000305176</ele>
        <time>2017-05-31T13:09:22.000Z</time>
      </trkpt>
      <trkpt lat="45.65297" lon="4.75105">
        <ele>160.80000305176</ele>
        <time>2017-05-31T13:09:27.000Z</time>
      </trkpt>
      <trkpt lat="45.65307" lon="4.75107">
        <ele>160.80000305176</ele>
        <time>2017-05-31T13:09:32.000Z</time>
      </trkpt>
      <trkpt lat="45.65312" lon="4.75107">
        <ele>160.80000305176</ele>
        <time>2017-05-31T13:10:11.000Z</time>
      </trkpt>
      <trkpt lat="45.65318" lon="4.75106">
        <ele>160.80000305176</ele>
        <time>2017-05-31T13:10:13.000Z</time>
      </trkpt>
      <trkpt lat="45.65325" lon="4.75104">
        <ele>160.80000305176</ele>
        <time>2017-05-31T13:10:16.000Z</time>
      </trkpt>
      <trkpt lat="45.65329" lon="4.7511">
        <ele>160.80000305176</ele>
        <time>2017-05-31T13:10:18.000Z</time>
      </trkpt>
      <trkpt lat="45.65332" lon="4.7512">
        <ele>160.80000305176</ele>
        <time>2017-05-31T13:10:20.000Z</time>
      </trkpt>
      <trkpt lat="45.65333" lon="4.75137">
        <ele>160.80000305176</ele>
        <time>2017-05-31T13:10:23.000Z</time>
      </trkpt>
      <trkpt lat="45.65334" lon="4.75169">
        <ele>160.80000305176</ele>
        <time>2017-05-31T13:10:28.000Z</time>
      </trkpt>
      <trkpt lat="45.65334" lon="4.75175">
        <ele>160.80000305176</ele>
        <time>2017-05-31T13:10:29.000Z</time>
      </trkpt>
      <trkpt lat="45.65339" lon="4.75197">
        <ele>160.80000305176</ele>
        <time>2017-05-31T13:10:32.000Z</time>
      </trkpt>
      <trkpt lat="45.65345" lon="4.75218">
        <ele>160.80000305176</ele>
        <time>2017-05-31T13:10:35.000Z</time>
      </trkpt>
      <trkpt lat="45.65363" lon="4.75255">
        <ele>160.80000305176</ele>
        <time>2017-05-31T13:10:41.000Z</time>
      </trkpt>
      <trkpt lat="45.65384" lon="4.75281">
        <ele>160.80000305176</ele>
        <time>2017-05-31T13:10:46.000Z</time>
      </trkpt>
      <trkpt lat="45.65391" lon="4.7529">
        <ele>160.80000305176</ele>
        <time>2017-05-31T13:10:48.000Z</time>
      </trkpt>
      <trkpt lat="45.65416" lon="4.75325">
        <ele>160.80000305176</ele>
        <time>2017-05-31T13:10:56.000Z</time>
      </trkpt>
      <trkpt lat="45.65438" lon="4.75364">
        <ele>160.80000305176</ele>
        <time>2017-05-31T13:11:04.000Z</time>
      </trkpt>
      <trkpt lat="45.65455" lon="4.75406">
        <ele>160.80000305176</ele>
        <time>2017-05-31T13:11:12.000Z</time>
      </trkpt>
      <trkpt lat="45.65468" lon="4.7545">
        <ele>160.80000305176</ele>
        <time>2017-05-31T13:11:19.000Z</time>
      </trkpt>
      <trkpt lat="45.65471" lon="4.75512">
        <ele>160.80000305176</ele>
        <time>2017-05-31T13:11:27.000Z</time>
      </trkpt>
      <trkpt lat="45.65466" lon="4.75585">
        <ele>160.80000305176</ele>
        <time>2017-05-31T13:11:37.000Z</time>
      </trkpt>
      <trkpt lat="45.65461" lon="4.75649">
        <ele>160.80000305176</ele>
        <time>2017-05-31T13:11:46.000Z</time>
      </trkpt>
      <trkpt lat="45.65473" lon="4.75718">
        <ele>160.80000305176</ele>
        <time>2017-05-31T13:11:57.000Z</time>
      </trkpt>
      <trkpt lat="45.65475" lon="4.75724">
        <ele>160.80000305176</ele>
        <time>2017-05-31T13:11:58.000Z</time>
      </trkpt>
      <trkpt lat="45.65497" lon="4.75773">
        <ele>160.80000305176</ele>
        <time>2017-05-31T13:12:07.000Z</time>
      </trkpt>
      <trkpt lat="45.65525" lon="4.75832">
        <ele>160.80000305176</ele>
        <time>2017-05-31T13:12:19.000Z</time>
      </trkpt>
      <trkpt lat="45.6554" lon="4.75861">
        <ele>160.80000305176</ele>
        <time>2017-05-31T13:12:25.000Z</time>
      </trkpt>
      <trkpt lat="45.65547" lon="4.7587">
        <ele>160.80000305176</ele>
        <time>2017-05-31T13:12:27.000Z</time>
      </trkpt>
      <trkpt lat="45.65578" lon="4.7591">
        <ele>160.80000305176</ele>
        <time>2017-05-31T13:12:36.000Z</time>
      </trkpt>
      <trkpt lat="45.65602" lon="4.75943">
        <ele>160.80000305176</ele>
        <time>2017-05-31T13:12:44.000Z</time>
      </trkpt>
      <trkpt lat="45.65631" lon="4.75985">
        <ele>160.80000305176</ele>
        <time>2017-05-31T13:12:53.000Z</time>
      </trkpt>
      <trkpt lat="45.65645" lon="4.76015">
        <ele>160.80000305176</ele>
        <time>2017-05-31T13:12:59.000Z</time>
      </trkpt>
      <trkpt lat="45.65648" lon="4.76027">
        <ele>160.80000305176</ele>
        <time>2017-05-31T13:13:01.000Z</time>
      </trkpt>
      <trkpt lat="45.65655" lon="4.76047">
        <ele>160.80000305176</ele>
        <time>2017-05-31T13:13:04.000Z</time>
      </trkpt>
      <trkpt lat="45.6566" lon="4.76051">
        <ele>160.80000305176</ele>
        <time>2017-05-31T13:13:05.000Z</time>
      </trkpt>
      <trkpt lat="45.65681" lon="4.76073">
        <ele>160.80000305176</ele>
        <time>2017-05-31T13:13:09.000Z</time>
      </trkpt>
      <trkpt lat="45.65686" lon="4.76081">
        <ele>160.39999389648</ele>
        <time>2017-05-31T13:13:10.000Z</time>
      </trkpt>
      <trkpt lat="45.65691" lon="4.7609">
        <ele>160</ele>
        <time>2017-05-31T13:13:11.000Z</time>
      </trkpt>
      <trkpt lat="45.65696" lon="4.76099">
        <ele>159.39999389648</ele>
        <time>2017-05-31T13:13:12.000Z</time>
      </trkpt>
      <trkpt lat="45.65701" lon="4.76109">
        <ele>159</ele>
        <time>2017-05-31T13:13:13.000Z</time>
      </trkpt>
      <trkpt lat="45.65706" lon="4.76118">
        <ele>158.60000610352</ele>
        <time>2017-05-31T13:13:14.000Z</time>
      </trkpt>
      <trkpt lat="45.65716" lon="4.76138">
        <ele>158.19999694824</ele>
        <time>2017-05-31T13:13:16.000Z</time>
      </trkpt>
      <trkpt lat="45.65721" lon="4.76148">
        <ele>157.60000610352</ele>
        <time>2017-05-31T13:13:17.000Z</time>
      </trkpt>
      <trkpt lat="45.65725" lon="4.76159">
        <ele>157.19999694824</ele>
        <time>2017-05-31T13:13:18.000Z</time>
      </trkpt>
      <trkpt lat="45.65729" lon="4.7617">
        <ele>156.80000305176</ele>
        <time>2017-05-31T13:13:19.000Z</time>
      </trkpt>
      <trkpt lat="45.65732" lon="4.76181">
        <ele>156.39999389648</ele>
        <time>2017-05-31T13:13:20.000Z</time>
      </trkpt>
      <trkpt lat="45.65735" lon="4.76191">
        <ele>156.39999389648</ele>
        <time>2017-05-31T13:13:21.000Z</time>
      </trkpt>
      <trkpt lat="45.65745" lon="4.76255">
        <ele>156.39999389648</ele>
        <time>2017-05-31T13:13:27.000Z</time>
      </trkpt>
      <trkpt lat="45.65755" lon="4.7632">
        <ele>156.39999389648</ele>
        <time>2017-05-31T13:13:34.000Z</time>
      </trkpt>
      <trkpt lat="45.65758" lon="4.76346">
        <ele>156</ele>
        <time>2017-05-31T13:13:37.000Z</time>
      </trkpt>
      <trkpt lat="45.6576" lon="4.76354">
        <ele>155.60000610352</ele>
        <time>2017-05-31T13:13:38.000Z</time>
      </trkpt>
      <trkpt lat="45.6576" lon="4.76362">
        <ele>155</ele>
        <time>2017-05-31T13:13:39.000Z</time>
      </trkpt>
      <trkpt lat="45.65761" lon="4.7637">
        <ele>154.60000610352</ele>
        <time>2017-05-31T13:13:40.000Z</time>
      </trkpt>
      <trkpt lat="45.65763" lon="4.76378">
        <ele>154.19999694824</ele>
        <time>2017-05-31T13:13:41.000Z</time>
      </trkpt>
      <trkpt lat="45.65764" lon="4.76385">
        <ele>154.19999694824</ele>
        <time>2017-05-31T13:13:42.000Z</time>
      </trkpt>
      <trkpt lat="45.65772" lon="4.76433">
        <ele>154.19999694824</ele>
        <time>2017-05-31T13:13:49.000Z</time>
      </trkpt>
      <trkpt lat="45.65778" lon="4.76455">
        <ele>154.60000610352</ele>
        <time>2017-05-31T13:13:53.000Z</time>
      </trkpt>
      <trkpt lat="45.65779" lon="4.76459">
        <ele>155</ele>
        <time>2017-05-31T13:13:54.000Z</time>
      </trkpt>
      <trkpt lat="45.6578" lon="4.76464">
        <ele>155.39999389648</ele>
        <time>2017-05-31T13:13:55.000Z</time>
      </trkpt>
      <trkpt lat="45.65782" lon="4.76469">
        <ele>156</ele>
        <time>2017-05-31T13:13:56.000Z</time>
      </trkpt>
      <trkpt lat="45.65785" lon="4.76475">
        <ele>156.39999389648</ele>
        <time>2017-05-31T13:13:57.000Z</time>
      </trkpt>
      <trkpt lat="45.65791" lon="4.76483">
        <ele>156.39999389648</ele>
        <time>2017-05-31T13:13:59.000Z</time>
      </trkpt>
      <trkpt lat="45.65797" lon="4.76496">
        <ele>156.39999389648</ele>
        <time>2017-05-31T13:14:02.000Z</time>
      </trkpt>
      <trkpt lat="45.65807" lon="4.7652">
        <ele>156.39999389648</ele>
        <time>2017-05-31T13:14:08.000Z</time>
      </trkpt>
      <trkpt lat="45.65814" lon="4.76527">
        <ele>156.39999389648</ele>
        <time>2017-05-31T13:14:11.000Z</time>
      </trkpt>
      <trkpt lat="45.65818" lon="4.76526">
        <ele>156.39999389648</ele>
        <time>2017-05-31T13:14:12.000Z</time>
      </trkpt>
      <trkpt lat="45.65829" lon="4.7652">
        <ele>156.39999389648</ele>
        <time>2017-05-31T13:14:15.000Z</time>
      </trkpt>
      <trkpt lat="45.65837" lon="4.76516">
        <ele>156.39999389648</ele>
        <time>2017-05-31T13:14:17.000Z</time>
      </trkpt>
      <trkpt lat="45.65878" lon="4.76493">
        <ele>156.39999389648</ele>
        <time>2017-05-31T13:14:27.000Z</time>
      </trkpt>
      <trkpt lat="45.65908" lon="4.76475">
        <ele>156.39999389648</ele>
        <time>2017-05-31T13:14:34.000Z</time>
      </trkpt>
      <trkpt lat="45.6593" lon="4.7646">
        <ele>156.39999389648</ele>
        <time>2017-05-31T13:14:40.000Z</time>
      </trkpt>
      <trkpt lat="45.65954" lon="4.76449">
        <ele>156.39999389648</ele>
        <time>2017-05-31T13:14:45.000Z</time>
      </trkpt>
      <trkpt lat="45.65988" lon="4.76432">
        <ele>156.39999389648</ele>
        <time>2017-05-31T13:14:53.000Z</time>
      </trkpt>
      <trkpt lat="45.66026" lon="4.76415">
        <ele>156.39999389648</ele>
        <time>2017-05-31T13:15:02.000Z</time>
      </trkpt>
      <trkpt lat="45.66037" lon="4.76418">
        <ele>156.39999389648</ele>
        <time>2017-05-31T13:15:06.000Z</time>
      </trkpt>
      <trkpt lat="45.66048" lon="4.76421">
        <ele>156.39999389648</ele>
        <time>2017-05-31T13:15:12.000Z</time>
      </trkpt>
      <trkpt lat="45.66063" lon="4.76411">
        <ele>156.39999389648</ele>
        <time>2017-05-31T13:15:17.000Z</time>
      </trkpt>
      <trkpt lat="45.66083" lon="4.76401">
        <ele>156.39999389648</ele>
        <time>2017-05-31T13:15:22.000Z</time>
      </trkpt>
      <trkpt lat="45.66125" lon="4.7639">
        <ele>156.39999389648</ele>
        <time>2017-05-31T13:15:31.000Z</time>
      </trkpt>
      <trkpt lat="45.66163" lon="4.76382">
        <ele>156.39999389648</ele>
        <time>2017-05-31T13:15:40.000Z</time>
      </trkpt>
      <trkpt lat="45.6621" lon="4.76372">
        <ele>156.39999389648</ele>
        <time>2017-05-31T13:15:51.000Z</time>
      </trkpt>
      <trkpt lat="45.66222" lon="4.76369">
        <ele>156.80000305176</ele>
        <time>2017-05-31T13:15:54.000Z</time>
      </trkpt>
      <trkpt lat="45.66225" lon="4.76368">
        <ele>157.19999694824</ele>
        <time>2017-05-31T13:15:55.000Z</time>
      </trkpt>
      <trkpt lat="45.66229" lon="4.76367">
        <ele>157.60000610352</ele>
        <time>2017-05-31T13:15:56.000Z</time>
      </trkpt>
      <trkpt lat="45.66233" lon="4.76366">
        <ele>158</ele>
        <time>2017-05-31T13:15:57.000Z</time>
      </trkpt>
      <trkpt lat="45.66237" lon="4.76365">
        <ele>158.39999389648</ele>
        <time>2017-05-31T13:15:58.000Z</time>
      </trkpt>
      <trkpt lat="45.6624" lon="4.76363">
        <ele>158.39999389648</ele>
        <time>2017-05-31T13:15:59.000Z</time>
      </trkpt>
      <trkpt lat="45.66275" lon="4.76354">
        <ele>158.39999389648</ele>
        <time>2017-05-31T13:16:07.000Z</time>
      </trkpt>
      <trkpt lat="45.66319" lon="4.76337">
        <ele>158.39999389648</ele>
        <time>2017-05-31T13:16:18.000Z</time>
      </trkpt>
      <trkpt lat="45.66351" lon="4.76309">
        <ele>158.39999389648</ele>
        <time>2017-05-31T13:16:26.000Z</time>
      </trkpt>
      <trkpt lat="45.66376" lon="4.76261">
        <ele>158.39999389648</ele>
        <time>2017-05-31T13:16:35.000Z</time>
      </trkpt>
      <trkpt lat="45.66396" lon="4.76221">
        <ele>158.39999389648</ele>
        <time>2017-05-31T13:16:43.000Z</time>
      </trkpt>
      <trkpt lat="45.66411" lon="4.76201">
        <ele>158.39999389648</ele>
        <time>2017-05-31T13:16:47.000Z</time>
      </trkpt>
      <trkpt lat="45.66419" lon="4.76193">
        <ele>158.39999389648</ele>
        <time>2017-05-31T13:16:49.000Z</time>
      </trkpt>
      <trkpt lat="45.66453" lon="4.76177">
        <ele>158.39999389648</ele>
        <time>2017-05-31T13:16:56.000Z</time>
      </trkpt>
      <trkpt lat="45.66481" lon="4.76177">
        <ele>158.39999389648</ele>
        <time>2017-05-31T13:17:02.000Z</time>
      </trkpt>
      <trkpt lat="45.66519" lon="4.76179">
        <ele>158.39999389648</ele>
        <time>2017-05-31T13:17:11.000Z</time>
      </trkpt>
      <trkpt lat="45.6654" lon="4.76178">
        <ele>158.80000305176</ele>
        <time>2017-05-31T13:17:16.000Z</time>
      </trkpt>
      <trkpt lat="45.66544" lon="4.76177">
        <ele>159.19999694824</ele>
        <time>2017-05-31T13:17:17.000Z</time>
      </trkpt>
      <trkpt lat="45.66548" lon="4.76176">
        <ele>159.60000610352</ele>
        <time>2017-05-31T13:17:18.000Z</time>
      </trkpt>
      <trkpt lat="45.66552" lon="4.76175">
        <ele>160.19999694824</ele>
        <time>2017-05-31T13:17:19.000Z</time>
      </trkpt>
      <trkpt lat="45.66557" lon="4.76174">
        <ele>160.60000610352</ele>
        <time>2017-05-31T13:17:20.000Z</time>
      </trkpt>
      <trkpt lat="45.66578" lon="4.76166">
        <ele>160.60000610352</ele>
        <time>2017-05-31T13:17:25.000Z</time>
      </trkpt>
      <trkpt lat="45.66582" lon="4.76163">
        <ele>160.60000610352</ele>
        <time>2017-05-31T13:17:26.000Z</time>
      </trkpt>
      <trkpt lat="45.66598" lon="4.76157">
        <ele>160.60000610352</ele>
        <time>2017-05-31T13:17:31.000Z</time>
      </trkpt>
      <trkpt lat="45.66615" lon="4.7616">
        <ele>160.60000610352</ele>
        <time>2017-05-31T13:17:35.000Z</time>
      </trkpt>
      <trkpt lat="45.6662" lon="4.76161">
        <ele>160.60000610352</ele>
        <time>2017-05-31T13:17:36.000Z</time>
      </trkpt>
      <trkpt lat="45.66643" lon="4.76163">
        <ele>160.60000610352</ele>
        <time>2017-05-31T13:17:41.000Z</time>
      </trkpt>
      <trkpt lat="45.66652" lon="4.76162">
        <ele>160.60000610352</ele>
        <time>2017-05-31T13:17:43.000Z</time>
      </trkpt>
      <trkpt lat="45.66694" lon="4.76157">
        <ele>160.60000610352</ele>
        <time>2017-05-31T13:17:52.000Z</time>
      </trkpt>
      <trkpt lat="45.66731" lon="4.76158">
        <ele>160.60000610352</ele>
        <time>2017-05-31T13:18:00.000Z</time>
      </trkpt>
      <trkpt lat="45.66768" lon="4.76162">
        <ele>160.60000610352</ele>
        <time>2017-05-31T13:18:08.000Z</time>
      </trkpt>
      <trkpt lat="45.6679" lon="4.76163">
        <ele>160.60000610352</ele>
        <time>2017-05-31T13:18:14.000Z</time>
      </trkpt>
      <trkpt lat="45.6682" lon="4.76152">
        <ele>160.60000610352</ele>
        <time>2017-05-31T13:18:22.000Z</time>
      </trkpt>
      <trkpt lat="45.66853" lon="4.76138">
        <ele>160.60000610352</ele>
        <time>2017-05-31T13:18:32.000Z</time>
      </trkpt>
      <trkpt lat="45.66856" lon="4.76136">
        <ele>161</ele>
        <time>2017-05-31T13:18:33.000Z</time>
      </trkpt>
      <trkpt lat="45.66858" lon="4.76133">
        <ele>161.39999389648</ele>
        <time>2017-05-31T13:18:34.000Z</time>
      </trkpt>
      <trkpt lat="45.6686" lon="4.76131">
        <ele>161.80000305176</ele>
        <time>2017-05-31T13:18:35.000Z</time>
      </trkpt>
      <trkpt lat="45.66863" lon="4.76129">
        <ele>162.19999694824</ele>
        <time>2017-05-31T13:18:36.000Z</time>
      </trkpt>
      <trkpt lat="45.66865" lon="4.76127">
        <ele>162.80000305176</ele>
        <time>2017-05-31T13:18:37.000Z</time>
      </trkpt>
      <trkpt lat="45.66871" lon="4.76125">
        <ele>162.80000305176</ele>
        <time>2017-05-31T13:18:40.000Z</time>
      </trkpt>
      <trkpt lat="45.66874" lon="4.76125">
        <ele>162.80000305176</ele>
        <time>2017-05-31T13:18:42.000Z</time>
      </trkpt>
      <trkpt lat="45.66892" lon="4.76124">
        <ele>162.80000305176</ele>
        <time>2017-05-31T13:18:47.000Z</time>
      </trkpt>
      <trkpt lat="45.6692" lon="4.76121">
        <ele>162.80000305176</ele>
        <time>2017-05-31T13:18:56.000Z</time>
      </trkpt>
      <trkpt lat="45.66944" lon="4.76115">
        <ele>162.80000305176</ele>
        <time>2017-05-31T13:19:04.000Z</time>
      </trkpt>
      <trkpt lat="45.66975" lon="4.76114">
        <ele>162.80000305176</ele>
        <time>2017-05-31T13:19:12.000Z</time>
      </trkpt>
      <trkpt lat="45.67004" lon="4.76114">
        <ele>162.80000305176</ele>
        <time>2017-05-31T13:19:19.000Z</time>
      </trkpt>
      <trkpt lat="45.67039" lon="4.76109">
        <ele>162.80000305176</ele>
        <time>2017-05-31T13:19:28.000Z</time>
      </trkpt>
      <trkpt lat="45.67046" lon="4.76116">
        <ele>162.80000305176</ele>
        <time>2017-05-31T13:19:30.000Z</time>
      </trkpt>
      <trkpt lat="45.67047" lon="4.76122">
        <ele>162.80000305176</ele>
        <time>2017-05-31T13:19:31.000Z</time>
      </trkpt>
      <trkpt lat="45.67047" lon="4.7614">
        <ele>162.80000305176</ele>
        <time>2017-05-31T13:19:34.000Z</time>
      </trkpt>
      <trkpt lat="45.67048" lon="4.76148">
        <ele>162.80000305176</ele>
        <time>2017-05-31T13:19:35.000Z</time>
      </trkpt>
      <trkpt lat="45.67046" lon="4.7618">
        <ele>162.80000305176</ele>
        <time>2017-05-31T13:19:41.000Z</time>
      </trkpt>
      <trkpt lat="45.67047" lon="4.76179">
        <ele>162.80000305176</ele>
        <time>2017-05-31T13:19:43.000Z</time>
      </trkpt>
      <trkpt lat="45.67048" lon="4.7619">
        <ele>162.80000305176</ele>
        <time>2017-05-31T13:19:49.000Z</time>
      </trkpt>
      <trkpt lat="45.67046" lon="4.76213">
        <ele>162.80000305176</ele>
        <time>2017-05-31T13:19:57.000Z</time>
      </trkpt>
      <trkpt lat="45.67055" lon="4.76236">
        <ele>162.80000305176</ele>
        <time>2017-05-31T13:20:03.000Z</time>
      </trkpt>
      <trkpt lat="45.67073" lon="4.76238">
        <ele>162.80000305176</ele>
        <time>2017-05-31T13:20:08.000Z</time>
      </trkpt>
      <trkpt lat="45.67091" lon="4.76239">
        <ele>162.80000305176</ele>
        <time>2017-05-31T13:20:13.000Z</time>
      </trkpt>
      <trkpt lat="45.67095" lon="4.7624">
        <ele>162.80000305176</ele>
        <time>2017-05-31T13:20:14.000Z</time>
      </trkpt>
      <trkpt lat="45.67122" lon="4.76252">
        <ele>162.80000305176</ele>
        <time>2017-05-31T13:20:22.000Z</time>
      </trkpt>
      <trkpt lat="45.67161" lon="4.76269">
        <ele>162.80000305176</ele>
        <time>2017-05-31T13:20:32.000Z</time>
      </trkpt>
      <trkpt lat="45.67195" lon="4.76293">
        <ele>162.80000305176</ele>
        <time>2017-05-31T13:20:42.000Z</time>
      </trkpt>
      <trkpt lat="45.67223" lon="4.76317">
        <ele>162.80000305176</ele>
        <time>2017-05-31T13:20:51.000Z</time>
      </trkpt>
      <trkpt lat="45.67255" lon="4.76347">
        <ele>162.80000305176</ele>
        <time>2017-05-31T13:21:00.000Z</time>
      </trkpt>
      <trkpt lat="45.67258" lon="4.76351">
        <ele>162.80000305176</ele>
        <time>2017-05-31T13:21:01.000Z</time>
      </trkpt>
      <trkpt lat="45.67293" lon="4.76392">
        <ele>162.80000305176</ele>
        <time>2017-05-31T13:21:11.000Z</time>
      </trkpt>
      <trkpt lat="45.673" lon="4.76399">
        <ele>162.80000305176</ele>
        <time>2017-05-31T13:21:13.000Z</time>
      </trkpt>
      <trkpt lat="45.67316" lon="4.76414">
        <ele>162.80000305176</ele>
        <time>2017-05-31T13:21:18.000Z</time>
      </trkpt>
      <trkpt lat="45.67327" lon="4.76422">
        <ele>162.80000305176</ele>
        <time>2017-05-31T13:21:23.000Z</time>
      </trkpt>
      <trkpt lat="45.67344" lon="4.76439">
        <ele>162.80000305176</ele>
        <time>2017-05-31T13:21:30.000Z</time>
      </trkpt>
      <trkpt lat="45.67357" lon="4.76442">
        <ele>162.80000305176</ele>
        <time>2017-05-31T13:21:35.000Z</time>
      </trkpt>
      <trkpt lat="45.67363" lon="4.76432">
        <ele>163.19999694824</ele>
        <time>2017-05-31T13:21:39.000Z</time>
      </trkpt>
      <trkpt lat="45.67363" lon="4.7643">
        <ele>163.60000610352</ele>
        <time>2017-05-31T13:21:40.000Z</time>
      </trkpt>
      <trkpt lat="45.67365" lon="4.76429">
        <ele>164</ele>
        <time>2017-05-31T13:21:41.000Z</time>
      </trkpt>
      <trkpt lat="45.67367" lon="4.76431">
        <ele>164.39999389648</ele>
        <time>2017-05-31T13:21:42.000Z</time>
      </trkpt>
      <trkpt lat="45.67369" lon="4.76432">
        <ele>164.80000305176</ele>
        <time>2017-05-31T13:21:43.000Z</time>
      </trkpt>
      <trkpt lat="45.67381" lon="4.7645">
        <ele>164.80000305176</ele>
        <time>2017-05-31T13:21:50.000Z</time>
      </trkpt>
      <trkpt lat="45.67393" lon="4.76464">
        <ele>164.80000305176</ele>
        <time>2017-05-31T13:21:58.000Z</time>
      </trkpt>
      <trkpt lat="45.67395" lon="4.76471">
        <ele>164.80000305176</ele>
        <time>2017-05-31T13:22:01.000Z</time>
      </trkpt>
      <trkpt lat="45.67398" lon="4.76475">
        <ele>164.80000305176</ele>
        <time>2017-05-31T13:22:05.000Z</time>
      </trkpt>
    </trkseg>
  </trk>
</gpx>